Brandt, Peter (2026): Master tracks in different resolutions of METEOR cruise M219, Recife - Emden, 2026-05-29 - 2026-06-28 [dataset]. GEOMAR - Helmholtz Centre for Ocean Research Kiel, PANGAEA, https://doi.pangaea.de/10.1594/PANGAEA.996839 (DOI registration in progress)
Always quote citation above when using data! You can download the citation in several formats below.
Published: 2026-08-24
Abstract:
Abstract: Raw data acquired by position sensors on board RV METEOR during expedition M219 were processed to receive a validated master track which can be used as reference of further expedition data. During M219 the motion reference unit Kongsberg SeaTex AS MRU-5 combined with Kongsberg SeaTex AS Seapath 320 and two SAAB R6 DGPS receiver were used as navigation sensors. Data were downloaded from Insightics Marine DSHIP Extraction (https://dship.o2a-data.de/) with a resolution of 1 sec. Processing and evaluation of the data is outlined in the data processing report. Processed data are provided as a master track with 1 sec resolution derived from the position sensors' data selected by priority and a generalized track with a reduced set of the most significant positions of the master track.
Other version:
Brandt, Peter (2026): Master track of METEOR cruise M219 in 1 sec resolution (zipped, 111 MB) [dataset]. GEOMAR - Helmholtz Centre for Ocean Research Kiel, PANGAEA, https://doi.pangaea.de/10.1594/PANGAEA.996840
Data processing report:
Further details:
Project(s):
AI BaseCamp - Helmholtz DataHub Earth & Environment (AI_BaseCamp)
DAM Marine Data - Research Vessels (DAM_ResearchVessels)
Funding:
Bundesministerium für
Forschung, Technologie und Raumfahrt (BMFTR), grant/award no. 03F1001E: Auf- und Ausbau Dateninfrastruktur und -management für Daten aus dem Betrieb deutscher Forschungsschiffe; Vorhaben: Bathymetrie-, Sedimentecholot-, Seismik- sowie weitere Unterwegs- und Forschungsmissionsdaten
Coverage:
Median Latitude: 14.456643 * Median Longitude: -21.438790 * South-bound Latitude: -11.500262 * West-bound Longitude: -35.903726 * North-bound Latitude: 53.677278 * East-bound Longitude: 6.821714
Date/Time Start: 2026-05-29T08:20:02 * Date/Time End: 2026-06-28T07:59:49
Event(s):
M219-track * Latitude Start: -8.057226 * Longitude Start: -34.868643 * Latitude End: 53.489128 * Longitude End: 6.821714 * Date/Time Start: 2026-05-29T08:00:02 * Date/Time End: 2026-06-28T07:59:49 * Campaign: M219 (WAVES) * Basis: Meteor (1986) * Method/Device: Underway cruise track measurements (CT) * Comment: Recife - Emden
Comment:
This dataset contains the master track in 10 min resolution, for other resolutions please see "Other version" references.
Parameter(s):
License:
Creative Commons Attribution 4.0 International (CC-BY-4.0)
Status:
Curation Level: Enhanced curation (CurationLevelC)
Size:
8638 data points
Data
| 1 Date/Time | 2 Latitude | 3 Longitude | 4 Speed [kn] | 5 Course [deg] |
|---|---|---|---|---|
| 2026-05-29T08:20 | -8.05723 | -34.86864 | 0.000 | 90.0 |
| 2026-05-29T08:30 | -8.05723 | -34.86864 | 0.001 | 296.6 |
| 2026-05-29T08:40 | -8.05723 | -34.86864 | 0.001 | 315.1 |
| 2026-05-29T08:50 | -8.05723 | -34.86865 | 0.001 | 315.1 |
| 2026-05-29T09:00 | -8.05723 | -34.86864 | 0.001 | 116.6 |
| 2026-05-29T09:10 | -8.05723 | -34.86864 | 0.000 | 0.0 |
| 2026-05-29T09:20 | -8.05723 | -34.86864 | 0.000 | 90.0 |
| 2026-05-29T09:30 | -8.05723 | -34.86864 | 0.001 | 270.0 |
| 2026-05-29T09:40 | -8.05723 | -34.86864 | 0.001 | 135.1 |
| 2026-05-29T09:50 | -8.05723 | -34.86864 | 0.000 | 90.0 |
| 2026-05-29T10:00 | -8.05723 | -34.86864 | 0.000 | 180.0 |
| 2026-05-29T10:10 | -8.05723 | -34.86864 | 0.001 | 296.6 |
| 2026-05-29T10:20 | -8.05722 | -34.86864 | 0.001 | 26.5 |
| 2026-05-29T10:30 | -8.05722 | -34.86864 | 0.001 | 315.1 |
| 2026-05-29T10:40 | -8.05722 | -34.86864 | 0.001 | 135.1 |
| 2026-05-29T10:50 | -8.05722 | -34.86864 | 0.000 | 270.0 |
| 2026-05-29T11:00 | -8.05722 | -34.86864 | 0.001 | 90.0 |
| 2026-05-29T11:10 | -8.05722 | -34.86864 | 0.000 | 0.0 |
| 2026-05-29T11:20 | -8.05722 | -34.86864 | 0.001 | 315.1 |
| 2026-05-29T11:30 | -8.05722 | -34.86864 | 0.000 | 0.0 |
| 2026-05-29T11:40 | -8.05722 | -34.86864 | 0.001 | 44.9 |
| 2026-05-29T11:50 | -8.05722 | -34.86864 | 0.001 | 270.0 |
| 2026-05-29T12:00 | -8.05722 | -34.86864 | 0.001 | 224.9 |
| 2026-05-29T12:10 | -8.05722 | -34.86864 | 0.000 | 90.0 |
| 2026-05-29T12:20 | -8.05722 | -34.86864 | 0.000 | 0.0 |
| 2026-05-29T12:30 | -8.05722 | -34.86864 | 0.001 | 0.0 |
| 2026-05-29T12:40 | -8.05722 | -34.86864 | 0.001 | 315.1 |
| 2026-05-29T12:50 | -8.05722 | -34.86864 | 0.000 | 0.0 |
| 2026-05-29T13:00 | -8.05722 | -34.86864 | 0.000 | 90.0 |
| 2026-05-29T13:10 | -8.05722 | -34.86864 | 0.001 | 26.5 |
| 2026-05-29T13:20 | -8.05722 | -34.86864 | 0.001 | 224.9 |
| 2026-05-29T13:30 | -8.05722 | -34.86864 | 0.001 | 75.9 |
| 2026-05-29T13:40 | -8.05722 | -34.86864 | 0.000 | 0.0 |
| 2026-05-29T13:50 | -8.05722 | -34.86864 | 0.001 | 243.4 |
| 2026-05-29T14:00 | -8.05722 | -34.86864 | 0.000 | 90.0 |
| 2026-05-29T14:10 | -8.05722 | -34.86864 | 0.001 | 224.9 |
| 2026-05-29T14:20 | -8.05722 | -34.86864 | 0.000 | 0.0 |
| 2026-05-29T14:30 | -8.05722 | -34.86864 | 0.000 | 180.0 |
| 2026-05-29T14:40 | -8.05722 | -34.86864 | 0.000 | 0.0 |
| 2026-05-29T14:50 | -8.05722 | -34.86864 | 0.000 | 270.0 |
| 2026-05-29T15:00 | -8.05722 | -34.86864 | 0.000 | 0.0 |
| 2026-05-29T15:10 | -8.05722 | -34.86864 | 0.000 | 180.0 |
| 2026-05-29T15:20 | -8.05722 | -34.86864 | 0.000 | 180.0 |
| 2026-05-29T15:30 | -8.05722 | -34.86864 | 0.001 | 315.1 |
| 2026-05-29T15:40 | -8.05722 | -34.86865 | 0.001 | 315.1 |
| 2026-05-29T15:50 | -8.05722 | -34.86864 | 0.001 | 90.0 |
| 2026-05-29T16:00 | -8.05722 | -34.86863 | 0.003 | 110.6 |
| 2026-05-29T16:10 | -8.05475 | -34.86709 | 1.043 | 31.8 |
| 2026-05-29T16:20 | -8.04590 | -34.85979 | 4.102 | 39.4 |
| 2026-05-29T16:30 | -8.05100 | -34.85580 | 2.318 | 142.0 |
| 2026-05-29T16:40 | -8.07054 | -34.84514 | 7.963 | 151.5 |
| 2026-05-29T16:50 | -8.08338 | -34.82006 | 10.065 | 117.2 |
| 2026-05-29T17:00 | -8.10808 | -34.81361 | 9.140 | 165.4 |
| 2026-05-29T17:10 | -8.13458 | -34.81150 | 9.521 | 175.5 |
| 2026-05-29T17:20 | -8.16027 | -34.80948 | 9.226 | 175.5 |
| 2026-05-29T17:30 | -8.18637 | -34.80742 | 9.377 | 175.5 |
| 2026-05-29T17:40 | -8.21278 | -34.80536 | 9.487 | 175.6 |
| 2026-05-29T17:50 | -8.24029 | -34.80319 | 9.883 | 175.5 |
| 2026-05-29T18:00 | -8.26790 | -34.80103 | 9.916 | 175.6 |
| 2026-05-29T18:10 | -8.29539 | -34.79887 | 9.875 | 175.5 |
| 2026-05-29T18:20 | -8.32239 | -34.79660 | 9.701 | 175.2 |
| 2026-05-29T18:30 | -8.34899 | -34.79456 | 9.554 | 175.6 |
| 2026-05-29T18:40 | -8.37554 | -34.79248 | 9.537 | 175.5 |
| 2026-05-29T18:50 | -8.40196 | -34.79048 | 9.488 | 175.7 |
| 2026-05-29T19:00 | -8.42826 | -34.78842 | 9.450 | 175.6 |
| 2026-05-29T19:10 | -8.45459 | -34.78636 | 9.455 | 175.5 |
| 2026-05-29T19:20 | -8.48146 | -34.78427 | 9.653 | 175.6 |
| 2026-05-29T19:30 | -8.50861 | -34.78214 | 9.751 | 175.5 |
| 2026-05-29T19:40 | -8.53603 | -34.78001 | 9.851 | 175.6 |
| 2026-05-29T19:50 | -8.56364 | -34.77787 | 9.916 | 175.6 |
| 2026-05-29T20:00 | -8.58593 | -34.77616 | 8.007 | 175.6 |
| 2026-05-29T20:10 | -8.60024 | -34.77506 | 5.139 | 175.6 |
| 2026-05-29T20:20 | -8.62586 | -34.77306 | 9.203 | 175.6 |
| 2026-05-29T20:30 | -8.65389 | -34.77090 | 10.068 | 175.6 |
| 2026-05-29T20:40 | -8.68129 | -34.76881 | 9.839 | 175.7 |
| 2026-05-29T20:50 | -8.70788 | -34.76672 | 9.553 | 175.5 |
| 2026-05-29T21:00 | -8.73413 | -34.76469 | 9.428 | 175.6 |
| 2026-05-29T21:10 | -8.76075 | -34.76264 | 9.561 | 175.6 |
| 2026-05-29T21:20 | -8.78748 | -34.76058 | 9.599 | 175.6 |
| 2026-05-29T21:30 | -8.81240 | -34.76521 | 9.077 | 190.5 |
| 2026-05-29T21:40 | -8.83513 | -34.77980 | 9.658 | 212.6 |
| 2026-05-29T21:50 | -8.85768 | -34.79428 | 9.582 | 212.6 |
| 2026-05-29T22:00 | -8.88150 | -34.80962 | 10.130 | 212.6 |
| 2026-05-29T22:10 | -8.90560 | -34.82515 | 10.252 | 212.7 |
| 2026-05-29T22:20 | -8.92918 | -34.84033 | 10.026 | 212.6 |
| 2026-05-29T22:30 | -8.95287 | -34.85558 | 10.074 | 212.6 |
| 2026-05-29T22:40 | -8.97687 | -34.87104 | 10.208 | 212.6 |
| 2026-05-29T22:50 | -9.00116 | -34.88667 | 10.327 | 212.6 |
| 2026-05-29T23:00 | -9.02568 | -34.90248 | 10.430 | 212.7 |
| 2026-05-29T23:10 | -9.05017 | -34.91825 | 10.412 | 212.6 |
| 2026-05-29T23:20 | -9.07436 | -34.93384 | 10.289 | 212.6 |
| 2026-05-29T23:30 | -9.09840 | -34.94933 | 10.223 | 212.6 |
| 2026-05-29T23:40 | -9.12312 | -34.96525 | 10.513 | 212.6 |
| 2026-05-29T23:50 | -9.14842 | -34.98157 | 10.761 | 212.7 |
| 2026-05-30T00:00 | -9.17375 | -34.99787 | 10.768 | 212.6 |
| 2026-05-30T00:10 | -9.19879 | -35.01401 | 10.649 | 212.6 |
| 2026-05-30T00:20 | -9.22341 | -35.02986 | 10.468 | 212.6 |
| 2026-05-30T00:30 | -9.24817 | -35.04583 | 10.532 | 212.7 |
| 2026-05-30T00:40 | -9.27291 | -35.06178 | 10.521 | 212.6 |
| 2026-05-30T00:50 | -9.29771 | -35.07776 | 10.544 | 212.6 |
| 2026-05-30T01:00 | -9.32256 | -35.09378 | 10.570 | 212.7 |
| 2026-05-30T01:10 | -9.34747 | -35.10983 | 10.592 | 212.6 |
| 2026-05-30T01:20 | -9.37238 | -35.12590 | 10.593 | 212.7 |
| 2026-05-30T01:30 | -9.39717 | -35.14187 | 10.541 | 212.6 |
| 2026-05-30T01:40 | -9.42194 | -35.15785 | 10.534 | 212.6 |
| 2026-05-30T01:50 | -9.44688 | -35.17392 | 10.607 | 212.6 |
| 2026-05-30T02:00 | -9.47165 | -35.18990 | 10.533 | 212.6 |
| 2026-05-30T02:10 | -9.49607 | -35.20565 | 10.383 | 212.6 |
| 2026-05-30T02:20 | -9.52076 | -35.22158 | 10.503 | 212.6 |
| 2026-05-30T02:30 | -9.54558 | -35.23760 | 10.555 | 212.6 |
| 2026-05-30T02:40 | -9.57026 | -35.25352 | 10.497 | 212.6 |
| 2026-05-30T02:50 | -9.59474 | -35.26929 | 10.404 | 212.6 |
| 2026-05-30T03:00 | -9.61925 | -35.28512 | 10.426 | 212.6 |
| 2026-05-30T03:10 | -9.64396 | -35.30106 | 10.509 | 212.6 |
| 2026-05-30T03:20 | -9.66849 | -35.31690 | 10.433 | 212.7 |
| 2026-05-30T03:30 | -9.69268 | -35.33250 | 10.285 | 212.6 |
| 2026-05-30T03:40 | -9.71679 | -35.34804 | 10.250 | 212.6 |
| 2026-05-30T03:50 | -9.74108 | -35.36372 | 10.331 | 212.6 |
| 2026-05-30T04:00 | -9.76513 | -35.37926 | 10.232 | 212.7 |
| 2026-05-30T04:10 | -9.78862 | -35.39443 | 9.988 | 212.6 |
| 2026-05-30T04:20 | -9.80846 | -35.41260 | 9.603 | 222.2 |
| 2026-05-30T04:30 | -9.82659 | -35.43333 | 9.816 | 228.6 |
| 2026-05-30T04:40 | -9.84494 | -35.45435 | 9.945 | 228.6 |
| 2026-05-30T04:50 | -9.86374 | -35.47589 | 10.193 | 228.7 |
| 2026-05-30T05:00 | -9.88252 | -35.49743 | 10.186 | 228.7 |
| 2026-05-30T05:10 | -9.90139 | -35.51902 | 10.221 | 228.6 |
| 2026-05-30T05:20 | -9.92013 | -35.54050 | 10.160 | 228.7 |
| 2026-05-30T05:30 | -9.93926 | -35.56237 | 10.355 | 228.6 |
| 2026-05-30T05:40 | -9.95824 | -35.58416 | 10.299 | 228.7 |
| 2026-05-30T05:50 | -9.97670 | -35.60532 | 10.008 | 228.7 |
| 2026-05-30T06:00 | -9.99543 | -35.62678 | 10.152 | 228.6 |
| 2026-05-30T06:10 | -10.01539 | -35.61917 | 7.641 | 159.3 |
| 2026-05-30T06:20 | -10.03380 | -35.63934 | 9.731 | 227.3 |
| 2026-05-30T06:30 | -10.05148 | -35.66219 | 10.292 | 232.0 |
| 2026-05-30T06:40 | -10.06959 | -35.68553 | 10.521 | 231.9 |
| 2026-05-30T06:50 | -10.08741 | -35.70861 | 10.381 | 232.1 |
| 2026-05-30T07:00 | -10.10513 | -35.73146 | 10.300 | 231.9 |
| 2026-05-30T07:10 | -10.12308 | -35.75466 | 10.445 | 232.0 |
| 2026-05-30T07:20 | -10.14135 | -35.77823 | 10.620 | 231.9 |
| 2026-05-30T07:30 | -10.15952 | -35.80173 | 10.578 | 232.0 |
| 2026-05-30T07:40 | -10.17780 | -35.82535 | 10.634 | 232.0 |
| 2026-05-30T07:50 | -10.19634 | -35.84936 | 10.803 | 232.1 |
| 2026-05-30T08:00 | -10.21498 | -35.87339 | 10.828 | 231.9 |
| 2026-05-30T08:10 | -10.23077 | -35.89901 | 10.706 | 238.1 |
| 2026-05-30T08:20 | -10.23662 | -35.90315 | 2.559 | 215.0 |
| 2026-05-30T08:30 | -10.23666 | -35.90319 | 0.017 | 227.2 |
| 2026-05-30T08:40 | -10.23665 | -35.90314 | 0.017 | 87.5 |
| 2026-05-30T08:50 | -10.23232 | -35.89633 | 2.872 | 57.3 |
| 2026-05-30T09:00 | -10.22552 | -35.88728 | 4.032 | 52.8 |
| 2026-05-30T09:10 | -10.22144 | -35.88156 | 2.497 | 54.3 |
| 2026-05-30T09:20 | -10.22185 | -35.88143 | 0.152 | 161.8 |
| 2026-05-30T09:30 | -10.22512 | -35.87403 | 2.873 | 114.1 |
| 2026-05-30T09:40 | -10.22840 | -35.86514 | 3.367 | 110.4 |
| 2026-05-30T09:50 | -10.23001 | -35.86090 | 1.611 | 110.9 |
| 2026-05-30T10:00 | -10.23000 | -35.86089 | 0.003 | 31.8 |
| 2026-05-30T10:10 | -10.23001 | -35.86090 | 0.006 | 222.2 |
| 2026-05-30T10:20 | -10.23001 | -35.86089 | 0.003 | 82.8 |
| 2026-05-30T10:30 | -10.23000 | -35.86077 | 0.044 | 83.5 |
| 2026-05-30T10:40 | -10.22575 | -35.85915 | 1.624 | 20.7 |
| 2026-05-30T10:50 | -10.22545 | -35.86098 | 0.657 | 279.6 |
| 2026-05-30T11:00 | -10.23350 | -35.86062 | 2.886 | 177.5 |
| 2026-05-30T11:10 | -10.23313 | -35.86158 | 0.368 | 291.0 |
| 2026-05-30T11:20 | -10.23313 | -35.86157 | 0.006 | 93.2 |
| 2026-05-30T11:30 | -10.23313 | -35.86154 | 0.009 | 82.8 |
| 2026-05-30T11:40 | -10.23566 | -35.85962 | 1.135 | 143.1 |
| 2026-05-30T11:50 | -10.24545 | -35.85107 | 4.636 | 139.1 |
| 2026-05-30T12:00 | -10.24461 | -35.85140 | 0.325 | 339.1 |
| 2026-05-30T12:10 | -10.24591 | -35.85097 | 0.489 | 161.9 |
| 2026-05-30T12:20 | -10.25595 | -35.85307 | 3.675 | 191.7 |
| 2026-05-30T12:30 | -10.26423 | -35.86878 | 6.315 | 242.0 |
| 2026-05-30T12:40 | -10.26152 | -35.86654 | 1.257 | 39.4 |
| 2026-05-30T12:50 | -10.26316 | -35.86525 | 0.743 | 142.2 |
| 2026-05-30T13:00 | -10.26324 | -35.86208 | 1.128 | 91.6 |
| 2026-05-30T13:10 | -10.26232 | -35.85922 | 1.066 | 71.8 |
| 2026-05-30T13:20 | -10.26140 | -35.85932 | 0.331 | 354.0 |
| 2026-05-30T13:30 | -10.25935 | -35.86042 | 0.831 | 332.0 |
| 2026-05-30T13:40 | -10.25702 | -35.86113 | 0.870 | 343.1 |
| 2026-05-30T13:50 | -10.25453 | -35.86186 | 0.929 | 343.8 |
| 2026-05-30T14:00 | -10.25965 | -35.85082 | 4.325 | 115.1 |
| 2026-05-30T14:10 | -10.27485 | -35.83038 | 9.067 | 126.9 |
| 2026-05-30T14:20 | -10.29050 | -35.80930 | 9.345 | 126.9 |
| 2026-05-30T14:30 | -10.30670 | -35.78755 | 9.654 | 127.0 |
| 2026-05-30T14:40 | -10.32308 | -35.76560 | 9.748 | 127.0 |
| 2026-05-30T14:50 | -10.33943 | -35.74364 | 9.744 | 126.9 |
| 2026-05-30T15:00 | -10.35492 | -35.72064 | 9.862 | 124.2 |
| 2026-05-30T15:10 | -10.36833 | -35.69568 | 10.073 | 118.5 |
| 2026-05-30T15:20 | -10.37542 | -35.68224 | 5.398 | 118.0 |
| 2026-05-30T15:30 | -10.37526 | -35.68180 | 0.165 | 70.7 |
| 2026-05-30T15:40 | -10.37361 | -35.68003 | 0.863 | 46.8 |
| 2026-05-30T15:50 | -10.36923 | -35.67629 | 2.055 | 40.2 |
| 2026-05-30T16:00 | -10.36868 | -35.67162 | 1.669 | 83.2 |
| 2026-05-30T16:10 | -10.36618 | -35.66942 | 1.187 | 41.0 |
| 2026-05-30T16:20 | -10.36289 | -35.66617 | 1.647 | 44.4 |
| 2026-05-30T16:30 | -10.35953 | -35.66301 | 1.646 | 43.0 |
| 2026-05-30T16:40 | -10.35737 | -35.66095 | 1.062 | 43.2 |
| 2026-05-30T16:50 | -10.35465 | -35.65871 | 1.258 | 39.2 |
| 2026-05-30T17:00 | -10.35169 | -35.65637 | 1.344 | 38.2 |
| 2026-05-30T17:10 | -10.34862 | -35.65409 | 1.366 | 36.2 |
| 2026-05-30T17:20 | -10.34486 | -35.65253 | 1.455 | 22.4 |
| 2026-05-30T17:30 | -10.34113 | -35.65149 | 1.388 | 15.4 |
| 2026-05-30T17:40 | -10.34051 | -35.64439 | 2.527 | 85.0 |
| 2026-05-30T17:50 | -10.36259 | -35.63033 | 9.348 | 147.8 |
| 2026-05-30T18:00 | -10.38802 | -35.61730 | 10.215 | 153.1 |
| 2026-05-30T18:10 | -10.41343 | -35.60427 | 10.204 | 153.1 |
| 2026-05-30T18:20 | -10.43834 | -35.59025 | 10.214 | 150.9 |
| 2026-05-30T18:30 | -10.45444 | -35.58254 | 6.382 | 154.6 |
| 2026-05-30T18:40 | -10.45614 | -35.58146 | 0.718 | 147.9 |
| 2026-05-30T18:50 | -10.45662 | -35.58167 | 0.189 | 202.7 |
| 2026-05-30T19:00 | -10.45662 | -35.58165 | 0.004 | 79.6 |
| 2026-05-30T19:10 | -10.45662 | -35.58165 | 0.003 | 69.2 |
| 2026-05-30T19:20 | -10.45662 | -35.58167 | 0.007 | 257.4 |
| 2026-05-30T19:30 | -10.45662 | -35.58166 | 0.003 | 90.0 |
| 2026-05-30T19:40 | -10.45661 | -35.58179 | 0.047 | 275.2 |
| 2026-05-30T19:50 | -10.45654 | -35.58183 | 0.031 | 331.9 |
| 2026-05-30T20:00 | -10.45651 | -35.58186 | 0.015 | 306.6 |
| 2026-05-30T20:10 | -10.45653 | -35.58185 | 0.008 | 152.5 |
| 2026-05-30T20:20 | -10.45654 | -35.58185 | 0.003 | 188.1 |
| 2026-05-30T20:30 | -10.45653 | -35.58186 | 0.004 | 311.5 |
| 2026-05-30T20:40 | -10.45653 | -35.58186 | 0.002 | 135.3 |
| 2026-05-30T20:50 | -10.45652 | -35.58185 | 0.003 | 35.3 |
| 2026-05-30T21:00 | -10.45654 | -35.58186 | 0.004 | 214.7 |
| 2026-05-30T21:10 | -10.45654 | -35.58185 | 0.006 | 112.0 |
| 2026-05-30T21:20 | -10.45653 | -35.58187 | 0.010 | 302.3 |
| 2026-05-30T21:30 | -10.45653 | -35.58185 | 0.007 | 107.7 |
| 2026-05-30T21:40 | -10.45654 | -35.58186 | 0.003 | 224.7 |
| 2026-05-30T21:50 | -10.45654 | -35.58185 | 0.001 | 56.0 |
| 2026-05-30T22:00 | -10.45654 | -35.58185 | 0.003 | 148.3 |
| 2026-05-30T22:10 | -10.45402 | -35.58348 | 1.071 | 327.4 |
| 2026-05-30T22:20 | -10.44447 | -35.59730 | 5.977 | 304.9 |
| 2026-05-30T22:30 | -10.42620 | -35.62078 | 10.590 | 308.2 |
| 2026-05-30T22:40 | -10.40656 | -35.64595 | 11.362 | 308.2 |
| 2026-05-30T22:50 | -10.38697 | -35.67103 | 11.328 | 308.3 |
| 2026-05-30T23:00 | -10.37900 | -35.67943 | 4.125 | 313.8 |
| 2026-05-30T23:10 | -10.37982 | -35.67981 | 0.323 | 204.7 |
| 2026-05-30T23:20 | -10.37985 | -35.67978 | 0.013 | 126.5 |
| 2026-05-30T23:30 | -10.37985 | -35.67977 | 0.005 | 132.3 |
| 2026-05-30T23:40 | -10.37983 | -35.67978 | 0.009 | 337.6 |
| 2026-05-30T23:50 | -10.37984 | -35.67977 | 0.005 | 132.6 |
| 2026-05-31T00:00 | -10.37985 | -35.67978 | 0.004 | 195.1 |
| 2026-05-31T00:10 | -10.37985 | -35.67977 | 0.000 | 44.7 |
| 2026-05-31T00:20 | -10.37985 | -35.67979 | 0.005 | 278.2 |
| 2026-05-31T00:30 | -10.37984 | -35.67979 | 0.002 | 315.3 |
| 2026-05-31T00:40 | -10.37986 | -35.67978 | 0.007 | 143.4 |
| 2026-05-31T00:50 | -10.37984 | -35.67976 | 0.010 | 43.3 |
| 2026-05-31T01:00 | -10.37984 | -35.67979 | 0.010 | 259.4 |
| 2026-05-31T01:10 | -10.37983 | -35.67979 | 0.007 | 0.0 |
| 2026-05-31T01:20 | -10.37402 | -35.68940 | 3.992 | 301.4 |
| 2026-05-31T01:30 | -10.36023 | -35.71172 | 9.330 | 302.0 |
| 2026-05-31T01:40 | -10.34608 | -35.73445 | 9.521 | 302.2 |
| 2026-05-31T01:50 | -10.33054 | -35.75659 | 9.625 | 305.3 |
| 2026-05-31T02:00 | -10.32493 | -35.76697 | 4.193 | 298.7 |
| 2026-05-31T02:10 | -10.32480 | -35.76735 | 0.142 | 288.3 |
| 2026-05-31T02:20 | -10.32486 | -35.76731 | 0.025 | 148.9 |
| 2026-05-31T02:30 | -10.32487 | -35.76732 | 0.001 | 213.4 |
| 2026-05-31T02:40 | -10.32488 | -35.76731 | 0.005 | 147.8 |
| 2026-05-31T02:50 | -10.32488 | -35.76731 | 0.003 | 188.1 |
| 2026-05-31T03:00 | -10.32487 | -35.76732 | 0.008 | 320.8 |
| 2026-05-31T03:10 | -10.32488 | -35.76731 | 0.007 | 145.8 |
| 2026-05-31T03:20 | -10.32487 | -35.76731 | 0.007 | 23.8 |
| 2026-05-31T03:30 | -10.32275 | -35.76895 | 0.957 | 322.4 |
| 2026-05-31T03:40 | -10.31313 | -35.78540 | 6.774 | 300.6 |
| 2026-05-31T03:50 | -10.29869 | -35.80893 | 9.820 | 301.8 |
| 2026-05-31T04:00 | -10.28253 | -35.83524 | 10.979 | 301.8 |
| 2026-05-31T04:10 | -10.26556 | -35.85877 | 10.326 | 306.1 |
| 2026-05-31T04:20 | -10.26709 | -35.86191 | 1.240 | 243.8 |
| 2026-05-31T04:30 | -10.26708 | -35.86192 | 0.005 | 303.9 |
| 2026-05-31T04:40 | -10.26708 | -35.86192 | 0.001 | 90.0 |
| 2026-05-31T04:50 | -10.26706 | -35.86191 | 0.005 | 19.5 |
| 2026-05-31T05:00 | -10.26707 | -35.86192 | 0.005 | 227.7 |
| 2026-05-31T05:10 | -10.26707 | -35.86193 | 0.002 | 270.0 |
| 2026-05-31T05:20 | -10.26467 | -35.85905 | 1.334 | 49.8 |
| 2026-05-31T05:30 | -10.25542 | -35.87380 | 6.191 | 302.4 |
| 2026-05-31T05:40 | -10.25350 | -35.87848 | 1.797 | 292.5 |
| 2026-05-31T05:50 | -10.25417 | -35.87703 | 0.567 | 115.1 |
| 2026-05-31T06:00 | -10.25447 | -35.87698 | 0.109 | 170.3 |
| 2026-05-31T06:10 | -10.25448 | -35.87693 | 0.017 | 98.4 |
| 2026-05-31T06:20 | -10.25450 | -35.87689 | 0.015 | 116.8 |
| 2026-05-31T06:30 | -10.25463 | -35.87633 | 0.203 | 102.8 |
| 2026-05-31T06:40 | -10.24434 | -35.88748 | 5.405 | 313.0 |
| 2026-05-31T06:50 | -10.24292 | -35.89287 | 1.980 | 284.9 |
| 2026-05-31T07:00 | -10.24290 | -35.89285 | 0.013 | 50.3 |
| 2026-05-31T07:10 | -10.24289 | -35.89283 | 0.007 | 83.9 |
| 2026-05-31T07:20 | -10.24290 | -35.89286 | 0.012 | 259.3 |
| 2026-05-31T07:30 | -10.24253 | -35.89301 | 0.142 | 337.8 |
| 2026-05-31T07:40 | -10.23796 | -35.90063 | 3.162 | 301.2 |
| 2026-05-31T07:50 | -10.23657 | -35.90373 | 1.206 | 294.4 |
| 2026-05-31T08:00 | -10.23662 | -35.90328 | 0.158 | 97.6 |
| 2026-05-31T08:10 | -10.23661 | -35.90327 | 0.007 | 40.6 |
| 2026-05-31T08:20 | -10.23662 | -35.90327 | 0.005 | 153.7 |
| 2026-05-31T08:30 | -10.23658 | -35.90312 | 0.055 | 76.7 |
| 2026-05-31T08:40 | -10.23703 | -35.89907 | 1.444 | 96.3 |
| 2026-05-31T08:50 | -10.23795 | -35.89113 | 2.836 | 96.7 |
| 2026-05-31T09:00 | -10.23969 | -35.88378 | 2.680 | 103.5 |
| 2026-05-31T09:10 | -10.25110 | -35.87356 | 5.463 | 138.4 |
| 2026-05-31T09:20 | -10.26349 | -35.86368 | 5.654 | 141.7 |
| 2026-05-31T09:30 | -10.26736 | -35.86118 | 1.648 | 147.3 |
| 2026-05-31T09:40 | -10.27106 | -35.85919 | 1.499 | 152.0 |
| 2026-05-31T09:50 | -10.27502 | -35.85729 | 1.571 | 154.5 |
| 2026-05-31T10:00 | -10.27900 | -35.85547 | 1.566 | 155.7 |
| 2026-05-31T10:10 | -10.28470 | -35.85421 | 2.088 | 167.6 |
| 2026-05-31T10:20 | -10.28164 | -35.86514 | 4.028 | 285.8 |
| 2026-05-31T10:30 | -10.26430 | -35.87273 | 6.770 | 336.6 |
| 2026-05-31T10:40 | -10.24691 | -35.88041 | 6.798 | 336.4 |
| 2026-05-31T10:50 | -10.23938 | -35.87592 | 3.134 | 30.6 |
| 2026-05-31T11:00 | -10.24432 | -35.87255 | 2.137 | 146.0 |
| 2026-05-31T11:10 | -10.24476 | -35.87231 | 0.179 | 151.4 |
| 2026-05-31T11:20 | -10.24836 | -35.87056 | 1.431 | 154.4 |
| 2026-05-31T11:30 | -10.25147 | -35.86903 | 1.239 | 154.0 |
| 2026-05-31T11:40 | -10.25518 | -35.86719 | 1.479 | 153.9 |
| 2026-05-31T11:50 | -10.25905 | -35.86534 | 1.533 | 154.7 |
| 2026-05-31T12:00 | -10.26327 | -35.86327 | 1.683 | 154.1 |
| 2026-05-31T12:10 | -10.26712 | -35.86144 | 1.521 | 154.8 |
| 2026-05-31T12:20 | -10.27021 | -35.85778 | 1.707 | 130.5 |
| 2026-05-31T12:30 | -10.27743 | -35.84512 | 5.181 | 119.9 |
| 2026-05-31T12:40 | -10.28272 | -35.84126 | 2.338 | 144.1 |
| 2026-05-31T12:50 | -10.27820 | -35.82959 | 4.445 | 68.7 |
| 2026-05-31T13:00 | -10.27765 | -35.82814 | 0.549 | 69.0 |
| 2026-05-31T13:10 | -10.27907 | -35.82539 | 1.098 | 117.4 |
| 2026-05-31T13:20 | -10.29129 | -35.80971 | 7.079 | 128.2 |
| 2026-05-31T13:30 | -10.30551 | -35.79119 | 8.312 | 127.8 |
| 2026-05-31T13:40 | -10.31941 | -35.77312 | 8.117 | 127.8 |
| 2026-05-31T13:50 | -10.33185 | -35.75653 | 7.378 | 127.1 |
| 2026-05-31T14:00 | -10.33690 | -35.74829 | 3.438 | 121.7 |
| 2026-05-31T14:10 | -10.33711 | -35.73822 | 3.572 | 91.2 |
| 2026-05-31T14:20 | -10.33069 | -35.72733 | 4.495 | 59.2 |
| 2026-05-31T14:30 | -10.32812 | -35.72403 | 1.487 | 51.9 |
| 2026-05-31T14:40 | -10.32946 | -35.72016 | 1.451 | 109.2 |
| 2026-05-31T14:50 | -10.33432 | -35.71673 | 2.123 | 145.1 |
| 2026-05-31T15:00 | -10.34420 | -35.72516 | 4.634 | 220.2 |
| 2026-05-31T15:10 | -10.35250 | -35.73433 | 4.405 | 227.6 |
| 2026-05-31T15:20 | -10.35326 | -35.73364 | 0.365 | 137.9 |
| 2026-05-31T15:30 | -10.35451 | -35.73187 | 0.772 | 125.5 |
| 2026-05-31T15:40 | -10.35632 | -35.72821 | 1.451 | 116.5 |
| 2026-05-31T15:50 | -10.35816 | -35.72451 | 1.468 | 116.8 |
| 2026-05-31T16:00 | -10.36006 | -35.72073 | 1.502 | 116.8 |
| 2026-05-31T16:10 | -10.36193 | -35.71695 | 1.499 | 116.5 |
| 2026-05-31T16:20 | -10.36381 | -35.71318 | 1.498 | 116.8 |
| 2026-05-31T16:30 | -10.36568 | -35.70940 | 1.497 | 116.5 |
| 2026-05-31T16:40 | -10.36757 | -35.70562 | 1.502 | 116.8 |
| 2026-05-31T16:50 | -10.36945 | -35.70184 | 1.500 | 116.7 |
| 2026-05-31T17:00 | -10.37154 | -35.69772 | 1.640 | 117.1 |
| 2026-05-31T17:10 | -10.37378 | -35.69333 | 1.752 | 117.2 |
| 2026-05-31T17:20 | -10.37598 | -35.68907 | 1.705 | 117.5 |
| 2026-05-31T17:30 | -10.37823 | -35.68482 | 1.708 | 118.1 |
| 2026-05-31T17:40 | -10.38078 | -35.68080 | 1.693 | 122.7 |
| 2026-05-31T17:50 | -10.38299 | -35.67663 | 1.677 | 118.2 |
| 2026-05-31T18:00 | -10.38552 | -35.66878 | 2.928 | 108.0 |
| 2026-05-31T18:10 | -10.40187 | -35.64948 | 9.005 | 130.6 |
| 2026-05-31T18:20 | -10.42166 | -35.62586 | 10.972 | 130.2 |
| 2026-05-31T18:30 | -10.44136 | -35.60215 | 10.976 | 130.0 |
| 2026-05-31T18:40 | -10.46120 | -35.57828 | 11.050 | 130.0 |
| 2026-05-31T18:50 | -10.47828 | -35.55281 | 10.905 | 124.1 |
| 2026-05-31T19:00 | -10.48336 | -35.55002 | 2.070 | 151.5 |
| 2026-05-31T19:10 | -10.48337 | -35.55001 | 0.005 | 132.6 |
| 2026-05-31T19:20 | -10.48927 | -35.54161 | 3.653 | 125.4 |
| 2026-05-31T19:30 | -10.50646 | -35.52118 | 9.504 | 130.4 |
| 2026-05-31T19:40 | -10.52460 | -35.49899 | 10.203 | 129.6 |
| 2026-05-31T19:50 | -10.53168 | -35.49027 | 3.997 | 129.4 |
| 2026-05-31T20:00 | -10.53327 | -35.48814 | 0.945 | 127.1 |
| 2026-05-31T20:10 | -10.53329 | -35.48816 | 0.009 | 219.2 |
| 2026-05-31T20:20 | -10.53315 | -35.48833 | 0.081 | 310.1 |
| 2026-05-31T20:30 | -10.53314 | -35.48835 | 0.005 | 296.8 |
| 2026-05-31T20:40 | -10.53315 | -35.48833 | 0.008 | 126.1 |
| 2026-05-31T20:50 | -10.53314 | -35.48835 | 0.007 | 301.7 |
| 2026-05-31T21:00 | -10.53315 | -35.48835 | 0.004 | 199.8 |
| 2026-05-31T21:10 | -10.53314 | -35.48835 | 0.003 | 339.6 |
| 2026-05-31T21:20 | -10.53314 | -35.48835 | 0.000 | 90.0 |
| 2026-05-31T21:30 | -10.53315 | -35.48836 | 0.002 | 243.2 |
| 2026-05-31T21:40 | -10.53315 | -35.48835 | 0.004 | 80.4 |
| 2026-05-31T21:50 | -10.53315 | -35.48834 | 0.002 | 90.0 |
| 2026-05-31T22:00 | -10.53315 | -35.48835 | 0.003 | 246.6 |
| 2026-05-31T22:10 | -10.53318 | -35.48847 | 0.046 | 253.9 |
| 2026-05-31T22:20 | -10.53762 | -35.48273 | 2.582 | 128.0 |
| 2026-05-31T22:30 | -10.54792 | -35.46885 | 6.147 | 126.9 |
| 2026-05-31T22:40 | -10.55889 | -35.45438 | 6.461 | 127.5 |
| 2026-05-31T22:50 | -10.57815 | -35.43244 | 10.393 | 131.6 |
| 2026-05-31T23:00 | -10.59797 | -35.40783 | 11.245 | 129.2 |
| 2026-05-31T23:10 | -10.61775 | -35.38320 | 11.242 | 129.1 |
| 2026-05-31T23:20 | -10.63718 | -35.35902 | 11.035 | 129.1 |
| 2026-05-31T23:30 | -10.65619 | -35.33535 | 10.802 | 129.1 |
| 2026-05-31T23:40 | -10.67535 | -35.31151 | 10.883 | 129.1 |
| 2026-05-31T23:50 | -10.68888 | -35.29168 | 8.532 | 124.6 |
| 2026-06-01T00:00 | -10.68927 | -35.29401 | 0.836 | 260.4 |
| 2026-06-01T00:10 | -10.68933 | -35.29393 | 0.037 | 127.9 |
| 2026-06-01T00:20 | -10.68933 | -35.29393 | 0.001 | 180.0 |
| 2026-06-01T00:30 | -10.68933 | -35.29393 | 0.002 | 270.0 |
| 2026-06-01T00:40 | -10.68933 | -35.29392 | 0.006 | 58.8 |
| 2026-06-01T00:50 | -10.68934 | -35.29393 | 0.007 | 236.8 |
| 2026-06-01T01:00 | -10.68932 | -35.29395 | 0.007 | 317.4 |
| 2026-06-01T01:10 | -10.68933 | -35.29393 | 0.008 | 121.2 |
| 2026-06-01T01:20 | -10.68934 | -35.29393 | 0.003 | 180.0 |
| 2026-06-01T01:30 | -10.68933 | -35.29394 | 0.007 | 317.3 |
| 2026-06-01T01:40 | -10.68934 | -35.29395 | 0.005 | 224.7 |
| 2026-06-01T01:50 | -10.68934 | -35.29396 | 0.003 | 229.9 |
| 2026-06-01T02:00 | -10.68934 | -35.29393 | 0.009 | 76.9 |
| 2026-06-01T02:10 | -10.68933 | -35.29393 | 0.003 | 44.7 |
| 2026-06-01T02:20 | -10.68934 | -35.29395 | 0.007 | 253.1 |
| 2026-06-01T02:30 | -10.68933 | -35.29394 | 0.004 | 15.1 |
| 2026-06-01T02:40 | -10.69567 | -35.28642 | 3.500 | 130.4 |
| 2026-06-01T02:50 | -10.71346 | -35.26515 | 9.869 | 130.2 |
| 2026-06-01T03:00 | -10.73266 | -35.24209 | 10.678 | 130.1 |
| 2026-06-01T03:10 | -10.75214 | -35.21875 | 10.817 | 130.2 |
| 2026-06-01T03:20 | -10.75997 | -35.19176 | 9.962 | 106.4 |
| 2026-06-01T03:30 | -10.77984 | -35.16982 | 10.538 | 132.5 |
| 2026-06-01T03:40 | -10.80129 | -35.14849 | 10.773 | 135.5 |
| 2026-06-01T03:50 | -10.82272 | -35.12738 | 10.713 | 135.8 |
| 2026-06-01T04:00 | -10.84357 | -35.10580 | 10.684 | 134.3 |
| 2026-06-01T04:10 | -10.85633 | -35.09322 | 6.382 | 135.7 |
| 2026-06-01T04:20 | -10.85701 | -35.09354 | 0.267 | 205.0 |
| 2026-06-01T04:30 | -10.85700 | -35.09350 | 0.013 | 77.3 |
| 2026-06-01T04:40 | -10.85701 | -35.09347 | 0.012 | 95.2 |
| 2026-06-01T04:50 | -10.85700 | -35.09347 | 0.003 | 8.0 |
| 2026-06-01T05:00 | -10.85700 | -35.09349 | 0.006 | 273.2 |
| 2026-06-01T05:10 | -10.85701 | -35.09347 | 0.005 | 124.0 |
| 2026-06-01T05:20 | -10.85701 | -35.09348 | 0.002 | 281.4 |
| 2026-06-01T05:30 | -10.85701 | -35.09349 | 0.005 | 237.2 |
| 2026-06-01T05:40 | -10.85701 | -35.09348 | 0.004 | 90.0 |
| 2026-06-01T05:50 | -10.85701 | -35.09348 | 0.000 | 270.0 |
| 2026-06-01T06:00 | -10.85700 | -35.09348 | 0.003 | 0.0 |
| 2026-06-01T06:10 | -10.85701 | -35.09349 | 0.002 | 251.4 |
| 2026-06-01T06:20 | -10.85700 | -35.09347 | 0.006 | 71.4 |
| 2026-06-01T06:30 | -10.85700 | -35.09347 | 0.000 | 270.0 |
| 2026-06-01T06:40 | -10.85701 | -35.09352 | 0.016 | 254.6 |
| 2026-06-01T06:50 | -10.85710 | -35.09350 | 0.031 | 168.3 |
| 2026-06-01T07:00 | -10.86850 | -35.07912 | 6.527 | 128.7 |
| 2026-06-01T07:10 | -10.88710 | -35.05671 | 10.358 | 130.0 |
| 2026-06-01T07:20 | -10.89999 | -35.04111 | 7.198 | 129.9 |
| 2026-06-01T07:30 | -10.91242 | -35.02609 | 6.936 | 129.9 |
| 2026-06-01T07:40 | -10.92512 | -35.01081 | 7.067 | 130.1 |
| 2026-06-01T07:50 | -10.93479 | -34.99953 | 5.283 | 130.9 |
| 2026-06-01T08:00 | -10.93683 | -34.99741 | 1.051 | 134.3 |
| 2026-06-01T08:10 | -10.93639 | -34.99673 | 0.286 | 56.6 |
| 2026-06-01T08:20 | -10.93381 | -34.99662 | 0.928 | 2.5 |
| 2026-06-01T08:30 | -10.93351 | -34.99583 | 0.299 | 69.2 |
| 2026-06-01T08:40 | -10.93351 | -34.99583 | 0.002 | 281.4 |
| 2026-06-01T08:50 | -10.93456 | -34.99541 | 0.406 | 158.6 |
| 2026-06-01T09:00 | -10.93447 | -34.99577 | 0.132 | 284.9 |
| 2026-06-01T09:10 | -10.93425 | -34.99661 | 0.308 | 284.7 |
| 2026-06-01T09:20 | -10.93685 | -34.99492 | 1.106 | 147.2 |
| 2026-06-01T09:30 | -10.93978 | -34.99262 | 1.330 | 142.1 |
| 2026-06-01T09:40 | -10.93956 | -34.99236 | 0.119 | 48.2 |
| 2026-06-01T09:50 | -10.93826 | -34.99170 | 0.521 | 26.8 |
| 2026-06-01T10:00 | -10.93690 | -34.99095 | 0.555 | 28.7 |
| 2026-06-01T10:10 | -10.93579 | -34.99030 | 0.460 | 29.9 |
| 2026-06-01T10:20 | -10.93416 | -34.98991 | 0.599 | 13.3 |
| 2026-06-01T10:30 | -10.93272 | -34.98951 | 0.535 | 15.1 |
| 2026-06-01T10:40 | -10.93116 | -34.98912 | 0.577 | 14.2 |
| 2026-06-01T10:50 | -10.92956 | -34.98869 | 0.592 | 14.7 |
| 2026-06-01T11:00 | -10.92796 | -34.98824 | 0.595 | 15.5 |
| 2026-06-01T11:10 | -10.92651 | -34.98787 | 0.534 | 14.1 |
| 2026-06-01T11:20 | -10.92522 | -34.98750 | 0.481 | 16.1 |
| 2026-06-01T11:30 | -10.92384 | -34.98713 | 0.511 | 14.7 |
| 2026-06-01T11:40 | -10.92256 | -34.98682 | 0.471 | 13.6 |
| 2026-06-01T11:50 | -10.92205 | -34.98668 | 0.190 | 14.7 |
| 2026-06-01T12:00 | -10.92177 | -34.98660 | 0.103 | 15.6 |
| 2026-06-01T12:10 | -10.92141 | -34.98650 | 0.134 | 16.1 |
| 2026-06-01T12:20 | -10.92122 | -34.98643 | 0.075 | 18.8 |
| 2026-06-01T12:30 | -10.92078 | -34.98637 | 0.156 | 7.4 |
| 2026-06-01T12:40 | -10.91949 | -34.98637 | 0.464 | 0.3 |
| 2026-06-01T12:50 | -10.91799 | -34.98638 | 0.536 | 359.4 |
| 2026-06-01T13:00 | -10.91643 | -34.98637 | 0.559 | 0.4 |
| 2026-06-01T13:10 | -10.91457 | -34.98671 | 0.677 | 349.9 |
| 2026-06-01T13:20 | -10.90299 | -35.00045 | 6.392 | 310.5 |
| 2026-06-01T13:30 | -10.88429 | -35.02568 | 11.164 | 306.9 |
| 2026-06-01T13:40 | -10.86498 | -35.05157 | 11.484 | 307.0 |
| 2026-06-01T13:50 | -10.84565 | -35.07755 | 11.510 | 307.0 |
| 2026-06-01T14:00 | -10.82645 | -35.10333 | 11.428 | 307.0 |
| 2026-06-01T14:10 | -10.80732 | -35.12906 | 11.402 | 306.9 |
| 2026-06-01T14:20 | -10.78824 | -35.15465 | 11.351 | 307.0 |
| 2026-06-01T14:30 | -10.76906 | -35.18037 | 11.406 | 307.0 |
| 2026-06-01T14:40 | -10.74985 | -35.20616 | 11.436 | 307.0 |
| 2026-06-01T14:50 | -10.73064 | -35.23190 | 11.420 | 307.0 |
| 2026-06-01T15:00 | -10.71146 | -35.25766 | 11.422 | 307.0 |
| 2026-06-01T15:10 | -10.69223 | -35.28351 | 11.459 | 306.9 |
| 2026-06-01T15:20 | -10.67302 | -35.30928 | 11.431 | 307.0 |
| 2026-06-01T15:30 | -10.65388 | -35.33500 | 11.403 | 307.0 |
| 2026-06-01T15:40 | -10.63476 | -35.36064 | 11.375 | 307.0 |
| 2026-06-01T15:50 | -10.61789 | -35.38778 | 11.358 | 302.1 |
| 2026-06-01T16:00 | -10.60682 | -35.39963 | 5.774 | 313.4 |
| 2026-06-01T16:10 | -10.60743 | -35.39810 | 0.585 | 112.1 |
| 2026-06-01T16:20 | -10.60689 | -35.39915 | 0.422 | 297.6 |
| 2026-06-01T16:30 | -10.60811 | -35.39886 | 0.451 | 166.7 |
| 2026-06-01T16:40 | -10.61293 | -35.39542 | 2.111 | 144.8 |
| 2026-06-01T16:50 | -10.61409 | -35.39653 | 0.571 | 223.3 |
| 2026-06-01T17:00 | -10.61322 | -35.39472 | 0.712 | 64.1 |
| 2026-06-01T17:10 | -10.60642 | -35.39487 | 2.436 | 358.8 |
| 2026-06-01T17:20 | -10.60814 | -35.39289 | 0.934 | 131.4 |
| 2026-06-01T17:30 | -10.60668 | -35.39088 | 0.883 | 53.6 |
| 2026-06-01T17:40 | -10.60524 | -35.38920 | 0.790 | 49.2 |
| 2026-06-01T17:50 | -10.60549 | -35.38746 | 0.620 | 98.4 |
| 2026-06-01T18:00 | -10.60522 | -35.38623 | 0.449 | 77.4 |
| 2026-06-01T18:10 | -10.60425 | -35.38590 | 0.368 | 18.5 |
| 2026-06-01T18:20 | -10.60381 | -35.38481 | 0.417 | 67.7 |
| 2026-06-01T18:30 | -10.60283 | -35.38358 | 0.560 | 51.3 |
| 2026-06-01T18:40 | -10.60105 | -35.38249 | 0.745 | 31.1 |
| 2026-06-01T18:50 | -10.59980 | -35.38148 | 0.571 | 38.8 |
| 2026-06-01T19:00 | -10.59880 | -35.38000 | 0.636 | 55.5 |
| 2026-06-01T19:10 | -10.59772 | -35.37859 | 0.634 | 52.3 |
| 2026-06-01T19:20 | -10.59662 | -35.37719 | 0.633 | 51.6 |
| 2026-06-01T19:30 | -10.59551 | -35.37585 | 0.618 | 49.8 |
| 2026-06-01T19:40 | -10.59431 | -35.37443 | 0.661 | 49.5 |
| 2026-06-01T19:50 | -10.59306 | -35.37289 | 0.706 | 50.9 |
| 2026-06-01T20:00 | -10.59182 | -35.37134 | 0.707 | 50.9 |
| 2026-06-01T20:10 | -10.59051 | -35.36972 | 0.740 | 50.7 |
| 2026-06-01T20:20 | -10.58925 | -35.36831 | 0.673 | 48.1 |
| 2026-06-01T20:30 | -10.59311 | -35.37245 | 2.015 | 226.7 |
| 2026-06-01T20:40 | -10.60317 | -35.38507 | 5.740 | 231.1 |
| 2026-06-01T20:50 | -10.60917 | -35.39240 | 3.375 | 230.4 |
| 2026-06-01T21:00 | -10.60836 | -35.39335 | 0.443 | 310.9 |
| 2026-06-01T21:10 | -10.60839 | -35.39330 | 0.020 | 117.7 |
| 2026-06-01T21:20 | -10.60840 | -35.39329 | 0.004 | 139.1 |
| 2026-06-01T21:30 | -10.60839 | -35.39332 | 0.009 | 272.4 |
| 2026-06-01T21:40 | -10.60840 | -35.39332 | 0.002 | 189.4 |
| 2026-06-01T21:50 | -10.60838 | -35.39332 | 0.007 | 2.8 |
| 2026-06-01T22:00 | -10.60840 | -35.39330 | 0.009 | 127.2 |
| 2026-06-01T22:10 | -10.60840 | -35.39331 | 0.005 | 266.1 |
| 2026-06-01T22:20 | -10.60838 | -35.39330 | 0.007 | 22.2 |
| 2026-06-01T22:30 | -10.60838 | -35.39331 | 0.003 | 282.7 |
| 2026-06-01T22:40 | -10.60839 | -35.39329 | 0.008 | 112.0 |
| 2026-06-01T22:50 | -10.60839 | -35.39330 | 0.005 | 237.2 |
| 2026-06-01T23:00 | -10.60840 | -35.39330 | 0.005 | 138.3 |
| 2026-06-01T23:10 | -10.60840 | -35.39331 | 0.005 | 298.6 |
| 2026-06-01T23:20 | -10.60843 | -35.39329 | 0.014 | 146.7 |
| 2026-06-01T23:30 | -10.60839 | -35.39330 | 0.014 | 347.9 |
| 2026-06-01T23:40 | -10.60839 | -35.39330 | 0.002 | 191.2 |
| 2026-06-01T23:50 | -10.60838 | -35.39330 | 0.006 | 349.5 |
| 2026-06-02T00:00 | -10.60838 | -35.39330 | 0.001 | 206.3 |
| 2026-06-02T00:10 | -10.60839 | -35.39331 | 0.004 | 213.4 |
| 2026-06-02T00:20 | -10.60839 | -35.39332 | 0.007 | 254.3 |
| 2026-06-02T00:30 | -10.61153 | -35.39347 | 1.123 | 182.6 |
| 2026-06-02T00:40 | -10.62419 | -35.37643 | 7.550 | 126.9 |
| 2026-06-02T00:50 | -10.64234 | -35.35209 | 10.800 | 127.0 |
| 2026-06-02T01:00 | -10.66158 | -35.32874 | 10.766 | 129.8 |
| 2026-06-02T01:10 | -10.68091 | -35.30529 | 10.815 | 129.8 |
| 2026-06-02T01:20 | -10.70015 | -35.28197 | 10.756 | 129.8 |
| 2026-06-02T01:30 | -10.71936 | -35.25868 | 10.745 | 129.8 |
| 2026-06-02T01:40 | -10.73851 | -35.23548 | 10.700 | 129.8 |
| 2026-06-02T01:50 | -10.75752 | -35.21234 | 10.657 | 129.7 |
| 2026-06-02T02:00 | -10.77474 | -35.19156 | 9.601 | 130.0 |
| 2026-06-02T02:10 | -10.78708 | -35.17691 | 6.815 | 130.4 |
| 2026-06-02T02:20 | -10.79844 | -35.16369 | 6.204 | 131.0 |
| 2026-06-02T02:30 | -10.80983 | -35.15041 | 6.226 | 130.9 |
| 2026-06-02T02:40 | -10.82118 | -35.13726 | 6.178 | 131.1 |
| 2026-06-02T02:50 | -10.83253 | -35.12398 | 6.218 | 130.9 |
| 2026-06-02T03:00 | -10.84388 | -35.11075 | 6.202 | 130.9 |
| 2026-06-02T03:10 | -10.85511 | -35.09776 | 6.110 | 131.2 |
| 2026-06-02T03:20 | -10.86658 | -35.08438 | 6.270 | 130.9 |
| 2026-06-02T03:30 | -10.87809 | -35.07099 | 6.283 | 131.0 |
| 2026-06-02T03:40 | -10.88118 | -35.05518 | 5.705 | 101.2 |
| 2026-06-02T03:50 | -10.88970 | -35.04154 | 5.713 | 122.3 |
| 2026-06-02T04:00 | -10.90299 | -35.02981 | 6.314 | 138.9 |
| 2026-06-02T04:10 | -10.91623 | -35.01817 | 6.283 | 139.0 |
| 2026-06-02T04:20 | -10.92958 | -35.00639 | 6.344 | 138.9 |
| 2026-06-02T04:30 | -10.93750 | -34.99970 | 3.697 | 140.2 |
| 2026-06-02T04:40 | -10.93856 | -34.99796 | 0.723 | 121.5 |
| 2026-06-02T04:50 | -10.93964 | -34.99416 | 1.400 | 106.0 |
| 2026-06-02T05:00 | -10.93984 | -34.99365 | 0.196 | 112.2 |
| 2026-06-02T05:10 | -10.93984 | -34.99357 | 0.027 | 83.2 |
| 2026-06-02T05:20 | -10.94003 | -34.99311 | 0.178 | 113.5 |
| 2026-06-02T05:30 | -10.94004 | -34.99309 | 0.007 | 121.7 |
| 2026-06-02T05:40 | -10.94004 | -34.99308 | 0.003 | 96.4 |
| 2026-06-02T05:50 | -10.94004 | -34.99308 | 0.001 | 296.8 |
| 2026-06-02T06:00 | -10.94004 | -34.99309 | 0.001 | 270.0 |
| 2026-06-02T06:10 | -10.94004 | -34.99309 | 0.003 | 300.0 |
| 2026-06-02T06:20 | -10.94003 | -34.99307 | 0.010 | 66.8 |
| 2026-06-02T06:30 | -10.94003 | -34.99309 | 0.008 | 255.2 |
| 2026-06-02T06:40 | -10.94003 | -34.99307 | 0.007 | 73.1 |
| 2026-06-02T06:50 | -10.94004 | -34.99309 | 0.008 | 236.7 |
| 2026-06-02T07:00 | -10.94004 | -34.99308 | 0.005 | 98.2 |
| 2026-06-02T07:10 | -10.94005 | -34.99306 | 0.007 | 119.3 |
| 2026-06-02T07:20 | -10.94006 | -34.99306 | 0.002 | 224.7 |
| 2026-06-02T07:30 | -10.94006 | -34.99304 | 0.007 | 99.1 |
| 2026-06-02T07:40 | -10.94006 | -34.99305 | 0.002 | 288.6 |
| 2026-06-02T07:50 | -10.94006 | -34.99305 | 0.001 | 75.8 |
| 2026-06-02T08:00 | -10.94004 | -34.99306 | 0.007 | 315.3 |
| 2026-06-02T08:10 | -10.94006 | -34.99307 | 0.006 | 212.4 |
| 2026-06-02T08:20 | -10.94006 | -34.99305 | 0.008 | 84.7 |
| 2026-06-02T08:30 | -10.94005 | -34.99294 | 0.036 | 87.7 |
| 2026-06-02T08:40 | -10.94261 | -34.99121 | 1.102 | 146.2 |
| 2026-06-02T08:50 | -10.94566 | -34.98913 | 1.317 | 145.9 |
| 2026-06-02T09:00 | -10.93949 | -34.98323 | 3.039 | 43.4 |
| 2026-06-02T09:10 | -10.91616 | -35.00247 | 10.778 | 320.8 |
| 2026-06-02T09:20 | -10.89326 | -35.02436 | 11.283 | 316.6 |
| 2026-06-02T09:30 | -10.87099 | -35.04679 | 11.253 | 315.1 |
| 2026-06-02T09:40 | -10.86899 | -35.04518 | 0.916 | 38.3 |
| 2026-06-02T09:50 | -10.86957 | -35.04430 | 0.376 | 123.7 |
| 2026-06-02T10:00 | -10.87173 | -35.04271 | 0.957 | 144.0 |
| 2026-06-02T10:10 | -10.87426 | -35.04094 | 1.103 | 145.3 |
| 2026-06-02T10:20 | -10.87736 | -35.03874 | 1.355 | 144.9 |
| 2026-06-02T10:30 | -10.87958 | -35.03716 | 0.973 | 144.9 |
| 2026-06-02T10:40 | -10.88182 | -35.03560 | 0.974 | 145.3 |
| 2026-06-02T10:50 | -10.88404 | -35.03403 | 0.972 | 145.1 |
| 2026-06-02T11:00 | -10.88626 | -35.03246 | 0.970 | 145.1 |
| 2026-06-02T11:10 | -10.88848 | -35.03088 | 0.973 | 144.9 |
| 2026-06-02T11:20 | -10.89070 | -35.02930 | 0.970 | 144.9 |
| 2026-06-02T11:30 | -10.89292 | -35.02774 | 0.968 | 145.2 |
| 2026-06-02T11:40 | -10.89515 | -35.02617 | 0.974 | 145.0 |
| 2026-06-02T11:50 | -10.89736 | -35.02459 | 0.969 | 144.8 |
| 2026-06-02T12:00 | -10.89973 | -35.02292 | 1.035 | 145.2 |
| 2026-06-02T12:10 | -10.90239 | -35.02101 | 1.167 | 144.8 |
| 2026-06-02T12:20 | -10.90505 | -35.01914 | 1.162 | 145.2 |
| 2026-06-02T12:30 | -10.90772 | -35.01725 | 1.168 | 144.9 |
| 2026-06-02T12:40 | -10.91038 | -35.01538 | 1.158 | 145.3 |
| 2026-06-02T12:50 | -10.91306 | -35.01346 | 1.176 | 144.7 |
| 2026-06-02T13:00 | -10.91602 | -35.01136 | 1.296 | 145.0 |
| 2026-06-02T13:10 | -10.91957 | -35.00885 | 1.550 | 145.0 |
| 2026-06-02T13:20 | -10.92313 | -35.00633 | 1.557 | 145.0 |
| 2026-06-02T13:30 | -10.92668 | -35.00382 | 1.551 | 145.1 |
| 2026-06-02T13:40 | -10.93024 | -35.00130 | 1.555 | 145.0 |
| 2026-06-02T13:50 | -10.93379 | -34.99878 | 1.553 | 144.9 |
| 2026-06-02T14:00 | -10.93735 | -34.99626 | 1.556 | 145.1 |
| 2026-06-02T14:10 | -10.94090 | -34.99376 | 1.551 | 145.1 |
| 2026-06-02T14:20 | -10.94408 | -34.99182 | 1.328 | 148.9 |
| 2026-06-02T14:30 | -10.92886 | -35.00603 | 7.417 | 317.3 |
| 2026-06-02T14:40 | -10.92577 | -34.99892 | 2.748 | 66.3 |
| 2026-06-02T14:50 | -10.92674 | -34.99531 | 1.325 | 105.1 |
| 2026-06-02T15:00 | -10.90855 | -35.01865 | 10.522 | 308.2 |
| 2026-06-02T15:10 | -10.88825 | -35.04410 | 11.576 | 308.9 |
| 2026-06-02T15:20 | -10.86787 | -35.06954 | 11.594 | 309.0 |
| 2026-06-02T15:30 | -10.84766 | -35.09480 | 11.504 | 309.0 |
| 2026-06-02T15:40 | -10.82741 | -35.12012 | 11.533 | 309.0 |
| 2026-06-02T15:50 | -10.80710 | -35.14554 | 11.573 | 308.9 |
| 2026-06-02T16:00 | -10.78678 | -35.17087 | 11.549 | 309.1 |
| 2026-06-02T16:10 | -10.76660 | -35.19616 | 11.510 | 308.9 |
| 2026-06-02T16:20 | -10.74638 | -35.22146 | 11.521 | 308.9 |
| 2026-06-02T16:30 | -10.72622 | -35.24662 | 11.469 | 309.0 |
| 2026-06-02T16:40 | -10.70610 | -35.27186 | 11.482 | 308.9 |
| 2026-06-02T16:50 | -10.68588 | -35.29714 | 11.520 | 309.0 |
| 2026-06-02T17:00 | -10.66544 | -35.32249 | 11.584 | 309.2 |
| 2026-06-02T17:10 | -10.64486 | -35.34814 | 11.701 | 309.1 |
| 2026-06-02T17:20 | -10.62418 | -35.37349 | 11.641 | 309.5 |
| 2026-06-02T17:30 | -10.59775 | -35.39274 | 11.668 | 324.2 |
| 2026-06-02T17:40 | -10.57107 | -35.41148 | 11.638 | 325.2 |
| 2026-06-02T17:50 | -10.56190 | -35.41962 | 4.371 | 318.7 |
| 2026-06-02T18:00 | -10.56403 | -35.41711 | 1.173 | 130.6 |
| 2026-06-02T18:10 | -10.56646 | -35.41411 | 1.373 | 129.4 |
| 2026-06-02T18:20 | -10.56643 | -35.42609 | 4.246 | 270.1 |
| 2026-06-02T18:30 | -10.56584 | -35.44559 | 6.912 | 271.8 |
| 2026-06-02T18:40 | -10.56807 | -35.44360 | 1.062 | 138.5 |
| 2026-06-02T18:50 | -10.57019 | -35.44057 | 1.317 | 125.2 |
| 2026-06-02T19:00 | -10.57276 | -35.43774 | 1.363 | 132.7 |
| 2026-06-02T19:10 | -10.57533 | -35.43488 | 1.366 | 132.2 |
| 2026-06-02T19:20 | -10.57757 | -35.43221 | 1.243 | 130.3 |
| 2026-06-02T19:30 | -10.57991 | -35.42955 | 1.258 | 131.6 |
| 2026-06-02T19:40 | -10.58244 | -35.42697 | 1.288 | 134.7 |
| 2026-06-02T19:50 | -10.58440 | -35.42419 | 1.211 | 125.4 |
| 2026-06-02T20:00 | -10.58619 | -35.42156 | 1.131 | 124.6 |
| 2026-06-02T20:10 | -10.58813 | -35.41895 | 1.159 | 126.9 |
| 2026-06-02T20:20 | -10.59006 | -35.41638 | 1.142 | 127.2 |
| 2026-06-02T20:30 | -10.59255 | -35.41371 | 1.300 | 133.3 |
| 2026-06-02T20:40 | -10.59496 | -35.41079 | 1.348 | 129.9 |
| 2026-06-02T20:50 | -10.59716 | -35.40768 | 1.354 | 125.5 |
| 2026-06-02T21:00 | -10.60039 | -35.40393 | 1.762 | 131.1 |
| 2026-06-02T21:10 | -10.60400 | -35.39971 | 1.977 | 130.9 |
| 2026-06-02T21:20 | -10.60744 | -35.39586 | 1.838 | 132.1 |
| 2026-06-02T21:30 | -10.61083 | -35.39169 | 1.915 | 129.4 |
| 2026-06-02T21:40 | -10.61510 | -35.38686 | 2.294 | 131.8 |
| 2026-06-02T21:50 | -10.62604 | -35.37602 | 5.487 | 135.6 |
| 2026-06-02T22:00 | -10.64322 | -35.35550 | 9.524 | 130.2 |
| 2026-06-02T22:10 | -10.66180 | -35.33317 | 10.340 | 130.1 |
| 2026-06-02T22:20 | -10.68036 | -35.31089 | 10.317 | 130.1 |
| 2026-06-02T22:30 | -10.69875 | -35.28872 | 10.251 | 130.0 |
| 2026-06-02T22:40 | -10.71739 | -35.26625 | 10.386 | 130.0 |
| 2026-06-02T22:50 | -10.73626 | -35.24349 | 10.522 | 130.0 |
| 2026-06-02T23:00 | -10.75502 | -35.22082 | 10.470 | 129.9 |
| 2026-06-02T23:10 | -10.77055 | -35.19944 | 9.393 | 126.3 |
| 2026-06-02T23:20 | -10.77273 | -35.19349 | 2.248 | 110.3 |
| 2026-06-02T23:30 | -10.77281 | -35.19339 | 0.044 | 129.5 |
| 2026-06-02T23:40 | -10.77282 | -35.19340 | 0.006 | 232.1 |
| 2026-06-02T23:50 | -10.77282 | -35.19339 | 0.006 | 100.1 |
| 2026-06-03T00:00 | -10.77282 | -35.19338 | 0.003 | 33.4 |
| 2026-06-03T00:10 | -10.77282 | -35.19339 | 0.005 | 227.7 |
| 2026-06-03T00:20 | -10.77281 | -35.19340 | 0.005 | 312.6 |
| 2026-06-03T00:30 | -10.77282 | -35.19340 | 0.004 | 174.3 |
| 2026-06-03T00:40 | -10.77282 | -35.19340 | 0.004 | 28.8 |
| 2026-06-03T00:50 | -10.77282 | -35.19340 | 0.001 | 236.0 |
| 2026-06-03T01:00 | -10.77282 | -35.19340 | 0.001 | 166.1 |
| 2026-06-03T01:10 | -10.77281 | -35.19339 | 0.006 | 51.5 |
| 2026-06-03T01:20 | -10.77281 | -35.19339 | 0.002 | 206.3 |
| 2026-06-03T01:30 | -10.77282 | -35.19340 | 0.004 | 243.2 |
| 2026-06-03T01:40 | -10.77281 | -35.19339 | 0.004 | 48.5 |
| 2026-06-03T01:50 | -10.77335 | -35.19365 | 0.213 | 205.2 |
| 2026-06-03T02:00 | -10.78170 | -35.18557 | 4.137 | 136.3 |
| 2026-06-03T02:10 | -10.79413 | -35.16649 | 8.091 | 123.4 |
| 2026-06-03T02:20 | -10.81161 | -35.14330 | 10.330 | 127.3 |
| 2026-06-03T02:30 | -10.82910 | -35.12045 | 10.229 | 127.8 |
| 2026-06-03T02:40 | -10.84645 | -35.09777 | 10.153 | 127.7 |
| 2026-06-03T02:50 | -10.86399 | -35.07487 | 10.260 | 127.8 |
| 2026-06-03T03:00 | -10.88163 | -35.05184 | 10.314 | 127.8 |
| 2026-06-03T03:10 | -10.89921 | -35.02888 | 10.282 | 127.8 |
| 2026-06-03T03:20 | -10.90340 | -35.00209 | 9.599 | 99.0 |
| 2026-06-03T03:30 | -10.92001 | -34.97905 | 10.094 | 126.1 |
| 2026-06-03T03:40 | -10.93853 | -34.95653 | 10.371 | 129.8 |
| 2026-06-03T03:50 | -10.95683 | -34.93434 | 10.231 | 129.8 |
| 2026-06-03T04:00 | -10.97542 | -34.91178 | 10.395 | 129.8 |
| 2026-06-03T04:10 | -10.99422 | -34.88915 | 10.465 | 130.1 |
| 2026-06-03T04:20 | -11.01303 | -34.86653 | 10.461 | 130.1 |
| 2026-06-03T04:30 | -11.03212 | -34.84347 | 10.643 | 130.0 |
| 2026-06-03T04:40 | -11.05097 | -34.82057 | 10.549 | 129.8 |
| 2026-06-03T04:50 | -11.06993 | -34.79771 | 10.560 | 130.0 |
| 2026-06-03T05:00 | -11.08872 | -34.77514 | 10.442 | 130.1 |
| 2026-06-03T05:10 | -11.10765 | -34.75219 | 10.577 | 129.9 |
| 2026-06-03T05:20 | -11.12461 | -34.73283 | 9.155 | 131.6 |
| 2026-06-03T05:30 | -11.12650 | -34.73161 | 0.803 | 147.5 |
| 2026-06-03T05:40 | -11.12652 | -34.73165 | 0.016 | 245.5 |
| 2026-06-03T05:50 | -11.12650 | -34.73164 | 0.008 | 37.1 |
| 2026-06-03T06:00 | -11.12650 | -34.73163 | 0.002 | 90.0 |
| 2026-06-03T06:10 | -11.12651 | -34.73161 | 0.010 | 115.0 |
| 2026-06-03T06:20 | -11.12649 | -34.73160 | 0.007 | 8.4 |
| 2026-06-03T06:30 | -11.12650 | -34.73161 | 0.004 | 224.6 |
| 2026-06-03T06:40 | -11.12651 | -34.73163 | 0.007 | 228.7 |
| 2026-06-03T06:50 | -11.12649 | -34.73162 | 0.008 | 24.0 |
| 2026-06-03T07:00 | -11.12650 | -34.73161 | 0.003 | 139.8 |
| 2026-06-03T07:10 | -11.12650 | -34.73161 | 0.001 | 33.4 |
| 2026-06-03T07:20 | -11.12650 | -34.73161 | 0.002 | 189.3 |
| 2026-06-03T07:30 | -11.12650 | -34.73161 | 0.001 | 270.0 |
| 2026-06-03T07:40 | -11.12650 | -34.73160 | 0.004 | 68.0 |
| 2026-06-03T07:50 | -11.12650 | -34.73161 | 0.002 | 238.7 |
| 2026-06-03T08:00 | -11.12648 | -34.73159 | 0.010 | 32.8 |
| 2026-06-03T08:10 | -11.12813 | -34.72998 | 0.820 | 136.0 |
| 2026-06-03T08:20 | -11.13700 | -34.71720 | 5.526 | 125.1 |
| 2026-06-03T08:30 | -11.15339 | -34.69426 | 10.017 | 125.9 |
| 2026-06-03T08:40 | -11.17033 | -34.67051 | 10.363 | 125.8 |
| 2026-06-03T08:50 | -11.18729 | -34.64674 | 10.371 | 125.8 |
| 2026-06-03T09:00 | -11.20429 | -34.62288 | 10.404 | 125.8 |
| 2026-06-03T09:10 | -11.22111 | -34.59932 | 10.281 | 125.9 |
| 2026-06-03T09:20 | -11.23806 | -34.57552 | 10.379 | 125.8 |
| 2026-06-03T09:30 | -11.25498 | -34.55180 | 10.345 | 125.9 |
| 2026-06-03T09:40 | -11.27186 | -34.52814 | 10.322 | 125.8 |
| 2026-06-03T09:50 | -11.28883 | -34.50433 | 10.382 | 125.8 |
| 2026-06-03T10:00 | -11.30578 | -34.48053 | 10.378 | 125.8 |
| 2026-06-03T10:10 | -11.31312 | -34.47027 | 4.477 | 126.0 |
| 2026-06-03T10:20 | -11.31320 | -34.47013 | 0.059 | 121.4 |
| 2026-06-03T10:30 | -11.31320 | -34.47012 | 0.003 | 54.1 |
| 2026-06-03T10:40 | -11.31319 | -34.47011 | 0.005 | 57.2 |
| 2026-06-03T10:50 | -11.31320 | -34.47013 | 0.007 | 247.3 |
| 2026-06-03T11:00 | -11.31320 | -34.47013 | 0.001 | 18.2 |
| 2026-06-03T11:10 | -11.31319 | -34.47012 | 0.003 | 69.2 |
| 2026-06-03T11:20 | -11.31319 | -34.47013 | 0.002 | 270.0 |
| 2026-06-03T11:30 | -11.31320 | -34.47012 | 0.005 | 132.7 |
| 2026-06-03T11:40 | -11.31321 | -34.47012 | 0.003 | 224.6 |
| 2026-06-03T11:50 | -11.31320 | -34.47011 | 0.003 | 57.6 |
| 2026-06-03T12:00 | -11.31320 | -34.47012 | 0.004 | 348.8 |
| 2026-06-03T12:10 | -11.31319 | -34.47013 | 0.004 | 284.2 |
| 2026-06-03T12:20 | -11.31321 | -34.47013 | 0.007 | 198.2 |
| 2026-06-03T12:30 | -11.31321 | -34.47014 | 0.002 | 281.5 |
| 2026-06-03T12:40 | -11.31321 | -34.47013 | 0.004 | 85.2 |
| 2026-06-03T12:50 | -11.31321 | -34.47013 | 0.002 | 292.1 |
| 2026-06-03T13:00 | -11.31320 | -34.47012 | 0.004 | 54.6 |
| 2026-06-03T13:10 | -11.31517 | -34.46992 | 0.710 | 174.2 |
| 2026-06-03T13:20 | -11.32211 | -34.45852 | 4.734 | 121.7 |
| 2026-06-03T13:30 | -11.33672 | -34.43822 | 8.881 | 126.1 |
| 2026-06-03T13:40 | -11.35411 | -34.41463 | 10.407 | 126.8 |
| 2026-06-03T13:50 | -11.37146 | -34.39110 | 10.384 | 126.8 |
| 2026-06-03T14:00 | -11.38875 | -34.36764 | 10.349 | 126.8 |
| 2026-06-03T14:10 | -11.40594 | -34.34431 | 10.288 | 126.8 |
| 2026-06-03T14:20 | -11.42302 | -34.32113 | 10.223 | 126.8 |
| 2026-06-03T14:30 | -11.44028 | -34.29773 | 10.324 | 126.8 |
| 2026-06-03T14:40 | -11.45782 | -34.27390 | 10.508 | 126.7 |
| 2026-06-03T14:50 | -11.47505 | -34.25052 | 10.310 | 126.8 |
| 2026-06-03T15:00 | -11.49108 | -34.22604 | 10.378 | 123.6 |
| 2026-06-03T15:10 | -11.50026 | -34.21762 | 4.437 | 137.9 |
| 2026-06-03T15:20 | -11.49989 | -34.21716 | 0.210 | 50.0 |
| 2026-06-03T15:30 | -11.49975 | -34.21704 | 0.067 | 41.6 |
| 2026-06-03T15:40 | -11.49974 | -34.21702 | 0.006 | 64.7 |
| 2026-06-03T15:50 | -11.49975 | -34.21703 | 0.003 | 220.2 |
| 2026-06-03T16:00 | -11.49969 | -34.21698 | 0.024 | 38.7 |
| 2026-06-03T16:10 | -11.49971 | -34.21700 | 0.007 | 224.6 |
| 2026-06-03T16:20 | -11.49970 | -34.21699 | 0.004 | 41.2 |
| 2026-06-03T16:30 | -11.49971 | -34.21702 | 0.011 | 246.5 |
| 2026-06-03T16:40 | -11.49972 | -34.21701 | 0.004 | 132.0 |
| 2026-06-03T16:50 | -11.49970 | -34.21702 | 0.006 | 339.7 |
| 2026-06-03T17:00 | -11.49973 | -34.21702 | 0.009 | 191.2 |
| 2026-06-03T17:10 | -11.49972 | -34.21701 | 0.005 | 67.1 |
| 2026-06-03T17:20 | -11.49972 | -34.21701 | 0.003 | 8.0 |
| 2026-06-03T17:30 | -11.49972 | -34.21701 | 0.003 | 261.8 |
| 2026-06-03T17:40 | -11.49972 | -34.21701 | 0.003 | 180.0 |
| 2026-06-03T17:50 | -11.49973 | -34.21701 | 0.002 | 135.4 |
| 2026-06-03T18:00 | -11.49972 | -34.21701 | 0.004 | 10.2 |
| 2026-06-03T18:10 | -11.49975 | -34.21705 | 0.019 | 226.1 |
| 2026-06-03T18:20 | -11.49975 | -34.21703 | 0.007 | 77.3 |
| 2026-06-03T18:30 | -11.49974 | -34.21703 | 0.004 | 16.5 |
| 2026-06-03T18:40 | -11.50004 | -34.21281 | 1.492 | 94.1 |
| 2026-06-03T18:50 | -11.50009 | -34.19215 | 7.299 | 90.2 |
| 2026-06-03T19:00 | -11.49998 | -34.16334 | 10.178 | 89.8 |
| 2026-06-03T19:10 | -11.49998 | -34.13427 | 10.268 | 90.0 |
| 2026-06-03T19:20 | -11.49998 | -34.10489 | 10.380 | 90.0 |
| 2026-06-03T19:30 | -11.49999 | -34.07514 | 10.509 | 90.0 |
| 2026-06-03T19:40 | -11.49999 | -34.04551 | 10.466 | 90.0 |
| 2026-06-03T19:50 | -11.49999 | -34.01548 | 10.608 | 90.0 |
| 2026-06-03T20:00 | -11.49998 | -33.98533 | 10.652 | 90.0 |
| 2026-06-03T20:10 | -11.49999 | -33.95587 | 10.407 | 90.0 |
| 2026-06-03T20:20 | -11.49998 | -33.92636 | 10.425 | 90.0 |
| 2026-06-03T20:30 | -11.49997 | -33.89715 | 10.317 | 90.0 |
| 2026-06-03T20:40 | -11.50003 | -33.88417 | 4.586 | 90.3 |
| 2026-06-03T20:50 | -11.49995 | -33.88397 | 0.077 | 66.9 |
| 2026-06-03T21:00 | -11.49973 | -33.88347 | 0.193 | 66.7 |
| 2026-06-03T21:10 | -11.49997 | -33.88326 | 0.113 | 139.0 |
| 2026-06-03T21:20 | -11.49995 | -33.88323 | 0.011 | 54.9 |
| 2026-06-03T21:30 | -11.49997 | -33.88327 | 0.015 | 249.7 |
| 2026-06-03T21:40 | -11.49996 | -33.88327 | 0.003 | 57.6 |
| 2026-06-03T21:50 | -11.49997 | -33.88327 | 0.004 | 235.9 |
| 2026-06-03T22:00 | -11.49997 | -33.88327 | 0.001 | 44.6 |
| 2026-06-03T22:10 | -11.49997 | -33.88328 | 0.004 | 270.0 |
| 2026-06-03T22:20 | -11.49997 | -33.88330 | 0.005 | 248.1 |
| 2026-06-03T22:30 | -11.49996 | -33.88328 | 0.007 | 44.8 |
| 2026-06-03T22:40 | -11.49997 | -33.88328 | 0.004 | 173.4 |
| 2026-06-03T22:50 | -11.49995 | -33.88330 | 0.009 | 310.5 |
| 2026-06-03T23:00 | -11.49997 | -33.88329 | 0.007 | 141.3 |
| 2026-06-03T23:10 | -11.49998 | -33.88329 | 0.003 | 177.1 |
| 2026-06-03T23:20 | -11.49996 | -33.88328 | 0.006 | 33.3 |
| 2026-06-03T23:30 | -11.49996 | -33.88328 | 0.002 | 206.2 |
| 2026-06-03T23:40 | -11.49995 | -33.88329 | 0.004 | 346.1 |
| 2026-06-03T23:50 | -11.49997 | -33.88328 | 0.005 | 163.1 |
| 2026-06-04T00:00 | -11.49998 | -33.88330 | 0.006 | 235.9 |
| 2026-06-04T00:10 | -11.49996 | -33.88329 | 0.007 | 20.0 |
| 2026-06-04T00:20 | -11.49995 | -33.88327 | 0.005 | 73.8 |
| 2026-06-04T00:30 | -11.49996 | -33.88329 | 0.007 | 232.8 |
| 2026-06-04T00:40 | -11.50021 | -33.88336 | 0.090 | 195.4 |
| 2026-06-04T00:50 | -11.49999 | -33.87276 | 3.746 | 88.8 |
| 2026-06-04T01:00 | -11.49997 | -33.84498 | 9.814 | 90.0 |
| 2026-06-04T01:10 | -11.49998 | -33.81592 | 10.266 | 90.0 |
| 2026-06-04T01:20 | -11.49998 | -33.78690 | 10.250 | 90.0 |
| 2026-06-04T01:30 | -11.50000 | -33.75815 | 10.157 | 90.0 |
| 2026-06-04T01:40 | -11.49999 | -33.72963 | 10.076 | 90.0 |
| 2026-06-04T01:50 | -11.49997 | -33.70071 | 10.216 | 90.0 |
| 2026-06-04T02:00 | -11.49998 | -33.67148 | 10.326 | 90.0 |
| 2026-06-04T02:10 | -11.49998 | -33.64219 | 10.347 | 90.0 |
| 2026-06-04T02:20 | -11.49998 | -33.61280 | 10.383 | 90.0 |
| 2026-06-04T02:30 | -11.49998 | -33.58325 | 10.438 | 90.0 |
| 2026-06-04T02:40 | -11.49994 | -33.55613 | 9.579 | 89.9 |
| 2026-06-04T02:50 | -11.49937 | -33.55060 | 1.963 | 84.0 |
| 2026-06-04T03:00 | -11.49955 | -33.55047 | 0.081 | 142.9 |
| 2026-06-04T03:10 | -11.49952 | -33.55044 | 0.012 | 47.0 |
| 2026-06-04T03:20 | -11.49954 | -33.55046 | 0.009 | 234.1 |
| 2026-06-04T03:30 | -11.49952 | -33.55044 | 0.010 | 58.3 |
| 2026-06-04T03:40 | -11.49953 | -33.55043 | 0.003 | 97.2 |
| 2026-06-04T03:50 | -11.49954 | -33.55045 | 0.007 | 235.1 |
| 2026-06-04T04:00 | -11.49954 | -33.55046 | 0.004 | 270.0 |
| 2026-06-04T04:10 | -11.49953 | -33.55044 | 0.007 | 53.4 |
| 2026-06-04T04:20 | -11.49953 | -33.55044 | 0.001 | 104.2 |
| 2026-06-04T04:30 | -11.49954 | -33.55045 | 0.007 | 226.7 |
| 2026-06-04T04:40 | -11.49953 | -33.55044 | 0.007 | 42.5 |
| 2026-06-04T04:50 | -11.49953 | -33.55045 | 0.005 | 262.3 |
| 2026-06-04T05:00 | -11.49953 | -33.55045 | 0.004 | 128.3 |
| 2026-06-04T05:10 | -11.49954 | -33.55046 | 0.007 | 246.9 |
| 2026-06-04T05:20 | -11.49954 | -33.55044 | 0.007 | 75.8 |
| 2026-06-04T05:30 | -11.49953 | -33.55045 | 0.003 | 352.0 |
| 2026-06-04T05:40 | -11.49953 | -33.55045 | 0.002 | 224.6 |
| 2026-06-04T05:50 | -11.49953 | -33.55045 | 0.002 | 21.5 |
| 2026-06-04T06:00 | -11.49953 | -33.55044 | 0.002 | 121.3 |
| 2026-06-04T06:10 | -11.49767 | -33.54554 | 1.855 | 68.9 |
| 2026-06-04T06:20 | -11.49818 | -33.52244 | 8.164 | 91.3 |
| 2026-06-04T06:30 | -11.49999 | -33.49428 | 9.968 | 93.7 |
| 2026-06-04T06:40 | -11.49999 | -33.46578 | 10.069 | 90.0 |
| 2026-06-04T06:50 | -11.49997 | -33.43686 | 10.217 | 90.0 |
| 2026-06-04T07:00 | -11.50000 | -33.40832 | 10.079 | 90.1 |
| 2026-06-04T07:10 | -11.49999 | -33.37947 | 10.192 | 90.0 |
| 2026-06-04T07:20 | -11.49998 | -33.35071 | 10.159 | 90.0 |
| 2026-06-04T07:30 | -11.49999 | -33.32173 | 10.237 | 90.0 |
| 2026-06-04T07:40 | -11.49997 | -33.29673 | 8.834 | 90.0 |
| 2026-06-04T07:50 | -11.49999 | -33.26876 | 9.880 | 90.0 |
| 2026-06-04T08:00 | -11.49999 | -33.23991 | 10.193 | 90.0 |
| 2026-06-04T08:10 | -11.49589 | -33.22049 | 7.013 | 77.9 |
| 2026-06-04T08:20 | -11.49970 | -33.21743 | 1.743 | 141.6 |
| 2026-06-04T08:30 | -11.49980 | -33.21700 | 0.155 | 102.8 |
| 2026-06-04T08:40 | -11.49979 | -33.21698 | 0.006 | 55.9 |
| 2026-06-04T08:50 | -11.49977 | -33.21696 | 0.011 | 51.0 |
| 2026-06-04T09:00 | -11.49978 | -33.21698 | 0.008 | 243.1 |
| 2026-06-04T09:10 | -11.49978 | -33.21696 | 0.008 | 87.5 |
| 2026-06-04T09:20 | -11.49978 | -33.21697 | 0.005 | 265.5 |
| 2026-06-04T09:30 | -11.49978 | -33.21697 | 0.002 | 158.5 |
| 2026-06-04T09:40 | -11.49978 | -33.21700 | 0.011 | 275.8 |
| 2026-06-04T09:50 | -11.49979 | -33.21699 | 0.006 | 135.4 |
| 2026-06-04T10:00 | -11.49978 | -33.21699 | 0.005 | 352.0 |
| 2026-06-04T10:10 | -11.49978 | -33.21699 | 0.002 | 238.3 |
| 2026-06-04T10:20 | -11.49978 | -33.21699 | 0.000 | 243.1 |
| 2026-06-04T10:30 | -11.49977 | -33.21698 | 0.006 | 61.6 |
| 2026-06-04T10:40 | -11.49978 | -33.21701 | 0.011 | 247.9 |
| 2026-06-04T10:50 | -11.49978 | -33.21699 | 0.007 | 80.9 |
| 2026-06-04T11:00 | -11.49978 | -33.21697 | 0.006 | 79.2 |
| 2026-06-04T11:10 | -11.49981 | -33.21821 | 0.439 | 268.5 |
| 2026-06-04T11:20 | -11.49777 | -33.21673 | 0.901 | 35.6 |
| 2026-06-04T11:30 | -11.48555 | -33.19716 | 8.181 | 57.7 |
| 2026-06-04T11:40 | -11.46871 | -33.17437 | 10.060 | 53.1 |
| 2026-06-04T11:50 | -11.45085 | -33.15017 | 10.680 | 53.2 |
| 2026-06-04T12:00 | -11.43294 | -33.12594 | 10.698 | 53.2 |
| 2026-06-04T12:10 | -11.41526 | -33.10201 | 10.564 | 53.2 |
| 2026-06-04T12:20 | -11.39774 | -33.07827 | 10.476 | 53.2 |
| 2026-06-04T12:30 | -11.38017 | -33.05448 | 10.502 | 53.2 |
| 2026-06-04T12:40 | -11.36269 | -33.03081 | 10.452 | 53.2 |
| 2026-06-04T12:50 | -11.34510 | -33.00702 | 10.505 | 53.2 |
| 2026-06-04T13:00 | -11.32773 | -32.98353 | 10.375 | 53.1 |
| 2026-06-04T13:10 | -11.31025 | -32.95985 | 10.454 | 53.2 |
| 2026-06-04T13:20 | -11.29266 | -32.93606 | 10.508 | 53.1 |
| 2026-06-04T13:30 | -11.27523 | -32.91248 | 10.414 | 53.2 |
| 2026-06-04T13:40 | -11.25790 | -32.88901 | 10.365 | 53.2 |
| 2026-06-04T13:50 | -11.24059 | -32.86559 | 10.344 | 53.2 |
| 2026-06-04T14:00 | -11.22314 | -32.84199 | 10.427 | 53.2 |
| 2026-06-04T14:10 | -11.20605 | -32.81891 | 10.200 | 53.1 |
| 2026-06-04T14:20 | -11.18848 | -32.79510 | 10.515 | 53.2 |
| 2026-06-04T14:30 | -11.17075 | -32.77112 | 10.591 | 53.2 |
| 2026-06-04T14:40 | -11.15303 | -32.74717 | 10.586 | 53.2 |
| 2026-06-04T14:50 | -11.13572 | -32.72377 | 10.343 | 53.2 |
| 2026-06-04T15:00 | -11.11847 | -32.70042 | 10.313 | 53.2 |
| 2026-06-04T15:10 | -11.10101 | -32.67680 | 10.438 | 53.2 |
| 2026-06-04T15:20 | -11.08359 | -32.65324 | 10.408 | 53.2 |
| 2026-06-04T15:30 | -11.06608 | -32.62955 | 10.469 | 53.2 |
| 2026-06-04T15:40 | -11.04858 | -32.60596 | 10.437 | 53.1 |
| 2026-06-04T15:50 | -11.03118 | -32.58242 | 10.403 | 53.2 |
| 2026-06-04T16:00 | -11.01383 | -32.55893 | 10.379 | 53.2 |
| 2026-06-04T16:10 | -10.99623 | -32.53517 | 10.510 | 53.1 |
| 2026-06-04T16:20 | -10.97866 | -32.51141 | 10.501 | 53.2 |
| 2026-06-04T16:30 | -10.96112 | -32.48769 | 10.487 | 53.2 |
| 2026-06-04T16:40 | -10.94339 | -32.46372 | 10.595 | 53.2 |
| 2026-06-04T16:50 | -10.92557 | -32.43965 | 10.646 | 53.2 |
| 2026-06-04T17:00 | -10.90766 | -32.41544 | 10.704 | 53.2 |
| 2026-06-04T17:10 | -10.88961 | -32.39104 | 10.787 | 53.2 |
| 2026-06-04T17:20 | -10.87126 | -32.36637 | 10.933 | 53.0 |
| 2026-06-04T17:30 | -10.85303 | -32.34193 | 10.838 | 53.0 |
| 2026-06-04T17:40 | -10.83502 | -32.31778 | 10.713 | 53.0 |
| 2026-06-04T17:50 | -10.81734 | -32.29409 | 10.508 | 53.0 |
| 2026-06-04T18:00 | -10.79983 | -32.27059 | 10.421 | 53.0 |
| 2026-06-04T18:10 | -10.78236 | -32.24715 | 10.395 | 53.0 |
| 2026-06-04T18:20 | -10.76472 | -32.22347 | 10.498 | 53.0 |
| 2026-06-04T18:30 | -10.74714 | -32.19990 | 10.456 | 53.0 |
| 2026-06-04T18:40 | -10.72980 | -32.17662 | 10.323 | 53.0 |
| 2026-06-04T18:50 | -10.71252 | -32.15345 | 10.279 | 53.0 |
| 2026-06-04T19:00 | -10.69552 | -32.13067 | 10.108 | 53.0 |
| 2026-06-04T19:10 | -10.67838 | -32.10767 | 10.203 | 53.0 |
| 2026-06-04T19:20 | -10.66129 | -32.08476 | 10.166 | 53.0 |
| 2026-06-04T19:30 | -10.64461 | -32.06230 | 9.949 | 53.1 |
| 2026-06-04T19:40 | -10.62726 | -32.03910 | 10.302 | 52.9 |
| 2026-06-04T19:50 | -10.61013 | -32.01610 | 10.203 | 53.0 |
| 2026-06-04T20:00 | -10.59290 | -31.99302 | 10.242 | 53.0 |
| 2026-06-04T20:10 | -10.57568 | -31.96996 | 10.240 | 53.0 |
| 2026-06-04T20:20 | -10.55854 | -31.94694 | 10.209 | 53.0 |
| 2026-06-04T20:30 | -10.54148 | -31.92405 | 10.155 | 53.0 |
| 2026-06-04T20:40 | -10.52433 | -31.90109 | 10.197 | 53.0 |
| 2026-06-04T20:50 | -10.50712 | -31.87803 | 10.238 | 53.0 |
| 2026-06-04T21:00 | -10.48983 | -31.85471 | 10.324 | 53.2 |
| 2026-06-04T21:10 | -10.47249 | -31.83132 | 10.361 | 53.2 |
| 2026-06-04T21:20 | -10.45512 | -31.80779 | 10.405 | 53.3 |
| 2026-06-04T21:30 | -10.43760 | -31.78417 | 10.465 | 53.2 |
| 2026-06-04T21:40 | -10.42012 | -31.76057 | 10.450 | 53.2 |
| 2026-06-04T21:50 | -10.40236 | -31.73666 | 10.597 | 53.1 |
| 2026-06-04T22:00 | -10.38492 | -31.71311 | 10.428 | 53.2 |
| 2026-06-04T22:10 | -10.36759 | -31.68965 | 10.381 | 53.3 |
| 2026-06-04T22:20 | -10.35028 | -31.66630 | 10.344 | 53.2 |
| 2026-06-04T22:30 | -10.33304 | -31.64306 | 10.299 | 53.1 |
| 2026-06-04T22:40 | -10.31585 | -31.61982 | 10.286 | 53.2 |
| 2026-06-04T22:50 | -10.29864 | -31.59660 | 10.289 | 53.2 |
| 2026-06-04T23:00 | -10.28135 | -31.57329 | 10.328 | 53.2 |
| 2026-06-04T23:10 | -10.26396 | -31.54979 | 10.406 | 53.2 |
| 2026-06-04T23:20 | -10.24680 | -31.52662 | 10.265 | 53.2 |
| 2026-06-04T23:30 | -10.22948 | -31.50328 | 10.345 | 53.2 |
| 2026-06-04T23:40 | -10.21229 | -31.48008 | 10.279 | 53.2 |
| 2026-06-04T23:50 | -10.19494 | -31.45665 | 10.378 | 53.2 |
| 2026-06-05T00:00 | -10.17740 | -31.43304 | 10.470 | 53.1 |
| 2026-06-05T00:10 | -10.15991 | -31.40940 | 10.469 | 53.2 |
| 2026-06-05T00:20 | -10.14233 | -31.38573 | 10.498 | 53.2 |
| 2026-06-05T00:30 | -10.12491 | -31.36221 | 10.420 | 53.2 |
| 2026-06-05T00:40 | -10.10743 | -31.33862 | 10.453 | 53.2 |
| 2026-06-05T00:50 | -10.08995 | -31.31505 | 10.449 | 53.2 |
| 2026-06-05T01:00 | -10.07227 | -31.29118 | 10.576 | 53.2 |
| 2026-06-05T01:10 | -10.05454 | -31.26734 | 10.579 | 53.1 |
| 2026-06-05T01:20 | -10.03695 | -31.24357 | 10.532 | 53.3 |
| 2026-06-05T01:30 | -10.01945 | -31.22000 | 10.454 | 53.1 |
| 2026-06-05T01:40 | -10.00206 | -31.19655 | 10.395 | 53.2 |
| 2026-06-05T01:50 | -9.98475 | -31.17320 | 10.353 | 53.2 |
| 2026-06-05T02:00 | -9.96783 | -31.15040 | 10.112 | 53.2 |
| 2026-06-05T02:10 | -9.95073 | -31.12732 | 10.228 | 53.2 |
| 2026-06-05T02:20 | -9.93392 | -31.10466 | 10.051 | 53.2 |
| 2026-06-05T02:30 | -9.91712 | -31.08204 | 10.037 | 53.2 |
| 2026-06-05T02:40 | -9.90035 | -31.05940 | 10.034 | 53.2 |
| 2026-06-05T02:50 | -9.88340 | -31.03660 | 10.121 | 53.1 |
| 2026-06-05T03:00 | -9.86648 | -31.01378 | 10.119 | 53.2 |
| 2026-06-05T03:10 | -9.84942 | -30.99078 | 10.203 | 53.2 |
| 2026-06-05T03:20 | -9.83252 | -30.96802 | 10.098 | 53.2 |
| 2026-06-05T03:30 | -9.81538 | -30.94488 | 10.258 | 53.2 |
| 2026-06-05T03:40 | -9.79800 | -30.92150 | 10.378 | 53.2 |
| 2026-06-05T03:50 | -9.78067 | -30.89817 | 10.352 | 53.2 |
| 2026-06-05T04:00 | -9.76343 | -30.87491 | 10.317 | 53.2 |
| 2026-06-05T04:10 | -9.74624 | -30.85172 | 10.287 | 53.2 |
| 2026-06-05T04:20 | -9.72915 | -30.82874 | 10.202 | 53.1 |
| 2026-06-05T04:30 | -9.71205 | -30.80573 | 10.217 | 53.2 |
| 2026-06-05T04:40 | -9.69505 | -30.78279 | 10.174 | 53.2 |
| 2026-06-05T04:50 | -9.67785 | -30.75962 | 10.280 | 53.2 |
| 2026-06-05T05:00 | -9.66085 | -30.73673 | 10.159 | 53.2 |
| 2026-06-05T05:10 | -9.64385 | -30.71387 | 10.155 | 53.1 |
| 2026-06-05T05:20 | -9.62687 | -30.69098 | 10.158 | 53.2 |
| 2026-06-05T05:30 | -9.60982 | -30.66801 | 10.195 | 53.2 |
| 2026-06-05T05:40 | -9.59256 | -30.64476 | 10.320 | 53.2 |
| 2026-06-05T05:50 | -9.57555 | -30.62188 | 10.161 | 53.2 |
| 2026-06-05T06:00 | -9.55846 | -30.59886 | 10.220 | 53.2 |
| 2026-06-05T06:10 | -9.54110 | -30.57548 | 10.378 | 53.2 |
| 2026-06-05T06:20 | -9.52390 | -30.55232 | 10.283 | 53.2 |
| 2026-06-05T06:30 | -9.50655 | -30.52895 | 10.375 | 53.2 |
| 2026-06-05T06:40 | -9.48911 | -30.50547 | 10.427 | 53.2 |
| 2026-06-05T06:50 | -9.47172 | -30.48208 | 10.390 | 53.2 |
| 2026-06-05T07:00 | -9.45430 | -30.45863 | 10.412 | 53.2 |
| 2026-06-05T07:10 | -9.43700 | -30.43532 | 10.350 | 53.2 |
| 2026-06-05T07:20 | -9.41967 | -30.41199 | 10.362 | 53.2 |
| 2026-06-05T07:30 | -9.40258 | -30.38899 | 10.214 | 53.2 |
| 2026-06-05T07:40 | -9.38557 | -30.36611 | 10.165 | 53.2 |
| 2026-06-05T07:50 | -9.36864 | -30.34334 | 10.116 | 53.2 |
| 2026-06-05T08:00 | -9.35180 | -30.32067 | 10.071 | 53.2 |
| 2026-06-05T08:10 | -9.33460 | -30.29752 | 10.283 | 53.2 |
| 2026-06-05T08:20 | -9.31736 | -30.27432 | 10.306 | 53.2 |
| 2026-06-05T08:30 | -9.30037 | -30.25147 | 10.156 | 53.2 |
| 2026-06-05T08:40 | -9.28337 | -30.22857 | 10.170 | 53.2 |
| 2026-06-05T08:50 | -9.26613 | -30.20537 | 10.308 | 53.2 |
| 2026-06-05T09:00 | -9.24859 | -30.18180 | 10.476 | 53.2 |
| 2026-06-05T09:10 | -9.23094 | -30.15806 | 10.549 | 53.2 |
| 2026-06-05T09:20 | -9.21332 | -30.13437 | 10.531 | 53.2 |
| 2026-06-05T09:30 | -9.19569 | -30.11066 | 10.539 | 53.2 |
| 2026-06-05T09:40 | -9.17815 | -30.08707 | 10.484 | 53.2 |
| 2026-06-05T09:50 | -9.16075 | -30.06365 | 10.405 | 53.2 |
| 2026-06-05T10:00 | -9.14347 | -30.04040 | 10.334 | 53.2 |
| 2026-06-05T10:10 | -9.12602 | -30.01694 | 10.430 | 53.2 |
| 2026-06-05T10:20 | -9.10849 | -29.99339 | 10.471 | 53.2 |
| 2026-06-05T10:30 | -9.09076 | -29.96953 | 10.604 | 53.2 |
| 2026-06-05T10:40 | -9.07310 | -29.94578 | 10.558 | 53.2 |
| 2026-06-05T10:50 | -9.05529 | -29.92183 | 10.649 | 53.2 |
| 2026-06-05T11:00 | -9.03739 | -29.89776 | 10.700 | 53.2 |
| 2026-06-05T11:10 | -9.01937 | -29.87355 | 10.766 | 53.2 |
| 2026-06-05T11:20 | -9.00144 | -29.84945 | 10.718 | 53.2 |
| 2026-06-05T11:30 | -8.98345 | -29.82525 | 10.757 | 53.2 |
| 2026-06-05T11:40 | -8.96536 | -29.80095 | 10.811 | 53.2 |
| 2026-06-05T11:50 | -8.94739 | -29.77679 | 10.744 | 53.2 |
| 2026-06-05T12:00 | -8.92949 | -29.75272 | 10.704 | 53.2 |
| 2026-06-05T12:10 | -8.91144 | -29.72847 | 10.786 | 53.2 |
| 2026-06-05T12:20 | -8.89350 | -29.70437 | 10.720 | 53.2 |
| 2026-06-05T12:30 | -8.87560 | -29.68032 | 10.701 | 53.2 |
| 2026-06-05T12:40 | -8.85758 | -29.65609 | 10.776 | 53.2 |
| 2026-06-05T12:50 | -8.83949 | -29.63180 | 10.810 | 53.2 |
| 2026-06-05T13:00 | -8.82146 | -29.60755 | 10.784 | 53.2 |
| 2026-06-05T13:10 | -8.80345 | -29.58338 | 10.756 | 53.2 |
| 2026-06-05T13:20 | -8.78528 | -29.55893 | 10.874 | 53.2 |
| 2026-06-05T13:30 | -8.76696 | -29.53432 | 10.951 | 53.2 |
| 2026-06-05T13:40 | -8.74869 | -29.50980 | 10.913 | 53.2 |
| 2026-06-05T13:50 | -8.73041 | -29.48524 | 10.927 | 53.2 |
| 2026-06-05T14:00 | -8.71211 | -29.46067 | 10.935 | 53.2 |
| 2026-06-05T14:10 | -8.69392 | -29.43621 | 10.884 | 53.2 |
| 2026-06-05T14:20 | -8.67566 | -29.41171 | 10.906 | 53.2 |
| 2026-06-05T14:30 | -8.65751 | -29.38734 | 10.848 | 53.2 |
| 2026-06-05T14:40 | -8.63948 | -29.36312 | 10.779 | 53.2 |
| 2026-06-05T14:50 | -8.62137 | -29.33882 | 10.818 | 53.2 |
| 2026-06-05T15:00 | -8.60328 | -29.31448 | 10.828 | 53.2 |
| 2026-06-05T15:10 | -8.58514 | -29.29012 | 10.847 | 53.2 |
| 2026-06-05T15:20 | -8.56690 | -29.26564 | 10.897 | 53.2 |
| 2026-06-05T15:30 | -8.54880 | -29.24136 | 10.812 | 53.2 |
| 2026-06-05T15:40 | -8.53081 | -29.21720 | 10.759 | 53.2 |
| 2026-06-05T15:50 | -8.51259 | -29.19274 | 10.888 | 53.2 |
| 2026-06-05T16:00 | -8.49438 | -29.16830 | 10.885 | 53.2 |
| 2026-06-05T16:10 | -8.47621 | -29.14386 | 10.875 | 53.2 |
| 2026-06-05T16:20 | -8.45792 | -29.11937 | 10.917 | 53.1 |
| 2026-06-05T16:30 | -8.43974 | -29.09497 | 10.864 | 53.2 |
| 2026-06-05T16:40 | -8.42158 | -29.07055 | 10.869 | 53.2 |
| 2026-06-05T16:50 | -8.40336 | -29.04610 | 10.892 | 53.2 |
| 2026-06-05T17:00 | -8.38492 | -29.02138 | 11.012 | 53.2 |
| 2026-06-05T17:10 | -8.36648 | -28.99661 | 11.032 | 53.2 |
| 2026-06-05T17:20 | -8.34807 | -28.97189 | 11.007 | 53.2 |
| 2026-06-05T17:30 | -8.32967 | -28.94724 | 10.989 | 53.2 |
| 2026-06-05T17:40 | -8.31130 | -28.92257 | 10.986 | 53.2 |
| 2026-06-05T17:50 | -8.29295 | -28.89796 | 10.965 | 53.2 |
| 2026-06-05T18:00 | -8.27449 | -28.87317 | 11.040 | 53.2 |
| 2026-06-05T18:10 | -8.25592 | -28.84828 | 11.095 | 53.2 |
| 2026-06-05T18:20 | -8.23746 | -28.82352 | 11.031 | 53.2 |
| 2026-06-05T18:30 | -8.21923 | -28.79903 | 10.908 | 53.2 |
| 2026-06-05T18:40 | -8.20110 | -28.77476 | 10.822 | 53.1 |
| 2026-06-05T18:50 | -8.18309 | -28.75057 | 10.774 | 53.2 |
| 2026-06-05T19:00 | -8.16526 | -28.72666 | 10.658 | 53.2 |
| 2026-06-05T19:10 | -8.14755 | -28.70289 | 10.591 | 53.2 |
| 2026-06-05T19:20 | -8.12995 | -28.67928 | 10.519 | 53.2 |
| 2026-06-05T19:30 | -8.11231 | -28.65562 | 10.547 | 53.2 |
| 2026-06-05T19:40 | -8.09466 | -28.63198 | 10.541 | 53.2 |
| 2026-06-05T19:50 | -8.07688 | -28.60811 | 10.636 | 53.2 |
| 2026-06-05T20:00 | -8.05904 | -28.58421 | 10.657 | 53.2 |
| 2026-06-05T20:10 | -8.04122 | -28.56031 | 10.653 | 53.2 |
| 2026-06-05T20:20 | -8.02338 | -28.53637 | 10.669 | 53.2 |
| 2026-06-05T20:30 | -8.00540 | -28.51225 | 10.750 | 53.2 |
| 2026-06-05T20:40 | -7.98741 | -28.48815 | 10.749 | 53.2 |
| 2026-06-05T20:50 | -7.96937 | -28.46399 | 10.777 | 53.2 |
| 2026-06-05T21:00 | -7.95123 | -28.43966 | 10.845 | 53.2 |
| 2026-06-05T21:10 | -7.93330 | -28.41561 | 10.725 | 53.2 |
| 2026-06-05T21:20 | -7.91521 | -28.39137 | 10.808 | 53.2 |
| 2026-06-05T21:30 | -7.89715 | -28.36715 | 10.800 | 53.2 |
| 2026-06-05T21:40 | -7.87920 | -28.34311 | 10.726 | 53.2 |
| 2026-06-05T21:50 | -7.86129 | -28.31910 | 10.705 | 53.2 |
| 2026-06-05T22:00 | -7.84335 | -28.29505 | 10.724 | 53.2 |
| 2026-06-05T22:10 | -7.82545 | -28.27107 | 10.698 | 53.2 |
| 2026-06-05T22:20 | -7.80748 | -28.24696 | 10.749 | 53.2 |
| 2026-06-05T22:30 | -7.78931 | -28.22261 | 10.860 | 53.2 |
| 2026-06-05T22:40 | -7.77123 | -28.19839 | 10.806 | 53.2 |
| 2026-06-05T22:50 | -7.75309 | -28.17408 | 10.846 | 53.2 |
| 2026-06-05T23:00 | -7.73494 | -28.14976 | 10.847 | 53.2 |
| 2026-06-05T23:10 | -7.71697 | -28.12568 | 10.741 | 53.2 |
| 2026-06-05T23:20 | -7.69892 | -28.10151 | 10.788 | 53.2 |
| 2026-06-05T23:30 | -7.68091 | -28.07738 | 10.764 | 53.2 |
| 2026-06-05T23:40 | -7.66266 | -28.05291 | 10.916 | 53.2 |
| 2026-06-05T23:50 | -7.64436 | -28.02840 | 10.936 | 53.2 |
| 2026-06-06T00:00 | -7.62601 | -28.00384 | 10.963 | 53.2 |
| 2026-06-06T00:10 | -7.60771 | -27.97934 | 10.934 | 53.2 |
| 2026-06-06T00:20 | -7.58949 | -27.95491 | 10.899 | 53.2 |
| 2026-06-06T00:30 | -7.57136 | -27.93061 | 10.839 | 53.2 |
| 2026-06-06T00:40 | -7.55297 | -27.90602 | 10.985 | 53.1 |
| 2026-06-06T00:50 | -7.53451 | -27.88130 | 11.032 | 53.2 |
| 2026-06-06T01:00 | -7.51608 | -27.85661 | 11.017 | 53.2 |
| 2026-06-06T01:10 | -7.49778 | -27.83209 | 10.945 | 53.2 |
| 2026-06-06T01:20 | -7.47943 | -27.80752 | 10.966 | 53.2 |
| 2026-06-06T01:30 | -7.46103 | -27.78289 | 10.994 | 53.2 |
| 2026-06-06T01:40 | -7.44257 | -27.75816 | 11.039 | 53.2 |
| 2026-06-06T01:50 | -7.42396 | -27.73325 | 11.121 | 53.2 |
| 2026-06-06T02:00 | -7.40524 | -27.70819 | 11.189 | 53.2 |
| 2026-06-06T02:10 | -7.38665 | -27.68330 | 11.114 | 53.2 |
| 2026-06-06T02:20 | -7.36811 | -27.65848 | 11.080 | 53.2 |
| 2026-06-06T02:30 | -7.34975 | -27.63389 | 10.976 | 53.2 |
| 2026-06-06T02:40 | -7.33131 | -27.60924 | 11.014 | 53.2 |
| 2026-06-06T02:50 | -7.31298 | -27.58469 | 10.960 | 53.2 |
| 2026-06-06T03:00 | -7.29465 | -27.56018 | 10.948 | 53.2 |
| 2026-06-06T03:10 | -7.27648 | -27.53582 | 10.873 | 53.2 |
| 2026-06-06T03:20 | -7.25819 | -27.51132 | 10.939 | 53.2 |
| 2026-06-06T03:30 | -7.23990 | -27.48684 | 10.932 | 53.2 |
| 2026-06-06T03:40 | -7.22162 | -27.46240 | 10.921 | 53.2 |
| 2026-06-06T03:50 | -7.20345 | -27.43810 | 10.856 | 53.2 |
| 2026-06-06T04:00 | -7.18510 | -27.41351 | 10.976 | 53.2 |
| 2026-06-06T04:10 | -7.16685 | -27.38911 | 10.905 | 53.2 |
| 2026-06-06T04:20 | -7.14858 | -27.36466 | 10.919 | 53.2 |
| 2026-06-06T04:30 | -7.13023 | -27.34011 | 10.968 | 53.2 |
| 2026-06-06T04:40 | -7.11186 | -27.31555 | 10.977 | 53.2 |
| 2026-06-06T04:50 | -7.09355 | -27.29101 | 10.954 | 53.2 |
| 2026-06-06T05:00 | -7.07538 | -27.26672 | 10.856 | 53.2 |
| 2026-06-06T05:10 | -7.05711 | -27.24228 | 10.919 | 53.2 |
| 2026-06-06T05:20 | -7.03887 | -27.21790 | 10.896 | 53.2 |
| 2026-06-06T05:30 | -7.02052 | -27.19334 | 10.974 | 53.2 |
| 2026-06-06T05:40 | -7.00219 | -27.16882 | 10.955 | 53.2 |
| 2026-06-06T05:50 | -6.98391 | -27.14437 | 10.925 | 53.2 |
| 2026-06-06T06:00 | -6.96571 | -27.12005 | 10.875 | 53.2 |
| 2026-06-06T06:10 | -6.94739 | -27.09552 | 10.957 | 53.2 |
| 2026-06-06T06:20 | -6.92903 | -27.07097 | 10.971 | 53.2 |
| 2026-06-06T06:30 | -6.91080 | -27.04659 | 10.897 | 53.2 |
| 2026-06-06T06:40 | -6.89254 | -27.02217 | 10.914 | 53.2 |
| 2026-06-06T06:50 | -6.87431 | -26.99780 | 10.893 | 53.2 |
| 2026-06-06T07:00 | -6.85607 | -26.97340 | 10.907 | 53.2 |
| 2026-06-06T07:10 | -6.83796 | -26.94919 | 10.824 | 53.2 |
| 2026-06-06T07:20 | -6.81997 | -26.92514 | 10.749 | 53.2 |
| 2026-06-06T07:30 | -6.80194 | -26.90102 | 10.779 | 53.2 |
| 2026-06-06T07:40 | -6.78388 | -26.87685 | 10.804 | 53.2 |
| 2026-06-06T07:50 | -6.76583 | -26.85272 | 10.786 | 53.2 |
| 2026-06-06T08:00 | -6.74766 | -26.82845 | 10.854 | 53.2 |
| 2026-06-06T08:10 | -6.72950 | -26.80418 | 10.855 | 53.2 |
| 2026-06-06T08:20 | -6.71121 | -26.77973 | 10.931 | 53.2 |
| 2026-06-06T08:30 | -6.69296 | -26.75532 | 10.912 | 53.2 |
| 2026-06-06T08:40 | -6.67474 | -26.73098 | 10.883 | 53.2 |
| 2026-06-06T08:50 | -6.65635 | -26.70639 | 10.997 | 53.2 |
| 2026-06-06T09:00 | -6.63812 | -26.68203 | 10.895 | 53.2 |
| 2026-06-06T09:10 | -6.61993 | -26.65768 | 10.880 | 53.2 |
| 2026-06-06T09:20 | -6.60169 | -26.63331 | 10.901 | 53.2 |
| 2026-06-06T09:30 | -6.58350 | -26.60899 | 10.876 | 53.2 |
| 2026-06-06T09:40 | -6.56530 | -26.58469 | 10.873 | 53.2 |
| 2026-06-06T09:50 | -6.54704 | -26.56028 | 10.914 | 53.2 |
| 2026-06-06T10:00 | -6.52878 | -26.53589 | 10.910 | 53.2 |
| 2026-06-06T10:10 | -6.51070 | -26.51172 | 10.811 | 53.2 |
| 2026-06-06T10:20 | -6.49251 | -26.48741 | 10.874 | 53.2 |
| 2026-06-06T10:30 | -6.47439 | -26.46322 | 10.823 | 53.2 |
| 2026-06-06T10:40 | -6.45631 | -26.43904 | 10.811 | 53.2 |
| 2026-06-06T10:50 | -6.43822 | -26.41490 | 10.804 | 53.2 |
| 2026-06-06T11:00 | -6.42021 | -26.39082 | 10.770 | 53.2 |
| 2026-06-06T11:10 | -6.40210 | -26.36662 | 10.827 | 53.2 |
| 2026-06-06T11:20 | -6.38408 | -26.34255 | 10.769 | 53.2 |
| 2026-06-06T11:30 | -6.36598 | -26.31835 | 10.825 | 53.2 |
| 2026-06-06T11:40 | -6.34798 | -26.29433 | 10.753 | 53.2 |
| 2026-06-06T11:50 | -6.32997 | -26.27025 | 10.768 | 53.2 |
| 2026-06-06T12:00 | -6.31198 | -26.24623 | 10.751 | 53.2 |
| 2026-06-06T12:10 | -6.29411 | -26.22238 | 10.674 | 53.2 |
| 2026-06-06T12:20 | -6.27616 | -26.19842 | 10.725 | 53.2 |
| 2026-06-06T12:30 | -6.25836 | -26.17463 | 10.645 | 53.2 |
| 2026-06-06T12:40 | -6.24047 | -26.15074 | 10.693 | 53.2 |
| 2026-06-06T12:50 | -6.22264 | -26.12692 | 10.659 | 53.2 |
| 2026-06-06T13:00 | -6.20464 | -26.10288 | 10.758 | 53.2 |
| 2026-06-06T13:10 | -6.18649 | -26.07864 | 10.849 | 53.2 |
| 2026-06-06T13:20 | -6.16846 | -26.05455 | 10.780 | 53.2 |
| 2026-06-06T13:30 | -6.15038 | -26.03042 | 10.801 | 53.2 |
| 2026-06-06T13:40 | -6.13232 | -26.00629 | 10.801 | 53.2 |
| 2026-06-06T13:50 | -6.11425 | -25.98217 | 10.797 | 53.2 |
| 2026-06-06T14:00 | -6.09622 | -25.95808 | 10.782 | 53.2 |
| 2026-06-06T14:10 | -6.07815 | -25.93398 | 10.794 | 53.2 |
| 2026-06-06T14:20 | -6.06003 | -25.90978 | 10.833 | 53.2 |
| 2026-06-06T14:30 | -6.04190 | -25.88559 | 10.829 | 53.2 |
| 2026-06-06T14:40 | -6.02380 | -25.86142 | 10.823 | 53.2 |
| 2026-06-06T14:50 | -6.00574 | -25.83730 | 10.796 | 53.2 |
| 2026-06-06T15:00 | -5.98767 | -25.81318 | 10.802 | 53.2 |
| 2026-06-06T15:10 | -5.96961 | -25.78908 | 10.791 | 53.2 |
| 2026-06-06T15:20 | -5.95163 | -25.76508 | 10.747 | 53.2 |
| 2026-06-06T15:30 | -5.93365 | -25.74110 | 10.740 | 53.2 |
| 2026-06-06T15:40 | -5.91566 | -25.71708 | 10.755 | 53.2 |
| 2026-06-06T15:50 | -5.89771 | -25.69311 | 10.730 | 53.2 |
| 2026-06-06T16:00 | -5.87986 | -25.66927 | 10.674 | 53.2 |
| 2026-06-06T16:10 | -5.86181 | -25.64518 | 10.789 | 53.2 |
| 2026-06-06T16:20 | -5.84374 | -25.62111 | 10.786 | 53.1 |
| 2026-06-06T16:30 | -5.82566 | -25.59696 | 10.813 | 53.2 |
| 2026-06-06T16:40 | -5.80766 | -25.57292 | 10.764 | 53.2 |
| 2026-06-06T16:50 | -5.78972 | -25.54901 | 10.714 | 53.2 |
| 2026-06-06T17:00 | -5.77182 | -25.52512 | 10.701 | 53.2 |
| 2026-06-06T17:10 | -5.75460 | -25.50213 | 10.297 | 53.2 |
| 2026-06-06T17:20 | -5.73733 | -25.47910 | 10.318 | 53.2 |
| 2026-06-06T17:30 | -5.72007 | -25.45606 | 10.320 | 53.2 |
| 2026-06-06T17:40 | -5.70265 | -25.43281 | 10.415 | 53.2 |
| 2026-06-06T17:50 | -5.68510 | -25.40940 | 10.486 | 53.2 |
| 2026-06-06T18:00 | -5.66770 | -25.38618 | 10.402 | 53.2 |
| 2026-06-06T18:10 | -5.65001 | -25.36259 | 10.570 | 53.2 |
| 2026-06-06T18:20 | -5.63251 | -25.33922 | 10.466 | 53.2 |
| 2026-06-06T18:30 | -5.61503 | -25.31591 | 10.445 | 53.2 |
| 2026-06-06T18:40 | -5.59758 | -25.29263 | 10.432 | 53.2 |
| 2026-06-06T18:50 | -5.58013 | -25.26936 | 10.428 | 53.2 |
| 2026-06-06T19:00 | -5.56257 | -25.24595 | 10.489 | 53.2 |
| 2026-06-06T19:10 | -5.54497 | -25.22248 | 10.519 | 53.2 |
| 2026-06-06T19:20 | -5.52733 | -25.19893 | 10.547 | 53.2 |
| 2026-06-06T19:30 | -5.50973 | -25.17545 | 10.523 | 53.2 |
| 2026-06-06T19:40 | -5.49210 | -25.15194 | 10.537 | 53.2 |
| 2026-06-06T19:50 | -5.47439 | -25.12831 | 10.586 | 53.2 |
| 2026-06-06T20:00 | -5.45675 | -25.10477 | 10.550 | 53.2 |
| 2026-06-06T20:10 | -5.43899 | -25.08110 | 10.607 | 53.2 |
| 2026-06-06T20:20 | -5.42141 | -25.05767 | 10.504 | 53.2 |
| 2026-06-06T20:30 | -5.40392 | -25.03435 | 10.454 | 53.2 |
| 2026-06-06T20:40 | -5.38634 | -25.01092 | 10.505 | 53.2 |
| 2026-06-06T20:50 | -5.36855 | -24.98719 | 10.635 | 53.2 |
| 2026-06-06T21:00 | -5.35077 | -24.96345 | 10.634 | 53.2 |
| 2026-06-06T21:10 | -5.33305 | -24.93984 | 10.584 | 53.2 |
| 2026-06-06T21:20 | -5.31526 | -24.91611 | 10.637 | 53.2 |
| 2026-06-06T21:30 | -5.29742 | -24.89235 | 10.653 | 53.2 |
| 2026-06-06T21:40 | -5.27959 | -24.86857 | 10.660 | 53.2 |
| 2026-06-06T21:50 | -5.26187 | -24.84494 | 10.594 | 53.2 |
| 2026-06-06T22:00 | -5.24411 | -24.82128 | 10.608 | 53.2 |
| 2026-06-06T22:10 | -5.22632 | -24.79753 | 10.644 | 53.2 |
| 2026-06-06T22:20 | -5.20859 | -24.77391 | 10.592 | 53.2 |
| 2026-06-06T22:30 | -5.19090 | -24.75031 | 10.577 | 53.2 |
| 2026-06-06T22:40 | -5.17307 | -24.72657 | 10.650 | 53.2 |
| 2026-06-06T22:50 | -5.15544 | -24.70305 | 10.540 | 53.2 |
| 2026-06-06T23:00 | -5.13786 | -24.67963 | 10.504 | 53.2 |
| 2026-06-06T23:10 | -5.12035 | -24.65630 | 10.463 | 53.2 |
| 2026-06-06T23:20 | -5.10295 | -24.63311 | 10.400 | 53.2 |
| 2026-06-06T23:30 | -5.08550 | -24.60984 | 10.433 | 53.2 |
| 2026-06-06T23:40 | -5.06803 | -24.58653 | 10.451 | 53.2 |
| 2026-06-06T23:50 | -5.05043 | -24.56309 | 10.511 | 53.2 |
| 2026-06-07T00:00 | -5.03289 | -24.53972 | 10.481 | 53.2 |
| 2026-06-07T00:10 | -5.01544 | -24.51645 | 10.434 | 53.2 |
| 2026-06-07T00:20 | -4.99786 | -24.49303 | 10.506 | 53.2 |
| 2026-06-07T00:30 | -4.98019 | -24.46951 | 10.553 | 53.2 |
| 2026-06-07T00:40 | -4.96249 | -24.44589 | 10.590 | 53.2 |
| 2026-06-07T00:50 | -4.94480 | -24.42231 | 10.573 | 53.2 |
| 2026-06-07T01:00 | -4.92722 | -24.39889 | 10.505 | 53.2 |
| 2026-06-07T01:10 | -4.90977 | -24.37564 | 10.431 | 53.2 |
| 2026-06-07T01:20 | -4.89244 | -24.35255 | 10.356 | 53.2 |
| 2026-06-07T01:30 | -4.87507 | -24.32941 | 10.381 | 53.2 |
| 2026-06-07T01:40 | -4.85778 | -24.30637 | 10.334 | 53.2 |
| 2026-06-07T01:50 | -4.84061 | -24.28347 | 10.267 | 53.2 |
| 2026-06-07T02:00 | -4.82336 | -24.26054 | 10.295 | 53.1 |
| 2026-06-07T02:10 | -4.80598 | -24.23737 | 10.393 | 53.2 |
| 2026-06-07T02:20 | -4.78854 | -24.21414 | 10.422 | 53.2 |
| 2026-06-07T02:30 | -4.77119 | -24.19098 | 10.384 | 53.2 |
| 2026-06-07T02:40 | -4.75375 | -24.16777 | 10.417 | 53.2 |
| 2026-06-07T02:50 | -4.73625 | -24.14446 | 10.456 | 53.2 |
| 2026-06-07T03:00 | -4.71867 | -24.12104 | 10.508 | 53.2 |
| 2026-06-07T03:10 | -4.70109 | -24.09763 | 10.508 | 53.2 |
| 2026-06-07T03:20 | -4.68379 | -24.07413 | 10.467 | 53.7 |
| 2026-06-07T03:30 | -4.66672 | -24.05076 | 10.384 | 53.9 |
| 2026-06-07T03:40 | -4.64890 | -24.02812 | 10.338 | 51.9 |
| 2026-06-07T03:50 | -4.63138 | -24.00477 | 10.477 | 53.2 |
| 2026-06-07T04:00 | -4.61388 | -23.98148 | 10.452 | 53.2 |
| 2026-06-07T04:10 | -4.59637 | -23.95817 | 10.464 | 53.2 |
| 2026-06-07T04:20 | -4.57888 | -23.93485 | 10.460 | 53.2 |
| 2026-06-07T04:30 | -4.56129 | -23.91145 | 10.507 | 53.2 |
| 2026-06-07T04:40 | -4.54368 | -23.88796 | 10.533 | 53.2 |
| 2026-06-07T04:50 | -4.52605 | -23.86450 | 10.534 | 53.2 |
| 2026-06-07T05:00 | -4.50847 | -23.84109 | 10.505 | 53.2 |
| 2026-06-07T05:10 | -4.49086 | -23.81763 | 10.528 | 53.2 |
| 2026-06-07T05:20 | -4.47327 | -23.79422 | 10.510 | 53.2 |
| 2026-06-07T05:30 | -4.45573 | -23.77085 | 10.487 | 53.2 |
| 2026-06-07T05:40 | -4.43812 | -23.74742 | 10.519 | 53.2 |
| 2026-06-07T05:50 | -4.42067 | -23.72417 | 10.431 | 53.2 |
| 2026-06-07T06:00 | -4.40308 | -23.70075 | 10.515 | 53.2 |
| 2026-06-07T06:10 | -4.38540 | -23.67721 | 10.564 | 53.2 |
| 2026-06-07T06:20 | -4.36754 | -23.65343 | 10.677 | 53.2 |
| 2026-06-07T06:30 | -4.34970 | -23.62963 | 10.675 | 53.2 |
| 2026-06-07T06:40 | -4.33189 | -23.60594 | 10.639 | 53.2 |
| 2026-06-07T06:50 | -4.31416 | -23.58236 | 10.590 | 53.2 |
| 2026-06-07T07:00 | -4.29634 | -23.55859 | 10.663 | 53.2 |
| 2026-06-07T07:10 | -4.27860 | -23.53499 | 10.598 | 53.2 |
| 2026-06-07T07:20 | -4.26083 | -23.51135 | 10.614 | 53.2 |
| 2026-06-07T07:30 | -4.24309 | -23.48775 | 10.599 | 53.2 |
| 2026-06-07T07:40 | -4.22541 | -23.46422 | 10.566 | 53.2 |
| 2026-06-07T07:50 | -4.20770 | -23.44063 | 10.587 | 53.2 |
| 2026-06-07T08:00 | -4.18992 | -23.41698 | 10.622 | 53.2 |
| 2026-06-07T08:10 | -4.17205 | -23.39317 | 10.686 | 53.2 |
| 2026-06-07T08:20 | -4.15436 | -23.36963 | 10.572 | 53.2 |
| 2026-06-07T08:30 | -4.13672 | -23.34618 | 10.534 | 53.2 |
| 2026-06-07T08:40 | -4.11911 | -23.32272 | 10.530 | 53.2 |
| 2026-06-07T08:50 | -4.10707 | -23.30953 | 6.407 | 47.7 |
| 2026-06-07T09:00 | -4.10869 | -23.30848 | 0.691 | 146.7 |
| 2026-06-07T09:10 | -4.10863 | -23.30840 | 0.035 | 51.8 |
| 2026-06-07T09:20 | -4.10865 | -23.30839 | 0.008 | 160.6 |
| 2026-06-07T09:30 | -4.10871 | -23.30843 | 0.026 | 209.5 |
| 2026-06-07T09:40 | -4.11338 | -23.30245 | 2.725 | 127.9 |
| 2026-06-07T09:50 | -4.08989 | -23.29217 | 9.189 | 23.7 |
| 2026-06-07T10:00 | -4.06009 | -23.28410 | 11.058 | 15.2 |
| 2026-06-07T10:10 | -4.03025 | -23.27609 | 11.064 | 15.1 |
| 2026-06-07T10:20 | -4.00021 | -23.26935 | 11.027 | 12.7 |
| 2026-06-07T10:30 | -3.96980 | -23.26376 | 11.070 | 10.5 |
| 2026-06-07T10:40 | -3.93999 | -23.25572 | 11.059 | 15.2 |
| 2026-06-07T10:50 | -3.91053 | -23.24651 | 11.054 | 17.4 |
| 2026-06-07T11:00 | -3.88127 | -23.23738 | 10.982 | 17.4 |
| 2026-06-07T11:10 | -3.85193 | -23.22821 | 11.011 | 17.4 |
| 2026-06-07T11:20 | -3.82120 | -23.22603 | 11.030 | 4.1 |
| 2026-06-07T11:30 | -3.78966 | -23.22759 | 11.309 | 357.2 |
| 2026-06-07T11:40 | -3.75776 | -23.22919 | 11.434 | 357.1 |
| 2026-06-07T11:50 | -3.72582 | -23.23076 | 11.453 | 357.2 |
| 2026-06-07T12:00 | -3.69374 | -23.23235 | 11.497 | 357.2 |
| 2026-06-07T12:10 | -3.66171 | -23.23395 | 11.486 | 357.1 |
| 2026-06-07T12:20 | -3.62961 | -23.23553 | 11.505 | 357.1 |
| 2026-06-07T12:30 | -3.59753 | -23.23712 | 11.503 | 357.2 |
| 2026-06-07T12:40 | -3.56492 | -23.23874 | 11.691 | 357.1 |
| 2026-06-07T12:50 | -3.53253 | -23.24033 | 11.609 | 357.2 |
| 2026-06-07T13:00 | -3.50020 | -23.24194 | 11.593 | 357.1 |
| 2026-06-07T13:10 | -3.46815 | -23.24353 | 11.488 | 357.1 |
| 2026-06-07T13:20 | -3.43610 | -23.24512 | 11.490 | 357.1 |
| 2026-06-07T13:30 | -3.40431 | -23.24670 | 11.396 | 357.1 |
| 2026-06-07T13:40 | -3.37255 | -23.24827 | 11.387 | 357.2 |
| 2026-06-07T13:50 | -3.34092 | -23.24983 | 11.336 | 357.1 |
| 2026-06-07T14:00 | -3.30961 | -23.25138 | 11.224 | 357.1 |
| 2026-06-07T14:10 | -3.27835 | -23.25293 | 11.208 | 357.1 |
| 2026-06-07T14:20 | -3.24715 | -23.25448 | 11.187 | 357.1 |
| 2026-06-07T14:30 | -3.21593 | -23.25602 | 11.190 | 357.2 |
| 2026-06-07T14:40 | -3.18450 | -23.25758 | 11.266 | 357.1 |
| 2026-06-07T14:50 | -3.15329 | -23.25913 | 11.190 | 357.1 |
| 2026-06-07T15:00 | -3.12193 | -23.26067 | 11.242 | 357.2 |
| 2026-06-07T15:10 | -3.09014 | -23.26225 | 11.396 | 357.1 |
| 2026-06-07T15:20 | -3.05845 | -23.26383 | 11.359 | 357.1 |
| 2026-06-07T15:30 | -3.02679 | -23.26536 | 11.353 | 357.2 |
| 2026-06-07T15:40 | -2.99860 | -23.26940 | 10.194 | 351.8 |
| 2026-06-07T15:50 | -2.99990 | -23.26741 | 0.851 | 122.9 |
| 2026-06-07T16:00 | -2.99994 | -23.26748 | 0.028 | 235.6 |
| 2026-06-07T16:10 | -2.99994 | -23.26745 | 0.009 | 92.2 |
| 2026-06-07T16:20 | -2.99994 | -23.26745 | 0.001 | 0.0 |
| 2026-06-07T16:30 | -2.99994 | -23.26745 | 0.003 | 209.9 |
| 2026-06-07T16:40 | -2.99994 | -23.26745 | 0.004 | 53.3 |
| 2026-06-07T16:50 | -2.99994 | -23.26745 | 0.003 | 240.4 |
| 2026-06-07T17:00 | -2.99994 | -23.26745 | 0.001 | 206.7 |
| 2026-06-07T17:10 | -2.99996 | -23.26747 | 0.008 | 234.3 |
| 2026-06-07T17:20 | -3.00157 | -23.26959 | 0.956 | 232.8 |
| 2026-06-07T17:30 | -2.99886 | -23.27126 | 1.142 | 328.3 |
| 2026-06-07T17:40 | -2.98035 | -23.26846 | 6.702 | 8.6 |
| 2026-06-07T17:50 | -2.95562 | -23.27130 | 8.916 | 353.4 |
| 2026-06-07T18:00 | -2.92461 | -23.27050 | 11.107 | 1.5 |
| 2026-06-07T18:10 | -2.89275 | -23.27207 | 11.422 | 357.1 |
| 2026-06-07T18:20 | -2.86084 | -23.27367 | 11.436 | 357.1 |
| 2026-06-07T18:30 | -2.82869 | -23.27527 | 11.528 | 357.1 |
| 2026-06-07T18:40 | -2.79643 | -23.27689 | 11.563 | 357.1 |
| 2026-06-07T18:50 | -2.76436 | -23.27849 | 11.500 | 357.1 |
| 2026-06-07T19:00 | -2.73235 | -23.28010 | 11.475 | 357.1 |
| 2026-06-07T19:10 | -2.70067 | -23.28170 | 11.357 | 357.1 |
| 2026-06-07T19:20 | -2.66906 | -23.28326 | 11.332 | 357.2 |
| 2026-06-07T19:30 | -2.63777 | -23.28483 | 11.218 | 357.1 |
| 2026-06-07T19:40 | -2.60646 | -23.28638 | 11.224 | 357.1 |
| 2026-06-07T19:50 | -2.57499 | -23.28797 | 11.281 | 357.1 |
| 2026-06-07T20:00 | -2.54325 | -23.28956 | 11.381 | 357.1 |
| 2026-06-07T20:10 | -2.51112 | -23.29118 | 11.516 | 357.1 |
| 2026-06-07T20:20 | -2.47921 | -23.29276 | 11.441 | 357.1 |
| 2026-06-07T20:30 | -2.44707 | -23.29437 | 11.521 | 357.1 |
| 2026-06-07T20:40 | -2.41485 | -23.29598 | 11.552 | 357.1 |
| 2026-06-07T20:50 | -2.38260 | -23.29760 | 11.560 | 357.1 |
| 2026-06-07T21:00 | -2.35050 | -23.29919 | 11.508 | 357.1 |
| 2026-06-07T21:10 | -2.31882 | -23.30079 | 11.358 | 357.1 |
| 2026-06-07T21:20 | -2.28743 | -23.30234 | 11.253 | 357.1 |
| 2026-06-07T21:30 | -2.25640 | -23.30390 | 11.122 | 357.1 |
| 2026-06-07T21:40 | -2.22554 | -23.30542 | 11.066 | 357.1 |
| 2026-06-07T21:50 | -2.19440 | -23.30698 | 11.161 | 357.1 |
| 2026-06-07T22:00 | -2.16307 | -23.30857 | 11.232 | 357.1 |
| 2026-06-07T22:10 | -2.13162 | -23.31013 | 11.275 | 357.1 |
| 2026-06-07T22:20 | -2.10038 | -23.31171 | 11.202 | 357.1 |
| 2026-06-07T22:30 | -2.06912 | -23.31326 | 11.206 | 357.1 |
| 2026-06-07T22:40 | -2.03753 | -23.31484 | 11.322 | 357.1 |
| 2026-06-07T22:50 | -2.01153 | -23.31615 | 9.323 | 357.1 |
| 2026-06-07T23:00 | -1.99959 | -23.31814 | 4.332 | 350.5 |
| 2026-06-07T23:10 | -1.99998 | -23.31776 | 0.195 | 135.9 |
| 2026-06-07T23:20 | -1.99996 | -23.31772 | 0.015 | 58.7 |
| 2026-06-07T23:30 | -1.99998 | -23.31773 | 0.005 | 191.4 |
| 2026-06-07T23:40 | -1.99998 | -23.31773 | 0.001 | 314.8 |
| 2026-06-07T23:50 | -1.99998 | -23.31773 | 0.001 | 165.9 |
| 2026-06-08T00:00 | -1.99997 | -23.31772 | 0.005 | 30.4 |
| 2026-06-08T00:10 | -2.00027 | -23.31776 | 0.108 | 186.9 |
| 2026-06-08T00:20 | -1.99361 | -23.31722 | 2.390 | 4.7 |
| 2026-06-08T00:30 | -1.96465 | -23.32034 | 10.432 | 353.8 |
| 2026-06-08T00:40 | -1.93256 | -23.32359 | 11.546 | 354.2 |
| 2026-06-08T00:50 | -1.90075 | -23.32683 | 11.451 | 354.1 |
| 2026-06-08T01:00 | -1.86920 | -23.33003 | 11.355 | 354.2 |
| 2026-06-08T01:10 | -1.83726 | -23.33329 | 11.495 | 354.1 |
| 2026-06-08T01:20 | -1.80522 | -23.33655 | 11.532 | 354.2 |
| 2026-06-08T01:30 | -1.77291 | -23.33985 | 11.628 | 354.1 |
| 2026-06-08T01:40 | -1.74080 | -23.34314 | 11.557 | 354.1 |
| 2026-06-08T01:50 | -1.70877 | -23.34639 | 11.529 | 354.2 |
| 2026-06-08T02:00 | -1.67677 | -23.34964 | 11.518 | 354.2 |
| 2026-06-08T02:10 | -1.64479 | -23.35290 | 11.508 | 354.1 |
| 2026-06-08T02:20 | -1.61254 | -23.35619 | 11.608 | 354.1 |
| 2026-06-08T02:30 | -1.58041 | -23.35798 | 11.522 | 356.8 |
| 2026-06-08T02:40 | -1.54856 | -23.35712 | 11.407 | 1.6 |
| 2026-06-08T02:50 | -1.51699 | -23.35621 | 11.311 | 1.6 |
| 2026-06-08T03:00 | -1.48557 | -23.35535 | 11.252 | 1.6 |
| 2026-06-08T03:10 | -1.45395 | -23.35446 | 11.326 | 1.6 |
| 2026-06-08T03:20 | -1.42228 | -23.35355 | 11.343 | 1.6 |
| 2026-06-08T03:30 | -1.39066 | -23.35267 | 11.325 | 1.6 |
| 2026-06-08T03:40 | -1.35901 | -23.35179 | 11.339 | 1.6 |
| 2026-06-08T03:50 | -1.32706 | -23.35089 | 11.442 | 1.6 |
| 2026-06-08T04:00 | -1.29509 | -23.34999 | 11.453 | 1.6 |
| 2026-06-08T04:10 | -1.26316 | -23.34908 | 11.436 | 1.6 |
| 2026-06-08T04:20 | -1.23109 | -23.34819 | 11.486 | 1.6 |
| 2026-06-08T04:30 | -1.19874 | -23.34728 | 11.587 | 1.6 |
| 2026-06-08T04:40 | -1.16683 | -23.34640 | 11.430 | 1.6 |
| 2026-06-08T04:50 | -1.13498 | -23.34548 | 11.405 | 1.6 |
| 2026-06-08T05:00 | -1.10318 | -23.34460 | 11.391 | 1.6 |
| 2026-06-08T05:10 | -1.07116 | -23.34371 | 11.468 | 1.6 |
| 2026-06-08T05:20 | -1.03901 | -23.34281 | 11.518 | 1.6 |
| 2026-06-08T05:30 | -1.00692 | -23.34335 | 11.493 | 359.0 |
| 2026-06-08T05:40 | -1.00002 | -23.34150 | 2.557 | 15.1 |
| 2026-06-08T05:50 | -1.00034 | -23.34167 | 0.130 | 207.6 |
| 2026-06-08T06:00 | -1.00035 | -23.34167 | 0.004 | 208.8 |
| 2026-06-08T06:10 | -0.99996 | -23.34123 | 0.213 | 48.8 |
| 2026-06-08T06:20 | -0.99949 | -23.34000 | 0.474 | 69.2 |
| 2026-06-08T06:30 | -1.01251 | -23.33990 | 4.661 | 179.6 |
| 2026-06-08T06:40 | -0.98693 | -23.34634 | 9.450 | 345.8 |
| 2026-06-08T06:50 | -0.95452 | -23.34580 | 11.606 | 1.0 |
| 2026-06-08T07:00 | -0.92200 | -23.34499 | 11.645 | 1.4 |
| 2026-06-08T07:10 | -0.88943 | -23.34389 | 11.669 | 1.9 |
| 2026-06-08T07:20 | -0.85695 | -23.34278 | 11.634 | 1.9 |
| 2026-06-08T07:30 | -0.82487 | -23.34172 | 11.493 | 1.9 |
| 2026-06-08T07:40 | -0.79309 | -23.34061 | 11.384 | 2.0 |
| 2026-06-08T07:50 | -0.76168 | -23.33951 | 11.256 | 2.0 |
| 2026-06-08T08:00 | -0.73030 | -23.33842 | 11.240 | 2.0 |
| 2026-06-08T08:10 | -0.69854 | -23.33730 | 11.380 | 2.0 |
| 2026-06-08T08:20 | -0.66670 | -23.33620 | 11.405 | 2.0 |
| 2026-06-08T08:30 | -0.63501 | -23.33559 | 11.351 | 1.1 |
| 2026-06-08T08:40 | -0.60309 | -23.33507 | 11.428 | 0.9 |
| 2026-06-08T08:50 | -0.57181 | -23.33451 | 11.202 | 1.0 |
| 2026-06-08T09:00 | -0.54860 | -23.33411 | 8.310 | 1.0 |
| 2026-06-08T09:10 | -0.51669 | -23.33360 | 11.427 | 0.9 |
| 2026-06-08T09:20 | -0.49891 | -23.33458 | 6.376 | 356.8 |
| 2026-06-08T09:30 | -0.50077 | -23.33473 | 0.666 | 184.7 |
| 2026-06-08T09:40 | -0.50076 | -23.33480 | 0.024 | 276.8 |
| 2026-06-08T09:50 | -0.50020 | -23.33373 | 0.437 | 62.5 |
| 2026-06-08T10:00 | -0.49907 | -23.33327 | 0.436 | 22.1 |
| 2026-06-08T10:10 | -0.49864 | -23.33268 | 0.261 | 54.0 |
| 2026-06-08T10:20 | -0.48843 | -23.33286 | 3.657 | 359.0 |
| 2026-06-08T10:30 | -0.45749 | -23.33006 | 11.122 | 5.2 |
| 2026-06-08T10:40 | -0.42540 | -23.32761 | 11.523 | 4.4 |
| 2026-06-08T10:50 | -0.39301 | -23.32511 | 11.633 | 4.4 |
| 2026-06-08T11:00 | -0.36545 | -23.31082 | 11.131 | 27.6 |
| 2026-06-08T11:10 | -0.33802 | -23.29601 | 11.177 | 28.5 |
| 2026-06-08T11:20 | -0.31086 | -23.28133 | 11.073 | 28.6 |
| 2026-06-08T11:30 | -0.28357 | -23.26659 | 11.119 | 28.5 |
| 2026-06-08T11:40 | -0.25594 | -23.25164 | 11.265 | 28.6 |
| 2026-06-08T11:50 | -0.22865 | -23.23687 | 11.126 | 28.6 |
| 2026-06-08T12:00 | -0.20128 | -23.22210 | 11.154 | 28.5 |
| 2026-06-08T12:10 | -0.17382 | -23.20725 | 11.193 | 28.6 |
| 2026-06-08T12:20 | -0.14636 | -23.19241 | 11.192 | 28.5 |
| 2026-06-08T12:30 | -0.11914 | -23.17768 | 11.100 | 28.6 |
| 2026-06-08T12:40 | -0.09156 | -23.16280 | 11.235 | 28.5 |
| 2026-06-08T12:50 | -0.06400 | -23.14757 | 11.294 | 29.1 |
| 2026-06-08T13:00 | -0.03662 | -23.13193 | 11.309 | 29.9 |
| 2026-06-08T13:10 | -0.01071 | -23.11704 | 10.716 | 30.1 |
| 2026-06-08T13:20 | -0.00529 | -23.11616 | 1.966 | 9.3 |
| 2026-06-08T13:30 | -0.00521 | -23.11618 | 0.033 | 343.3 |
| 2026-06-08T13:40 | -0.00327 | -23.11601 | 0.695 | 5.2 |
| 2026-06-08T13:50 | -0.00294 | -23.11624 | 0.145 | 324.9 |
| 2026-06-08T14:00 | -0.00281 | -23.11633 | 0.056 | 323.7 |
| 2026-06-08T14:10 | -0.00203 | -23.11526 | 0.479 | 54.1 |
| 2026-06-08T14:20 | 0.00404 | -23.11134 | 2.593 | 33.0 |
| 2026-06-08T14:30 | 0.00611 | -23.10804 | 1.401 | 58.1 |
| 2026-06-08T14:40 | 0.00454 | -23.10707 | 0.660 | 148.2 |
| 2026-06-08T14:50 | 0.00454 | -23.10592 | 0.416 | 90.0 |
| 2026-06-08T15:00 | 0.00318 | -23.10324 | 1.081 | 116.8 |
| 2026-06-08T15:10 | 0.00196 | -23.10334 | 0.441 | 184.5 |
| 2026-06-08T15:20 | 0.00481 | -23.10373 | 1.031 | 352.2 |
| 2026-06-08T15:30 | 0.00735 | -23.10447 | 0.949 | 343.6 |
| 2026-06-08T15:40 | 0.00734 | -23.10284 | 0.587 | 90.5 |
| 2026-06-08T15:50 | 0.00660 | -23.10257 | 0.280 | 159.9 |
| 2026-06-08T16:00 | 0.00825 | -23.10176 | 0.661 | 26.5 |
| 2026-06-08T16:10 | 0.00925 | -23.10122 | 0.406 | 28.3 |
| 2026-06-08T16:20 | 0.00998 | -23.10026 | 0.434 | 53.2 |
| 2026-06-08T16:30 | 0.01053 | -23.09885 | 0.543 | 68.8 |
| 2026-06-08T16:40 | 0.01105 | -23.09748 | 0.528 | 69.4 |
| 2026-06-08T16:50 | 0.01111 | -23.09606 | 0.513 | 87.4 |
| 2026-06-08T17:00 | 0.01006 | -23.09498 | 0.541 | 134.2 |
| 2026-06-08T17:10 | 0.00846 | -23.09201 | 1.216 | 118.0 |
| 2026-06-08T17:20 | 0.00760 | -23.08934 | 1.009 | 107.7 |
| 2026-06-08T17:30 | 0.00741 | -23.08875 | 0.224 | 107.8 |
| 2026-06-08T17:40 | 0.00889 | -23.08815 | 0.571 | 22.1 |
| 2026-06-08T17:50 | 0.01055 | -23.08877 | 0.635 | 339.4 |
| 2026-06-08T18:00 | 0.01200 | -23.08893 | 0.523 | 353.7 |
| 2026-06-08T18:10 | 0.01332 | -23.08887 | 0.471 | 2.8 |
| 2026-06-08T18:20 | 0.01340 | -23.09020 | 0.480 | 273.6 |
| 2026-06-08T18:30 | 0.01341 | -23.09338 | 1.146 | 270.2 |
| 2026-06-08T18:40 | 0.01167 | -23.08153 | 4.315 | 98.3 |
| 2026-06-08T18:50 | 0.00992 | -23.06484 | 6.049 | 96.0 |
| 2026-06-08T19:00 | 0.00808 | -23.04801 | 6.102 | 96.2 |
| 2026-06-08T19:10 | 0.00631 | -23.03101 | 6.161 | 95.9 |
| 2026-06-08T19:20 | 0.00485 | -23.01363 | 6.285 | 94.8 |
| 2026-06-08T19:30 | 0.00409 | -22.99586 | 6.411 | 92.4 |
| 2026-06-08T19:40 | 0.00037 | -22.98196 | 5.187 | 104.9 |
| 2026-06-08T19:50 | -0.00156 | -22.98439 | 1.117 | 231.7 |
| 2026-06-08T20:00 | -0.00108 | -22.98758 | 1.164 | 278.6 |
| 2026-06-08T20:10 | -0.00083 | -22.98729 | 0.137 | 50.2 |
| 2026-06-08T20:20 | -0.00057 | -22.98746 | 0.112 | 326.7 |
| 2026-06-08T20:30 | -0.00026 | -22.98768 | 0.135 | 324.6 |
| 2026-06-08T20:40 | -0.00018 | -22.98773 | 0.035 | 327.1 |
| 2026-06-08T20:50 | -0.00003 | -22.98768 | 0.057 | 18.9 |
| 2026-06-08T21:00 | 0.00016 | -22.98758 | 0.077 | 27.6 |
| 2026-06-08T21:10 | 0.00030 | -22.98774 | 0.078 | 312.7 |
| 2026-06-08T21:20 | 0.00100 | -22.98806 | 0.276 | 335.1 |
| 2026-06-08T21:30 | 0.00164 | -22.98867 | 0.315 | 316.2 |
| 2026-06-08T21:40 | 0.00479 | -23.00473 | 5.897 | 281.0 |
| 2026-06-08T21:50 | 0.00255 | -23.03567 | 11.184 | 265.9 |
| 2026-06-08T22:00 | 0.00025 | -23.06870 | 11.933 | 266.0 |
| 2026-06-08T22:10 | -0.00209 | -23.10153 | 11.861 | 265.9 |
| 2026-06-08T22:20 | 0.00077 | -23.11406 | 4.633 | 282.8 |
| 2026-06-08T22:30 | 0.00072 | -23.11417 | 0.043 | 247.4 |
| 2026-06-08T22:40 | 0.00073 | -23.11427 | 0.034 | 270.6 |
| 2026-06-08T22:50 | 0.00072 | -23.11426 | 0.002 | 126.7 |
| 2026-06-08T23:00 | 0.00073 | -23.11427 | 0.003 | 326.1 |
| 2026-06-08T23:10 | 0.00072 | -23.11428 | 0.005 | 239.9 |
| 2026-06-08T23:20 | 0.00072 | -23.11426 | 0.006 | 82.9 |
| 2026-06-08T23:30 | 0.00072 | -23.11426 | 0.003 | 105.8 |
| 2026-06-08T23:40 | 0.00092 | -23.11489 | 0.237 | 287.1 |
| 2026-06-08T23:50 | 0.00136 | -23.11681 | 0.714 | 283.0 |
| 2026-06-09T00:00 | 0.00137 | -23.11771 | 0.323 | 270.3 |
| 2026-06-09T00:10 | 0.00140 | -23.11863 | 0.330 | 271.7 |
| 2026-06-09T00:20 | 0.00141 | -23.11950 | 0.314 | 270.9 |
| 2026-06-09T00:30 | 0.00142 | -23.12006 | 0.205 | 270.8 |
| 2026-06-09T00:40 | 0.00142 | -23.12102 | 0.346 | 270.2 |
| 2026-06-09T00:50 | 0.00142 | -23.12137 | 0.125 | 270.2 |
| 2026-06-09T01:00 | 0.00181 | -23.12066 | 0.291 | 61.9 |
| 2026-06-09T01:10 | 0.00351 | -23.12003 | 0.653 | 20.4 |
| 2026-06-09T01:20 | 0.00359 | -23.11884 | 0.429 | 86.5 |
| 2026-06-09T01:30 | 0.00761 | -23.09602 | 8.349 | 80.1 |
| 2026-06-09T01:40 | 0.00784 | -23.06645 | 10.661 | 89.6 |
| 2026-06-09T01:50 | 0.00724 | -23.03698 | 10.624 | 91.2 |
| 2026-06-09T02:00 | 0.00566 | -23.00775 | 10.549 | 93.1 |
| 2026-06-09T02:10 | 0.00541 | -22.99071 | 6.144 | 90.8 |
| 2026-06-09T02:20 | 0.00265 | -22.98843 | 1.287 | 140.3 |
| 2026-06-09T02:30 | 0.00217 | -22.98835 | 0.174 | 171.1 |
| 2026-06-09T02:40 | 0.00217 | -22.98834 | 0.005 | 61.9 |
| 2026-06-09T02:50 | 0.00219 | -22.98829 | 0.018 | 70.2 |
| 2026-06-09T03:00 | 0.00211 | -22.98825 | 0.033 | 148.9 |
| 2026-06-09T03:10 | 0.00211 | -22.98825 | 0.003 | 238.2 |
| 2026-06-09T03:20 | 0.00211 | -22.98825 | 0.001 | 45.2 |
| 2026-06-09T03:30 | 0.00202 | -22.98816 | 0.047 | 132.0 |
| 2026-06-09T03:40 | 0.00203 | -22.98814 | 0.006 | 68.3 |
| 2026-06-09T03:50 | 0.00195 | -22.98806 | 0.039 | 133.3 |
| 2026-06-09T04:00 | 0.00182 | -22.98791 | 0.072 | 131.0 |
| 2026-06-09T04:10 | 0.00183 | -22.98790 | 0.004 | 49.0 |
| 2026-06-09T04:20 | 0.00187 | -22.98778 | 0.048 | 69.5 |
| 2026-06-09T04:30 | 0.00169 | -22.98771 | 0.069 | 158.9 |
| 2026-06-09T04:40 | 0.00106 | -22.98701 | 0.339 | 132.4 |
| 2026-06-09T04:50 | -0.00429 | -22.99651 | 3.920 | 240.8 |
| 2026-06-09T05:00 | 0.00714 | -23.00801 | 5.827 | 314.6 |
| 2026-06-09T05:10 | 0.01774 | -23.01826 | 5.296 | 315.8 |
| 2026-06-09T05:20 | 0.02853 | -23.02860 | 5.369 | 316.0 |
| 2026-06-09T05:30 | 0.03802 | -23.03593 | 4.302 | 322.1 |
| 2026-06-09T05:40 | 0.03696 | -23.03652 | 0.435 | 209.1 |
| 2026-06-09T05:50 | 0.03560 | -23.03775 | 0.659 | 222.3 |
| 2026-06-09T06:00 | 0.03565 | -23.03768 | 0.032 | 53.0 |
| 2026-06-09T06:10 | 0.03565 | -23.03767 | 0.001 | 14.1 |
| 2026-06-09T06:20 | 0.03565 | -23.03767 | 0.001 | 104.0 |
| 2026-06-09T06:30 | 0.03566 | -23.03768 | 0.003 | 324.3 |
| 2026-06-09T06:40 | 0.03566 | -23.03767 | 0.001 | 123.5 |
| 2026-06-09T06:50 | 0.03564 | -23.03767 | 0.006 | 161.4 |
| 2026-06-09T07:00 | 0.03585 | -23.03810 | 0.173 | 295.6 |
| 2026-06-09T07:10 | 0.03500 | -23.04215 | 1.492 | 258.2 |
| 2026-06-09T07:20 | 0.03268 | -23.04646 | 1.761 | 241.9 |
| 2026-06-09T07:30 | 0.03056 | -23.05013 | 1.526 | 240.1 |
| 2026-06-09T07:40 | 0.02811 | -23.05398 | 1.638 | 237.7 |
| 2026-06-09T07:50 | 0.03614 | -23.06050 | 3.715 | 320.7 |
| 2026-06-09T08:00 | 0.04683 | -23.04397 | 7.083 | 57.3 |
| 2026-06-09T08:10 | 0.05890 | -23.02530 | 7.997 | 57.3 |
| 2026-06-09T08:20 | 0.06011 | -23.01010 | 5.497 | 85.5 |
| 2026-06-09T08:30 | 0.05505 | -23.01409 | 2.313 | 218.4 |
| 2026-06-09T08:40 | 0.05500 | -23.01447 | 0.141 | 263.6 |
| 2026-06-09T08:50 | 0.05481 | -23.01489 | 0.163 | 245.3 |
| 2026-06-09T09:00 | 0.05300 | -23.01808 | 1.322 | 240.6 |
| 2026-06-09T09:10 | 0.05114 | -23.02140 | 1.368 | 240.9 |
| 2026-06-09T09:20 | 0.04932 | -23.02469 | 1.355 | 241.2 |
| 2026-06-09T09:30 | 0.04749 | -23.02801 | 1.364 | 241.3 |
| 2026-06-09T09:40 | 0.04565 | -23.03131 | 1.361 | 241.0 |
| 2026-06-09T09:50 | 0.04378 | -23.03466 | 1.379 | 241.0 |
| 2026-06-09T10:00 | 0.04144 | -23.03884 | 1.726 | 240.9 |
| 2026-06-09T10:10 | 0.03907 | -23.04310 | 1.751 | 241.1 |
| 2026-06-09T10:20 | 0.03670 | -23.04734 | 1.748 | 241.0 |
| 2026-06-09T10:30 | 0.03434 | -23.05158 | 1.747 | 241.0 |
| 2026-06-09T10:40 | 0.03198 | -23.05582 | 1.748 | 241.1 |
| 2026-06-09T10:50 | 0.02960 | -23.06007 | 1.751 | 241.0 |
| 2026-06-09T11:00 | 0.02724 | -23.06431 | 1.747 | 241.0 |
| 2026-06-09T11:10 | 0.02488 | -23.06855 | 1.746 | 241.1 |
| 2026-06-09T11:20 | 0.02250 | -23.07279 | 1.751 | 240.9 |
| 2026-06-09T11:30 | 0.02013 | -23.07703 | 1.748 | 241.0 |
| 2026-06-09T11:40 | 0.01783 | -23.08121 | 1.715 | 241.2 |
| 2026-06-09T11:50 | 0.01572 | -23.08497 | 1.552 | 240.9 |
| 2026-06-09T12:00 | 0.01361 | -23.08873 | 1.555 | 240.9 |
| 2026-06-09T12:10 | 0.01150 | -23.09251 | 1.555 | 241.1 |
| 2026-06-09T12:20 | 0.00940 | -23.09629 | 1.555 | 241.0 |
| 2026-06-09T12:30 | 0.00731 | -23.10006 | 1.552 | 241.2 |
| 2026-06-09T12:40 | 0.00520 | -23.10383 | 1.554 | 240.9 |
| 2026-06-09T12:50 | 0.00309 | -23.10760 | 1.556 | 240.9 |
| 2026-06-09T13:00 | 0.00097 | -23.11136 | 1.554 | 240.9 |
| 2026-06-09T13:10 | -0.00112 | -23.11514 | 1.553 | 241.1 |
| 2026-06-09T13:20 | -0.00254 | -23.11752 | 0.996 | 239.4 |
| 2026-06-09T13:30 | -0.00548 | -23.11843 | 1.104 | 197.3 |
| 2026-06-09T13:40 | -0.00545 | -23.11231 | 2.205 | 89.7 |
| 2026-06-09T13:50 | -0.01285 | -23.12122 | 4.164 | 230.4 |
| 2026-06-09T14:00 | 0.01232 | -23.12663 | 9.222 | 347.8 |
| 2026-06-09T14:10 | 0.04239 | -23.11847 | 11.160 | 15.3 |
| 2026-06-09T14:20 | 0.07260 | -23.10969 | 11.269 | 16.3 |
| 2026-06-09T14:30 | 0.10302 | -23.10061 | 11.373 | 16.7 |
| 2026-06-09T14:40 | 0.13353 | -23.09156 | 11.401 | 16.6 |
| 2026-06-09T14:50 | 0.16336 | -23.08265 | 11.150 | 16.7 |
| 2026-06-09T15:00 | 0.19325 | -23.07376 | 11.172 | 16.7 |
| 2026-06-09T15:10 | 0.22249 | -23.06388 | 11.058 | 18.8 |
| 2026-06-09T15:20 | 0.25250 | -23.05610 | 11.103 | 14.6 |
| 2026-06-09T15:30 | 0.28257 | -23.04929 | 11.043 | 12.8 |
| 2026-06-09T15:40 | 0.31276 | -23.04244 | 11.089 | 12.9 |
| 2026-06-09T15:50 | 0.34311 | -23.03557 | 11.145 | 12.8 |
| 2026-06-09T16:00 | 0.37322 | -23.02876 | 11.058 | 12.8 |
| 2026-06-09T16:10 | 0.40286 | -23.02203 | 10.884 | 12.9 |
| 2026-06-09T16:20 | 0.43293 | -23.01522 | 11.042 | 12.8 |
| 2026-06-09T16:30 | 0.46310 | -23.00836 | 11.083 | 12.9 |
| 2026-06-09T16:40 | 0.49394 | -23.00320 | 11.196 | 9.6 |
| 2026-06-09T16:50 | 0.49909 | -23.00169 | 1.925 | 16.4 |
| 2026-06-09T17:00 | 0.49904 | -23.00178 | 0.037 | 239.6 |
| 2026-06-09T17:10 | 0.49904 | -23.00179 | 0.004 | 241.1 |
| 2026-06-09T17:20 | 0.49903 | -23.00178 | 0.004 | 111.7 |
| 2026-06-09T17:30 | 0.49733 | -23.00180 | 0.610 | 180.7 |
| 2026-06-09T17:40 | 0.49327 | -22.99108 | 4.129 | 110.6 |
| 2026-06-09T17:50 | 0.52508 | -22.99159 | 11.392 | 359.1 |
| 2026-06-09T18:00 | 0.55726 | -22.99219 | 11.523 | 358.9 |
| 2026-06-09T18:10 | 0.58960 | -22.99276 | 11.583 | 359.0 |
| 2026-06-09T18:20 | 0.62203 | -22.99332 | 11.610 | 359.0 |
| 2026-06-09T18:30 | 0.65478 | -22.99392 | 11.731 | 358.9 |
| 2026-06-09T18:40 | 0.68760 | -22.99446 | 11.751 | 359.1 |
| 2026-06-09T18:50 | 0.72055 | -22.99508 | 11.800 | 358.9 |
| 2026-06-09T19:00 | 0.75315 | -22.99564 | 11.674 | 359.0 |
| 2026-06-09T19:10 | 0.78531 | -22.99645 | 11.517 | 358.6 |
| 2026-06-09T19:20 | 0.81757 | -22.99705 | 11.554 | 358.9 |
| 2026-06-09T19:30 | 0.85019 | -22.99764 | 11.682 | 358.9 |
| 2026-06-09T19:40 | 0.88254 | -22.99819 | 11.583 | 359.0 |
| 2026-06-09T19:50 | 0.91478 | -22.99877 | 11.545 | 359.0 |
| 2026-06-09T20:00 | 0.94660 | -22.99933 | 11.394 | 359.0 |
| 2026-06-09T20:10 | 0.97829 | -22.99993 | 11.348 | 358.9 |
| 2026-06-09T20:20 | 1.00039 | -23.00261 | 7.973 | 353.1 |
| 2026-06-09T20:30 | 1.00018 | -23.00174 | 0.320 | 103.6 |
| 2026-06-09T20:40 | 1.00008 | -23.00177 | 0.036 | 192.2 |
| 2026-06-09T20:50 | 1.00013 | -23.00177 | 0.016 | 348.1 |
| 2026-06-09T21:00 | 1.00013 | -23.00177 | 0.003 | 49.6 |
| 2026-06-09T21:10 | 1.00012 | -23.00177 | 0.004 | 174.8 |
| 2026-06-09T21:20 | 1.00017 | -23.00174 | 0.021 | 24.9 |
| 2026-06-09T21:30 | 1.00012 | -23.00178 | 0.025 | 214.6 |
| 2026-06-09T21:40 | 1.00014 | -23.00176 | 0.010 | 37.9 |
| 2026-06-09T21:50 | 1.00015 | -23.00176 | 0.006 | 21.9 |
| 2026-06-09T22:00 | 1.00014 | -23.00176 | 0.005 | 187.6 |
| 2026-06-09T22:10 | 1.00012 | -23.00179 | 0.011 | 234.9 |
| 2026-06-09T22:20 | 1.00014 | -23.00177 | 0.009 | 41.8 |
| 2026-06-09T22:30 | 1.00013 | -23.00178 | 0.005 | 212.6 |
| 2026-06-09T22:40 | 1.00013 | -23.00178 | 0.000 | 0.0 |
| 2026-06-09T22:50 | 1.00013 | -23.00177 | 0.003 | 97.1 |
| 2026-06-09T23:00 | 1.00015 | -23.00177 | 0.009 | 343.6 |
| 2026-06-09T23:10 | 1.00000 | -23.00145 | 0.129 | 115.5 |
| 2026-06-09T23:20 | 1.01961 | -23.00007 | 7.041 | 4.1 |
| 2026-06-09T23:30 | 1.05068 | -23.00005 | 11.123 | 0.0 |
| 2026-06-09T23:40 | 1.08224 | -23.00002 | 11.300 | 0.1 |
| 2026-06-09T23:50 | 1.11380 | -23.00002 | 11.299 | 0.0 |
| 2026-06-10T00:00 | 1.14555 | -23.00002 | 11.370 | 0.0 |
| 2026-06-10T00:10 | 1.17756 | -23.00004 | 11.461 | 360.0 |
| 2026-06-10T00:20 | 1.20973 | -23.00002 | 11.518 | 0.0 |
| 2026-06-10T00:30 | 1.24192 | -23.00002 | 11.523 | 0.0 |
| 2026-06-10T00:40 | 1.27367 | -23.00003 | 11.371 | 360.0 |
| 2026-06-10T00:50 | 1.30518 | -23.00002 | 11.282 | 0.0 |
| 2026-06-10T01:00 | 1.33666 | -23.00002 | 11.271 | 360.0 |
| 2026-06-10T01:10 | 1.36830 | -23.00001 | 11.328 | 0.0 |
| 2026-06-10T01:20 | 1.39997 | -23.00004 | 11.339 | 359.9 |
| 2026-06-10T01:30 | 1.43207 | -23.00002 | 11.492 | 0.0 |
| 2026-06-10T01:40 | 1.46388 | -23.00003 | 11.388 | 360.0 |
| 2026-06-10T01:50 | 1.49550 | -23.00003 | 11.322 | 0.0 |
| 2026-06-10T02:00 | 1.52767 | -23.00001 | 11.519 | 0.0 |
| 2026-06-10T02:10 | 1.55958 | -23.00001 | 11.424 | 0.0 |
| 2026-06-10T02:20 | 1.59139 | -23.00001 | 11.389 | 360.0 |
| 2026-06-10T02:30 | 1.62341 | -23.00002 | 11.466 | 360.0 |
| 2026-06-10T02:40 | 1.65560 | -23.00003 | 11.526 | 360.0 |
| 2026-06-10T02:50 | 1.68791 | -23.00002 | 11.568 | 0.0 |
| 2026-06-10T03:00 | 1.72071 | -23.00001 | 11.743 | 0.0 |
| 2026-06-10T03:10 | 1.75344 | -23.00002 | 11.718 | 360.0 |
| 2026-06-10T03:20 | 1.78613 | -23.00003 | 11.705 | 360.0 |
| 2026-06-10T03:30 | 1.81931 | -23.00003 | 11.881 | 0.0 |
| 2026-06-10T03:40 | 1.85259 | -23.00003 | 11.916 | 360.0 |
| 2026-06-10T03:50 | 1.88573 | -23.00002 | 11.865 | 0.0 |
| 2026-06-10T04:00 | 1.91849 | -23.00003 | 11.729 | 360.0 |
| 2026-06-10T04:10 | 1.95096 | -23.00002 | 11.625 | 0.0 |
| 2026-06-10T04:20 | 1.98322 | -23.00002 | 11.553 | 0.0 |
| 2026-06-10T04:30 | 2.01213 | -23.00010 | 10.349 | 359.8 |
| 2026-06-10T04:40 | 2.01605 | -23.00002 | 1.404 | 1.3 |
| 2026-06-10T04:50 | 2.01600 | -23.00000 | 0.019 | 163.2 |
| 2026-06-10T05:00 | 2.01601 | -22.99999 | 0.006 | 45.2 |
| 2026-06-10T05:10 | 2.01600 | -22.99999 | 0.004 | 217.0 |
| 2026-06-10T05:20 | 2.01602 | -23.00000 | 0.006 | 328.9 |
| 2026-06-10T05:30 | 2.01601 | -23.00000 | 0.003 | 153.3 |
| 2026-06-10T05:40 | 2.01600 | -23.00000 | 0.003 | 212.2 |
| 2026-06-10T05:50 | 2.01604 | -22.99999 | 0.014 | 23.5 |
| 2026-06-10T06:00 | 2.01600 | -23.00002 | 0.019 | 213.6 |
| 2026-06-10T06:10 | 2.01599 | -23.00001 | 0.003 | 134.8 |
| 2026-06-10T06:20 | 2.01600 | -23.00001 | 0.006 | 18.5 |
| 2026-06-10T06:30 | 2.01600 | -23.00002 | 0.005 | 234.1 |
| 2026-06-10T06:40 | 2.01600 | -23.00001 | 0.003 | 35.7 |
| 2026-06-10T06:50 | 2.01599 | -23.00001 | 0.004 | 184.8 |
| 2026-06-10T07:00 | 2.01600 | -23.00001 | 0.002 | 59.2 |
| 2026-06-10T07:10 | 2.01600 | -23.00001 | 0.002 | 296.4 |
| 2026-06-10T07:20 | 2.01600 | -23.00001 | 0.003 | 77.5 |
| 2026-06-10T07:30 | 2.01600 | -23.00000 | 0.001 | 90.0 |
| 2026-06-10T07:40 | 2.01426 | -23.00193 | 0.933 | 228.2 |
| 2026-06-10T07:50 | 2.01278 | -23.00764 | 2.123 | 255.5 |
| 2026-06-10T08:00 | 2.01029 | -23.01269 | 2.026 | 243.9 |
| 2026-06-10T08:10 | 2.00886 | -23.01802 | 1.987 | 255.1 |
| 2026-06-10T08:20 | 2.00521 | -23.02144 | 1.796 | 223.3 |
| 2026-06-10T08:30 | 2.01408 | -23.00016 | 8.298 | 67.5 |
| 2026-06-10T08:40 | 2.02353 | -22.97684 | 9.056 | 68.1 |
| 2026-06-10T08:50 | 2.03299 | -22.95361 | 9.028 | 68.0 |
| 2026-06-10T09:00 | 2.04245 | -22.93029 | 9.057 | 68.0 |
| 2026-06-10T09:10 | 2.05215 | -22.90644 | 9.269 | 68.0 |
| 2026-06-10T09:20 | 2.06193 | -22.88250 | 9.309 | 67.9 |
| 2026-06-10T09:30 | 2.07255 | -22.85941 | 9.145 | 65.4 |
| 2026-06-10T09:40 | 2.07176 | -22.85495 | 1.629 | 100.0 |
| 2026-06-10T09:50 | 2.06990 | -22.85935 | 1.719 | 247.2 |
| 2026-06-10T10:00 | 2.06877 | -22.86397 | 1.713 | 256.4 |
| 2026-06-10T10:10 | 2.06739 | -22.86826 | 1.619 | 252.3 |
| 2026-06-10T10:20 | 2.06617 | -22.87324 | 1.849 | 256.2 |
| 2026-06-10T10:30 | 2.06428 | -22.87868 | 2.072 | 251.0 |
| 2026-06-10T10:40 | 2.06246 | -22.88458 | 2.223 | 252.9 |
| 2026-06-10T10:50 | 2.06251 | -22.89247 | 2.840 | 270.4 |
| 2026-06-10T11:00 | 2.06270 | -22.90070 | 2.966 | 271.3 |
| 2026-06-10T11:10 | 2.06524 | -22.90987 | 3.428 | 285.4 |
| 2026-06-10T11:20 | 2.06419 | -22.91670 | 2.488 | 261.2 |
| 2026-06-10T11:30 | 2.06109 | -22.91995 | 1.611 | 226.6 |
| 2026-06-10T11:40 | 2.05745 | -22.92638 | 2.660 | 240.6 |
| 2026-06-10T11:50 | 2.05365 | -22.93237 | 2.549 | 237.8 |
| 2026-06-10T12:00 | 2.05038 | -22.93696 | 2.026 | 234.7 |
| 2026-06-10T12:10 | 2.04687 | -22.94133 | 2.014 | 231.4 |
| 2026-06-10T12:20 | 2.04317 | -22.94582 | 2.091 | 230.7 |
| 2026-06-10T12:30 | 2.03973 | -22.95042 | 2.063 | 233.3 |
| 2026-06-10T12:40 | 2.03628 | -22.95493 | 2.040 | 232.8 |
| 2026-06-10T12:50 | 2.03288 | -22.95979 | 2.137 | 235.2 |
| 2026-06-10T13:00 | 2.02962 | -22.96454 | 2.067 | 235.7 |
| 2026-06-10T13:10 | 2.02642 | -22.96939 | 2.090 | 236.7 |
| 2026-06-10T13:20 | 2.02376 | -22.97471 | 2.141 | 243.6 |
| 2026-06-10T13:30 | 2.02103 | -22.98011 | 2.179 | 243.3 |
| 2026-06-10T13:40 | 2.01842 | -22.98530 | 2.089 | 243.5 |
| 2026-06-10T13:50 | 2.01559 | -22.99058 | 2.155 | 242.0 |
| 2026-06-10T14:00 | 2.01302 | -22.99587 | 2.115 | 244.2 |
| 2026-06-10T14:10 | 2.01033 | -23.00058 | 1.951 | 240.4 |
| 2026-06-10T14:20 | 2.01038 | -23.00059 | 0.018 | 345.1 |
| 2026-06-10T14:30 | 2.01036 | -23.00058 | 0.008 | 164.0 |
| 2026-06-10T14:40 | 2.01107 | -23.00052 | 0.256 | 4.6 |
| 2026-06-10T14:50 | 2.01218 | -23.00046 | 0.397 | 3.2 |
| 2026-06-10T15:00 | 2.01323 | -23.00042 | 0.380 | 2.5 |
| 2026-06-10T15:10 | 2.01433 | -23.00098 | 0.442 | 332.7 |
| 2026-06-10T15:20 | 2.03021 | -22.99817 | 5.775 | 10.1 |
| 2026-06-10T15:30 | 2.06219 | -23.00086 | 11.490 | 355.2 |
| 2026-06-10T15:40 | 2.09601 | -23.00141 | 12.112 | 359.1 |
| 2026-06-10T15:50 | 2.13010 | -23.00199 | 12.207 | 359.0 |
| 2026-06-10T16:00 | 2.16416 | -23.00259 | 12.195 | 359.0 |
| 2026-06-10T16:10 | 2.19835 | -23.00316 | 12.245 | 359.0 |
| 2026-06-10T16:20 | 2.23236 | -23.00374 | 12.178 | 359.0 |
| 2026-06-10T16:30 | 2.26658 | -23.00431 | 12.253 | 359.0 |
| 2026-06-10T16:40 | 2.30028 | -23.00489 | 12.069 | 359.0 |
| 2026-06-10T16:50 | 2.33389 | -23.00547 | 12.035 | 359.0 |
| 2026-06-10T17:00 | 2.36780 | -23.00605 | 12.142 | 359.0 |
| 2026-06-10T17:10 | 2.40169 | -23.00662 | 12.138 | 359.0 |
| 2026-06-10T17:20 | 2.43539 | -23.00720 | 12.067 | 359.0 |
| 2026-06-10T17:30 | 2.46929 | -23.00778 | 12.141 | 359.0 |
| 2026-06-10T17:40 | 2.50318 | -23.00836 | 12.134 | 359.0 |
| 2026-06-10T17:50 | 2.53688 | -23.00895 | 12.068 | 359.0 |
| 2026-06-10T18:00 | 2.57080 | -23.00953 | 12.149 | 359.0 |
| 2026-06-10T18:10 | 2.60472 | -23.01010 | 12.147 | 359.0 |
| 2026-06-10T18:20 | 2.63871 | -23.01068 | 12.172 | 359.0 |
| 2026-06-10T18:30 | 2.67261 | -23.01125 | 12.139 | 359.0 |
| 2026-06-10T18:40 | 2.70649 | -23.01183 | 12.131 | 359.0 |
| 2026-06-10T18:50 | 2.74072 | -23.01243 | 12.258 | 359.0 |
| 2026-06-10T19:00 | 2.77485 | -23.01300 | 12.224 | 359.0 |
| 2026-06-10T19:10 | 2.80904 | -23.01358 | 12.241 | 359.0 |
| 2026-06-10T19:20 | 2.84308 | -23.01418 | 12.192 | 359.0 |
| 2026-06-10T19:30 | 2.87703 | -23.01476 | 12.156 | 359.0 |
| 2026-06-10T19:40 | 2.91095 | -23.01534 | 12.146 | 359.0 |
| 2026-06-10T19:50 | 2.94487 | -23.01591 | 12.147 | 359.0 |
| 2026-06-10T20:00 | 2.97854 | -23.01648 | 12.060 | 359.0 |
| 2026-06-10T20:10 | 3.01218 | -23.01707 | 12.043 | 359.0 |
| 2026-06-10T20:20 | 3.04593 | -23.01765 | 12.088 | 359.0 |
| 2026-06-10T20:30 | 3.07992 | -23.01822 | 12.170 | 359.0 |
| 2026-06-10T20:40 | 3.11392 | -23.01882 | 12.179 | 359.0 |
| 2026-06-10T20:50 | 3.14799 | -23.01937 | 12.197 | 359.1 |
| 2026-06-10T21:00 | 3.18201 | -23.01998 | 12.186 | 359.0 |
| 2026-06-10T21:10 | 3.21594 | -23.02055 | 12.149 | 359.0 |
| 2026-06-10T21:20 | 3.25011 | -23.02113 | 12.237 | 359.0 |
| 2026-06-10T21:30 | 3.28422 | -23.02172 | 12.215 | 359.0 |
| 2026-06-10T21:40 | 3.31829 | -23.02231 | 12.199 | 359.0 |
| 2026-06-10T21:50 | 3.35270 | -23.02289 | 12.323 | 359.0 |
| 2026-06-10T22:00 | 3.38734 | -23.02347 | 12.403 | 359.0 |
| 2026-06-10T22:10 | 3.42219 | -23.02408 | 12.482 | 359.0 |
| 2026-06-10T22:20 | 3.45701 | -23.02467 | 12.469 | 359.0 |
| 2026-06-10T22:30 | 3.49107 | -23.02525 | 12.199 | 359.0 |
| 2026-06-10T22:40 | 3.52506 | -23.02584 | 12.172 | 359.0 |
| 2026-06-10T22:50 | 3.55857 | -23.02642 | 11.999 | 359.0 |
| 2026-06-10T23:00 | 3.59210 | -23.02699 | 12.005 | 359.0 |
| 2026-06-10T23:10 | 3.62523 | -23.02755 | 11.868 | 359.0 |
| 2026-06-10T23:20 | 3.65867 | -23.02811 | 11.974 | 359.0 |
| 2026-06-10T23:30 | 3.69203 | -23.02869 | 11.945 | 359.0 |
| 2026-06-10T23:40 | 3.72509 | -23.02926 | 11.840 | 359.0 |
| 2026-06-10T23:50 | 3.75822 | -23.02982 | 11.863 | 359.0 |
| 2026-06-11T00:00 | 3.79131 | -23.03039 | 11.853 | 359.0 |
| 2026-06-11T00:10 | 3.82436 | -23.03096 | 11.833 | 359.0 |
| 2026-06-11T00:20 | 3.85769 | -23.03152 | 11.936 | 359.0 |
| 2026-06-11T00:30 | 3.89095 | -23.03210 | 11.911 | 359.0 |
| 2026-06-11T00:40 | 3.92412 | -23.03268 | 11.879 | 359.0 |
| 2026-06-11T00:50 | 3.95701 | -23.03324 | 11.777 | 359.0 |
| 2026-06-11T01:00 | 3.98927 | -23.02907 | 11.648 | 7.4 |
| 2026-06-11T01:10 | 4.02051 | -23.01903 | 11.755 | 17.9 |
| 2026-06-11T01:20 | 4.04394 | -22.99637 | 11.695 | 44.2 |
| 2026-06-11T01:30 | 4.05677 | -22.98378 | 6.451 | 44.6 |
| 2026-06-11T01:40 | 4.06609 | -22.97446 | 4.729 | 45.1 |
| 2026-06-11T01:50 | 4.08254 | -22.97422 | 5.890 | 0.8 |
| 2026-06-11T02:00 | 4.11139 | -22.98769 | 11.412 | 334.9 |
| 2026-06-11T02:10 | 4.14093 | -23.00061 | 11.549 | 336.3 |
| 2026-06-11T02:20 | 4.17086 | -23.01300 | 11.607 | 337.4 |
| 2026-06-11T02:30 | 4.20336 | -23.01919 | 11.849 | 349.2 |
| 2026-06-11T02:40 | 4.23572 | -23.02546 | 11.805 | 349.0 |
| 2026-06-11T02:50 | 4.26830 | -23.03176 | 11.882 | 349.0 |
| 2026-06-11T03:00 | 4.30078 | -23.03789 | 11.836 | 349.3 |
| 2026-06-11T03:10 | 4.33398 | -23.03968 | 11.904 | 356.9 |
| 2026-06-11T03:20 | 4.36782 | -23.04027 | 12.119 | 359.0 |
| 2026-06-11T03:30 | 4.40160 | -23.04085 | 12.096 | 359.0 |
| 2026-06-11T03:40 | 4.43517 | -23.04141 | 12.023 | 359.0 |
| 2026-06-11T03:50 | 4.46818 | -23.04198 | 11.822 | 359.0 |
| 2026-06-11T04:00 | 4.50154 | -23.04257 | 11.945 | 359.0 |
| 2026-06-11T04:10 | 4.52986 | -23.03389 | 10.609 | 17.1 |
| 2026-06-11T04:20 | 4.56008 | -23.02706 | 11.098 | 12.8 |
| 2026-06-11T04:30 | 4.59400 | -23.02842 | 12.154 | 357.7 |
| 2026-06-11T04:40 | 4.62701 | -23.03357 | 11.963 | 351.1 |
| 2026-06-11T04:50 | 4.65936 | -23.03870 | 11.731 | 350.9 |
| 2026-06-11T05:00 | 4.69125 | -23.04379 | 11.563 | 350.9 |
| 2026-06-11T05:10 | 4.72327 | -23.04636 | 11.503 | 355.4 |
| 2026-06-11T05:20 | 4.75517 | -23.04690 | 11.424 | 359.0 |
| 2026-06-11T05:30 | 4.78761 | -23.04747 | 11.616 | 359.0 |
| 2026-06-11T05:40 | 4.81994 | -23.04801 | 11.579 | 359.0 |
| 2026-06-11T05:50 | 4.85250 | -23.04859 | 11.659 | 359.0 |
| 2026-06-11T06:00 | 4.88518 | -23.04913 | 11.705 | 359.1 |
| 2026-06-11T06:10 | 4.91744 | -23.04969 | 11.550 | 359.0 |
| 2026-06-11T06:20 | 4.94923 | -23.05022 | 11.385 | 359.1 |
| 2026-06-11T06:30 | 4.98060 | -23.05078 | 11.236 | 359.0 |
| 2026-06-11T06:40 | 5.01180 | -23.05130 | 11.173 | 359.0 |
| 2026-06-11T06:50 | 5.04306 | -23.05184 | 11.195 | 359.0 |
| 2026-06-11T07:00 | 5.07459 | -23.05238 | 11.291 | 359.0 |
| 2026-06-11T07:10 | 5.10610 | -23.05292 | 11.283 | 359.0 |
| 2026-06-11T07:20 | 5.13732 | -23.05346 | 11.184 | 359.0 |
| 2026-06-11T07:30 | 5.16914 | -23.05401 | 11.392 | 359.0 |
| 2026-06-11T07:40 | 5.20125 | -23.05455 | 11.502 | 359.0 |
| 2026-06-11T07:50 | 5.23344 | -23.05511 | 11.525 | 359.0 |
| 2026-06-11T08:00 | 5.26536 | -23.05564 | 11.433 | 359.0 |
| 2026-06-11T08:10 | 5.29712 | -23.05620 | 11.373 | 359.0 |
| 2026-06-11T08:20 | 5.32876 | -23.05674 | 11.332 | 359.0 |
| 2026-06-11T08:30 | 5.36015 | -23.05727 | 11.240 | 359.0 |
| 2026-06-11T08:40 | 5.39116 | -23.05779 | 11.106 | 359.0 |
| 2026-06-11T08:50 | 5.42242 | -23.05837 | 11.194 | 358.9 |
| 2026-06-11T09:00 | 5.45348 | -23.05889 | 11.126 | 359.0 |
| 2026-06-11T09:10 | 5.48451 | -23.05943 | 11.112 | 359.0 |
| 2026-06-11T09:20 | 5.51545 | -23.05995 | 11.081 | 359.0 |
| 2026-06-11T09:30 | 5.54623 | -23.06049 | 11.022 | 359.0 |
| 2026-06-11T09:40 | 5.57677 | -23.06102 | 10.936 | 359.0 |
| 2026-06-11T09:50 | 5.60742 | -23.06143 | 10.976 | 359.2 |
| 2026-06-11T10:00 | 5.63847 | -23.06206 | 11.121 | 358.9 |
| 2026-06-11T10:10 | 5.67011 | -23.06259 | 11.333 | 359.0 |
| 2026-06-11T10:20 | 5.70165 | -23.06315 | 11.295 | 359.0 |
| 2026-06-11T10:30 | 5.73377 | -23.06368 | 11.503 | 359.1 |
| 2026-06-11T10:40 | 5.76565 | -23.06423 | 11.418 | 359.0 |
| 2026-06-11T10:50 | 5.79712 | -23.06478 | 11.270 | 359.0 |
| 2026-06-11T11:00 | 5.82858 | -23.06532 | 11.269 | 359.0 |
| 2026-06-11T11:10 | 5.85998 | -23.06586 | 11.245 | 359.0 |
| 2026-06-11T11:20 | 5.89162 | -23.06641 | 11.330 | 359.0 |
| 2026-06-11T11:30 | 5.92349 | -23.06695 | 11.416 | 359.0 |
| 2026-06-11T11:40 | 5.95521 | -23.06751 | 11.358 | 359.0 |
| 2026-06-11T11:50 | 5.98721 | -23.06807 | 11.459 | 359.0 |
| 2026-06-11T12:00 | 6.01928 | -23.06860 | 11.488 | 359.1 |
| 2026-06-11T12:10 | 6.05183 | -23.06917 | 11.656 | 359.0 |
| 2026-06-11T12:20 | 6.08417 | -23.06971 | 11.583 | 359.0 |
| 2026-06-11T12:30 | 6.11715 | -23.07025 | 11.809 | 359.1 |
| 2026-06-11T12:40 | 6.14965 | -23.07084 | 11.641 | 358.9 |
| 2026-06-11T12:50 | 6.18241 | -23.07142 | 11.730 | 359.0 |
| 2026-06-11T13:00 | 6.21533 | -23.07196 | 11.792 | 359.1 |
| 2026-06-11T13:10 | 6.24856 | -23.07253 | 11.899 | 359.0 |
| 2026-06-11T13:20 | 6.28151 | -23.07311 | 11.800 | 359.0 |
| 2026-06-11T13:30 | 6.31478 | -23.07370 | 11.915 | 359.0 |
| 2026-06-11T13:40 | 6.34788 | -23.07426 | 11.856 | 359.0 |
| 2026-06-11T13:50 | 6.38118 | -23.07484 | 11.927 | 359.0 |
| 2026-06-11T14:00 | 6.41453 | -23.07613 | 11.952 | 357.8 |
| 2026-06-11T14:10 | 6.44774 | -23.07775 | 11.904 | 357.2 |
| 2026-06-11T14:20 | 6.48043 | -23.07939 | 11.719 | 357.1 |
| 2026-06-11T14:30 | 6.51297 | -23.08096 | 11.668 | 357.2 |
| 2026-06-11T14:40 | 6.54520 | -23.08256 | 11.556 | 357.2 |
| 2026-06-11T14:50 | 6.57810 | -23.08417 | 11.794 | 357.2 |
| 2026-06-11T15:00 | 6.61127 | -23.08580 | 11.893 | 357.2 |
| 2026-06-11T15:10 | 6.64486 | -23.08749 | 12.043 | 357.1 |
| 2026-06-11T15:20 | 6.67867 | -23.08908 | 12.120 | 357.3 |
| 2026-06-11T15:30 | 6.71225 | -23.09075 | 12.039 | 357.1 |
| 2026-06-11T15:40 | 6.74594 | -23.09240 | 12.078 | 357.2 |
| 2026-06-11T15:50 | 6.77958 | -23.09407 | 12.062 | 357.2 |
| 2026-06-11T16:00 | 6.81374 | -23.09575 | 12.246 | 357.2 |
| 2026-06-11T16:10 | 6.84840 | -23.09744 | 12.429 | 357.2 |
| 2026-06-11T16:20 | 6.88300 | -23.09915 | 12.403 | 357.2 |
| 2026-06-11T16:30 | 6.91729 | -23.10083 | 12.295 | 357.2 |
| 2026-06-11T16:40 | 6.95127 | -23.10249 | 12.183 | 357.2 |
| 2026-06-11T16:50 | 6.98542 | -23.10419 | 12.244 | 357.2 |
| 2026-06-11T17:00 | 7.01956 | -23.10588 | 12.238 | 357.2 |
| 2026-06-11T17:10 | 7.05390 | -23.10757 | 12.314 | 357.2 |
| 2026-06-11T17:20 | 7.08779 | -23.10921 | 12.150 | 357.2 |
| 2026-06-11T17:30 | 7.12168 | -23.11090 | 12.149 | 357.1 |
| 2026-06-11T17:40 | 7.15546 | -23.11255 | 12.113 | 357.2 |
| 2026-06-11T17:50 | 7.18934 | -23.11426 | 12.146 | 357.1 |
| 2026-06-11T18:00 | 7.22301 | -23.11587 | 12.072 | 357.3 |
| 2026-06-11T18:10 | 7.25603 | -23.11751 | 11.838 | 357.2 |
| 2026-06-11T18:20 | 7.28963 | -23.11916 | 12.047 | 357.2 |
| 2026-06-11T18:30 | 7.32324 | -23.12082 | 12.049 | 357.2 |
| 2026-06-11T18:40 | 7.35709 | -23.12246 | 12.136 | 357.2 |
| 2026-06-11T18:50 | 7.39071 | -23.12413 | 12.054 | 357.1 |
| 2026-06-11T19:00 | 7.42451 | -23.12473 | 12.106 | 359.0 |
| 2026-06-11T19:10 | 7.45842 | -23.12412 | 12.145 | 1.0 |
| 2026-06-11T19:20 | 7.49245 | -23.12354 | 12.187 | 1.0 |
| 2026-06-11T19:30 | 7.52598 | -23.12292 | 12.011 | 1.1 |
| 2026-06-11T19:40 | 7.55957 | -23.12234 | 12.030 | 1.0 |
| 2026-06-11T19:50 | 7.59317 | -23.12174 | 12.035 | 1.0 |
| 2026-06-11T20:00 | 7.62649 | -23.12115 | 11.934 | 1.0 |
| 2026-06-11T20:10 | 7.65976 | -23.12056 | 11.916 | 1.0 |
| 2026-06-11T20:20 | 7.69320 | -23.12001 | 11.975 | 0.9 |
| 2026-06-11T20:30 | 7.72645 | -23.11940 | 11.910 | 1.1 |
| 2026-06-11T20:40 | 7.75944 | -23.11878 | 11.814 | 1.1 |
| 2026-06-11T20:50 | 7.79274 | -23.11824 | 11.928 | 0.9 |
| 2026-06-11T21:00 | 7.82579 | -23.11761 | 11.837 | 1.1 |
| 2026-06-11T21:10 | 7.85921 | -23.11704 | 11.969 | 1.0 |
| 2026-06-11T21:20 | 7.89273 | -23.11644 | 12.008 | 1.0 |
| 2026-06-11T21:30 | 7.92639 | -23.11586 | 12.056 | 1.0 |
| 2026-06-11T21:40 | 7.95963 | -23.11528 | 11.903 | 1.0 |
| 2026-06-11T21:50 | 7.99268 | -23.11470 | 11.839 | 1.0 |
| 2026-06-11T22:00 | 8.02621 | -23.11408 | 12.008 | 1.1 |
| 2026-06-11T22:10 | 8.05983 | -23.11352 | 12.042 | 1.0 |
| 2026-06-11T22:20 | 8.09359 | -23.11292 | 12.092 | 1.0 |
| 2026-06-11T22:30 | 8.12715 | -23.11232 | 12.019 | 1.0 |
| 2026-06-11T22:40 | 8.16068 | -23.11171 | 12.009 | 1.1 |
| 2026-06-11T22:50 | 8.19420 | -23.11112 | 12.006 | 1.0 |
| 2026-06-11T23:00 | 8.22751 | -23.11053 | 11.932 | 1.0 |
| 2026-06-11T23:10 | 8.26132 | -23.10996 | 12.108 | 1.0 |
| 2026-06-11T23:20 | 8.29503 | -23.10938 | 12.075 | 1.0 |
| 2026-06-11T23:30 | 8.32842 | -23.10876 | 11.959 | 1.1 |
| 2026-06-11T23:40 | 8.36160 | -23.10816 | 11.885 | 1.0 |
| 2026-06-11T23:50 | 8.39455 | -23.10757 | 11.801 | 1.0 |
| 2026-06-12T00:00 | 8.42762 | -23.10699 | 11.847 | 1.0 |
| 2026-06-12T00:10 | 8.46112 | -23.10641 | 11.997 | 1.0 |
| 2026-06-12T00:20 | 8.49475 | -23.10583 | 12.045 | 1.0 |
| 2026-06-12T00:30 | 8.52819 | -23.10523 | 11.978 | 1.0 |
| 2026-06-12T00:40 | 8.56151 | -23.10465 | 11.934 | 1.0 |
| 2026-06-12T00:50 | 8.59412 | -23.10406 | 11.681 | 1.0 |
| 2026-06-12T01:00 | 8.62684 | -23.10348 | 11.718 | 1.0 |
| 2026-06-12T01:10 | 8.65963 | -23.10289 | 11.747 | 1.0 |
| 2026-06-12T01:20 | 8.69205 | -23.10234 | 11.610 | 1.0 |
| 2026-06-12T01:30 | 8.72452 | -23.10174 | 11.628 | 1.1 |
| 2026-06-12T01:40 | 8.75709 | -23.10118 | 11.667 | 1.0 |
| 2026-06-12T01:50 | 8.78967 | -23.10059 | 11.671 | 1.0 |
| 2026-06-12T02:00 | 8.82270 | -23.10000 | 11.829 | 1.0 |
| 2026-06-12T02:10 | 8.85593 | -23.09944 | 11.902 | 1.0 |
| 2026-06-12T02:20 | 8.88926 | -23.09883 | 11.939 | 1.1 |
| 2026-06-12T02:30 | 8.92245 | -23.09825 | 11.888 | 1.0 |
| 2026-06-12T02:40 | 8.95584 | -23.09765 | 11.959 | 1.0 |
| 2026-06-12T02:50 | 8.98920 | -23.09707 | 11.947 | 1.0 |
| 2026-06-12T03:00 | 9.02219 | -23.09647 | 11.816 | 1.0 |
| 2026-06-12T03:10 | 9.05502 | -23.09589 | 11.760 | 1.0 |
| 2026-06-12T03:20 | 9.08797 | -23.09532 | 11.802 | 1.0 |
| 2026-06-12T03:30 | 9.12079 | -23.09473 | 11.756 | 1.0 |
| 2026-06-12T03:40 | 9.15356 | -23.09415 | 11.737 | 1.0 |
| 2026-06-12T03:50 | 9.18617 | -23.09358 | 11.680 | 1.0 |
| 2026-06-12T04:00 | 9.21947 | -23.09299 | 11.930 | 1.0 |
| 2026-06-12T04:10 | 9.25267 | -23.09240 | 11.891 | 1.0 |
| 2026-06-12T04:20 | 9.28555 | -23.09183 | 11.777 | 1.0 |
| 2026-06-12T04:30 | 9.31828 | -23.09005 | 11.739 | 3.1 |
| 2026-06-12T04:40 | 9.35114 | -23.08798 | 11.790 | 3.6 |
| 2026-06-12T04:50 | 9.38383 | -23.08597 | 11.727 | 3.5 |
| 2026-06-12T05:00 | 9.41572 | -23.08397 | 11.446 | 3.6 |
| 2026-06-12T05:10 | 9.44796 | -23.08196 | 11.565 | 3.5 |
| 2026-06-12T05:20 | 9.48028 | -23.07996 | 11.599 | 3.5 |
| 2026-06-12T05:30 | 9.51310 | -23.07788 | 11.777 | 3.6 |
| 2026-06-12T05:40 | 9.54602 | -23.07581 | 11.814 | 3.6 |
| 2026-06-12T05:50 | 9.57890 | -23.07378 | 11.796 | 3.5 |
| 2026-06-12T06:00 | 9.61153 | -23.07174 | 11.710 | 3.5 |
| 2026-06-12T06:10 | 9.64439 | -23.06968 | 11.790 | 3.6 |
| 2026-06-12T06:20 | 9.67680 | -23.06765 | 11.632 | 3.6 |
| 2026-06-12T06:30 | 9.70843 | -23.06567 | 11.348 | 3.5 |
| 2026-06-12T06:40 | 9.73997 | -23.06372 | 11.317 | 3.5 |
| 2026-06-12T06:50 | 9.77152 | -23.06172 | 11.324 | 3.6 |
| 2026-06-12T07:00 | 9.80264 | -23.05978 | 11.166 | 3.5 |
| 2026-06-12T07:10 | 9.83340 | -23.05789 | 11.036 | 3.5 |
| 2026-06-12T07:20 | 9.86426 | -23.05592 | 11.074 | 3.6 |
| 2026-06-12T07:30 | 9.89569 | -23.05397 | 11.277 | 3.5 |
| 2026-06-12T07:40 | 9.92718 | -23.05201 | 11.302 | 3.5 |
| 2026-06-12T07:50 | 9.95867 | -23.05002 | 11.300 | 3.6 |
| 2026-06-12T08:00 | 9.98995 | -23.04808 | 11.224 | 3.5 |
| 2026-06-12T08:10 | 10.02091 | -23.04613 | 11.109 | 3.6 |
| 2026-06-12T08:20 | 10.05156 | -23.04422 | 11.000 | 3.5 |
| 2026-06-12T08:30 | 10.08255 | -23.04228 | 11.118 | 3.5 |
| 2026-06-12T08:40 | 10.11354 | -23.04150 | 11.105 | 1.4 |
| 2026-06-12T08:50 | 10.14463 | -23.04127 | 11.136 | 0.4 |
| 2026-06-12T09:00 | 10.17568 | -23.04098 | 11.121 | 0.5 |
| 2026-06-12T09:10 | 10.20691 | -23.04074 | 11.183 | 0.5 |
| 2026-06-12T09:20 | 10.23764 | -23.04050 | 11.008 | 0.4 |
| 2026-06-12T09:30 | 10.26899 | -23.04025 | 11.227 | 0.5 |
| 2026-06-12T09:40 | 10.29976 | -23.03996 | 11.021 | 0.5 |
| 2026-06-12T09:50 | 10.32964 | -23.03971 | 10.702 | 0.5 |
| 2026-06-12T10:00 | 10.36020 | -23.03945 | 10.946 | 0.5 |
| 2026-06-12T10:10 | 10.39118 | -23.03918 | 11.097 | 0.5 |
| 2026-06-12T10:20 | 10.42231 | -23.03890 | 11.149 | 0.5 |
| 2026-06-12T10:30 | 10.45318 | -23.03866 | 11.057 | 0.4 |
| 2026-06-12T10:40 | 10.48391 | -23.03843 | 11.008 | 0.4 |
| 2026-06-12T10:50 | 10.51458 | -23.03816 | 10.982 | 0.5 |
| 2026-06-12T11:00 | 10.54573 | -23.03791 | 11.158 | 0.5 |
| 2026-06-12T11:10 | 10.57654 | -23.03766 | 11.037 | 0.5 |
| 2026-06-12T11:20 | 10.60774 | -23.03738 | 11.173 | 0.5 |
| 2026-06-12T11:30 | 10.63907 | -23.03712 | 11.221 | 0.5 |
| 2026-06-12T11:40 | 10.67034 | -23.03693 | 11.202 | 0.3 |
| 2026-06-12T11:50 | 10.70178 | -23.03348 | 11.325 | 6.2 |
| 2026-06-12T12:00 | 10.73322 | -23.02905 | 11.372 | 8.0 |
| 2026-06-12T12:10 | 10.76500 | -23.02454 | 11.494 | 8.0 |
| 2026-06-12T12:20 | 10.79622 | -23.02030 | 11.280 | 7.7 |
| 2026-06-12T12:30 | 10.82720 | -23.01821 | 11.123 | 3.8 |
| 2026-06-12T12:40 | 10.85810 | -23.01610 | 11.090 | 3.9 |
| 2026-06-12T12:50 | 10.88926 | -23.01413 | 11.184 | 3.6 |
| 2026-06-12T13:00 | 10.92004 | -23.01188 | 11.052 | 4.1 |
| 2026-06-12T13:10 | 10.95154 | -23.00984 | 11.306 | 3.7 |
| 2026-06-12T13:20 | 10.98256 | -23.00774 | 11.135 | 3.8 |
| 2026-06-12T13:30 | 11.01381 | -23.00569 | 11.218 | 3.7 |
| 2026-06-12T13:40 | 11.04538 | -23.00345 | 11.335 | 4.0 |
| 2026-06-12T13:50 | 11.07680 | -23.00136 | 11.276 | 3.8 |
| 2026-06-12T14:00 | 11.10828 | -22.99926 | 11.301 | 3.8 |
| 2026-06-12T14:10 | 11.13951 | -22.99712 | 11.209 | 3.9 |
| 2026-06-12T14:20 | 11.17070 | -22.99497 | 11.200 | 3.9 |
| 2026-06-12T14:30 | 11.20200 | -22.99284 | 11.235 | 3.9 |
| 2026-06-12T14:40 | 11.23357 | -22.99084 | 11.328 | 3.6 |
| 2026-06-12T14:50 | 11.26486 | -22.98860 | 11.237 | 4.0 |
| 2026-06-12T15:00 | 11.29677 | -22.98649 | 11.451 | 3.7 |
| 2026-06-12T15:10 | 11.32822 | -22.98426 | 11.295 | 4.0 |
| 2026-06-12T15:20 | 11.35986 | -22.98212 | 11.356 | 3.8 |
| 2026-06-12T15:30 | 11.39117 | -22.98014 | 11.239 | 3.6 |
| 2026-06-12T15:40 | 11.42196 | -22.97898 | 11.033 | 2.1 |
| 2026-06-12T15:50 | 11.43166 | -22.97739 | 3.519 | 9.2 |
| 2026-06-12T16:00 | 11.43179 | -22.97743 | 0.049 | 342.4 |
| 2026-06-12T16:10 | 11.43178 | -22.97743 | 0.004 | 163.5 |
| 2026-06-12T16:20 | 11.43176 | -22.97742 | 0.009 | 135.4 |
| 2026-06-12T16:30 | 11.43180 | -22.97746 | 0.021 | 306.5 |
| 2026-06-12T16:40 | 11.43177 | -22.97740 | 0.024 | 115.4 |
| 2026-06-12T16:50 | 11.43596 | -22.97602 | 1.580 | 18.1 |
| 2026-06-12T17:00 | 11.44989 | -22.98088 | 5.277 | 341.0 |
| 2026-06-12T17:10 | 11.46755 | -22.98753 | 6.749 | 339.6 |
| 2026-06-12T17:20 | 11.48052 | -22.99318 | 5.053 | 336.8 |
| 2026-06-12T17:30 | 11.48341 | -22.99137 | 1.218 | 31.6 |
| 2026-06-12T17:40 | 11.48303 | -22.99066 | 0.287 | 118.3 |
| 2026-06-12T17:50 | 11.48327 | -22.99069 | 0.085 | 350.5 |
| 2026-06-12T18:00 | 11.48334 | -22.99075 | 0.033 | 320.8 |
| 2026-06-12T18:10 | 11.48333 | -22.99066 | 0.032 | 97.8 |
| 2026-06-12T18:20 | 11.48348 | -22.99061 | 0.058 | 18.2 |
| 2026-06-12T18:30 | 11.48353 | -22.99049 | 0.048 | 67.1 |
| 2026-06-12T18:40 | 11.48462 | -22.98952 | 0.521 | 41.3 |
| 2026-06-12T18:50 | 11.49296 | -22.98273 | 3.830 | 38.8 |
| 2026-06-12T19:00 | 11.50704 | -22.97046 | 6.649 | 40.7 |
| 2026-06-12T19:10 | 11.52014 | -22.95674 | 6.746 | 45.9 |
| 2026-06-12T19:20 | 11.53089 | -22.94239 | 6.365 | 52.8 |
| 2026-06-12T19:30 | 11.53903 | -22.92628 | 6.394 | 62.9 |
| 2026-06-12T19:40 | 11.54728 | -22.90991 | 6.492 | 62.9 |
| 2026-06-12T19:50 | 11.55567 | -22.89320 | 6.624 | 63.0 |
| 2026-06-12T20:00 | 11.56409 | -22.87649 | 6.630 | 63.0 |
| 2026-06-12T20:10 | 11.57245 | -22.85972 | 6.635 | 63.2 |
| 2026-06-12T20:20 | 11.58373 | -22.84838 | 5.691 | 44.7 |
| 2026-06-12T20:30 | 11.61207 | -22.85251 | 10.252 | 351.8 |
| 2026-06-12T20:40 | 11.64301 | -22.85693 | 11.194 | 352.0 |
| 2026-06-12T20:50 | 11.67428 | -22.86142 | 11.312 | 351.9 |
| 2026-06-12T21:00 | 11.70533 | -22.86577 | 11.228 | 352.1 |
| 2026-06-12T21:10 | 11.73704 | -22.87034 | 11.471 | 351.9 |
| 2026-06-12T21:20 | 11.76832 | -22.87483 | 11.314 | 351.9 |
| 2026-06-12T21:30 | 11.79919 | -22.87926 | 11.169 | 352.0 |
| 2026-06-12T21:40 | 11.83012 | -22.88368 | 11.188 | 352.0 |
| 2026-06-12T21:50 | 11.86103 | -22.88811 | 11.182 | 352.0 |
| 2026-06-12T22:00 | 11.89233 | -22.89254 | 11.318 | 352.1 |
| 2026-06-12T22:10 | 11.92332 | -22.89685 | 11.204 | 352.2 |
| 2026-06-12T22:20 | 11.95407 | -22.90125 | 11.125 | 352.0 |
| 2026-06-12T22:30 | 11.98433 | -22.90020 | 10.845 | 1.9 |
| 2026-06-12T22:40 | 12.01468 | -22.90126 | 10.875 | 358.0 |
| 2026-06-12T22:50 | 12.04453 | -22.90227 | 10.700 | 358.1 |
| 2026-06-12T23:00 | 12.07462 | -22.90323 | 10.783 | 358.2 |
| 2026-06-12T23:10 | 12.10515 | -22.90425 | 10.942 | 358.1 |
| 2026-06-12T23:20 | 12.13553 | -22.90526 | 10.889 | 358.1 |
| 2026-06-12T23:30 | 12.16614 | -22.90626 | 10.969 | 358.1 |
| 2026-06-12T23:40 | 12.19663 | -22.90730 | 10.929 | 358.1 |
| 2026-06-12T23:50 | 12.22710 | -22.90830 | 10.920 | 358.1 |
| 2026-06-13T00:00 | 12.25739 | -22.90931 | 10.856 | 358.1 |
| 2026-06-13T00:10 | 12.28771 | -22.91032 | 10.863 | 358.1 |
| 2026-06-13T00:20 | 12.31819 | -22.91135 | 10.925 | 358.1 |
| 2026-06-13T00:30 | 12.34880 | -22.91235 | 10.971 | 358.2 |
| 2026-06-13T00:40 | 12.37961 | -22.91339 | 11.043 | 358.1 |
| 2026-06-13T00:50 | 12.41031 | -22.91441 | 11.003 | 358.1 |
| 2026-06-13T01:00 | 12.44109 | -22.91542 | 11.030 | 358.1 |
| 2026-06-13T01:10 | 12.47138 | -22.91643 | 10.857 | 358.1 |
| 2026-06-13T01:20 | 12.50182 | -22.91744 | 10.909 | 358.1 |
| 2026-06-13T01:30 | 12.53254 | -22.91848 | 11.012 | 358.1 |
| 2026-06-13T01:40 | 12.56320 | -22.91951 | 10.989 | 358.1 |
| 2026-06-13T01:50 | 12.59375 | -22.92114 | 10.959 | 357.0 |
| 2026-06-13T02:00 | 12.62398 | -22.92275 | 10.843 | 357.0 |
| 2026-06-13T02:10 | 12.65439 | -22.92414 | 10.901 | 357.4 |
| 2026-06-13T02:20 | 12.68455 | -22.92524 | 10.811 | 357.9 |
| 2026-06-13T02:30 | 12.71464 | -22.92650 | 10.788 | 357.6 |
| 2026-06-13T02:40 | 12.74482 | -22.92791 | 10.825 | 357.4 |
| 2026-06-13T02:50 | 12.77485 | -22.92954 | 10.770 | 356.9 |
| 2026-06-13T03:00 | 12.80508 | -22.93007 | 10.831 | 359.0 |
| 2026-06-13T03:10 | 12.83542 | -22.93059 | 10.871 | 359.0 |
| 2026-06-13T03:20 | 12.86594 | -22.93115 | 10.933 | 359.0 |
| 2026-06-13T03:30 | 12.89657 | -22.93175 | 10.975 | 358.9 |
| 2026-06-13T03:40 | 12.92727 | -22.93236 | 11.001 | 358.9 |
| 2026-06-13T03:50 | 12.95800 | -22.93288 | 11.006 | 359.0 |
| 2026-06-13T04:00 | 12.98918 | -22.93341 | 11.174 | 359.1 |
| 2026-06-13T04:10 | 13.02015 | -22.93399 | 11.095 | 358.9 |
| 2026-06-13T04:20 | 13.04874 | -22.94376 | 10.800 | 341.5 |
| 2026-06-13T04:30 | 13.08051 | -22.94382 | 11.382 | 359.9 |
| 2026-06-13T04:40 | 13.11194 | -22.94384 | 11.260 | 360.0 |
| 2026-06-13T04:50 | 13.14281 | -22.94378 | 11.058 | 0.1 |
| 2026-06-13T05:00 | 13.17391 | -22.94377 | 11.141 | 0.0 |
| 2026-06-13T05:10 | 13.20495 | -22.94386 | 11.117 | 359.8 |
| 2026-06-13T05:20 | 13.23512 | -22.94202 | 10.828 | 3.4 |
| 2026-06-13T05:30 | 13.26562 | -22.94291 | 10.929 | 358.4 |
| 2026-06-13T05:40 | 13.29609 | -22.94395 | 10.923 | 358.1 |
| 2026-06-13T05:50 | 13.32635 | -22.94495 | 10.846 | 358.1 |
| 2026-06-13T06:00 | 13.35660 | -22.94596 | 10.840 | 358.1 |
| 2026-06-13T06:10 | 13.38735 | -22.94700 | 11.023 | 358.1 |
| 2026-06-13T06:20 | 13.41839 | -22.94802 | 11.125 | 358.2 |
| 2026-06-13T06:30 | 13.44918 | -22.94908 | 11.036 | 358.1 |
| 2026-06-13T06:40 | 13.47993 | -22.95009 | 11.023 | 358.2 |
| 2026-06-13T06:50 | 13.51076 | -22.95112 | 11.049 | 358.1 |
| 2026-06-13T07:00 | 13.54125 | -22.95214 | 10.929 | 358.1 |
| 2026-06-13T07:10 | 13.57136 | -22.95316 | 10.791 | 358.1 |
| 2026-06-13T07:20 | 13.60183 | -22.95416 | 10.921 | 358.1 |
| 2026-06-13T07:30 | 13.63226 | -22.95518 | 10.907 | 358.1 |
| 2026-06-13T07:40 | 13.66230 | -22.95616 | 10.768 | 358.2 |
| 2026-06-13T07:50 | 13.69239 | -22.95717 | 10.787 | 358.1 |
| 2026-06-13T08:00 | 13.72203 | -22.95818 | 10.623 | 358.1 |
| 2026-06-13T08:10 | 13.75180 | -22.95919 | 10.671 | 358.1 |
| 2026-06-13T08:20 | 13.78123 | -22.96017 | 10.546 | 358.1 |
| 2026-06-13T08:30 | 13.81021 | -22.96116 | 10.390 | 358.1 |
| 2026-06-13T08:40 | 13.83933 | -22.96212 | 10.434 | 358.1 |
| 2026-06-13T08:50 | 13.86849 | -22.96308 | 10.453 | 358.2 |
| 2026-06-13T09:00 | 13.89757 | -22.96406 | 10.424 | 358.1 |
| 2026-06-13T09:10 | 13.92693 | -22.96505 | 10.523 | 358.1 |
| 2026-06-13T09:20 | 13.95648 | -22.96604 | 10.593 | 358.1 |
| 2026-06-13T09:30 | 13.98577 | -22.96702 | 10.499 | 358.1 |
| 2026-06-13T09:40 | 14.01468 | -22.96801 | 10.362 | 358.1 |
| 2026-06-13T09:50 | 14.04355 | -22.96895 | 10.347 | 358.2 |
| 2026-06-13T10:00 | 14.07240 | -22.96992 | 10.341 | 358.1 |
| 2026-06-13T10:10 | 14.10120 | -22.97090 | 10.323 | 358.1 |
| 2026-06-13T10:20 | 14.13009 | -22.97185 | 10.357 | 358.2 |
| 2026-06-13T10:30 | 14.15910 | -22.97282 | 10.397 | 358.1 |
| 2026-06-13T10:40 | 14.18800 | -22.97379 | 10.360 | 358.1 |
| 2026-06-13T10:50 | 14.21676 | -22.97475 | 10.310 | 358.1 |
| 2026-06-13T11:00 | 14.24548 | -22.97572 | 10.294 | 358.1 |
| 2026-06-13T11:10 | 14.27396 | -22.97668 | 10.210 | 358.1 |
| 2026-06-13T11:20 | 14.30270 | -22.97765 | 10.301 | 358.1 |
| 2026-06-13T11:30 | 14.33156 | -22.97860 | 10.345 | 358.2 |
| 2026-06-13T11:40 | 14.36024 | -22.97957 | 10.281 | 358.1 |
| 2026-06-13T11:50 | 14.38899 | -22.98054 | 10.307 | 358.1 |
| 2026-06-13T12:00 | 14.41776 | -22.98152 | 10.312 | 358.1 |
| 2026-06-13T12:10 | 14.44691 | -22.98249 | 10.447 | 358.1 |
| 2026-06-13T12:20 | 14.47659 | -22.98347 | 10.639 | 358.1 |
| 2026-06-13T12:30 | 14.50632 | -22.98447 | 10.656 | 358.1 |
| 2026-06-13T12:40 | 14.53605 | -22.98548 | 10.657 | 358.1 |
| 2026-06-13T12:50 | 14.56576 | -22.98646 | 10.650 | 358.1 |
| 2026-06-13T13:00 | 14.59545 | -22.98747 | 10.645 | 358.1 |
| 2026-06-13T13:10 | 14.62525 | -22.98847 | 10.682 | 358.1 |
| 2026-06-13T13:20 | 14.65518 | -22.98948 | 10.729 | 358.1 |
| 2026-06-13T13:30 | 14.68487 | -22.99048 | 10.644 | 358.1 |
| 2026-06-13T13:40 | 14.71478 | -22.99148 | 10.720 | 358.1 |
| 2026-06-13T13:50 | 14.74484 | -22.99250 | 10.776 | 358.1 |
| 2026-06-13T14:00 | 14.77469 | -22.99352 | 10.699 | 358.1 |
| 2026-06-13T14:10 | 14.80462 | -22.99452 | 10.730 | 358.1 |
| 2026-06-13T14:20 | 14.83495 | -22.99552 | 10.872 | 358.2 |
| 2026-06-13T14:30 | 14.86557 | -22.99655 | 10.977 | 358.1 |
| 2026-06-13T14:40 | 14.89645 | -22.99761 | 11.067 | 358.1 |
| 2026-06-13T14:50 | 14.92767 | -22.99866 | 11.194 | 358.1 |
| 2026-06-13T15:00 | 14.95848 | -22.99967 | 11.045 | 358.2 |
| 2026-06-13T15:10 | 14.98912 | -23.00009 | 10.978 | 359.2 |
| 2026-06-13T15:20 | 15.01499 | -23.00873 | 9.745 | 342.0 |
| 2026-06-13T15:30 | 15.02695 | -23.04058 | 11.887 | 291.1 |
| 2026-06-13T15:40 | 15.03914 | -23.07299 | 12.101 | 291.2 |
| 2026-06-13T15:50 | 15.05148 | -23.10583 | 12.261 | 291.1 |
| 2026-06-13T16:00 | 15.06404 | -23.13920 | 12.457 | 291.2 |
| 2026-06-13T16:10 | 15.07681 | -23.17296 | 12.613 | 291.3 |
| 2026-06-13T16:20 | 15.08893 | -23.20535 | 12.082 | 291.1 |
| 2026-06-13T16:30 | 15.10670 | -23.23345 | 11.670 | 303.1 |
| 2026-06-13T16:40 | 15.12876 | -23.25821 | 11.695 | 312.5 |
| 2026-06-13T16:50 | 15.15060 | -23.28275 | 11.583 | 312.5 |
| 2026-06-13T17:00 | 15.17192 | -23.30665 | 11.293 | 312.6 |
| 2026-06-13T17:10 | 15.19337 | -23.33079 | 11.384 | 312.5 |
| 2026-06-13T17:20 | 15.21504 | -23.35511 | 11.482 | 312.5 |
| 2026-06-13T17:30 | 15.23703 | -23.37981 | 11.660 | 312.5 |
| 2026-06-13T17:40 | 15.25921 | -23.40471 | 11.755 | 312.5 |
| 2026-06-13T17:50 | 15.28141 | -23.42968 | 11.773 | 312.5 |
| 2026-06-13T18:00 | 15.30351 | -23.45450 | 11.715 | 312.5 |
| 2026-06-13T18:10 | 15.32546 | -23.47920 | 11.646 | 312.5 |
| 2026-06-13T18:20 | 15.34700 | -23.50342 | 11.422 | 312.5 |
| 2026-06-13T18:30 | 15.36843 | -23.52748 | 11.356 | 312.6 |
| 2026-06-13T18:40 | 15.39007 | -23.55182 | 11.474 | 312.5 |
| 2026-06-13T18:50 | 15.41205 | -23.57653 | 11.653 | 312.5 |
| 2026-06-13T19:00 | 15.43375 | -23.60086 | 11.487 | 312.6 |
| 2026-06-13T19:10 | 15.45492 | -23.62474 | 11.242 | 312.4 |
| 2026-06-13T19:20 | 15.47649 | -23.64900 | 11.438 | 312.5 |
| 2026-06-13T19:30 | 15.49809 | -23.67331 | 11.456 | 312.5 |
| 2026-06-13T19:40 | 15.51988 | -23.69783 | 11.554 | 312.5 |
| 2026-06-13T19:50 | 15.54170 | -23.72242 | 11.579 | 312.5 |
| 2026-06-13T20:00 | 15.56350 | -23.74689 | 11.545 | 312.6 |
| 2026-06-13T20:10 | 15.58538 | -23.77152 | 11.601 | 312.5 |
| 2026-06-13T20:20 | 15.60677 | -23.79559 | 11.341 | 312.5 |
| 2026-06-13T20:30 | 15.62811 | -23.81964 | 11.323 | 312.5 |
| 2026-06-13T20:40 | 15.64950 | -23.84370 | 11.337 | 312.5 |
| 2026-06-13T20:50 | 15.67101 | -23.86790 | 11.400 | 312.5 |
| 2026-06-13T21:00 | 15.69243 | -23.89203 | 11.361 | 312.5 |
| 2026-06-13T21:10 | 15.71403 | -23.91636 | 11.454 | 312.5 |
| 2026-06-13T21:20 | 15.73573 | -23.94078 | 11.502 | 312.5 |
| 2026-06-13T21:30 | 15.75734 | -23.96514 | 11.463 | 312.5 |
| 2026-06-13T21:40 | 15.77932 | -23.98990 | 11.656 | 312.5 |
| 2026-06-13T21:50 | 15.80131 | -24.01469 | 11.663 | 312.5 |
| 2026-06-13T22:00 | 15.82375 | -24.03938 | 11.748 | 313.2 |
| 2026-06-13T22:10 | 15.84523 | -24.06421 | 11.547 | 311.8 |
| 2026-06-13T22:20 | 15.86744 | -24.08917 | 11.760 | 312.6 |
| 2026-06-13T22:30 | 15.88912 | -24.11362 | 11.500 | 312.5 |
| 2026-06-13T22:40 | 15.91107 | -24.13837 | 11.642 | 312.5 |
| 2026-06-13T22:50 | 15.93337 | -24.16351 | 11.823 | 312.5 |
| 2026-06-13T23:00 | 15.95587 | -24.18883 | 11.920 | 312.6 |
| 2026-06-13T23:10 | 15.97836 | -24.21420 | 11.927 | 312.5 |
| 2026-06-13T23:20 | 16.00080 | -24.23955 | 11.909 | 312.5 |
| 2026-06-13T23:30 | 16.02298 | -24.26455 | 11.755 | 312.5 |
| 2026-06-13T23:40 | 16.04498 | -24.28939 | 11.675 | 312.5 |
| 2026-06-13T23:50 | 16.06721 | -24.31444 | 11.778 | 312.5 |
| 2026-06-14T00:00 | 16.08950 | -24.33959 | 11.822 | 312.5 |
| 2026-06-14T00:10 | 16.11184 | -24.36481 | 11.848 | 312.5 |
| 2026-06-14T00:20 | 16.13400 | -24.38977 | 11.739 | 312.6 |
| 2026-06-14T00:30 | 16.15623 | -24.41488 | 11.791 | 312.5 |
| 2026-06-14T00:40 | 16.17831 | -24.43981 | 11.709 | 312.5 |
| 2026-06-14T00:50 | 16.20018 | -24.46447 | 11.592 | 312.5 |
| 2026-06-14T01:00 | 16.22186 | -24.48897 | 11.502 | 312.5 |
| 2026-06-14T01:10 | 16.24348 | -24.51340 | 11.469 | 312.5 |
| 2026-06-14T01:20 | 16.26499 | -24.53768 | 11.404 | 312.5 |
| 2026-06-14T01:30 | 16.28615 | -24.56160 | 11.224 | 312.5 |
| 2026-06-14T01:40 | 16.30708 | -24.58522 | 11.091 | 312.5 |
| 2026-06-14T01:50 | 16.32744 | -24.60820 | 10.795 | 312.5 |
| 2026-06-14T02:00 | 16.34752 | -24.63101 | 10.678 | 312.4 |
| 2026-06-14T02:10 | 16.36601 | -24.65183 | 9.787 | 312.6 |
| 2026-06-14T02:20 | 16.38465 | -24.67252 | 9.790 | 313.0 |
| 2026-06-14T02:30 | 16.40319 | -24.69382 | 9.919 | 312.1 |
| 2026-06-14T02:40 | 16.42218 | -24.71526 | 10.065 | 312.5 |
| 2026-06-14T02:50 | 16.44133 | -24.73690 | 10.156 | 312.5 |
| 2026-06-14T03:00 | 16.46032 | -24.75836 | 10.068 | 312.5 |
| 2026-06-14T03:10 | 16.47971 | -24.78030 | 10.285 | 312.5 |
| 2026-06-14T03:20 | 16.49934 | -24.80251 | 10.414 | 312.5 |
| 2026-06-14T03:30 | 16.51899 | -24.82469 | 10.410 | 312.6 |
| 2026-06-14T03:40 | 16.53829 | -24.84651 | 10.234 | 312.5 |
| 2026-06-14T03:50 | 16.55744 | -24.86820 | 10.159 | 312.5 |
| 2026-06-14T04:00 | 16.57685 | -24.89017 | 10.300 | 312.5 |
| 2026-06-14T04:10 | 16.59654 | -24.91242 | 10.432 | 312.6 |
| 2026-06-14T04:20 | 16.61623 | -24.93470 | 10.444 | 312.5 |
| 2026-06-14T04:30 | 16.63615 | -24.95724 | 10.562 | 312.5 |
| 2026-06-14T04:40 | 16.65675 | -24.98049 | 10.909 | 312.6 |
| 2026-06-14T04:50 | 16.67788 | -25.00446 | 11.219 | 312.5 |
| 2026-06-14T05:00 | 16.69875 | -25.02809 | 11.071 | 312.5 |
| 2026-06-14T05:10 | 16.71930 | -25.05133 | 10.892 | 312.5 |
| 2026-06-14T05:20 | 16.74176 | -25.07248 | 10.866 | 317.8 |
| 2026-06-14T05:30 | 16.76743 | -25.09061 | 11.126 | 325.8 |
| 2026-06-14T05:40 | 16.79359 | -25.10909 | 11.338 | 325.8 |
| 2026-06-14T05:50 | 16.81943 | -25.12732 | 11.197 | 325.8 |
| 2026-06-14T06:00 | 16.84464 | -25.12858 | 9.044 | 357.2 |
| 2026-06-14T06:10 | 16.86307 | -25.10383 | 10.798 | 52.3 |
| 2026-06-14T06:20 | 16.87871 | -25.08288 | 9.144 | 52.2 |
| 2026-06-14T06:30 | 16.89282 | -25.06385 | 8.289 | 52.4 |
| 2026-06-14T06:40 | 16.90020 | -25.04331 | 7.561 | 69.5 |
| 2026-06-14T06:50 | 16.89971 | -25.02639 | 5.842 | 91.7 |
| 2026-06-14T07:00 | 16.89685 | -25.01458 | 4.200 | 104.1 |
| 2026-06-14T07:10 | 16.89448 | -25.00808 | 2.397 | 110.7 |
| 2026-06-14T07:20 | 16.89449 | -25.00808 | 0.004 | 19.3 |
| 2026-06-14T07:30 | 16.89429 | -25.00848 | 0.154 | 242.2 |
| 2026-06-14T07:40 | 16.89422 | -25.00955 | 0.373 | 266.4 |
| 2026-06-14T07:50 | 16.89334 | -25.00949 | 0.316 | 175.8 |
| 2026-06-14T08:00 | 16.88638 | -25.00421 | 3.090 | 143.9 |
| 2026-06-14T08:10 | 16.88757 | -24.99931 | 1.745 | 75.8 |
| 2026-06-14T08:20 | 16.88878 | -24.99850 | 0.517 | 32.8 |
| 2026-06-14T08:30 | 16.88883 | -24.99846 | 0.021 | 37.8 |
| 2026-06-14T08:40 | 16.88885 | -24.99846 | 0.006 | 14.4 |
| 2026-06-14T08:50 | 16.88885 | -24.99846 | 0.001 | 32.7 |
| 2026-06-14T09:00 | 16.88885 | -24.99846 | 0.000 | 43.9 |
| 2026-06-14T09:10 | 16.88885 | -24.99846 | 0.001 | 205.7 |
| 2026-06-14T09:20 | 16.88885 | -24.99845 | 0.001 | 62.6 |
| 2026-06-14T09:30 | 16.88885 | -24.99846 | 0.001 | 250.9 |
| 2026-06-14T09:40 | 16.88885 | -24.99846 | 0.000 | 180.0 |
| 2026-06-14T09:50 | 16.88885 | -24.99846 | 0.000 | 316.1 |
| 2026-06-14T10:00 | 16.88885 | -24.99846 | 0.000 | 180.0 |
| 2026-06-14T10:10 | 16.88885 | -24.99846 | 0.000 | 180.0 |
| 2026-06-14T10:20 | 16.88885 | -24.99846 | 0.000 | 180.0 |
| 2026-06-14T10:30 | 16.88885 | -24.99846 | 0.001 | 316.1 |
| 2026-06-14T10:40 | 16.88885 | -24.99846 | 0.000 | 180.0 |
| 2026-06-14T10:50 | 16.88885 | -24.99846 | 0.001 | 90.0 |
| 2026-06-14T11:00 | 16.88885 | -24.99846 | 0.001 | 289.1 |
| 2026-06-14T11:10 | 16.88885 | -24.99846 | 0.000 | 90.0 |
| 2026-06-14T11:20 | 16.88885 | -24.99846 | 0.002 | 205.7 |
| 2026-06-14T11:30 | 16.88885 | -24.99846 | 0.002 | 25.7 |
| 2026-06-14T11:40 | 16.88885 | -24.99846 | 0.001 | 62.6 |
| 2026-06-14T11:50 | 16.88885 | -24.99846 | 0.000 | 180.0 |
| 2026-06-14T12:00 | 16.88885 | -24.99846 | 0.000 | 180.0 |
| 2026-06-14T12:10 | 16.88885 | -24.99846 | 0.000 | 90.0 |
| 2026-06-14T12:20 | 16.88885 | -24.99846 | 0.000 | 180.0 |
| 2026-06-14T12:30 | 16.88885 | -24.99846 | 0.001 | 62.6 |
| 2026-06-14T12:40 | 16.88885 | -24.99846 | 0.000 | 0.0 |
| 2026-06-14T12:50 | 16.88885 | -24.99845 | 0.000 | 90.0 |
| 2026-06-14T13:00 | 16.88885 | -24.99846 | 0.000 | 270.0 |
| 2026-06-14T13:10 | 16.88885 | -24.99845 | 0.000 | 90.0 |
| 2026-06-14T13:20 | 16.88885 | -24.99846 | 0.000 | 223.9 |
| 2026-06-14T13:30 | 16.88885 | -24.99845 | 0.001 | 43.9 |
| 2026-06-14T13:40 | 16.88885 | -24.99845 | 0.001 | 90.0 |
| 2026-06-14T13:50 | 16.88885 | -24.99845 | 0.000 | 0.0 |
| 2026-06-14T14:00 | 16.88885 | -24.99845 | 0.000 | 180.0 |
| 2026-06-14T14:10 | 16.88885 | -24.99845 | 0.000 | 0.0 |
| 2026-06-14T14:20 | 16.88885 | -24.99845 | 0.001 | 242.6 |
| 2026-06-14T14:30 | 16.88885 | -24.99845 | 0.001 | 334.3 |
| 2026-06-14T14:40 | 16.88886 | -24.99845 | 0.000 | 0.0 |
| 2026-06-14T14:50 | 16.88886 | -24.99845 | 0.001 | 70.9 |
| 2026-06-14T15:00 | 16.88886 | -24.99845 | 0.000 | 43.9 |
| 2026-06-14T15:10 | 16.88886 | -24.99845 | 0.000 | 316.1 |
| 2026-06-14T15:20 | 16.88886 | -24.99845 | 0.000 | 0.0 |
| 2026-06-14T15:30 | 16.88886 | -24.99845 | 0.000 | 0.0 |
| 2026-06-14T15:40 | 16.88886 | -24.99845 | 0.000 | 223.9 |
| 2026-06-14T15:50 | 16.88886 | -24.99845 | 0.000 | 43.9 |
| 2026-06-14T16:00 | 16.88886 | -24.99845 | 0.000 | 180.0 |
| 2026-06-14T16:10 | 16.88886 | -24.99845 | 0.000 | 270.0 |
| 2026-06-14T16:20 | 16.88886 | -24.99845 | 0.000 | 270.0 |
| 2026-06-14T16:30 | 16.88886 | -24.99845 | 0.000 | 90.0 |
| 2026-06-14T16:40 | 16.88886 | -24.99845 | 0.000 | 136.1 |
| 2026-06-14T16:50 | 16.88886 | -24.99845 | 0.000 | 180.0 |
| 2026-06-14T17:00 | 16.88886 | -24.99845 | 0.001 | 316.1 |
| 2026-06-14T17:10 | 16.88885 | -24.99845 | 0.002 | 189.1 |
| 2026-06-14T17:20 | 16.88885 | -24.99846 | 0.001 | 242.6 |
| 2026-06-14T17:30 | 16.88885 | -24.99845 | 0.001 | 147.3 |
| 2026-06-14T17:40 | 16.88885 | -24.99845 | 0.001 | 197.8 |
| 2026-06-14T17:50 | 16.88885 | -24.99845 | 0.000 | 43.9 |
| 2026-06-14T18:00 | 16.88885 | -24.99846 | 0.001 | 212.7 |
| 2026-06-14T18:10 | 16.88885 | -24.99845 | 0.000 | 43.9 |
| 2026-06-14T18:20 | 16.88885 | -24.99846 | 0.001 | 334.3 |
| 2026-06-14T18:30 | 16.88885 | -24.99846 | 0.000 | 223.9 |
| 2026-06-14T18:40 | 16.88885 | -24.99846 | 0.000 | 180.0 |
| 2026-06-14T18:50 | 16.88885 | -24.99846 | 0.000 | 90.0 |
| 2026-06-14T19:00 | 16.88885 | -24.99846 | 0.000 | 180.0 |
| 2026-06-14T19:10 | 16.88885 | -24.99845 | 0.001 | 62.6 |
| 2026-06-14T19:20 | 16.88885 | -24.99845 | 0.000 | 316.1 |
| 2026-06-14T19:30 | 16.88885 | -24.99845 | 0.000 | 0.0 |
| 2026-06-14T19:40 | 16.88885 | -24.99845 | 0.000 | 43.9 |
| 2026-06-14T19:50 | 16.88885 | -24.99845 | 0.000 | 90.0 |
| 2026-06-14T20:00 | 16.88885 | -24.99845 | 0.000 | 0.0 |
| 2026-06-14T20:10 | 16.88885 | -24.99845 | 0.000 | 0.0 |
| 2026-06-14T20:20 | 16.88886 | -24.99845 | 0.001 | 0.0 |
| 2026-06-14T20:30 | 16.88886 | -24.99845 | 0.000 | 180.0 |
| 2026-06-14T20:40 | 16.88885 | -24.99845 | 0.000 | 180.0 |
| 2026-06-14T20:50 | 16.88886 | -24.99845 | 0.001 | 0.0 |
| 2026-06-14T21:00 | 16.88886 | -24.99845 | 0.001 | 109.1 |
| 2026-06-14T21:10 | 16.88886 | -24.99845 | 0.001 | 270.0 |
| 2026-06-14T21:20 | 16.88823 | -24.99896 | 0.285 | 218.2 |
| 2026-06-14T21:30 | 16.89339 | -25.01108 | 4.572 | 293.9 |
| 2026-06-14T21:40 | 16.91084 | -25.02093 | 7.114 | 331.5 |
| 2026-06-14T21:50 | 16.93453 | -25.00917 | 9.408 | 25.5 |
| 2026-06-14T22:00 | 16.95509 | -24.98752 | 10.491 | 45.4 |
| 2026-06-14T22:10 | 16.97539 | -24.96621 | 10.338 | 45.3 |
| 2026-06-14T22:20 | 16.99633 | -24.94419 | 10.677 | 45.3 |
| 2026-06-14T22:30 | 17.01716 | -24.92223 | 10.631 | 45.4 |
| 2026-06-14T22:40 | 17.02508 | -24.89989 | 8.210 | 69.8 |
| 2026-06-14T22:50 | 17.02504 | -24.89971 | 0.062 | 104.2 |
| 2026-06-14T23:00 | 17.02503 | -24.89970 | 0.007 | 111.0 |
| 2026-06-14T23:10 | 17.02502 | -24.89965 | 0.018 | 108.8 |
| 2026-06-14T23:20 | 17.02492 | -24.89946 | 0.071 | 117.8 |
| 2026-06-14T23:30 | 17.02493 | -24.89947 | 0.004 | 319.9 |
| 2026-06-14T23:40 | 17.02726 | -24.89700 | 1.192 | 45.6 |
| 2026-06-14T23:50 | 17.03914 | -24.88714 | 5.448 | 38.6 |
| 2026-06-15T00:00 | 17.05293 | -24.87527 | 6.416 | 39.6 |
| 2026-06-15T00:10 | 17.06755 | -24.86238 | 6.871 | 40.3 |
| 2026-06-15T00:20 | 17.08203 | -24.84970 | 6.782 | 40.1 |
| 2026-06-15T00:30 | 17.09682 | -24.83672 | 6.938 | 40.1 |
| 2026-06-15T00:40 | 17.11764 | -24.81657 | 10.191 | 43.0 |
| 2026-06-15T00:50 | 17.13835 | -24.79479 | 10.553 | 45.3 |
| 2026-06-15T01:00 | 17.15879 | -24.77333 | 10.408 | 45.3 |
| 2026-06-15T01:10 | 17.17947 | -24.75155 | 10.545 | 45.4 |
| 2026-06-15T01:20 | 17.19933 | -24.73065 | 10.124 | 45.3 |
| 2026-06-15T01:30 | 17.21854 | -24.71037 | 9.808 | 45.4 |
| 2026-06-15T01:40 | 17.23802 | -24.68991 | 9.918 | 45.3 |
| 2026-06-15T01:50 | 17.25774 | -24.66914 | 10.056 | 45.3 |
| 2026-06-15T02:00 | 17.27679 | -24.64905 | 9.717 | 45.4 |
| 2026-06-15T02:10 | 17.29693 | -24.62786 | 10.263 | 45.3 |
| 2026-06-15T02:20 | 17.31726 | -24.60641 | 10.372 | 45.4 |
| 2026-06-15T02:30 | 17.33847 | -24.59030 | 9.409 | 36.1 |
| 2026-06-15T02:40 | 17.36175 | -24.58041 | 9.011 | 22.2 |
| 2026-06-15T02:50 | 17.38039 | -24.55732 | 10.379 | 50.0 |
| 2026-06-15T03:00 | 17.39894 | -24.53433 | 10.333 | 50.0 |
| 2026-06-15T03:10 | 17.41685 | -24.51197 | 10.020 | 50.2 |
| 2026-06-15T03:20 | 17.43548 | -24.48881 | 10.395 | 50.0 |
| 2026-06-15T03:30 | 17.45391 | -24.46605 | 10.241 | 49.9 |
| 2026-06-15T03:40 | 17.47248 | -24.44284 | 10.394 | 50.2 |
| 2026-06-15T03:50 | 17.49250 | -24.42173 | 10.208 | 45.3 |
| 2026-06-15T04:00 | 17.51112 | -24.39927 | 10.204 | 49.2 |
| 2026-06-15T04:10 | 17.52726 | -24.37363 | 10.546 | 56.7 |
| 2026-06-15T04:20 | 17.54011 | -24.35291 | 8.481 | 57.1 |
| 2026-06-15T04:30 | 17.55150 | -24.33464 | 7.491 | 57.0 |
| 2026-06-15T04:40 | 17.56050 | -24.32013 | 5.940 | 57.1 |
| 2026-06-15T04:50 | 17.56945 | -24.30592 | 5.844 | 56.7 |
| 2026-06-15T05:00 | 17.57830 | -24.29179 | 5.799 | 56.9 |
| 2026-06-15T05:10 | 17.58620 | -24.27916 | 5.185 | 56.9 |
| 2026-06-15T05:20 | 17.59366 | -24.26713 | 4.921 | 57.1 |
| 2026-06-15T05:30 | 17.60197 | -24.26203 | 3.460 | 30.5 |
| 2026-06-15T05:40 | 17.61039 | -24.25935 | 3.154 | 17.0 |
| 2026-06-15T05:50 | 17.61048 | -24.25930 | 0.035 | 27.7 |
| 2026-06-15T06:00 | 17.61048 | -24.25932 | 0.006 | 263.0 |
| 2026-06-15T06:10 | 17.61024 | -24.25935 | 0.085 | 187.4 |
| 2026-06-15T06:20 | 17.60963 | -24.25961 | 0.239 | 201.8 |
| 2026-06-15T06:30 | 17.60647 | -24.25991 | 1.137 | 185.3 |
| 2026-06-15T06:40 | 17.60562 | -24.25818 | 0.669 | 117.0 |
| 2026-06-15T06:50 | 17.60477 | -24.25599 | 0.811 | 112.2 |
| 2026-06-15T07:00 | 17.60439 | -24.25504 | 0.355 | 112.6 |
| 2026-06-15T07:10 | 17.60415 | -24.25446 | 0.216 | 112.7 |
| 2026-06-15T07:20 | 17.60640 | -24.25354 | 0.866 | 21.5 |
| 2026-06-15T07:30 | 17.61122 | -24.25251 | 1.762 | 11.5 |
| 2026-06-15T07:40 | 17.61285 | -24.25103 | 0.776 | 40.9 |
| 2026-06-15T07:50 | 17.61393 | -24.24753 | 1.263 | 72.2 |
| 2026-06-15T08:00 | 17.60603 | -24.24207 | 3.398 | 146.4 |
| 2026-06-15T08:10 | 17.60516 | -24.24218 | 0.315 | 187.2 |
| 2026-06-15T08:20 | 17.60494 | -24.24105 | 0.397 | 101.3 |
| 2026-06-15T08:30 | 17.60510 | -24.23932 | 0.596 | 84.6 |
| 2026-06-15T08:40 | 17.60473 | -24.23801 | 0.471 | 106.3 |
| 2026-06-15T08:50 | 17.60410 | -24.23654 | 0.551 | 114.1 |
| 2026-06-15T09:00 | 17.60376 | -24.23560 | 0.348 | 110.5 |
| 2026-06-15T09:10 | 17.60332 | -24.23432 | 0.468 | 109.8 |
| 2026-06-15T09:20 | 17.60290 | -24.23336 | 0.361 | 114.4 |
| 2026-06-15T09:30 | 17.60240 | -24.23246 | 0.357 | 120.4 |
| 2026-06-15T09:40 | 17.60213 | -24.23192 | 0.209 | 117.4 |
| 2026-06-15T09:50 | 17.60188 | -24.23147 | 0.180 | 119.4 |
| 2026-06-15T10:00 | 17.60134 | -24.23083 | 0.293 | 131.6 |
| 2026-06-15T10:10 | 17.60102 | -24.22996 | 0.320 | 111.4 |
| 2026-06-15T10:20 | 17.60095 | -24.22934 | 0.216 | 96.5 |
| 2026-06-15T10:30 | 17.60117 | -24.22848 | 0.304 | 74.9 |
| 2026-06-15T10:40 | 17.60006 | -24.22681 | 0.700 | 124.8 |
| 2026-06-15T10:50 | 17.60023 | -24.22633 | 0.177 | 69.2 |
| 2026-06-15T11:00 | 17.60069 | -24.22622 | 0.169 | 13.1 |
| 2026-06-15T11:10 | 17.60027 | -24.22549 | 0.292 | 120.7 |
| 2026-06-15T11:20 | 17.60009 | -24.22494 | 0.200 | 109.4 |
| 2026-06-15T11:30 | 17.59920 | -24.22412 | 0.426 | 138.7 |
| 2026-06-15T11:40 | 17.59842 | -24.22288 | 0.509 | 123.2 |
| 2026-06-15T11:50 | 17.59773 | -24.22210 | 0.364 | 133.1 |
| 2026-06-15T12:00 | 17.59671 | -24.21865 | 1.240 | 107.0 |
| 2026-06-15T12:10 | 17.59724 | -24.21473 | 1.362 | 82.0 |
| 2026-06-15T12:20 | 17.59811 | -24.20999 | 1.659 | 79.1 |
| 2026-06-15T12:30 | 17.58932 | -24.19764 | 5.284 | 126.6 |
| 2026-06-15T12:40 | 17.58812 | -24.19680 | 0.518 | 146.2 |
| 2026-06-15T12:50 | 17.58928 | -24.19789 | 0.559 | 317.9 |
| 2026-06-15T13:00 | 17.59058 | -24.19937 | 0.689 | 312.6 |
| 2026-06-15T13:10 | 17.59050 | -24.19931 | 0.036 | 142.9 |
| 2026-06-15T13:20 | 17.59052 | -24.19931 | 0.008 | 2.5 |
| 2026-06-15T13:30 | 17.59053 | -24.19931 | 0.003 | 304.8 |
| 2026-06-15T13:40 | 17.59057 | -24.19900 | 0.110 | 81.0 |
| 2026-06-15T13:50 | 17.59105 | -24.19600 | 1.043 | 80.6 |
| 2026-06-15T14:00 | 17.59151 | -24.19278 | 1.122 | 81.5 |
| 2026-06-15T14:10 | 17.59213 | -24.18887 | 1.361 | 80.6 |
| 2026-06-15T14:20 | 17.59272 | -24.18496 | 1.360 | 81.0 |
| 2026-06-15T14:30 | 17.59330 | -24.18105 | 1.361 | 81.2 |
| 2026-06-15T14:40 | 17.59391 | -24.17714 | 1.361 | 80.8 |
| 2026-06-15T14:50 | 17.59450 | -24.17323 | 1.358 | 81.1 |
| 2026-06-15T15:00 | 17.59498 | -24.17009 | 1.093 | 80.8 |
| 2026-06-15T15:10 | 17.59542 | -24.16715 | 1.024 | 81.1 |
| 2026-06-15T15:20 | 17.59600 | -24.16325 | 1.356 | 81.3 |
| 2026-06-15T15:30 | 17.59660 | -24.15931 | 1.370 | 81.0 |
| 2026-06-15T15:40 | 17.59718 | -24.15541 | 1.357 | 81.2 |
| 2026-06-15T15:50 | 17.59777 | -24.15150 | 1.362 | 80.9 |
| 2026-06-15T16:00 | 17.59837 | -24.14760 | 1.356 | 81.0 |
| 2026-06-15T16:10 | 17.59895 | -24.14369 | 1.361 | 81.3 |
| 2026-06-15T16:20 | 17.59964 | -24.13928 | 1.536 | 80.7 |
| 2026-06-15T16:30 | 17.60030 | -24.13425 | 1.743 | 82.2 |
| 2026-06-15T16:40 | 17.60106 | -24.12922 | 1.750 | 81.0 |
| 2026-06-15T16:50 | 17.60183 | -24.12418 | 1.756 | 81.0 |
| 2026-06-15T17:00 | 17.60259 | -24.11917 | 1.742 | 81.0 |
| 2026-06-15T17:10 | 17.60336 | -24.11415 | 1.748 | 81.0 |
| 2026-06-15T17:20 | 17.60414 | -24.10912 | 1.750 | 80.8 |
| 2026-06-15T17:30 | 17.60490 | -24.10411 | 1.745 | 80.9 |
| 2026-06-15T17:40 | 17.60580 | -24.09911 | 1.748 | 79.5 |
| 2026-06-15T17:50 | 17.60659 | -24.09410 | 1.745 | 80.7 |
| 2026-06-15T18:00 | 17.60743 | -24.08910 | 1.742 | 80.0 |
| 2026-06-15T18:10 | 17.60821 | -24.08437 | 1.651 | 80.2 |
| 2026-06-15T18:20 | 17.60894 | -24.07952 | 1.686 | 81.1 |
| 2026-06-15T18:30 | 17.59399 | -24.08914 | 6.294 | 211.7 |
| 2026-06-15T18:40 | 17.59086 | -24.09796 | 3.231 | 249.7 |
| 2026-06-15T18:50 | 17.59466 | -24.09447 | 1.814 | 41.3 |
| 2026-06-15T19:00 | 17.59404 | -24.09488 | 0.264 | 212.2 |
| 2026-06-15T19:10 | 17.59626 | -24.09948 | 1.768 | 296.7 |
| 2026-06-15T19:20 | 17.59895 | -24.09633 | 1.449 | 48.2 |
| 2026-06-15T19:30 | 17.59917 | -24.09517 | 0.407 | 79.1 |
| 2026-06-15T19:40 | 17.60131 | -24.09189 | 1.364 | 55.8 |
| 2026-06-15T19:50 | 17.60172 | -24.09132 | 0.246 | 52.9 |
| 2026-06-15T20:00 | 17.60242 | -24.09011 | 0.486 | 59.2 |
| 2026-06-15T20:10 | 17.60226 | -24.08985 | 0.105 | 122.8 |
| 2026-06-15T20:20 | 17.60229 | -24.08989 | 0.018 | 312.3 |
| 2026-06-15T20:30 | 17.60254 | -24.08965 | 0.122 | 42.6 |
| 2026-06-15T20:40 | 17.60294 | -24.08927 | 0.193 | 41.8 |
| 2026-06-15T20:50 | 17.60297 | -24.08925 | 0.012 | 40.2 |
| 2026-06-15T21:00 | 17.60295 | -24.08925 | 0.006 | 176.6 |
| 2026-06-15T21:10 | 17.60288 | -24.08999 | 0.254 | 263.7 |
| 2026-06-15T21:20 | 17.60093 | -24.09741 | 2.646 | 254.7 |
| 2026-06-15T21:30 | 17.60006 | -24.11714 | 6.785 | 267.4 |
| 2026-06-15T21:40 | 17.60191 | -24.14590 | 9.909 | 273.8 |
| 2026-06-15T21:50 | 17.60390 | -24.17572 | 10.271 | 274.0 |
| 2026-06-15T22:00 | 17.60583 | -24.20502 | 10.095 | 273.9 |
| 2026-06-15T22:10 | 17.60613 | -24.23267 | 9.504 | 270.6 |
| 2026-06-15T22:20 | 17.60453 | -24.25100 | 6.324 | 264.8 |
| 2026-06-15T22:30 | 17.60497 | -24.25102 | 0.158 | 357.0 |
| 2026-06-15T22:40 | 17.60598 | -24.25029 | 0.441 | 34.9 |
| 2026-06-15T22:50 | 17.60601 | -24.25029 | 0.011 | 356.9 |
| 2026-06-15T23:00 | 17.60600 | -24.25030 | 0.004 | 238.4 |
| 2026-06-15T23:10 | 17.60603 | -24.25030 | 0.010 | 4.9 |
| 2026-06-15T23:20 | 17.60600 | -24.25031 | 0.010 | 203.1 |
| 2026-06-15T23:30 | 17.60603 | -24.25030 | 0.010 | 14.5 |
| 2026-06-15T23:40 | 17.60602 | -24.25029 | 0.004 | 152.4 |
| 2026-06-15T23:50 | 17.60603 | -24.25030 | 0.005 | 321.4 |
| 2026-06-16T00:00 | 17.60604 | -24.25030 | 0.004 | 36.7 |
| 2026-06-16T00:10 | 17.60603 | -24.25030 | 0.003 | 193.5 |
| 2026-06-16T00:20 | 17.60603 | -24.25030 | 0.000 | 136.2 |
| 2026-06-16T00:30 | 17.60603 | -24.25029 | 0.003 | 82.6 |
| 2026-06-16T00:40 | 17.60604 | -24.25030 | 0.005 | 303.6 |
| 2026-06-16T00:50 | 17.60603 | -24.25030 | 0.004 | 165.3 |
| 2026-06-16T01:00 | 17.60602 | -24.25030 | 0.004 | 180.0 |
| 2026-06-16T01:10 | 17.60601 | -24.25030 | 0.002 | 180.0 |
| 2026-06-16T01:20 | 17.60602 | -24.25030 | 0.003 | 19.8 |
| 2026-06-16T01:30 | 17.60602 | -24.25029 | 0.002 | 101.8 |
| 2026-06-16T01:40 | 17.60602 | -24.25030 | 0.003 | 286.6 |
| 2026-06-16T01:50 | 17.60602 | -24.25030 | 0.001 | 327.4 |
| 2026-06-16T02:00 | 17.60603 | -24.25031 | 0.005 | 304.8 |
| 2026-06-16T02:10 | 17.60603 | -24.25031 | 0.001 | 223.8 |
| 2026-06-16T02:20 | 17.60602 | -24.25031 | 0.004 | 185.5 |
| 2026-06-16T02:30 | 17.60602 | -24.25029 | 0.007 | 93.0 |
| 2026-06-16T02:40 | 17.60603 | -24.25031 | 0.007 | 308.6 |
| 2026-06-16T02:50 | 17.60603 | -24.25029 | 0.007 | 101.2 |
| 2026-06-16T03:00 | 17.60601 | -24.25029 | 0.005 | 175.8 |
| 2026-06-16T03:10 | 17.60602 | -24.25029 | 0.002 | 322.5 |
| 2026-06-16T03:20 | 17.60601 | -24.25030 | 0.004 | 227.6 |
| 2026-06-16T03:30 | 17.60603 | -24.25030 | 0.006 | 0.0 |
| 2026-06-16T03:40 | 17.60602 | -24.25028 | 0.007 | 112.1 |
| 2026-06-16T03:50 | 17.60603 | -24.25030 | 0.007 | 302.5 |
| 2026-06-16T04:00 | 17.60603 | -24.25030 | 0.001 | 223.8 |
| 2026-06-16T04:10 | 17.60602 | -24.25029 | 0.005 | 123.6 |
| 2026-06-16T04:20 | 17.60602 | -24.25031 | 0.005 | 257.4 |
| 2026-06-16T04:30 | 17.60602 | -24.25029 | 0.005 | 76.5 |
| 2026-06-16T04:40 | 17.60604 | -24.25032 | 0.012 | 305.3 |
| 2026-06-16T04:50 | 17.60603 | -24.25031 | 0.006 | 148.3 |
| 2026-06-16T05:00 | 17.60603 | -24.25031 | 0.000 | 0.0 |
| 2026-06-16T05:10 | 17.60605 | -24.25031 | 0.008 | 10.3 |
| 2026-06-16T05:20 | 17.60602 | -24.25030 | 0.013 | 164.2 |
| 2026-06-16T05:30 | 17.60603 | -24.25030 | 0.005 | 0.0 |
| 2026-06-16T05:40 | 17.60603 | -24.25030 | 0.001 | 154.4 |
| 2026-06-16T05:50 | 17.60602 | -24.25031 | 0.006 | 230.7 |
| 2026-06-16T06:00 | 17.60603 | -24.25030 | 0.005 | 62.5 |
| 2026-06-16T06:10 | 17.60602 | -24.25030 | 0.003 | 173.2 |
| 2026-06-16T06:20 | 17.60605 | -24.25031 | 0.013 | 344.7 |
| 2026-06-16T06:30 | 17.60604 | -24.25032 | 0.006 | 226.3 |
| 2026-06-16T06:40 | 17.60727 | -24.24923 | 0.576 | 40.3 |
| 2026-06-16T06:50 | 17.60924 | -24.24619 | 1.264 | 56.0 |
| 2026-06-16T07:00 | 17.61073 | -24.24244 | 1.392 | 67.5 |
| 2026-06-16T07:10 | 17.61249 | -24.23873 | 1.423 | 63.7 |
| 2026-06-16T07:20 | 17.61519 | -24.23427 | 1.815 | 57.7 |
| 2026-06-16T07:30 | 17.62230 | -24.24433 | 4.298 | 306.4 |
| 2026-06-16T07:40 | 17.61316 | -24.27409 | 10.737 | 252.2 |
| 2026-06-16T07:50 | 17.59626 | -24.30119 | 11.109 | 237.0 |
| 2026-06-16T08:00 | 17.57509 | -24.32848 | 12.064 | 231.0 |
| 2026-06-16T08:10 | 17.55651 | -24.35345 | 10.865 | 232.2 |
| 2026-06-16T08:20 | 17.55869 | -24.35359 | 0.785 | 356.5 |
| 2026-06-16T08:30 | 17.55910 | -24.35372 | 0.151 | 343.8 |
| 2026-06-16T08:40 | 17.55915 | -24.35372 | 0.017 | 357.7 |
| 2026-06-16T08:50 | 17.55917 | -24.35374 | 0.010 | 313.3 |
| 2026-06-16T09:00 | 17.55917 | -24.35375 | 0.004 | 312.8 |
| 2026-06-16T09:10 | 17.55917 | -24.35373 | 0.007 | 109.2 |
| 2026-06-16T09:20 | 17.56001 | -24.35191 | 0.694 | 64.4 |
| 2026-06-16T09:30 | 17.56139 | -24.34884 | 1.167 | 64.8 |
| 2026-06-16T09:40 | 17.56278 | -24.34576 | 1.170 | 64.8 |
| 2026-06-16T09:50 | 17.56420 | -24.34253 | 1.220 | 65.2 |
| 2026-06-16T10:00 | 17.56580 | -24.33895 | 1.358 | 65.1 |
| 2026-06-16T10:10 | 17.56742 | -24.33536 | 1.364 | 64.8 |
| 2026-06-16T10:20 | 17.56902 | -24.33177 | 1.360 | 65.0 |
| 2026-06-16T10:30 | 17.57061 | -24.32818 | 1.360 | 65.2 |
| 2026-06-16T10:40 | 17.57223 | -24.32460 | 1.360 | 64.7 |
| 2026-06-16T10:50 | 17.57382 | -24.32101 | 1.360 | 65.2 |
| 2026-06-16T11:00 | 17.57542 | -24.31742 | 1.360 | 65.1 |
| 2026-06-16T11:10 | 17.57705 | -24.31383 | 1.364 | 64.8 |
| 2026-06-16T11:20 | 17.57863 | -24.31025 | 1.355 | 65.2 |
| 2026-06-16T11:30 | 17.58047 | -24.30617 | 1.550 | 64.9 |
| 2026-06-16T11:40 | 17.58229 | -24.30206 | 1.556 | 65.2 |
| 2026-06-16T11:50 | 17.58412 | -24.29796 | 1.557 | 65.0 |
| 2026-06-16T12:00 | 17.58595 | -24.29387 | 1.549 | 65.0 |
| 2026-06-16T12:10 | 17.58776 | -24.28975 | 1.558 | 65.3 |
| 2026-06-16T12:20 | 17.58960 | -24.28567 | 1.549 | 64.9 |
| 2026-06-16T12:30 | 17.59143 | -24.28158 | 1.553 | 65.0 |
| 2026-06-16T12:40 | 17.59327 | -24.27747 | 1.559 | 65.0 |
| 2026-06-16T12:50 | 17.59488 | -24.27382 | 1.380 | 65.2 |
| 2026-06-16T13:00 | 17.59627 | -24.27075 | 1.165 | 64.8 |
| 2026-06-16T13:10 | 17.59766 | -24.26761 | 1.191 | 65.1 |
| 2026-06-16T13:20 | 17.59947 | -24.26350 | 1.552 | 65.4 |
| 2026-06-16T13:30 | 17.60147 | -24.25948 | 1.558 | 62.6 |
| 2026-06-16T13:40 | 17.60358 | -24.25555 | 1.548 | 60.8 |
| 2026-06-16T13:50 | 17.60572 | -24.25161 | 1.558 | 60.4 |
| 2026-06-16T14:00 | 17.60784 | -24.24766 | 1.555 | 60.8 |
| 2026-06-16T14:10 | 17.60892 | -24.24553 | 0.828 | 62.1 |
| 2026-06-16T14:20 | 17.61538 | -24.23966 | 3.069 | 41.1 |
| 2026-06-16T14:30 | 17.63450 | -24.22577 | 8.351 | 34.9 |
| 2026-06-16T14:40 | 17.65916 | -24.20777 | 10.786 | 35.0 |
| 2026-06-16T14:50 | 17.68368 | -24.18995 | 10.711 | 34.9 |
| 2026-06-16T15:00 | 17.70796 | -24.17252 | 10.562 | 34.5 |
| 2026-06-16T15:10 | 17.73211 | -24.15596 | 10.355 | 33.3 |
| 2026-06-16T15:20 | 17.75572 | -24.13930 | 10.215 | 34.1 |
| 2026-06-16T15:30 | 17.77893 | -24.12205 | 10.209 | 35.4 |
| 2026-06-16T15:40 | 17.80185 | -24.10498 | 10.093 | 35.5 |
| 2026-06-16T15:50 | 17.82477 | -24.08790 | 10.092 | 35.5 |
| 2026-06-16T16:00 | 17.84775 | -24.07082 | 10.109 | 35.5 |
| 2026-06-16T16:10 | 17.87115 | -24.05339 | 10.300 | 35.5 |
| 2026-06-16T16:20 | 17.89480 | -24.03577 | 10.409 | 35.5 |
| 2026-06-16T16:30 | 17.91906 | -24.01770 | 10.679 | 35.5 |
| 2026-06-16T16:40 | 17.94328 | -23.99962 | 10.671 | 35.5 |
| 2026-06-16T16:50 | 17.96739 | -23.98143 | 10.655 | 35.8 |
| 2026-06-16T17:00 | 17.96724 | -23.98172 | 0.113 | 241.9 |
| 2026-06-16T17:10 | 17.96718 | -23.98166 | 0.029 | 134.8 |
| 2026-06-16T17:20 | 17.96722 | -23.98166 | 0.012 | 351.8 |
| 2026-06-16T17:30 | 17.96722 | -23.98167 | 0.004 | 302.1 |
| 2026-06-16T17:40 | 17.96722 | -23.98167 | 0.003 | 75.4 |
| 2026-06-16T17:50 | 17.96724 | -23.98169 | 0.011 | 297.6 |
| 2026-06-16T18:00 | 17.96723 | -23.98169 | 0.003 | 168.0 |
| 2026-06-16T18:10 | 17.96724 | -23.98168 | 0.005 | 56.4 |
| 2026-06-16T18:20 | 17.96723 | -23.98168 | 0.003 | 180.0 |
| 2026-06-16T18:30 | 17.96802 | -23.98112 | 0.343 | 34.4 |
| 2026-06-16T18:40 | 17.98305 | -23.96998 | 6.603 | 35.3 |
| 2026-06-16T18:50 | 18.00733 | -23.95187 | 10.691 | 35.5 |
| 2026-06-16T19:00 | 18.03133 | -23.93394 | 10.572 | 35.6 |
| 2026-06-16T19:10 | 18.05537 | -23.91601 | 10.584 | 35.5 |
| 2026-06-16T19:20 | 18.07905 | -23.89830 | 10.436 | 35.6 |
| 2026-06-16T19:30 | 18.10335 | -23.88014 | 10.704 | 35.5 |
| 2026-06-16T19:40 | 18.12734 | -23.86222 | 10.565 | 35.5 |
| 2026-06-16T19:50 | 18.15179 | -23.84394 | 10.770 | 35.6 |
| 2026-06-16T20:00 | 18.17557 | -23.82615 | 10.479 | 35.5 |
| 2026-06-16T20:10 | 18.19925 | -23.80844 | 10.432 | 35.5 |
| 2026-06-16T20:20 | 18.22289 | -23.79071 | 10.423 | 35.6 |
| 2026-06-16T20:30 | 18.24645 | -23.77309 | 10.379 | 35.5 |
| 2026-06-16T20:40 | 18.27028 | -23.75523 | 10.503 | 35.6 |
| 2026-06-16T20:50 | 18.29437 | -23.73721 | 10.612 | 35.5 |
| 2026-06-16T21:00 | 18.31842 | -23.71913 | 10.612 | 35.7 |
| 2026-06-16T21:10 | 18.34226 | -23.70129 | 10.501 | 35.5 |
| 2026-06-16T21:20 | 18.36666 | -23.68301 | 10.753 | 35.6 |
| 2026-06-16T21:30 | 18.39066 | -23.66502 | 10.578 | 35.6 |
| 2026-06-16T21:40 | 18.41443 | -23.64717 | 10.480 | 35.6 |
| 2026-06-16T21:50 | 18.43803 | -23.62944 | 10.408 | 35.6 |
| 2026-06-16T22:00 | 18.46179 | -23.61156 | 10.486 | 35.7 |
| 2026-06-16T22:10 | 18.48613 | -23.59331 | 10.725 | 35.6 |
| 2026-06-16T22:20 | 18.51098 | -23.57461 | 10.965 | 35.7 |
| 2026-06-16T22:30 | 18.53547 | -23.55618 | 10.805 | 35.7 |
| 2026-06-16T22:40 | 18.56026 | -23.53985 | 10.491 | 32.1 |
| 2026-06-16T22:50 | 18.58438 | -23.52147 | 10.685 | 36.0 |
| 2026-06-16T23:00 | 18.60902 | -23.50269 | 10.919 | 36.0 |
| 2026-06-16T23:10 | 18.63347 | -23.48410 | 10.823 | 35.9 |
| 2026-06-16T23:20 | 18.65662 | -23.46504 | 10.547 | 38.1 |
| 2026-06-16T23:30 | 18.68040 | -23.44712 | 10.494 | 35.7 |
| 2026-06-16T23:40 | 18.70376 | -23.42953 | 10.305 | 35.7 |
| 2026-06-16T23:50 | 18.72701 | -23.41193 | 10.274 | 35.8 |
| 2026-06-17T00:00 | 18.74969 | -23.39485 | 10.007 | 35.7 |
| 2026-06-17T00:10 | 18.77281 | -23.37741 | 10.201 | 35.7 |
| 2026-06-17T00:20 | 18.79582 | -23.36005 | 10.155 | 35.7 |
| 2026-06-17T00:30 | 18.81896 | -23.34257 | 10.220 | 35.7 |
| 2026-06-17T00:40 | 18.84202 | -23.32515 | 10.179 | 35.7 |
| 2026-06-17T00:50 | 18.86473 | -23.30799 | 10.026 | 35.7 |
| 2026-06-17T01:00 | 18.88781 | -23.29056 | 10.187 | 35.7 |
| 2026-06-17T01:10 | 18.91065 | -23.27326 | 10.094 | 35.8 |
| 2026-06-17T01:20 | 18.93406 | -23.25558 | 10.333 | 35.7 |
| 2026-06-17T01:30 | 18.95699 | -23.23823 | 10.126 | 35.7 |
| 2026-06-17T01:40 | 18.98005 | -23.22077 | 10.187 | 35.8 |
| 2026-06-17T01:50 | 19.00324 | -23.20323 | 10.240 | 35.7 |
| 2026-06-17T02:00 | 19.02670 | -23.18547 | 10.360 | 35.8 |
| 2026-06-17T02:10 | 19.05027 | -23.16758 | 10.419 | 35.8 |
| 2026-06-17T02:20 | 19.07353 | -23.14997 | 10.274 | 35.8 |
| 2026-06-17T02:30 | 19.09690 | -23.13223 | 10.329 | 35.8 |
| 2026-06-17T02:40 | 19.11998 | -23.11475 | 10.193 | 35.8 |
| 2026-06-17T02:50 | 19.14313 | -23.09719 | 10.229 | 35.8 |
| 2026-06-17T03:00 | 19.16635 | -23.07952 | 10.270 | 35.9 |
| 2026-06-17T03:10 | 19.18942 | -23.06202 | 10.192 | 35.8 |
| 2026-06-17T03:20 | 19.21227 | -23.04466 | 10.101 | 35.8 |
| 2026-06-17T03:30 | 19.23647 | -23.03106 | 9.832 | 28.1 |
| 2026-06-17T03:40 | 19.26037 | -23.01875 | 9.537 | 26.1 |
| 2026-06-17T03:50 | 19.28197 | -22.99982 | 10.072 | 39.8 |
| 2026-06-17T04:00 | 19.30363 | -22.98104 | 10.059 | 39.5 |
| 2026-06-17T04:10 | 19.32520 | -22.96240 | 9.998 | 39.4 |
| 2026-06-17T04:20 | 19.34587 | -22.94415 | 9.666 | 39.9 |
| 2026-06-17T04:30 | 19.36721 | -22.92524 | 9.996 | 40.1 |
| 2026-06-17T04:40 | 19.38901 | -22.90751 | 9.870 | 37.6 |
| 2026-06-17T04:50 | 19.41265 | -22.89222 | 9.942 | 31.5 |
| 2026-06-17T05:00 | 19.43461 | -22.87547 | 9.718 | 35.9 |
| 2026-06-17T05:10 | 19.45728 | -22.85818 | 10.030 | 35.9 |
| 2026-06-17T05:20 | 19.47894 | -22.84167 | 9.578 | 35.9 |
| 2026-06-17T05:30 | 19.50165 | -22.82430 | 10.057 | 35.9 |
| 2026-06-17T05:40 | 19.52416 | -22.80716 | 9.950 | 35.9 |
| 2026-06-17T05:50 | 19.54632 | -22.79025 | 9.806 | 35.9 |
| 2026-06-17T06:00 | 19.56865 | -22.77320 | 9.878 | 35.9 |
| 2026-06-17T06:10 | 19.59087 | -22.75621 | 9.836 | 35.9 |
| 2026-06-17T06:20 | 19.61264 | -22.73960 | 9.632 | 35.9 |
| 2026-06-17T06:30 | 19.63503 | -22.72243 | 9.922 | 36.0 |
| 2026-06-17T06:40 | 19.65796 | -22.70491 | 10.145 | 35.9 |
| 2026-06-17T06:50 | 19.68061 | -22.68757 | 10.031 | 35.9 |
| 2026-06-17T07:00 | 19.70365 | -22.66992 | 10.202 | 36.0 |
| 2026-06-17T07:10 | 19.72676 | -22.65223 | 10.233 | 36.0 |
| 2026-06-17T07:20 | 19.74997 | -22.63447 | 10.273 | 35.9 |
| 2026-06-17T07:30 | 19.77307 | -22.61676 | 10.232 | 36.0 |
| 2026-06-17T07:40 | 19.79622 | -22.59900 | 10.252 | 36.0 |
| 2026-06-17T07:50 | 19.81934 | -22.58132 | 10.230 | 35.9 |
| 2026-06-17T08:00 | 19.84302 | -22.56313 | 10.494 | 36.0 |
| 2026-06-17T08:10 | 19.86692 | -22.54478 | 10.592 | 36.0 |
| 2026-06-17T08:20 | 19.89070 | -22.52653 | 10.531 | 36.0 |
| 2026-06-17T08:30 | 19.91455 | -22.50821 | 10.568 | 36.0 |
| 2026-06-17T08:40 | 19.93831 | -22.48996 | 10.528 | 36.0 |
| 2026-06-17T08:50 | 19.96237 | -22.47144 | 10.666 | 36.0 |
| 2026-06-17T09:00 | 19.98623 | -22.45312 | 10.566 | 36.0 |
| 2026-06-17T09:10 | 20.00949 | -22.43519 | 10.317 | 36.1 |
| 2026-06-17T09:20 | 20.03303 | -22.41711 | 10.430 | 36.0 |
| 2026-06-17T09:30 | 20.05699 | -22.39868 | 10.615 | 36.0 |
| 2026-06-17T09:40 | 20.08030 | -22.38071 | 10.341 | 36.1 |
| 2026-06-17T09:50 | 20.10345 | -22.36288 | 10.260 | 36.0 |
| 2026-06-17T10:00 | 20.12663 | -22.34505 | 10.272 | 36.0 |
| 2026-06-17T10:10 | 20.14901 | -22.32778 | 9.924 | 36.1 |
| 2026-06-17T10:20 | 20.17234 | -22.30981 | 10.343 | 36.0 |
| 2026-06-17T10:30 | 20.19537 | -22.29206 | 10.210 | 36.0 |
| 2026-06-17T10:40 | 20.21823 | -22.27439 | 10.143 | 36.1 |
| 2026-06-17T10:50 | 20.23982 | -22.25771 | 9.579 | 36.1 |
| 2026-06-17T11:00 | 20.26229 | -22.24038 | 9.966 | 36.0 |
| 2026-06-17T11:10 | 20.28509 | -22.22274 | 10.119 | 36.1 |
| 2026-06-17T11:20 | 20.30743 | -22.20551 | 9.904 | 36.0 |
| 2026-06-17T11:30 | 20.32992 | -22.18809 | 9.985 | 36.1 |
| 2026-06-17T11:40 | 20.35224 | -22.17081 | 9.906 | 36.1 |
| 2026-06-17T11:50 | 20.37409 | -22.15395 | 9.687 | 36.0 |
| 2026-06-17T12:00 | 20.39657 | -22.13651 | 9.986 | 36.2 |
| 2026-06-17T12:10 | 20.41940 | -22.11882 | 10.135 | 36.1 |
| 2026-06-17T12:20 | 20.44233 | -22.10111 | 10.167 | 36.1 |
| 2026-06-17T12:30 | 20.46510 | -22.08343 | 10.114 | 36.2 |
| 2026-06-17T12:40 | 20.48785 | -22.06582 | 10.095 | 36.1 |
| 2026-06-17T12:50 | 20.51021 | -22.04843 | 9.938 | 36.2 |
| 2026-06-17T13:00 | 20.53257 | -22.03111 | 9.922 | 36.1 |
| 2026-06-17T13:10 | 20.55509 | -22.01364 | 9.998 | 36.1 |
| 2026-06-17T13:20 | 20.57747 | -21.99628 | 9.936 | 36.1 |
| 2026-06-17T13:30 | 20.60011 | -21.97868 | 10.059 | 36.2 |
| 2026-06-17T13:40 | 20.62234 | -21.96138 | 9.880 | 36.2 |
| 2026-06-17T13:50 | 20.64454 | -21.94416 | 9.854 | 36.1 |
| 2026-06-17T14:00 | 20.66649 | -21.92707 | 9.755 | 36.2 |
| 2026-06-17T14:10 | 20.68865 | -21.90990 | 9.832 | 36.1 |
| 2026-06-17T14:20 | 20.71078 | -21.89265 | 9.838 | 36.3 |
| 2026-06-17T14:30 | 20.73309 | -21.87527 | 9.915 | 36.2 |
| 2026-06-17T14:40 | 20.75546 | -21.85784 | 9.944 | 36.2 |
| 2026-06-17T14:50 | 20.77788 | -21.84038 | 9.963 | 36.2 |
| 2026-06-17T15:00 | 20.80021 | -21.82299 | 9.922 | 36.2 |
| 2026-06-17T15:10 | 20.82217 | -21.80585 | 9.767 | 36.3 |
| 2026-06-17T15:20 | 20.84417 | -21.78868 | 9.781 | 36.3 |
| 2026-06-17T15:30 | 20.86637 | -21.77138 | 9.864 | 36.2 |
| 2026-06-17T15:40 | 20.88831 | -21.75424 | 9.760 | 36.3 |
| 2026-06-17T15:50 | 20.91040 | -21.73700 | 9.818 | 36.2 |
| 2026-06-17T16:00 | 20.93250 | -21.71976 | 9.825 | 36.2 |
| 2026-06-17T16:10 | 20.95474 | -21.70236 | 9.895 | 36.3 |
| 2026-06-17T16:20 | 20.97695 | -21.68505 | 9.866 | 36.2 |
| 2026-06-17T16:30 | 20.99224 | -21.67316 | 6.789 | 36.1 |
| 2026-06-17T16:40 | 21.00466 | -21.66336 | 5.541 | 36.5 |
| 2026-06-17T16:50 | 21.01904 | -21.65208 | 6.402 | 36.4 |
| 2026-06-17T17:00 | 21.03864 | -21.63672 | 8.726 | 36.3 |
| 2026-06-17T17:10 | 21.06095 | -21.61929 | 9.917 | 36.3 |
| 2026-06-17T17:20 | 21.08358 | -21.60159 | 10.065 | 36.3 |
| 2026-06-17T17:30 | 21.10592 | -21.58410 | 9.938 | 36.3 |
| 2026-06-17T17:40 | 21.12843 | -21.56647 | 10.013 | 36.3 |
| 2026-06-17T17:50 | 21.15086 | -21.54885 | 9.992 | 36.4 |
| 2026-06-17T18:00 | 21.17328 | -21.53127 | 9.977 | 36.4 |
| 2026-06-17T18:10 | 21.19630 | -21.51321 | 10.249 | 36.3 |
| 2026-06-17T18:20 | 21.21946 | -21.49506 | 10.303 | 36.3 |
| 2026-06-17T18:30 | 21.24273 | -21.47677 | 10.362 | 36.4 |
| 2026-06-17T18:40 | 21.26609 | -21.45844 | 10.395 | 36.4 |
| 2026-06-17T18:50 | 21.28961 | -21.43993 | 10.479 | 36.4 |
| 2026-06-17T19:00 | 21.31349 | -21.42118 | 10.627 | 36.4 |
| 2026-06-17T19:10 | 21.33670 | -21.40292 | 10.339 | 36.4 |
| 2026-06-17T19:20 | 21.36003 | -21.38457 | 10.390 | 36.4 |
| 2026-06-17T19:30 | 21.38379 | -21.36586 | 10.584 | 36.4 |
| 2026-06-17T19:40 | 21.40740 | -21.34727 | 10.519 | 36.4 |
| 2026-06-17T19:50 | 21.43110 | -21.32861 | 10.556 | 36.4 |
| 2026-06-17T20:00 | 21.45481 | -21.30991 | 10.566 | 36.4 |
| 2026-06-17T20:10 | 21.47902 | -21.29084 | 10.784 | 36.4 |
| 2026-06-17T20:20 | 21.50318 | -21.27178 | 10.768 | 36.4 |
| 2026-06-17T20:30 | 21.52726 | -21.25278 | 10.729 | 36.4 |
| 2026-06-17T20:40 | 21.55150 | -21.23366 | 10.801 | 36.4 |
| 2026-06-17T20:50 | 21.57532 | -21.21485 | 10.619 | 36.5 |
| 2026-06-17T21:00 | 21.59954 | -21.19572 | 10.796 | 36.5 |
| 2026-06-17T21:10 | 21.62359 | -21.17668 | 10.729 | 36.5 |
| 2026-06-17T21:20 | 21.64742 | -21.15788 | 10.616 | 36.4 |
| 2026-06-17T21:30 | 21.67191 | -21.13847 | 10.927 | 36.5 |
| 2026-06-17T21:40 | 21.69617 | -21.11931 | 10.813 | 36.4 |
| 2026-06-17T21:50 | 21.72010 | -21.10032 | 10.680 | 36.6 |
| 2026-06-17T22:00 | 21.74433 | -21.08116 | 10.799 | 36.5 |
| 2026-06-17T22:10 | 21.76804 | -21.06237 | 10.576 | 36.5 |
| 2026-06-17T22:20 | 21.79206 | -21.04332 | 10.717 | 36.5 |
| 2026-06-17T22:30 | 21.81658 | -21.02385 | 10.947 | 36.5 |
| 2026-06-17T22:40 | 21.84072 | -21.00474 | 10.763 | 36.5 |
| 2026-06-17T22:50 | 21.86525 | -20.98524 | 10.950 | 36.6 |
| 2026-06-17T23:00 | 21.88972 | -20.96585 | 10.914 | 36.5 |
| 2026-06-17T23:10 | 21.91321 | -20.94713 | 10.495 | 36.6 |
| 2026-06-17T23:20 | 21.93734 | -20.92798 | 10.765 | 36.5 |
| 2026-06-17T23:30 | 21.96120 | -20.90901 | 10.650 | 36.6 |
| 2026-06-17T23:40 | 21.98489 | -20.89016 | 10.579 | 36.6 |
| 2026-06-17T23:50 | 22.00853 | -20.87133 | 10.558 | 36.6 |
| 2026-06-18T00:00 | 22.03182 | -20.85283 | 10.392 | 36.5 |
| 2026-06-18T00:10 | 22.05512 | -20.83425 | 10.409 | 36.6 |
| 2026-06-18T00:20 | 22.07820 | -20.81588 | 10.305 | 36.5 |
| 2026-06-18T00:30 | 22.10170 | -20.79712 | 10.500 | 36.6 |
| 2026-06-18T00:40 | 22.12556 | -20.77811 | 10.656 | 36.6 |
| 2026-06-18T00:50 | 22.14924 | -20.75921 | 10.579 | 36.6 |
| 2026-06-18T01:00 | 22.17305 | -20.74024 | 10.633 | 36.6 |
| 2026-06-18T01:10 | 22.19713 | -20.72094 | 10.774 | 36.7 |
| 2026-06-18T01:20 | 22.22198 | -20.70112 | 11.098 | 36.6 |
| 2026-06-18T01:30 | 22.24693 | -20.68118 | 11.151 | 36.6 |
| 2026-06-18T01:40 | 22.27144 | -20.66161 | 10.948 | 36.6 |
| 2026-06-18T01:50 | 22.29562 | -20.64225 | 10.814 | 36.7 |
| 2026-06-18T02:00 | 22.32034 | -20.62250 | 11.043 | 36.6 |
| 2026-06-18T02:10 | 22.34470 | -20.60297 | 10.896 | 36.7 |
| 2026-06-18T02:20 | 22.37008 | -20.58535 | 10.835 | 32.8 |
| 2026-06-18T02:30 | 22.39754 | -20.57227 | 10.769 | 23.9 |
| 2026-06-18T02:40 | 22.42288 | -20.55255 | 11.215 | 35.9 |
| 2026-06-18T02:50 | 22.44760 | -20.53322 | 10.957 | 36.0 |
| 2026-06-18T03:00 | 22.47213 | -20.51409 | 10.863 | 36.0 |
| 2026-06-18T03:10 | 22.49680 | -20.49481 | 10.931 | 36.0 |
| 2026-06-18T03:20 | 22.52117 | -20.47587 | 10.780 | 35.8 |
| 2026-06-18T03:30 | 22.54585 | -20.45661 | 10.931 | 35.9 |
| 2026-06-18T03:40 | 22.57019 | -20.43754 | 10.794 | 36.0 |
| 2026-06-18T03:50 | 22.59481 | -20.41829 | 10.909 | 36.0 |
| 2026-06-18T04:00 | 22.61959 | -20.39890 | 10.981 | 36.0 |
| 2026-06-18T04:10 | 22.64310 | -20.37861 | 10.804 | 38.7 |
| 2026-06-18T04:20 | 22.66749 | -20.35952 | 10.808 | 36.0 |
| 2026-06-18T04:30 | 22.69283 | -20.34144 | 10.899 | 33.5 |
| 2026-06-18T04:40 | 22.71816 | -20.32336 | 10.894 | 33.5 |
| 2026-06-18T04:50 | 22.74360 | -20.30523 | 10.935 | 33.5 |
| 2026-06-18T05:00 | 22.76903 | -20.28705 | 10.941 | 33.5 |
| 2026-06-18T05:10 | 22.79451 | -20.26890 | 10.948 | 33.5 |
| 2026-06-18T05:20 | 22.81998 | -20.25068 | 10.958 | 33.5 |
| 2026-06-18T05:30 | 22.84567 | -20.23231 | 11.053 | 33.5 |
| 2026-06-18T05:40 | 22.87109 | -20.21414 | 10.933 | 33.5 |
| 2026-06-18T05:50 | 22.89660 | -20.19588 | 10.978 | 33.5 |
| 2026-06-18T06:00 | 22.92224 | -20.17753 | 11.032 | 33.5 |
| 2026-06-18T06:10 | 22.94775 | -20.15925 | 10.977 | 33.6 |
| 2026-06-18T06:20 | 22.97372 | -20.14066 | 11.173 | 33.5 |
| 2026-06-18T06:30 | 22.99990 | -20.12190 | 11.265 | 33.5 |
| 2026-06-18T06:40 | 23.02616 | -20.10305 | 11.308 | 33.6 |
| 2026-06-18T06:50 | 23.05219 | -20.08437 | 11.205 | 33.6 |
| 2026-06-18T07:00 | 23.07797 | -20.06586 | 11.099 | 33.6 |
| 2026-06-18T07:10 | 23.10373 | -20.04735 | 11.092 | 33.6 |
| 2026-06-18T07:20 | 23.12927 | -20.02902 | 10.992 | 33.6 |
| 2026-06-18T07:30 | 23.15437 | -20.01093 | 10.817 | 33.7 |
| 2026-06-18T07:40 | 23.17956 | -19.99286 | 10.841 | 33.6 |
| 2026-06-18T07:50 | 23.20455 | -19.97486 | 10.763 | 33.6 |
| 2026-06-18T08:00 | 23.22998 | -19.95657 | 10.952 | 33.6 |
| 2026-06-18T08:10 | 23.25565 | -19.93807 | 11.059 | 33.7 |
| 2026-06-18T08:20 | 23.28031 | -19.92031 | 10.623 | 33.6 |
| 2026-06-18T08:30 | 23.30518 | -19.90239 | 10.710 | 33.6 |
| 2026-06-18T08:40 | 23.32973 | -19.88468 | 10.581 | 33.7 |
| 2026-06-18T08:50 | 23.35455 | -19.86676 | 10.697 | 33.7 |
| 2026-06-18T09:00 | 23.37933 | -19.84892 | 10.670 | 33.6 |
| 2026-06-18T09:10 | 23.40413 | -19.83100 | 10.689 | 33.7 |
| 2026-06-18T09:20 | 23.42893 | -19.81307 | 10.693 | 33.7 |
| 2026-06-18T09:30 | 23.45389 | -19.79499 | 10.766 | 33.8 |
| 2026-06-18T09:40 | 23.47895 | -19.77688 | 10.799 | 33.7 |
| 2026-06-18T09:50 | 23.50421 | -19.76035 | 10.580 | 31.1 |
| 2026-06-18T10:00 | 23.53128 | -19.74658 | 10.722 | 25.1 |
| 2026-06-18T10:10 | 23.55841 | -19.73276 | 10.749 | 25.1 |
| 2026-06-18T10:20 | 23.58522 | -19.71853 | 10.704 | 26.1 |
| 2026-06-18T10:30 | 23.61075 | -19.70051 | 10.922 | 33.0 |
| 2026-06-18T10:40 | 23.63652 | -19.68493 | 10.577 | 29.1 |
| 2026-06-18T10:50 | 23.66113 | -19.66484 | 11.044 | 36.9 |
| 2026-06-18T11:00 | 23.68665 | -19.64676 | 10.927 | 33.1 |
| 2026-06-18T11:10 | 23.71221 | -19.62864 | 10.947 | 33.1 |
| 2026-06-18T11:20 | 23.73769 | -19.61057 | 10.914 | 33.1 |
| 2026-06-18T11:30 | 23.76317 | -19.59251 | 10.909 | 33.1 |
| 2026-06-18T11:40 | 23.78858 | -19.57444 | 10.891 | 33.2 |
| 2026-06-18T11:50 | 23.81428 | -19.55619 | 11.008 | 33.2 |
| 2026-06-18T12:00 | 23.84004 | -19.53786 | 11.044 | 33.2 |
| 2026-06-18T12:10 | 23.86593 | -19.51945 | 11.091 | 33.2 |
| 2026-06-18T12:20 | 23.89184 | -19.50102 | 11.104 | 33.2 |
| 2026-06-18T12:30 | 23.91768 | -19.48263 | 11.074 | 33.2 |
| 2026-06-18T12:40 | 23.94370 | -19.46411 | 11.153 | 33.2 |
| 2026-06-18T12:50 | 23.96993 | -19.44550 | 11.230 | 33.1 |
| 2026-06-18T13:00 | 23.99590 | -19.42685 | 11.158 | 33.4 |
| 2026-06-18T13:10 | 24.02173 | -19.40822 | 11.114 | 33.5 |
| 2026-06-18T13:20 | 24.04739 | -19.38975 | 11.032 | 33.5 |
| 2026-06-18T13:30 | 24.07319 | -19.37116 | 11.094 | 33.5 |
| 2026-06-18T13:40 | 24.09890 | -19.35262 | 11.059 | 33.5 |
| 2026-06-18T13:50 | 24.12465 | -19.33438 | 11.014 | 33.0 |
| 2026-06-18T14:00 | 24.15029 | -19.31618 | 10.976 | 33.1 |
| 2026-06-18T14:10 | 24.17620 | -19.29786 | 11.074 | 33.0 |
| 2026-06-18T14:20 | 24.20222 | -19.27941 | 11.134 | 33.0 |
| 2026-06-18T14:30 | 24.22820 | -19.26098 | 11.117 | 33.0 |
| 2026-06-18T14:40 | 24.25430 | -19.24248 | 11.163 | 33.0 |
| 2026-06-18T14:50 | 24.28082 | -19.22371 | 11.338 | 33.0 |
| 2026-06-18T15:00 | 24.30749 | -19.20480 | 11.408 | 33.0 |
| 2026-06-18T15:10 | 24.33419 | -19.18589 | 11.413 | 33.0 |
| 2026-06-18T15:20 | 24.36037 | -19.16736 | 11.192 | 33.0 |
| 2026-06-18T15:30 | 24.38554 | -19.14815 | 11.014 | 35.0 |
| 2026-06-18T15:40 | 24.41148 | -19.12951 | 11.141 | 33.3 |
| 2026-06-18T15:50 | 24.43765 | -19.11069 | 11.236 | 33.4 |
| 2026-06-18T16:00 | 24.46362 | -19.09201 | 11.153 | 33.4 |
| 2026-06-18T16:10 | 24.48942 | -19.07346 | 11.076 | 33.4 |
| 2026-06-18T16:20 | 24.51533 | -19.05482 | 11.123 | 33.4 |
| 2026-06-18T16:30 | 24.54094 | -19.03636 | 11.003 | 33.4 |
| 2026-06-18T16:40 | 24.56700 | -19.01756 | 11.197 | 33.4 |
| 2026-06-18T16:50 | 24.59302 | -18.99881 | 11.177 | 33.4 |
| 2026-06-18T17:00 | 24.61890 | -18.98016 | 11.117 | 33.4 |
| 2026-06-18T17:10 | 24.64485 | -18.96141 | 11.154 | 33.4 |
| 2026-06-18T17:20 | 24.67073 | -18.94274 | 11.115 | 33.4 |
| 2026-06-18T17:30 | 24.69623 | -18.92434 | 10.957 | 33.4 |
| 2026-06-18T17:40 | 24.72180 | -18.90584 | 10.994 | 33.5 |
| 2026-06-18T17:50 | 24.74744 | -18.88731 | 11.018 | 33.4 |
| 2026-06-18T18:00 | 24.77328 | -18.86864 | 11.102 | 33.4 |
| 2026-06-18T18:10 | 24.79901 | -18.85001 | 11.063 | 33.5 |
| 2026-06-18T18:20 | 24.82483 | -18.83133 | 11.099 | 33.4 |
| 2026-06-18T18:30 | 24.85082 | -18.81246 | 11.181 | 33.5 |
| 2026-06-18T18:40 | 24.87695 | -18.79349 | 11.242 | 33.5 |
| 2026-06-18T18:50 | 24.90312 | -18.77454 | 11.248 | 33.5 |
| 2026-06-18T19:00 | 24.92969 | -18.75527 | 11.428 | 33.5 |
| 2026-06-18T19:10 | 24.95619 | -18.73608 | 11.389 | 33.4 |
| 2026-06-18T19:20 | 24.98253 | -18.71693 | 11.334 | 33.5 |
| 2026-06-18T19:30 | 25.00895 | -18.69776 | 11.361 | 33.5 |
| 2026-06-18T19:40 | 25.03542 | -18.67852 | 11.388 | 33.5 |
| 2026-06-18T19:50 | 25.06199 | -18.65919 | 11.434 | 33.5 |
| 2026-06-18T20:00 | 25.08978 | -18.64233 | 11.388 | 28.9 |
| 2026-06-18T20:10 | 25.11666 | -18.62346 | 11.441 | 32.6 |
| 2026-06-18T20:20 | 25.13751 | -18.60857 | 8.921 | 33.0 |
| 2026-06-18T20:30 | 25.13574 | -18.60785 | 0.677 | 159.6 |
| 2026-06-18T20:40 | 25.13551 | -18.60756 | 0.126 | 130.8 |
| 2026-06-18T20:50 | 25.14359 | -18.59984 | 3.839 | 41.0 |
| 2026-06-18T21:00 | 25.16947 | -18.58098 | 11.139 | 33.5 |
| 2026-06-18T21:10 | 25.19662 | -18.56434 | 11.150 | 29.2 |
| 2026-06-18T21:20 | 25.22609 | -18.55297 | 11.205 | 19.3 |
| 2026-06-18T21:30 | 25.25544 | -18.54165 | 11.156 | 19.3 |
| 2026-06-18T21:40 | 25.28489 | -18.53029 | 11.195 | 19.3 |
| 2026-06-18T21:50 | 25.31448 | -18.51885 | 11.250 | 19.4 |
| 2026-06-18T22:00 | 25.34440 | -18.50728 | 11.374 | 19.4 |
| 2026-06-18T22:10 | 25.37427 | -18.49574 | 11.356 | 19.3 |
| 2026-06-18T22:20 | 25.40441 | -18.48410 | 11.457 | 19.3 |
| 2026-06-18T22:30 | 25.43454 | -18.47242 | 11.458 | 19.4 |
| 2026-06-18T22:40 | 25.46393 | -18.46592 | 10.752 | 11.3 |
| 2026-06-18T22:50 | 25.49284 | -18.45308 | 11.184 | 21.9 |
| 2026-06-18T23:00 | 25.52184 | -18.43933 | 11.326 | 23.3 |
| 2026-06-18T23:10 | 25.55122 | -18.42722 | 11.250 | 20.5 |
| 2026-06-18T23:20 | 25.58065 | -18.41579 | 11.192 | 19.4 |
| 2026-06-18T23:30 | 25.61008 | -18.40439 | 11.190 | 19.4 |
| 2026-06-18T23:40 | 25.63952 | -18.39293 | 11.197 | 19.4 |
| 2026-06-18T23:50 | 25.66915 | -18.38142 | 11.271 | 19.4 |
| 2026-06-19T00:00 | 25.69867 | -18.36994 | 11.228 | 19.4 |
| 2026-06-19T00:10 | 25.72814 | -18.35848 | 11.206 | 19.4 |
| 2026-06-19T00:20 | 25.75760 | -18.34701 | 11.207 | 19.4 |
| 2026-06-19T00:30 | 25.78689 | -18.33561 | 11.138 | 19.4 |
| 2026-06-19T00:40 | 25.81583 | -18.32433 | 11.011 | 19.4 |
| 2026-06-19T00:50 | 25.84471 | -18.31306 | 10.986 | 19.4 |
| 2026-06-19T01:00 | 25.87394 | -18.30166 | 11.117 | 19.4 |
| 2026-06-19T01:10 | 25.90327 | -18.29022 | 11.158 | 19.4 |
| 2026-06-19T01:20 | 25.93304 | -18.27860 | 11.327 | 19.4 |
| 2026-06-19T01:30 | 25.96292 | -18.26694 | 11.366 | 19.4 |
| 2026-06-19T01:40 | 25.99317 | -18.25512 | 11.507 | 19.4 |
| 2026-06-19T01:50 | 26.02345 | -18.24326 | 11.525 | 19.5 |
| 2026-06-19T02:00 | 26.05365 | -18.23145 | 11.489 | 19.5 |
| 2026-06-19T02:10 | 26.08385 | -18.21963 | 11.489 | 19.5 |
| 2026-06-19T02:20 | 26.11381 | -18.20790 | 11.400 | 19.5 |
| 2026-06-19T02:30 | 26.14398 | -18.19609 | 11.479 | 19.5 |
| 2026-06-19T02:40 | 26.17388 | -18.19236 | 10.796 | 6.4 |
| 2026-06-19T02:50 | 26.20384 | -18.17886 | 11.603 | 22.1 |
| 2026-06-19T03:00 | 26.23423 | -18.16573 | 11.700 | 21.3 |
| 2026-06-19T03:10 | 26.26445 | -18.15295 | 11.602 | 20.9 |
| 2026-06-19T03:20 | 26.29454 | -18.14038 | 11.537 | 20.6 |
| 2026-06-19T03:30 | 26.32451 | -18.12829 | 11.440 | 20.0 |
| 2026-06-19T03:40 | 26.35345 | -18.11380 | 11.389 | 24.3 |
| 2026-06-19T03:50 | 26.38365 | -18.10188 | 11.496 | 19.6 |
| 2026-06-19T04:00 | 26.41370 | -18.09005 | 11.439 | 19.5 |
| 2026-06-19T04:10 | 26.44381 | -18.07819 | 11.461 | 19.5 |
| 2026-06-19T04:20 | 26.47410 | -18.06625 | 11.531 | 19.5 |
| 2026-06-19T04:30 | 26.50421 | -18.05437 | 11.463 | 19.6 |
| 2026-06-19T04:40 | 26.53464 | -18.04236 | 11.583 | 19.5 |
| 2026-06-19T04:50 | 26.56505 | -18.03035 | 11.578 | 19.6 |
| 2026-06-19T05:00 | 26.59534 | -18.01836 | 11.536 | 19.6 |
| 2026-06-19T05:10 | 26.62599 | -18.00624 | 11.670 | 19.6 |
| 2026-06-19T05:20 | 26.65684 | -17.99405 | 11.743 | 19.6 |
| 2026-06-19T05:30 | 26.68765 | -17.98184 | 11.734 | 19.6 |
| 2026-06-19T05:40 | 26.71858 | -17.96961 | 11.775 | 19.6 |
| 2026-06-19T05:50 | 26.74941 | -17.95737 | 11.745 | 19.6 |
| 2026-06-19T06:00 | 26.78045 | -17.94504 | 11.824 | 19.6 |
| 2026-06-19T06:10 | 26.81154 | -17.93272 | 11.838 | 19.6 |
| 2026-06-19T06:20 | 26.84256 | -17.92039 | 11.813 | 19.6 |
| 2026-06-19T06:30 | 26.87342 | -17.90815 | 11.751 | 19.6 |
| 2026-06-19T06:40 | 26.90434 | -17.89585 | 11.780 | 19.6 |
| 2026-06-19T06:50 | 26.93538 | -17.88350 | 11.822 | 19.6 |
| 2026-06-19T07:00 | 26.96638 | -17.87117 | 11.809 | 19.6 |
| 2026-06-19T07:10 | 26.99744 | -17.85880 | 11.831 | 19.6 |
| 2026-06-19T07:20 | 27.02844 | -17.84644 | 11.811 | 19.6 |
| 2026-06-19T07:30 | 27.05966 | -17.83400 | 11.891 | 19.6 |
| 2026-06-19T07:40 | 27.09100 | -17.82151 | 11.941 | 19.6 |
| 2026-06-19T07:50 | 27.12223 | -17.80903 | 11.899 | 19.7 |
| 2026-06-19T08:00 | 27.15315 | -17.79668 | 11.781 | 19.7 |
| 2026-06-19T08:10 | 27.18386 | -17.78440 | 11.701 | 19.7 |
| 2026-06-19T08:20 | 27.21465 | -17.77209 | 11.731 | 19.7 |
| 2026-06-19T08:30 | 27.24534 | -17.75982 | 11.694 | 19.7 |
| 2026-06-19T08:40 | 27.27603 | -17.74753 | 11.697 | 19.7 |
| 2026-06-19T08:50 | 27.30704 | -17.73512 | 11.816 | 19.7 |
| 2026-06-19T09:00 | 27.33756 | -17.72287 | 11.633 | 19.7 |
| 2026-06-19T09:10 | 27.36815 | -17.71060 | 11.658 | 19.7 |
| 2026-06-19T09:20 | 27.39925 | -17.69814 | 11.849 | 19.7 |
| 2026-06-19T09:30 | 27.43034 | -17.68565 | 11.850 | 19.7 |
| 2026-06-19T09:40 | 27.46178 | -17.67303 | 11.983 | 19.7 |
| 2026-06-19T09:50 | 27.49346 | -17.66026 | 12.079 | 19.8 |
| 2026-06-19T10:00 | 27.52564 | -17.64732 | 12.266 | 19.7 |
| 2026-06-19T10:10 | 27.55811 | -17.63426 | 12.377 | 19.7 |
| 2026-06-19T10:20 | 27.59051 | -17.62121 | 12.350 | 19.7 |
| 2026-06-19T10:30 | 27.62242 | -17.60835 | 12.166 | 19.7 |
| 2026-06-19T10:40 | 27.65426 | -17.59552 | 12.139 | 19.8 |
| 2026-06-19T10:50 | 27.68607 | -17.58266 | 12.129 | 19.8 |
| 2026-06-19T11:00 | 27.71751 | -17.57001 | 11.985 | 19.7 |
| 2026-06-19T11:10 | 27.74955 | -17.56073 | 11.871 | 14.4 |
| 2026-06-19T11:20 | 27.78146 | -17.55348 | 11.681 | 11.4 |
| 2026-06-19T11:30 | 27.81198 | -17.54386 | 11.374 | 15.7 |
| 2026-06-19T11:40 | 27.84229 | -17.53171 | 11.544 | 19.6 |
| 2026-06-19T11:50 | 27.87292 | -17.51945 | 11.666 | 19.6 |
| 2026-06-19T12:00 | 27.90432 | -17.50687 | 11.962 | 19.6 |
| 2026-06-19T12:10 | 27.93565 | -17.49458 | 11.902 | 19.2 |
| 2026-06-19T12:20 | 27.96725 | -17.48427 | 11.807 | 16.1 |
| 2026-06-19T12:30 | 27.99889 | -17.47393 | 11.822 | 16.2 |
| 2026-06-19T12:40 | 28.03040 | -17.46366 | 11.770 | 16.1 |
| 2026-06-19T12:50 | 28.06242 | -17.45321 | 11.959 | 16.1 |
| 2026-06-19T13:00 | 28.09420 | -17.44281 | 11.878 | 16.2 |
| 2026-06-19T13:10 | 28.12594 | -17.43239 | 11.862 | 16.2 |
| 2026-06-19T13:20 | 28.15751 | -17.42210 | 11.790 | 16.1 |
| 2026-06-19T13:30 | 28.18925 | -17.41176 | 11.854 | 16.1 |
| 2026-06-19T13:40 | 28.21977 | -17.40165 | 11.415 | 16.4 |
| 2026-06-19T13:50 | 28.25106 | -17.39143 | 11.687 | 16.1 |
| 2026-06-19T14:00 | 28.28196 | -17.38010 | 11.661 | 18.0 |
| 2026-06-19T14:10 | 28.31186 | -17.36744 | 11.456 | 20.6 |
| 2026-06-19T14:20 | 28.34203 | -17.35462 | 11.569 | 20.6 |
| 2026-06-19T14:30 | 28.37237 | -17.34171 | 11.633 | 20.6 |
| 2026-06-19T14:40 | 28.40161 | -17.32939 | 11.197 | 20.4 |
| 2026-06-19T14:50 | 28.43018 | -17.31634 | 11.056 | 22.0 |
| 2026-06-19T15:00 | 28.45869 | -17.30299 | 11.073 | 22.5 |
| 2026-06-19T15:10 | 28.48653 | -17.28987 | 10.821 | 22.6 |
| 2026-06-19T15:20 | 28.51462 | -17.27667 | 10.915 | 22.5 |
| 2026-06-19T15:30 | 28.54328 | -17.26314 | 11.142 | 22.6 |
| 2026-06-19T15:40 | 28.57241 | -17.24942 | 11.322 | 22.6 |
| 2026-06-19T15:50 | 28.60174 | -17.23561 | 11.398 | 22.6 |
| 2026-06-19T16:00 | 28.63141 | -17.22161 | 11.533 | 22.6 |
| 2026-06-19T16:10 | 28.66096 | -17.20771 | 11.483 | 22.5 |
| 2026-06-19T16:20 | 28.69100 | -17.19354 | 11.674 | 22.6 |
| 2026-06-19T16:30 | 28.72072 | -17.17952 | 11.552 | 22.6 |
| 2026-06-19T16:40 | 28.75033 | -17.16553 | 11.512 | 22.6 |
| 2026-06-19T16:50 | 28.77988 | -17.15155 | 11.488 | 22.6 |
| 2026-06-19T17:00 | 28.80927 | -17.13765 | 11.427 | 22.6 |
| 2026-06-19T17:10 | 28.83853 | -17.12381 | 11.376 | 22.6 |
| 2026-06-19T17:20 | 28.86804 | -17.10984 | 11.473 | 22.6 |
| 2026-06-19T17:30 | 28.89752 | -17.09584 | 11.466 | 22.7 |
| 2026-06-19T17:40 | 28.92722 | -17.08177 | 11.548 | 22.6 |
| 2026-06-19T17:50 | 28.95652 | -17.06789 | 11.390 | 22.6 |
| 2026-06-19T18:00 | 28.98597 | -17.05387 | 11.458 | 22.7 |
| 2026-06-19T18:10 | 29.01522 | -17.03997 | 11.377 | 22.7 |
| 2026-06-19T18:20 | 29.04441 | -17.02609 | 11.354 | 22.7 |
| 2026-06-19T18:30 | 29.07403 | -17.01200 | 11.520 | 22.7 |
| 2026-06-19T18:40 | 29.10382 | -16.99780 | 11.592 | 22.7 |
| 2026-06-19T18:50 | 29.13360 | -16.98364 | 11.581 | 22.7 |
| 2026-06-19T19:00 | 29.16332 | -16.96947 | 11.564 | 22.7 |
| 2026-06-19T19:10 | 29.19314 | -16.95523 | 11.605 | 22.7 |
| 2026-06-19T19:20 | 29.22303 | -16.94098 | 11.628 | 22.7 |
| 2026-06-19T19:30 | 29.25278 | -16.92681 | 11.571 | 22.7 |
| 2026-06-19T19:40 | 29.28260 | -16.91255 | 11.605 | 22.7 |
| 2026-06-19T19:50 | 29.31208 | -16.89846 | 11.473 | 22.7 |
| 2026-06-19T20:00 | 29.34145 | -16.88437 | 11.432 | 22.8 |
| 2026-06-19T20:10 | 29.37051 | -16.87047 | 11.311 | 22.7 |
| 2026-06-19T20:20 | 29.39961 | -16.85655 | 11.321 | 22.7 |
| 2026-06-19T20:30 | 29.42870 | -16.84360 | 11.207 | 21.3 |
| 2026-06-19T20:40 | 29.45770 | -16.83090 | 11.148 | 21.0 |
| 2026-06-19T20:50 | 29.48640 | -16.81828 | 11.037 | 21.0 |
| 2026-06-19T21:00 | 29.51490 | -16.80574 | 10.959 | 21.1 |
| 2026-06-19T21:10 | 29.54323 | -16.79331 | 10.891 | 21.0 |
| 2026-06-19T21:20 | 29.57157 | -16.78081 | 10.904 | 21.1 |
| 2026-06-19T21:30 | 29.59978 | -16.76840 | 10.847 | 21.0 |
| 2026-06-19T21:40 | 29.62826 | -16.75584 | 10.953 | 21.1 |
| 2026-06-19T21:50 | 29.65693 | -16.74320 | 11.027 | 21.1 |
| 2026-06-19T22:00 | 29.68519 | -16.73072 | 10.870 | 21.1 |
| 2026-06-19T22:10 | 29.71371 | -16.71815 | 10.968 | 21.1 |
| 2026-06-19T22:20 | 29.74238 | -16.70549 | 11.030 | 21.1 |
| 2026-06-19T22:30 | 29.77089 | -16.69290 | 10.966 | 21.1 |
| 2026-06-19T22:40 | 29.79815 | -16.68085 | 10.485 | 21.1 |
| 2026-06-19T22:50 | 29.82629 | -16.66836 | 10.833 | 21.2 |
| 2026-06-19T23:00 | 29.85447 | -16.65589 | 10.839 | 21.1 |
| 2026-06-19T23:10 | 29.88238 | -16.64353 | 10.740 | 21.1 |
| 2026-06-19T23:20 | 29.91053 | -16.63106 | 10.830 | 21.1 |
| 2026-06-19T23:30 | 29.93902 | -16.61843 | 10.963 | 21.1 |
| 2026-06-19T23:40 | 29.96758 | -16.60578 | 10.986 | 21.1 |
| 2026-06-19T23:50 | 29.99643 | -16.59296 | 11.104 | 21.1 |
| 2026-06-20T00:00 | 30.02509 | -16.58021 | 11.030 | 21.2 |
| 2026-06-20T00:10 | 30.05356 | -16.56752 | 10.963 | 21.2 |
| 2026-06-20T00:20 | 30.08223 | -16.55479 | 11.030 | 21.1 |
| 2026-06-20T00:30 | 30.11061 | -16.54215 | 10.925 | 21.2 |
| 2026-06-20T00:40 | 30.13899 | -16.52951 | 10.923 | 21.2 |
| 2026-06-20T00:50 | 30.16742 | -16.51681 | 10.949 | 21.2 |
| 2026-06-20T01:00 | 30.19631 | -16.50395 | 11.118 | 21.1 |
| 2026-06-20T01:10 | 30.22539 | -16.49093 | 11.200 | 21.2 |
| 2026-06-20T01:20 | 30.25480 | -16.47783 | 11.320 | 21.1 |
| 2026-06-20T01:30 | 30.28445 | -16.46459 | 11.412 | 21.2 |
| 2026-06-20T01:40 | 30.31460 | -16.46132 | 10.870 | 5.4 |
| 2026-06-20T01:50 | 30.34218 | -16.46370 | 9.929 | 355.7 |
| 2026-06-20T02:00 | 30.37183 | -16.44803 | 11.709 | 24.6 |
| 2026-06-20T02:10 | 30.40125 | -16.43078 | 11.844 | 26.9 |
| 2026-06-20T02:20 | 30.43021 | -16.41373 | 11.670 | 27.0 |
| 2026-06-20T02:30 | 30.45886 | -16.39688 | 11.543 | 27.0 |
| 2026-06-20T02:40 | 30.48779 | -16.37981 | 11.664 | 27.1 |
| 2026-06-20T02:50 | 30.51676 | -16.36276 | 11.669 | 27.0 |
| 2026-06-20T03:00 | 30.54608 | -16.34727 | 11.574 | 24.6 |
| 2026-06-20T03:10 | 30.57618 | -16.33373 | 11.596 | 21.3 |
| 2026-06-20T03:20 | 30.60626 | -16.32018 | 11.589 | 21.3 |
| 2026-06-20T03:30 | 30.63651 | -16.30659 | 11.650 | 21.2 |
| 2026-06-20T03:40 | 30.66685 | -16.29289 | 11.692 | 21.3 |
| 2026-06-20T03:50 | 30.69707 | -16.27925 | 11.644 | 21.3 |
| 2026-06-20T04:00 | 30.72737 | -16.26558 | 11.674 | 21.3 |
| 2026-06-20T04:10 | 30.75751 | -16.25198 | 11.611 | 21.3 |
| 2026-06-20T04:20 | 30.78748 | -16.23843 | 11.551 | 21.3 |
| 2026-06-20T04:30 | 30.81742 | -16.22489 | 11.537 | 21.3 |
| 2026-06-20T04:40 | 30.84758 | -16.21123 | 11.626 | 21.4 |
| 2026-06-20T04:50 | 30.87796 | -16.19748 | 11.706 | 21.3 |
| 2026-06-20T05:00 | 30.90844 | -16.18368 | 11.747 | 21.3 |
| 2026-06-20T05:10 | 30.93914 | -16.16974 | 11.834 | 21.4 |
| 2026-06-20T05:20 | 30.96984 | -16.15583 | 11.832 | 21.3 |
| 2026-06-20T05:30 | 31.00059 | -16.14188 | 11.853 | 21.4 |
| 2026-06-20T05:40 | 31.03118 | -16.12797 | 11.792 | 21.4 |
| 2026-06-20T05:50 | 31.06164 | -16.11411 | 11.744 | 21.4 |
| 2026-06-20T06:00 | 31.09209 | -16.10024 | 11.743 | 21.4 |
| 2026-06-20T06:10 | 31.12262 | -16.08633 | 11.774 | 21.4 |
| 2026-06-20T06:20 | 31.15336 | -16.07233 | 11.850 | 21.4 |
| 2026-06-20T06:30 | 31.18436 | -16.05818 | 11.957 | 21.4 |
| 2026-06-20T06:40 | 31.21514 | -16.04415 | 11.870 | 21.4 |
| 2026-06-20T06:50 | 31.24602 | -16.03004 | 11.908 | 21.4 |
| 2026-06-20T07:00 | 31.27710 | -16.01582 | 11.988 | 21.4 |
| 2026-06-20T07:10 | 31.30768 | -16.00183 | 11.796 | 21.4 |
| 2026-06-20T07:20 | 31.33811 | -15.98791 | 11.737 | 21.4 |
| 2026-06-20T07:30 | 31.36845 | -15.97402 | 11.702 | 21.4 |
| 2026-06-20T07:40 | 31.39894 | -15.96006 | 11.761 | 21.4 |
| 2026-06-20T07:50 | 31.42934 | -15.94613 | 11.727 | 21.4 |
| 2026-06-20T08:00 | 31.45988 | -15.93210 | 11.783 | 21.5 |
| 2026-06-20T08:10 | 31.49051 | -15.91803 | 11.823 | 21.5 |
| 2026-06-20T08:20 | 31.52126 | -15.90393 | 11.859 | 21.4 |
| 2026-06-20T08:30 | 31.55157 | -15.88997 | 11.698 | 21.5 |
| 2026-06-20T08:40 | 31.58183 | -15.87606 | 11.676 | 21.5 |
| 2026-06-20T08:50 | 31.61195 | -15.86215 | 11.628 | 21.6 |
| 2026-06-20T09:00 | 31.64200 | -15.84832 | 11.595 | 21.5 |
| 2026-06-20T09:10 | 31.67221 | -15.83440 | 11.658 | 21.5 |
| 2026-06-20T09:20 | 31.70252 | -15.82040 | 11.701 | 21.6 |
| 2026-06-20T09:30 | 31.73296 | -15.80635 | 11.749 | 21.5 |
| 2026-06-20T09:40 | 31.76344 | -15.79227 | 11.764 | 21.5 |
| 2026-06-20T09:50 | 31.79397 | -15.77814 | 11.789 | 21.6 |
| 2026-06-20T10:00 | 31.82428 | -15.76411 | 11.700 | 21.6 |
| 2026-06-20T10:10 | 31.85462 | -15.75005 | 11.713 | 21.6 |
| 2026-06-20T10:20 | 31.88500 | -15.73598 | 11.729 | 21.6 |
| 2026-06-20T10:30 | 31.91510 | -15.72201 | 11.624 | 21.6 |
| 2026-06-20T10:40 | 31.94486 | -15.70821 | 11.490 | 21.6 |
| 2026-06-20T10:50 | 31.97446 | -15.69446 | 11.432 | 21.6 |
| 2026-06-20T11:00 | 32.00414 | -15.68068 | 11.462 | 21.6 |
| 2026-06-20T11:10 | 32.03376 | -15.66690 | 11.438 | 21.6 |
| 2026-06-20T11:20 | 32.06312 | -15.65324 | 11.340 | 21.6 |
| 2026-06-20T11:30 | 32.09248 | -15.63954 | 11.345 | 21.7 |
| 2026-06-20T11:40 | 32.12207 | -15.62576 | 11.429 | 21.6 |
| 2026-06-20T11:50 | 32.15202 | -15.61180 | 11.568 | 21.6 |
| 2026-06-20T12:00 | 32.18178 | -15.59790 | 11.496 | 21.7 |
| 2026-06-20T12:10 | 32.21096 | -15.58427 | 11.275 | 21.7 |
| 2026-06-20T12:20 | 32.24018 | -15.57061 | 11.291 | 21.7 |
| 2026-06-20T12:30 | 32.26922 | -15.55703 | 11.221 | 21.7 |
| 2026-06-20T12:40 | 32.29819 | -15.54348 | 11.192 | 21.7 |
| 2026-06-20T12:50 | 32.32703 | -15.53001 | 11.139 | 21.6 |
| 2026-06-20T13:00 | 32.35599 | -15.51641 | 11.196 | 21.7 |
| 2026-06-20T13:10 | 32.38522 | -15.50269 | 11.295 | 21.7 |
| 2026-06-20T13:20 | 32.41395 | -15.48920 | 11.106 | 21.7 |
| 2026-06-20T13:30 | 32.44267 | -15.47571 | 11.102 | 21.7 |
| 2026-06-20T13:40 | 32.47138 | -15.46222 | 11.097 | 21.7 |
| 2026-06-20T13:50 | 32.50017 | -15.44870 | 11.125 | 21.7 |
| 2026-06-20T14:00 | 32.52907 | -15.43509 | 11.173 | 21.7 |
| 2026-06-20T14:10 | 32.55754 | -15.42168 | 11.009 | 21.8 |
| 2026-06-20T14:20 | 32.58562 | -15.40842 | 10.858 | 21.8 |
| 2026-06-20T14:30 | 32.61420 | -15.39495 | 11.047 | 21.8 |
| 2026-06-20T14:40 | 32.64308 | -15.38134 | 11.164 | 21.7 |
| 2026-06-20T14:50 | 32.67193 | -15.36771 | 11.156 | 21.8 |
| 2026-06-20T15:00 | 32.70067 | -15.35412 | 11.114 | 21.8 |
| 2026-06-20T15:10 | 32.72923 | -15.34062 | 11.044 | 21.8 |
| 2026-06-20T15:20 | 32.75753 | -15.32721 | 10.950 | 21.8 |
| 2026-06-20T15:30 | 32.78585 | -15.31382 | 10.949 | 21.8 |
| 2026-06-20T15:40 | 32.81422 | -15.30038 | 10.972 | 21.8 |
| 2026-06-20T15:50 | 32.84289 | -15.28679 | 11.091 | 21.8 |
| 2026-06-20T16:00 | 32.87164 | -15.27313 | 11.123 | 21.9 |
| 2026-06-20T16:10 | 32.90035 | -15.25952 | 11.101 | 21.8 |
| 2026-06-20T16:20 | 32.92904 | -15.24588 | 11.102 | 21.9 |
| 2026-06-20T16:30 | 32.95772 | -15.23225 | 11.096 | 21.8 |
| 2026-06-20T16:40 | 32.98643 | -15.21855 | 11.111 | 21.9 |
| 2026-06-20T16:50 | 33.01536 | -15.20478 | 11.195 | 21.8 |
| 2026-06-20T17:00 | 33.04463 | -15.19081 | 11.327 | 21.9 |
| 2026-06-20T17:10 | 33.07440 | -15.17662 | 11.519 | 21.9 |
| 2026-06-20T17:20 | 33.10422 | -15.16241 | 11.537 | 21.9 |
| 2026-06-20T17:30 | 33.13398 | -15.14821 | 11.521 | 21.9 |
| 2026-06-20T17:40 | 33.16367 | -15.13399 | 11.494 | 21.9 |
| 2026-06-20T17:50 | 33.19327 | -15.11987 | 11.454 | 21.9 |
| 2026-06-20T18:00 | 33.22283 | -15.10572 | 11.441 | 21.9 |
| 2026-06-20T18:10 | 33.25253 | -15.09150 | 11.496 | 21.9 |
| 2026-06-20T18:20 | 33.28244 | -15.07713 | 11.583 | 22.0 |
| 2026-06-20T18:30 | 33.31242 | -15.06277 | 11.605 | 21.9 |
| 2026-06-20T18:40 | 33.34187 | -15.04865 | 11.401 | 21.9 |
| 2026-06-20T18:50 | 33.37153 | -15.03438 | 11.489 | 22.0 |
| 2026-06-20T19:00 | 33.40107 | -15.02018 | 11.439 | 21.9 |
| 2026-06-20T19:10 | 33.43073 | -15.00588 | 11.490 | 22.0 |
| 2026-06-20T19:20 | 33.46008 | -14.99177 | 11.365 | 21.9 |
| 2026-06-20T19:30 | 33.48939 | -14.97766 | 11.351 | 22.0 |
| 2026-06-20T19:40 | 33.51862 | -14.96357 | 11.319 | 22.0 |
| 2026-06-20T19:50 | 33.54806 | -14.94936 | 11.406 | 22.0 |
| 2026-06-20T20:00 | 33.57758 | -14.93510 | 11.436 | 22.0 |
| 2026-06-20T20:10 | 33.60724 | -14.92076 | 11.489 | 22.0 |
| 2026-06-20T20:20 | 33.63685 | -14.90644 | 11.473 | 22.0 |
| 2026-06-20T20:30 | 33.66670 | -14.89201 | 11.564 | 22.0 |
| 2026-06-20T20:40 | 33.69654 | -14.87758 | 11.559 | 22.0 |
| 2026-06-20T20:50 | 33.72647 | -14.86308 | 11.598 | 22.1 |
| 2026-06-20T21:00 | 33.75664 | -14.84840 | 11.696 | 22.1 |
| 2026-06-20T21:10 | 33.78657 | -14.83388 | 11.597 | 22.1 |
| 2026-06-20T21:20 | 33.81616 | -14.81950 | 11.471 | 22.1 |
| 2026-06-20T21:30 | 33.84635 | -14.80482 | 11.700 | 22.1 |
| 2026-06-20T21:40 | 33.87640 | -14.79022 | 11.648 | 22.1 |
| 2026-06-20T21:50 | 33.90593 | -14.77582 | 11.449 | 22.1 |
| 2026-06-20T22:00 | 33.93545 | -14.76145 | 11.442 | 22.1 |
| 2026-06-20T22:10 | 33.96541 | -14.74683 | 11.616 | 22.1 |
| 2026-06-20T22:20 | 33.99547 | -14.73216 | 11.655 | 22.1 |
| 2026-06-20T22:30 | 34.02558 | -14.71745 | 11.675 | 22.1 |
| 2026-06-20T22:40 | 34.05537 | -14.70191 | 11.665 | 23.5 |
| 2026-06-20T22:50 | 34.08382 | -14.68570 | 11.308 | 25.4 |
| 2026-06-20T23:00 | 34.11436 | -14.67240 | 11.665 | 19.9 |
| 2026-06-20T23:10 | 34.14469 | -14.65925 | 11.581 | 19.8 |
| 2026-06-20T23:20 | 34.17453 | -14.64456 | 11.580 | 22.2 |
| 2026-06-20T23:30 | 34.20442 | -14.62991 | 11.593 | 22.1 |
| 2026-06-20T23:40 | 34.23428 | -14.61525 | 11.583 | 22.2 |
| 2026-06-20T23:50 | 34.26419 | -14.60054 | 11.605 | 22.2 |
| 2026-06-21T00:00 | 34.29422 | -14.58578 | 11.651 | 22.2 |
| 2026-06-21T00:10 | 34.32438 | -14.57090 | 11.704 | 22.2 |
| 2026-06-21T00:20 | 34.35452 | -14.55607 | 11.692 | 22.2 |
| 2026-06-21T00:30 | 34.38450 | -14.54126 | 11.637 | 22.3 |
| 2026-06-21T00:40 | 34.41432 | -14.52662 | 11.563 | 22.1 |
| 2026-06-21T00:50 | 34.44446 | -14.51168 | 11.706 | 22.3 |
| 2026-06-21T01:00 | 34.47487 | -14.49668 | 11.798 | 22.2 |
| 2026-06-21T01:10 | 34.50565 | -14.48142 | 11.952 | 22.3 |
| 2026-06-21T01:20 | 34.53637 | -14.46626 | 11.922 | 22.2 |
| 2026-06-21T01:30 | 34.55648 | -14.48045 | 8.364 | 329.7 |
| 2026-06-21T01:40 | 34.58462 | -14.46897 | 10.666 | 18.6 |
| 2026-06-21T01:50 | 34.61363 | -14.44872 | 12.034 | 30.0 |
| 2026-06-21T02:00 | 34.64270 | -14.42899 | 11.973 | 29.3 |
| 2026-06-21T02:10 | 34.67153 | -14.40939 | 11.878 | 29.3 |
| 2026-06-21T02:20 | 34.70085 | -14.38914 | 12.122 | 29.7 |
| 2026-06-21T02:30 | 34.73080 | -14.36976 | 12.198 | 28.1 |
| 2026-06-21T02:40 | 34.76244 | -14.35405 | 12.283 | 22.3 |
| 2026-06-21T02:50 | 34.79350 | -14.33854 | 12.067 | 22.4 |
| 2026-06-21T03:00 | 34.82470 | -14.32296 | 12.122 | 22.4 |
| 2026-06-21T03:10 | 34.85604 | -14.30734 | 12.171 | 22.3 |
| 2026-06-21T03:20 | 34.88775 | -14.29149 | 12.320 | 22.4 |
| 2026-06-21T03:30 | 34.91888 | -14.27596 | 12.091 | 22.3 |
| 2026-06-21T03:40 | 34.95002 | -14.26038 | 12.098 | 22.4 |
| 2026-06-21T03:50 | 34.98180 | -14.24447 | 12.348 | 22.4 |
| 2026-06-21T04:00 | 35.01356 | -14.22854 | 12.341 | 22.4 |
| 2026-06-21T04:10 | 35.04519 | -14.21267 | 12.293 | 22.4 |
| 2026-06-21T04:20 | 35.07727 | -14.19654 | 12.471 | 22.4 |
| 2026-06-21T04:30 | 35.10923 | -14.18050 | 12.419 | 22.4 |
| 2026-06-21T04:40 | 35.14102 | -14.16449 | 12.358 | 22.5 |
| 2026-06-21T04:50 | 35.17217 | -14.14884 | 12.106 | 22.4 |
| 2026-06-21T05:00 | 35.20364 | -14.13298 | 12.234 | 22.5 |
| 2026-06-21T05:10 | 35.23490 | -14.11723 | 12.152 | 22.5 |
| 2026-06-21T05:20 | 35.26619 | -14.10145 | 12.165 | 22.5 |
| 2026-06-21T05:30 | 35.29752 | -14.08561 | 12.183 | 22.5 |
| 2026-06-21T05:40 | 35.32871 | -14.06987 | 12.126 | 22.5 |
| 2026-06-21T05:50 | 35.35991 | -14.05407 | 12.136 | 22.5 |
| 2026-06-21T06:00 | 35.39107 | -14.03829 | 12.116 | 22.5 |
| 2026-06-21T06:10 | 35.42199 | -14.02262 | 12.029 | 22.5 |
| 2026-06-21T06:20 | 35.45296 | -14.00694 | 12.042 | 22.5 |
| 2026-06-21T06:30 | 35.48408 | -13.99115 | 12.104 | 22.5 |
| 2026-06-21T06:40 | 35.51344 | -13.97620 | 11.425 | 22.6 |
| 2026-06-21T06:50 | 35.53878 | -13.96335 | 9.856 | 22.5 |
| 2026-06-21T07:00 | 35.56419 | -13.95040 | 9.888 | 22.6 |
| 2026-06-21T07:10 | 35.58995 | -13.93730 | 10.025 | 22.6 |
| 2026-06-21T07:20 | 35.61594 | -13.92404 | 10.113 | 22.6 |
| 2026-06-21T07:30 | 35.64160 | -13.91096 | 9.984 | 22.6 |
| 2026-06-21T07:40 | 35.66719 | -13.89794 | 9.956 | 22.5 |
| 2026-06-21T07:50 | 35.69294 | -13.88483 | 10.019 | 22.6 |
| 2026-06-21T08:00 | 35.71887 | -13.87157 | 10.091 | 22.6 |
| 2026-06-21T08:10 | 35.74433 | -13.85852 | 9.916 | 22.7 |
| 2026-06-21T08:20 | 35.76969 | -13.84561 | 9.864 | 22.5 |
| 2026-06-21T08:30 | 35.79530 | -13.83248 | 9.970 | 22.7 |
| 2026-06-21T08:40 | 35.82082 | -13.81938 | 9.937 | 22.7 |
| 2026-06-21T08:50 | 35.84639 | -13.80627 | 9.954 | 22.7 |
| 2026-06-21T09:00 | 35.87198 | -13.79314 | 9.966 | 22.7 |
| 2026-06-21T09:10 | 35.89724 | -13.78018 | 9.834 | 22.7 |
| 2026-06-21T09:20 | 35.92223 | -13.76736 | 9.728 | 22.6 |
| 2026-06-21T09:30 | 35.94750 | -13.75436 | 9.844 | 22.7 |
| 2026-06-21T09:40 | 35.97285 | -13.74130 | 9.874 | 22.7 |
| 2026-06-21T09:50 | 35.99833 | -13.72818 | 9.924 | 22.7 |
| 2026-06-21T10:00 | 36.02388 | -13.71501 | 9.952 | 22.7 |
| 2026-06-21T10:10 | 36.04950 | -13.70182 | 9.977 | 22.7 |
| 2026-06-21T10:20 | 36.07459 | -13.68888 | 9.774 | 22.7 |
| 2026-06-21T10:30 | 36.09883 | -13.67639 | 9.439 | 22.7 |
| 2026-06-21T10:40 | 36.12312 | -13.66382 | 9.464 | 22.8 |
| 2026-06-21T10:50 | 36.14717 | -13.65140 | 9.370 | 22.7 |
| 2026-06-21T11:00 | 36.17121 | -13.63898 | 9.364 | 22.8 |
| 2026-06-21T11:10 | 36.19555 | -13.62636 | 9.488 | 22.8 |
| 2026-06-21T11:20 | 36.21957 | -13.61390 | 9.362 | 22.8 |
| 2026-06-21T11:30 | 36.24360 | -13.60147 | 9.361 | 22.8 |
| 2026-06-21T11:40 | 36.26765 | -13.58899 | 9.372 | 22.8 |
| 2026-06-21T11:50 | 36.29164 | -13.57658 | 9.347 | 22.7 |
| 2026-06-21T12:00 | 36.31588 | -13.56395 | 9.453 | 22.9 |
| 2026-06-21T12:10 | 36.34000 | -13.55141 | 9.402 | 22.8 |
| 2026-06-21T12:20 | 36.36441 | -13.53874 | 9.513 | 22.8 |
| 2026-06-21T12:30 | 36.38898 | -13.52597 | 9.574 | 22.8 |
| 2026-06-21T12:40 | 36.41284 | -13.51351 | 9.308 | 22.9 |
| 2026-06-21T12:50 | 36.43702 | -13.50093 | 9.424 | 22.8 |
| 2026-06-21T13:00 | 36.46110 | -13.48837 | 9.390 | 22.9 |
| 2026-06-21T13:10 | 36.48504 | -13.47589 | 9.334 | 22.8 |
| 2026-06-21T13:20 | 36.50903 | -13.46334 | 9.355 | 22.9 |
| 2026-06-21T13:30 | 36.53297 | -13.45087 | 9.331 | 22.8 |
| 2026-06-21T13:40 | 36.55685 | -13.43835 | 9.317 | 22.9 |
| 2026-06-21T13:50 | 36.58050 | -13.42602 | 9.218 | 22.8 |
| 2026-06-21T14:00 | 36.60469 | -13.41329 | 9.442 | 23.0 |
| 2026-06-21T14:10 | 36.62899 | -13.40055 | 9.479 | 22.9 |
| 2026-06-21T14:20 | 36.65256 | -13.38820 | 9.196 | 22.9 |
| 2026-06-21T14:30 | 36.67641 | -13.37567 | 9.306 | 22.9 |
| 2026-06-21T14:40 | 36.70011 | -13.36323 | 9.245 | 22.9 |
| 2026-06-21T14:50 | 36.72358 | -13.35088 | 9.158 | 23.0 |
| 2026-06-21T15:00 | 36.74669 | -13.33881 | 9.009 | 22.8 |
| 2026-06-21T15:10 | 36.77025 | -13.32642 | 9.194 | 22.9 |
| 2026-06-21T15:20 | 36.79368 | -13.31408 | 9.142 | 23.0 |
| 2026-06-21T15:30 | 36.81637 | -13.30207 | 8.861 | 23.1 |
| 2026-06-21T15:40 | 36.83982 | -13.28978 | 9.143 | 22.8 |
| 2026-06-21T15:50 | 36.86332 | -13.27739 | 9.172 | 23.0 |
| 2026-06-21T16:00 | 36.88649 | -13.26512 | 9.048 | 23.0 |
| 2026-06-21T16:10 | 36.90930 | -13.25310 | 8.900 | 22.9 |
| 2026-06-21T16:20 | 36.93228 | -13.24093 | 8.974 | 23.0 |
| 2026-06-21T16:30 | 36.95528 | -13.22877 | 8.978 | 23.0 |
| 2026-06-21T16:40 | 36.97787 | -13.21683 | 8.818 | 23.0 |
| 2026-06-21T16:50 | 37.00025 | -13.20496 | 8.737 | 23.0 |
| 2026-06-21T17:00 | 37.02286 | -13.19299 | 8.829 | 23.0 |
| 2026-06-21T17:10 | 37.04590 | -13.18077 | 8.995 | 23.0 |
| 2026-06-21T17:20 | 37.06910 | -13.16847 | 9.061 | 23.0 |
| 2026-06-21T17:30 | 37.09288 | -13.15582 | 9.287 | 23.1 |
| 2026-06-21T17:40 | 37.11706 | -13.14298 | 9.442 | 23.0 |
| 2026-06-21T17:50 | 37.14129 | -13.13006 | 9.469 | 23.1 |
| 2026-06-21T18:00 | 37.16470 | -13.11767 | 9.136 | 23.0 |
| 2026-06-21T18:10 | 37.18819 | -13.10516 | 9.178 | 23.1 |
| 2026-06-21T18:20 | 37.21217 | -13.09235 | 9.369 | 23.1 |
| 2026-06-21T18:30 | 37.23563 | -13.07991 | 9.159 | 23.0 |
| 2026-06-21T18:40 | 37.25935 | -13.06723 | 9.269 | 23.1 |
| 2026-06-21T18:50 | 37.28287 | -13.05463 | 9.193 | 23.2 |
| 2026-06-21T19:00 | 37.30590 | -13.04232 | 9.001 | 23.1 |
| 2026-06-21T19:10 | 37.32894 | -13.03003 | 9.000 | 23.1 |
| 2026-06-21T19:20 | 37.35149 | -13.01800 | 8.807 | 23.1 |
| 2026-06-21T19:30 | 37.37430 | -13.00576 | 8.919 | 23.2 |
| 2026-06-21T19:40 | 37.39725 | -12.99347 | 8.968 | 23.1 |
| 2026-06-21T19:50 | 37.42059 | -12.98096 | 9.122 | 23.1 |
| 2026-06-21T20:00 | 37.44403 | -12.96843 | 9.156 | 23.1 |
| 2026-06-21T20:10 | 37.46686 | -12.95617 | 8.926 | 23.2 |
| 2026-06-21T20:20 | 37.49024 | -12.94360 | 9.141 | 23.2 |
| 2026-06-21T20:30 | 37.51310 | -12.93130 | 8.938 | 23.2 |
| 2026-06-21T20:40 | 37.53632 | -12.91882 | 9.078 | 23.2 |
| 2026-06-21T20:50 | 37.55956 | -12.90632 | 9.085 | 23.2 |
| 2026-06-21T21:00 | 37.58294 | -12.89369 | 9.147 | 23.3 |
| 2026-06-21T21:10 | 37.60677 | -12.88086 | 9.315 | 23.2 |
| 2026-06-21T21:20 | 37.63052 | -12.86809 | 9.286 | 23.1 |
| 2026-06-21T21:30 | 37.65467 | -12.85506 | 9.442 | 23.2 |
| 2026-06-21T21:40 | 37.67855 | -12.84208 | 9.351 | 23.4 |
| 2026-06-21T21:50 | 37.70187 | -12.82953 | 9.114 | 23.2 |
| 2026-06-21T22:00 | 37.72454 | -12.81722 | 8.874 | 23.3 |
| 2026-06-21T22:10 | 37.74697 | -12.80517 | 8.763 | 23.1 |
| 2026-06-21T22:20 | 37.76941 | -12.79296 | 8.783 | 23.4 |
| 2026-06-21T22:30 | 37.79219 | -12.78062 | 8.913 | 23.3 |
| 2026-06-21T22:40 | 37.81515 | -12.76820 | 8.980 | 23.2 |
| 2026-06-21T22:50 | 37.83793 | -12.75586 | 8.913 | 23.2 |
| 2026-06-21T23:00 | 37.86011 | -12.74374 | 8.688 | 23.4 |
| 2026-06-21T23:10 | 37.88215 | -12.73184 | 8.613 | 23.2 |
| 2026-06-21T23:20 | 37.90454 | -12.71964 | 8.768 | 23.4 |
| 2026-06-21T23:30 | 37.92739 | -12.70723 | 8.938 | 23.3 |
| 2026-06-21T23:40 | 37.95035 | -12.69476 | 8.985 | 23.3 |
| 2026-06-21T23:50 | 37.97327 | -12.68223 | 8.975 | 23.4 |
| 2026-06-22T00:00 | 37.99650 | -12.66953 | 9.097 | 23.4 |
| 2026-06-22T00:10 | 38.01992 | -12.65676 | 9.166 | 23.4 |
| 2026-06-22T00:20 | 38.04354 | -12.64382 | 9.253 | 23.4 |
| 2026-06-22T00:30 | 38.06606 | -12.63159 | 8.807 | 23.2 |
| 2026-06-22T00:40 | 38.08872 | -12.61921 | 8.873 | 23.4 |
| 2026-06-22T00:50 | 38.11149 | -12.60674 | 8.915 | 23.4 |
| 2026-06-22T01:00 | 38.13461 | -12.59408 | 9.054 | 23.4 |
| 2026-06-22T01:10 | 38.15741 | -12.58158 | 8.930 | 23.4 |
| 2026-06-22T01:20 | 38.18023 | -12.56906 | 8.939 | 23.4 |
| 2026-06-22T01:30 | 38.20331 | -12.55640 | 9.040 | 23.4 |
| 2026-06-22T01:40 | 38.22669 | -12.54361 | 9.151 | 23.3 |
| 2026-06-22T01:50 | 38.25009 | -12.53071 | 9.172 | 23.5 |
| 2026-06-22T02:00 | 38.27327 | -12.51807 | 9.067 | 23.3 |
| 2026-06-22T02:10 | 38.29560 | -12.50568 | 8.762 | 23.6 |
| 2026-06-22T02:20 | 38.31868 | -12.49302 | 9.036 | 23.4 |
| 2026-06-22T02:30 | 38.34229 | -12.48002 | 9.251 | 23.4 |
| 2026-06-22T02:40 | 38.36588 | -12.46702 | 9.244 | 23.4 |
| 2026-06-22T02:50 | 38.38962 | -12.45392 | 9.302 | 23.5 |
| 2026-06-22T03:00 | 38.41320 | -12.44088 | 9.241 | 23.5 |
| 2026-06-22T03:10 | 38.43725 | -12.42760 | 9.427 | 23.5 |
| 2026-06-22T03:20 | 38.46183 | -12.41402 | 9.631 | 23.5 |
| 2026-06-22T03:30 | 38.48652 | -12.40035 | 9.680 | 23.5 |
| 2026-06-22T03:40 | 38.51129 | -12.38662 | 9.711 | 23.5 |
| 2026-06-22T03:50 | 38.53576 | -12.37307 | 9.591 | 23.5 |
| 2026-06-22T04:00 | 38.56055 | -12.35932 | 9.719 | 23.5 |
| 2026-06-22T04:10 | 38.58522 | -12.34564 | 9.670 | 23.5 |
| 2026-06-22T04:20 | 38.60939 | -12.33220 | 9.480 | 23.6 |
| 2026-06-22T04:30 | 38.63337 | -12.31887 | 9.402 | 23.6 |
| 2026-06-22T04:40 | 38.65696 | -12.30578 | 9.248 | 23.5 |
| 2026-06-22T04:50 | 38.67984 | -12.29306 | 8.970 | 23.6 |
| 2026-06-22T05:00 | 38.70281 | -12.28027 | 9.008 | 23.6 |
| 2026-06-22T05:10 | 38.72603 | -12.26730 | 9.113 | 23.6 |
| 2026-06-22T05:20 | 38.74951 | -12.25420 | 9.210 | 23.6 |
| 2026-06-22T05:30 | 38.77284 | -12.24113 | 9.158 | 23.7 |
| 2026-06-22T05:40 | 38.79566 | -12.22845 | 8.945 | 23.5 |
| 2026-06-22T05:50 | 38.81874 | -12.21560 | 9.048 | 23.5 |
| 2026-06-22T06:00 | 38.84245 | -12.20229 | 9.308 | 23.7 |
| 2026-06-22T06:10 | 38.86667 | -12.18869 | 9.508 | 23.7 |
| 2026-06-22T06:20 | 38.89093 | -12.17510 | 9.522 | 23.6 |
| 2026-06-22T06:30 | 38.91535 | -12.16140 | 9.582 | 23.7 |
| 2026-06-22T06:40 | 38.93973 | -12.14777 | 9.563 | 23.6 |
| 2026-06-22T06:50 | 38.96410 | -12.13405 | 9.570 | 23.7 |
| 2026-06-22T07:00 | 38.98811 | -12.12055 | 9.423 | 23.7 |
| 2026-06-22T07:10 | 39.01152 | -12.10740 | 9.190 | 23.7 |
| 2026-06-22T07:20 | 39.03530 | -12.09401 | 9.335 | 23.7 |
| 2026-06-22T07:30 | 39.05884 | -12.08082 | 9.235 | 23.6 |
| 2026-06-22T07:40 | 39.08221 | -12.06764 | 9.176 | 23.7 |
| 2026-06-22T07:50 | 39.10535 | -12.05461 | 9.085 | 23.7 |
| 2026-06-22T08:00 | 39.12852 | -12.04151 | 9.099 | 23.8 |
| 2026-06-22T08:10 | 39.15169 | -12.02839 | 9.105 | 23.8 |
| 2026-06-22T08:20 | 39.17534 | -12.01503 | 9.288 | 23.7 |
| 2026-06-22T08:30 | 39.19897 | -12.00167 | 9.282 | 23.8 |
| 2026-06-22T08:40 | 39.22283 | -11.98813 | 9.375 | 23.8 |
| 2026-06-22T08:50 | 39.24662 | -11.97470 | 9.340 | 23.7 |
| 2026-06-22T09:00 | 39.27014 | -11.96137 | 9.239 | 23.8 |
| 2026-06-22T09:10 | 39.29382 | -11.94796 | 9.302 | 23.7 |
| 2026-06-22T09:20 | 39.31755 | -11.93448 | 9.322 | 23.8 |
| 2026-06-22T09:30 | 39.34135 | -11.92095 | 9.353 | 23.8 |
| 2026-06-22T09:40 | 39.36521 | -11.90739 | 9.374 | 23.8 |
| 2026-06-22T09:50 | 39.38889 | -11.89393 | 9.304 | 23.8 |
| 2026-06-22T10:00 | 39.41239 | -11.88050 | 9.243 | 23.9 |
| 2026-06-22T10:10 | 39.43637 | -11.86687 | 9.422 | 23.8 |
| 2026-06-22T10:20 | 39.46067 | -11.85300 | 9.552 | 23.9 |
| 2026-06-22T10:30 | 39.48483 | -11.83923 | 9.495 | 23.8 |
| 2026-06-22T10:40 | 39.50868 | -11.82564 | 9.373 | 23.8 |
| 2026-06-22T10:50 | 39.52997 | -11.81347 | 8.372 | 23.9 |
| 2026-06-22T11:00 | 39.55233 | -11.80067 | 8.791 | 23.9 |
| 2026-06-22T11:10 | 39.57460 | -11.78790 | 8.760 | 23.9 |
| 2026-06-22T11:20 | 39.59676 | -11.77515 | 8.722 | 24.0 |
| 2026-06-22T11:30 | 39.61843 | -11.76274 | 8.517 | 23.9 |
| 2026-06-22T11:40 | 39.63957 | -11.75065 | 8.312 | 23.9 |
| 2026-06-22T11:50 | 39.65982 | -11.73904 | 7.962 | 23.9 |
| 2026-06-22T12:00 | 39.68017 | -11.72733 | 8.009 | 24.0 |
| 2026-06-22T12:10 | 39.70074 | -11.71553 | 8.088 | 23.9 |
| 2026-06-22T12:20 | 39.72146 | -11.70362 | 8.150 | 23.9 |
| 2026-06-22T12:30 | 39.74227 | -11.69161 | 8.191 | 24.0 |
| 2026-06-22T12:40 | 39.76310 | -11.67966 | 8.189 | 23.9 |
| 2026-06-22T12:50 | 39.78403 | -11.66758 | 8.238 | 24.0 |
| 2026-06-22T13:00 | 39.80465 | -11.65569 | 8.113 | 24.0 |
| 2026-06-22T13:10 | 39.82532 | -11.64380 | 8.129 | 23.9 |
| 2026-06-22T13:20 | 39.84579 | -11.63195 | 8.060 | 24.1 |
| 2026-06-22T13:30 | 39.86669 | -11.61988 | 8.225 | 24.0 |
| 2026-06-22T13:40 | 39.88772 | -11.60777 | 8.270 | 23.9 |
| 2026-06-22T13:50 | 39.90868 | -11.59566 | 8.250 | 24.0 |
| 2026-06-22T14:00 | 39.92927 | -11.58367 | 8.113 | 24.1 |
| 2026-06-22T14:10 | 39.95052 | -11.57136 | 8.363 | 24.0 |
| 2026-06-22T14:20 | 39.97172 | -11.55910 | 8.343 | 24.0 |
| 2026-06-22T14:30 | 39.99321 | -11.54659 | 8.466 | 24.1 |
| 2026-06-22T14:40 | 40.01516 | -11.53391 | 8.637 | 23.9 |
| 2026-06-22T14:50 | 40.03646 | -11.52147 | 8.393 | 24.2 |
| 2026-06-22T15:00 | 40.05817 | -11.50886 | 8.548 | 24.1 |
| 2026-06-22T15:10 | 40.08046 | -11.49594 | 8.773 | 24.0 |
| 2026-06-22T15:20 | 40.10297 | -11.48286 | 8.862 | 24.1 |
| 2026-06-22T15:30 | 40.12564 | -11.46967 | 8.925 | 24.1 |
| 2026-06-22T15:40 | 40.14827 | -11.45644 | 8.919 | 24.2 |
| 2026-06-22T15:50 | 40.17159 | -11.44285 | 9.183 | 24.1 |
| 2026-06-22T16:00 | 40.19510 | -11.42914 | 9.262 | 24.1 |
| 2026-06-22T16:10 | 40.21829 | -11.41552 | 9.145 | 24.2 |
| 2026-06-22T16:20 | 40.24114 | -11.40215 | 9.002 | 24.2 |
| 2026-06-22T16:30 | 40.26412 | -11.38872 | 9.052 | 24.1 |
| 2026-06-22T16:40 | 40.28664 | -11.37557 | 8.872 | 24.1 |
| 2026-06-22T16:50 | 40.30954 | -11.36208 | 9.031 | 24.3 |
| 2026-06-22T17:00 | 40.33253 | -11.34869 | 9.050 | 24.0 |
| 2026-06-22T17:10 | 40.35561 | -11.33508 | 9.104 | 24.3 |
| 2026-06-22T17:20 | 40.37858 | -11.32160 | 9.052 | 24.2 |
| 2026-06-22T17:30 | 40.40170 | -11.30806 | 9.110 | 24.1 |
| 2026-06-22T17:40 | 40.42441 | -11.29465 | 8.957 | 24.3 |
| 2026-06-22T17:50 | 40.44689 | -11.28146 | 8.856 | 24.1 |
| 2026-06-22T18:00 | 40.46943 | -11.26817 | 8.891 | 24.2 |
| 2026-06-22T18:10 | 40.49203 | -11.25488 | 8.906 | 24.2 |
| 2026-06-22T18:20 | 40.51446 | -11.24157 | 8.854 | 24.4 |
| 2026-06-22T18:30 | 40.53728 | -11.22815 | 8.993 | 24.2 |
| 2026-06-22T18:40 | 40.55994 | -11.21476 | 8.937 | 24.3 |
| 2026-06-22T18:50 | 40.58289 | -11.20120 | 9.053 | 24.2 |
| 2026-06-22T19:00 | 40.60596 | -11.18754 | 9.101 | 24.3 |
| 2026-06-22T19:10 | 40.62827 | -11.17432 | 8.801 | 24.3 |
| 2026-06-22T19:20 | 40.65108 | -11.16078 | 9.002 | 24.3 |
| 2026-06-22T19:30 | 40.67408 | -11.14715 | 9.074 | 24.3 |
| 2026-06-22T19:40 | 40.69664 | -11.13377 | 8.897 | 24.3 |
| 2026-06-22T19:50 | 40.71853 | -11.12076 | 8.641 | 24.3 |
| 2026-06-22T20:00 | 40.74005 | -11.10797 | 8.493 | 24.3 |
| 2026-06-22T20:10 | 40.76168 | -11.09515 | 8.529 | 24.2 |
| 2026-06-22T20:20 | 40.78317 | -11.08232 | 8.488 | 24.4 |
| 2026-06-22T20:30 | 40.80497 | -11.06936 | 8.600 | 24.3 |
| 2026-06-22T20:40 | 40.82714 | -11.05615 | 8.751 | 24.4 |
| 2026-06-22T20:50 | 40.84909 | -11.04301 | 8.670 | 24.4 |
| 2026-06-22T21:00 | 40.87103 | -11.02992 | 8.661 | 24.4 |
| 2026-06-22T21:10 | 40.89263 | -11.01704 | 8.527 | 24.4 |
| 2026-06-22T21:20 | 40.91355 | -11.00449 | 8.266 | 24.5 |
| 2026-06-22T21:30 | 40.93386 | -10.99234 | 8.017 | 24.4 |
| 2026-06-22T21:40 | 40.95360 | -10.98059 | 7.788 | 24.3 |
| 2026-06-22T21:50 | 40.97335 | -10.96874 | 7.801 | 24.4 |
| 2026-06-22T22:00 | 40.99311 | -10.95693 | 7.804 | 24.4 |
| 2026-06-22T22:10 | 41.01261 | -10.94522 | 7.702 | 24.5 |
| 2026-06-22T22:20 | 41.03218 | -10.93348 | 7.730 | 24.4 |
| 2026-06-22T22:30 | 41.05154 | -10.92184 | 7.648 | 24.5 |
| 2026-06-22T22:40 | 41.07048 | -10.91343 | 7.187 | 18.6 |
| 2026-06-22T22:50 | 41.08947 | -10.90187 | 7.518 | 24.7 |
| 2026-06-22T23:00 | 41.10814 | -10.88778 | 7.730 | 29.7 |
| 2026-06-22T23:10 | 41.12797 | -10.87584 | 7.836 | 24.5 |
| 2026-06-22T23:20 | 41.14798 | -10.86379 | 7.905 | 24.5 |
| 2026-06-22T23:30 | 41.16784 | -10.85183 | 7.846 | 24.5 |
| 2026-06-22T23:40 | 41.18747 | -10.83998 | 7.759 | 24.5 |
| 2026-06-22T23:50 | 41.20756 | -10.82783 | 7.940 | 24.5 |
| 2026-06-23T00:00 | 41.22745 | -10.81579 | 7.864 | 24.6 |
| 2026-06-23T00:10 | 41.24681 | -10.80411 | 7.650 | 24.5 |
| 2026-06-23T00:20 | 41.26587 | -10.79258 | 7.537 | 24.5 |
| 2026-06-23T00:30 | 41.28539 | -10.78082 | 7.709 | 24.4 |
| 2026-06-23T00:40 | 41.30519 | -10.76879 | 7.835 | 24.6 |
| 2026-06-23T00:50 | 41.32497 | -10.75678 | 7.822 | 24.6 |
| 2026-06-23T01:00 | 41.34472 | -10.74479 | 7.810 | 24.6 |
| 2026-06-23T01:10 | 41.36460 | -10.73277 | 7.855 | 24.5 |
| 2026-06-23T01:20 | 41.38483 | -10.72049 | 8.002 | 24.6 |
| 2026-06-23T01:30 | 41.40495 | -10.70893 | 7.882 | 23.4 |
| 2026-06-23T01:40 | 41.41690 | -10.72715 | 6.545 | 311.1 |
| 2026-06-23T01:50 | 41.43494 | -10.71164 | 7.724 | 32.9 |
| 2026-06-23T02:00 | 41.45395 | -10.69784 | 7.793 | 28.6 |
| 2026-06-23T02:10 | 41.47316 | -10.68418 | 7.833 | 28.1 |
| 2026-06-23T02:20 | 41.49202 | -10.67087 | 7.679 | 27.9 |
| 2026-06-23T02:30 | 41.51118 | -10.65744 | 7.786 | 27.8 |
| 2026-06-23T02:40 | 41.53041 | -10.64366 | 7.855 | 28.3 |
| 2026-06-23T02:50 | 41.54989 | -10.63002 | 7.918 | 27.7 |
| 2026-06-23T03:00 | 41.56950 | -10.61621 | 7.978 | 27.9 |
| 2026-06-23T03:10 | 41.58916 | -10.60249 | 7.980 | 27.6 |
| 2026-06-23T03:20 | 41.60762 | -10.58699 | 7.848 | 32.2 |
| 2026-06-23T03:30 | 41.62705 | -10.57264 | 7.989 | 29.0 |
| 2026-06-23T03:40 | 41.64688 | -10.56050 | 7.849 | 24.7 |
| 2026-06-23T03:50 | 41.66678 | -10.54830 | 7.877 | 24.7 |
| 2026-06-23T04:00 | 41.68705 | -10.53592 | 8.017 | 24.6 |
| 2026-06-23T04:10 | 41.70652 | -10.52391 | 7.715 | 24.8 |
| 2026-06-23T04:20 | 41.72624 | -10.51184 | 7.799 | 24.6 |
| 2026-06-23T04:30 | 41.74615 | -10.49961 | 7.885 | 24.7 |
| 2026-06-23T04:40 | 41.76616 | -10.48723 | 7.932 | 24.9 |
| 2026-06-23T04:50 | 41.78546 | -10.47537 | 7.640 | 24.7 |
| 2026-06-23T05:00 | 41.80515 | -10.46323 | 7.799 | 24.8 |
| 2026-06-23T05:10 | 41.82467 | -10.45116 | 7.732 | 24.8 |
| 2026-06-23T05:20 | 41.84452 | -10.43892 | 7.862 | 24.8 |
| 2026-06-23T05:30 | 41.86475 | -10.42644 | 8.012 | 24.8 |
| 2026-06-23T05:40 | 41.88495 | -10.41399 | 7.999 | 24.7 |
| 2026-06-23T05:50 | 41.90473 | -10.40178 | 7.833 | 24.8 |
| 2026-06-23T06:00 | 41.92437 | -10.38959 | 7.784 | 24.9 |
| 2026-06-23T06:10 | 41.94433 | -10.37723 | 7.908 | 24.8 |
| 2026-06-23T06:20 | 41.96475 | -10.36460 | 8.092 | 24.8 |
| 2026-06-23T06:30 | 41.98546 | -10.35178 | 8.205 | 24.8 |
| 2026-06-23T06:40 | 42.00621 | -10.33887 | 8.226 | 24.9 |
| 2026-06-23T06:50 | 42.02725 | -10.32580 | 8.340 | 24.8 |
| 2026-06-23T07:00 | 42.04839 | -10.31272 | 8.375 | 24.8 |
| 2026-06-23T07:10 | 42.06977 | -10.29947 | 8.469 | 24.8 |
| 2026-06-23T07:20 | 42.09125 | -10.28602 | 8.524 | 25.0 |
| 2026-06-23T07:30 | 42.11282 | -10.27266 | 8.544 | 24.8 |
| 2026-06-23T07:40 | 42.13464 | -10.25904 | 8.655 | 24.9 |
| 2026-06-23T07:50 | 42.15548 | -10.24596 | 8.270 | 25.0 |
| 2026-06-23T08:00 | 42.17639 | -10.23301 | 8.284 | 24.7 |
| 2026-06-23T08:10 | 42.19641 | -10.22044 | 7.947 | 25.0 |
| 2026-06-23T08:20 | 42.21615 | -10.20810 | 7.828 | 24.9 |
| 2026-06-23T08:30 | 42.23639 | -10.19547 | 8.023 | 24.9 |
| 2026-06-23T08:40 | 42.25673 | -10.18272 | 8.070 | 25.0 |
| 2026-06-23T08:50 | 42.27735 | -10.16977 | 8.185 | 25.0 |
| 2026-06-23T09:00 | 42.29808 | -10.15674 | 8.227 | 25.0 |
| 2026-06-23T09:10 | 42.31887 | -10.14374 | 8.243 | 24.9 |
| 2026-06-23T09:20 | 42.33969 | -10.13063 | 8.269 | 25.0 |
| 2026-06-23T09:30 | 42.36095 | -10.11731 | 8.429 | 24.9 |
| 2026-06-23T09:40 | 42.38231 | -10.10329 | 8.547 | 25.9 |
| 2026-06-23T09:50 | 42.40322 | -10.08790 | 8.567 | 28.6 |
| 2026-06-23T10:00 | 42.42552 | -10.07673 | 8.554 | 20.4 |
| 2026-06-23T10:10 | 42.44744 | -10.06286 | 8.709 | 25.1 |
| 2026-06-23T10:20 | 42.46936 | -10.04909 | 8.693 | 24.9 |
| 2026-06-23T10:30 | 42.49112 | -10.03528 | 8.650 | 25.1 |
| 2026-06-23T10:40 | 42.51247 | -10.02182 | 8.472 | 25.0 |
| 2026-06-23T10:50 | 42.53358 | -10.00847 | 8.384 | 25.1 |
| 2026-06-23T11:00 | 42.55520 | -9.99485 | 8.579 | 25.0 |
| 2026-06-23T11:10 | 42.57660 | -9.98130 | 8.499 | 25.1 |
| 2026-06-23T11:20 | 42.59765 | -9.96794 | 8.361 | 25.1 |
| 2026-06-23T11:30 | 42.61840 | -9.95478 | 8.241 | 25.1 |
| 2026-06-23T11:40 | 42.63882 | -9.94182 | 8.114 | 25.1 |
| 2026-06-23T11:50 | 42.65904 | -9.92896 | 8.035 | 25.1 |
| 2026-06-23T12:00 | 42.67966 | -9.91583 | 8.193 | 25.2 |
| 2026-06-23T12:10 | 42.70107 | -9.90231 | 8.497 | 25.0 |
| 2026-06-23T12:20 | 42.72209 | -9.88890 | 8.354 | 25.2 |
| 2026-06-23T12:30 | 42.74277 | -9.87566 | 8.227 | 25.3 |
| 2026-06-23T12:40 | 42.76354 | -9.86248 | 8.248 | 25.1 |
| 2026-06-23T12:50 | 42.78460 | -9.84924 | 8.347 | 24.9 |
| 2026-06-23T13:00 | 42.80654 | -9.83536 | 8.708 | 24.9 |
| 2026-06-23T13:10 | 42.82901 | -9.82658 | 8.409 | 16.1 |
| 2026-06-23T13:20 | 42.85225 | -9.82082 | 8.496 | 10.3 |
| 2026-06-23T13:30 | 42.87527 | -9.81526 | 8.412 | 10.1 |
| 2026-06-23T13:40 | 42.89794 | -9.81408 | 8.161 | 2.2 |
| 2026-06-23T13:50 | 42.92193 | -9.81276 | 8.635 | 2.3 |
| 2026-06-23T14:00 | 42.94656 | -9.81165 | 8.864 | 1.9 |
| 2026-06-23T14:10 | 42.96966 | -9.81049 | 8.316 | 2.1 |
| 2026-06-23T14:20 | 42.99296 | -9.80950 | 8.385 | 1.8 |
| 2026-06-23T14:30 | 43.01734 | -9.80843 | 8.774 | 1.8 |
| 2026-06-23T14:40 | 43.04215 | -9.80720 | 8.932 | 2.1 |
| 2026-06-23T14:50 | 43.06665 | -9.80600 | 8.816 | 2.1 |
| 2026-06-23T15:00 | 43.09120 | -9.80485 | 8.840 | 2.0 |
| 2026-06-23T15:10 | 43.11607 | -9.80359 | 8.950 | 2.1 |
| 2026-06-23T15:20 | 43.14065 | -9.80231 | 8.850 | 2.2 |
| 2026-06-23T15:30 | 43.16520 | -9.80127 | 8.834 | 1.8 |
| 2026-06-23T15:40 | 43.18742 | -9.79306 | 8.282 | 15.1 |
| 2026-06-23T15:50 | 43.20774 | -9.77716 | 8.421 | 29.8 |
| 2026-06-23T16:00 | 43.22805 | -9.76148 | 8.392 | 29.4 |
| 2026-06-23T16:10 | 43.24741 | -9.74527 | 8.165 | 31.5 |
| 2026-06-23T16:20 | 43.26708 | -9.72790 | 8.422 | 32.8 |
| 2026-06-23T16:30 | 43.28750 | -9.70968 | 8.769 | 33.1 |
| 2026-06-23T16:40 | 43.30770 | -9.69153 | 8.693 | 33.3 |
| 2026-06-23T16:50 | 43.32675 | -9.67460 | 8.167 | 33.0 |
| 2026-06-23T17:00 | 43.34153 | -9.66300 | 6.130 | 29.8 |
| 2026-06-23T17:10 | 43.36239 | -9.64893 | 8.364 | 26.2 |
| 2026-06-23T17:20 | 43.38416 | -9.63427 | 8.725 | 26.1 |
| 2026-06-23T17:30 | 43.40577 | -9.61982 | 8.648 | 26.0 |
| 2026-06-23T17:40 | 43.42726 | -9.60521 | 8.630 | 26.4 |
| 2026-06-23T17:50 | 43.44906 | -9.59096 | 8.688 | 25.5 |
| 2026-06-23T18:00 | 43.47087 | -9.57622 | 8.744 | 26.2 |
| 2026-06-23T18:10 | 43.49224 | -9.56182 | 8.561 | 26.1 |
| 2026-06-23T18:20 | 43.51335 | -9.54767 | 8.452 | 26.0 |
| 2026-06-23T18:30 | 43.53481 | -9.53327 | 8.590 | 26.0 |
| 2026-06-23T18:40 | 43.55650 | -9.51876 | 8.679 | 25.9 |
| 2026-06-23T18:50 | 43.57863 | -9.50379 | 8.872 | 26.2 |
| 2026-06-23T19:00 | 43.60162 | -9.48781 | 9.268 | 26.8 |
| 2026-06-23T19:10 | 43.62483 | -9.47157 | 9.364 | 26.9 |
| 2026-06-23T19:20 | 43.64710 | -9.45591 | 8.997 | 27.1 |
| 2026-06-23T19:30 | 43.66905 | -9.44067 | 8.842 | 26.8 |
| 2026-06-23T19:40 | 43.69053 | -9.42543 | 8.693 | 27.2 |
| 2026-06-23T19:50 | 43.71174 | -9.41070 | 8.545 | 26.7 |
| 2026-06-23T20:00 | 43.73107 | -9.39687 | 7.833 | 27.4 |
| 2026-06-23T20:10 | 43.75200 | -9.38202 | 8.468 | 27.2 |
| 2026-06-23T20:20 | 43.77359 | -9.36677 | 8.727 | 27.1 |
| 2026-06-23T20:30 | 43.79435 | -9.35225 | 8.373 | 26.9 |
| 2026-06-23T20:40 | 43.81606 | -9.33711 | 8.749 | 26.8 |
| 2026-06-23T20:50 | 43.83765 | -9.32177 | 8.734 | 27.2 |
| 2026-06-23T21:00 | 43.85899 | -9.30685 | 8.605 | 26.8 |
| 2026-06-23T21:10 | 43.88047 | -9.29165 | 8.682 | 27.1 |
| 2026-06-23T21:20 | 43.90067 | -9.27731 | 8.168 | 27.2 |
| 2026-06-23T21:30 | 43.92081 | -9.26308 | 8.135 | 27.0 |
| 2026-06-23T21:40 | 43.94033 | -9.24926 | 7.890 | 27.1 |
| 2026-06-23T21:50 | 43.95948 | -9.23573 | 7.737 | 27.0 |
| 2026-06-23T22:00 | 43.97811 | -9.22259 | 7.521 | 27.0 |
| 2026-06-23T22:10 | 43.99609 | -9.20993 | 7.257 | 26.9 |
| 2026-06-23T22:20 | 44.01455 | -9.19691 | 7.452 | 27.0 |
| 2026-06-23T22:30 | 44.03325 | -9.18381 | 7.537 | 26.8 |
| 2026-06-23T22:40 | 44.05271 | -9.17014 | 7.850 | 26.9 |
| 2026-06-23T22:50 | 44.07254 | -9.15597 | 8.028 | 27.3 |
| 2026-06-23T23:00 | 44.09228 | -9.14207 | 7.963 | 26.9 |
| 2026-06-23T23:10 | 44.11141 | -9.12848 | 7.733 | 27.1 |
| 2026-06-23T23:20 | 44.13078 | -9.11458 | 7.847 | 27.3 |
| 2026-06-23T23:30 | 44.15034 | -9.10097 | 7.869 | 26.6 |
| 2026-06-23T23:40 | 44.16935 | -9.08751 | 7.679 | 27.0 |
| 2026-06-23T23:50 | 44.18882 | -9.07470 | 7.749 | 25.3 |
| 2026-06-24T00:00 | 44.20862 | -9.06192 | 7.854 | 24.9 |
| 2026-06-24T00:10 | 44.22797 | -9.04924 | 7.696 | 25.2 |
| 2026-06-24T00:20 | 44.24730 | -9.03660 | 7.688 | 25.2 |
| 2026-06-24T00:30 | 44.26629 | -9.02414 | 7.554 | 25.2 |
| 2026-06-24T00:40 | 44.28498 | -9.01161 | 7.464 | 25.7 |
| 2026-06-24T00:50 | 44.30351 | -8.99969 | 7.345 | 24.8 |
| 2026-06-24T01:00 | 44.32145 | -8.98815 | 7.107 | 24.8 |
| 2026-06-24T01:10 | 44.33836 | -8.97745 | 6.684 | 24.4 |
| 2026-06-24T01:20 | 44.35580 | -8.96650 | 6.885 | 24.3 |
| 2026-06-24T01:30 | 44.37406 | -8.95448 | 7.265 | 25.3 |
| 2026-06-24T01:40 | 44.39129 | -8.94337 | 6.828 | 24.8 |
| 2026-06-24T01:50 | 44.40767 | -8.93262 | 6.514 | 25.2 |
| 2026-06-24T02:00 | 44.42508 | -8.92130 | 6.913 | 25.0 |
| 2026-06-24T02:10 | 44.44262 | -8.90997 | 6.955 | 24.8 |
| 2026-06-24T02:20 | 44.46004 | -8.89867 | 6.909 | 24.9 |
| 2026-06-24T02:30 | 44.47748 | -8.88732 | 6.922 | 25.0 |
| 2026-06-24T02:40 | 44.49497 | -8.87602 | 6.936 | 24.8 |
| 2026-06-24T02:50 | 44.51313 | -8.86421 | 7.207 | 25.0 |
| 2026-06-24T03:00 | 44.53170 | -8.85218 | 7.363 | 24.9 |
| 2026-06-24T03:10 | 44.54975 | -8.84049 | 7.158 | 24.9 |
| 2026-06-24T03:20 | 44.56828 | -8.82840 | 7.358 | 25.0 |
| 2026-06-24T03:30 | 44.58644 | -8.81668 | 7.197 | 24.8 |
| 2026-06-24T03:40 | 44.60508 | -8.80435 | 7.417 | 25.3 |
| 2026-06-24T03:50 | 44.62371 | -8.79202 | 7.416 | 25.3 |
| 2026-06-24T04:00 | 44.64243 | -8.77977 | 7.433 | 25.1 |
| 2026-06-24T04:10 | 44.66104 | -8.76766 | 7.384 | 24.9 |
| 2026-06-24T04:20 | 44.67981 | -8.75526 | 7.465 | 25.2 |
| 2026-06-24T04:30 | 44.69826 | -8.74327 | 7.318 | 24.9 |
| 2026-06-24T04:40 | 44.71641 | -8.73136 | 7.210 | 25.1 |
| 2026-06-24T04:50 | 44.73468 | -8.71935 | 7.260 | 25.1 |
| 2026-06-24T05:00 | 44.75290 | -8.70730 | 7.251 | 25.2 |
| 2026-06-24T05:10 | 44.77110 | -8.69539 | 7.223 | 25.0 |
| 2026-06-24T05:20 | 44.78921 | -8.68334 | 7.213 | 25.3 |
| 2026-06-24T05:30 | 44.80774 | -8.67123 | 7.354 | 24.9 |
| 2026-06-24T05:40 | 44.82677 | -8.65865 | 7.566 | 25.2 |
| 2026-06-24T05:50 | 44.84595 | -8.64601 | 7.624 | 25.1 |
| 2026-06-24T06:00 | 44.86465 | -8.63256 | 7.558 | 27.1 |
| 2026-06-24T06:10 | 44.88277 | -8.61964 | 7.312 | 26.9 |
| 2026-06-24T06:20 | 44.90036 | -8.60709 | 7.097 | 26.9 |
| 2026-06-24T06:30 | 44.91802 | -8.59443 | 7.132 | 27.0 |
| 2026-06-24T06:40 | 44.93562 | -8.58182 | 7.106 | 27.0 |
| 2026-06-24T06:50 | 44.95390 | -8.56871 | 7.381 | 27.0 |
| 2026-06-24T07:00 | 44.97344 | -8.55474 | 7.885 | 26.9 |
| 2026-06-24T07:10 | 44.99257 | -8.54097 | 7.729 | 27.1 |
| 2026-06-24T07:20 | 45.01355 | -8.52592 | 8.470 | 27.0 |
| 2026-06-24T07:30 | 45.03465 | -8.51077 | 8.523 | 27.0 |
| 2026-06-24T07:40 | 45.05649 | -8.49499 | 8.828 | 27.1 |
| 2026-06-24T07:50 | 45.07864 | -8.47912 | 8.940 | 26.9 |
| 2026-06-24T08:00 | 45.10097 | -8.46303 | 9.023 | 27.0 |
| 2026-06-24T08:10 | 45.12330 | -8.44691 | 9.024 | 27.1 |
| 2026-06-24T08:20 | 45.14568 | -8.43076 | 9.044 | 27.1 |
| 2026-06-24T08:30 | 45.16896 | -8.41390 | 9.414 | 27.1 |
| 2026-06-24T08:40 | 45.19256 | -8.39688 | 9.533 | 27.0 |
| 2026-06-24T08:50 | 45.21502 | -8.38058 | 9.083 | 27.2 |
| 2026-06-24T09:00 | 45.23635 | -8.36517 | 8.620 | 27.0 |
| 2026-06-24T09:10 | 45.25700 | -8.35027 | 8.339 | 27.0 |
| 2026-06-24T09:20 | 45.27642 | -8.33609 | 7.861 | 27.3 |
| 2026-06-24T09:30 | 45.29576 | -8.32213 | 7.812 | 27.0 |
| 2026-06-24T09:40 | 45.31512 | -8.30797 | 7.841 | 27.3 |
| 2026-06-24T09:50 | 45.33493 | -8.29361 | 8.006 | 27.1 |
| 2026-06-24T10:00 | 45.35506 | -8.27896 | 8.141 | 27.2 |
| 2026-06-24T10:10 | 45.37651 | -8.26328 | 8.683 | 27.3 |
| 2026-06-24T10:20 | 45.39871 | -8.24712 | 8.980 | 27.1 |
| 2026-06-24T10:30 | 45.42123 | -8.23064 | 9.119 | 27.3 |
| 2026-06-24T10:40 | 45.44425 | -8.21387 | 9.310 | 27.1 |
| 2026-06-24T10:50 | 45.46705 | -8.19726 | 9.220 | 27.2 |
| 2026-06-24T11:00 | 45.48937 | -8.18084 | 9.046 | 27.4 |
| 2026-06-24T11:10 | 45.51109 | -8.16499 | 8.784 | 27.2 |
| 2026-06-24T11:20 | 45.53249 | -8.14928 | 8.667 | 27.3 |
| 2026-06-24T11:30 | 45.55377 | -8.13366 | 8.616 | 27.3 |
| 2026-06-24T11:40 | 45.57562 | -8.11767 | 8.840 | 27.2 |
| 2026-06-24T11:50 | 45.59766 | -8.10150 | 8.921 | 27.2 |
| 2026-06-24T12:00 | 45.61946 | -8.08539 | 8.839 | 27.4 |
| 2026-06-24T12:10 | 45.64045 | -8.06996 | 8.500 | 27.3 |
| 2026-06-24T12:20 | 45.66197 | -8.05402 | 8.727 | 27.4 |
| 2026-06-24T12:30 | 45.68287 | -8.03866 | 8.463 | 27.2 |
| 2026-06-24T12:40 | 45.70404 | -8.02305 | 8.576 | 27.3 |
| 2026-06-24T12:50 | 45.72575 | -8.00693 | 8.806 | 27.5 |
| 2026-06-24T13:00 | 45.74753 | -7.99084 | 8.826 | 27.4 |
| 2026-06-24T13:10 | 45.76927 | -7.97474 | 8.811 | 27.4 |
| 2026-06-24T13:20 | 45.79108 | -7.95851 | 8.852 | 27.5 |
| 2026-06-24T13:30 | 45.81299 | -7.94225 | 8.882 | 27.4 |
| 2026-06-24T13:40 | 45.83514 | -7.92582 | 8.980 | 27.4 |
| 2026-06-24T13:50 | 45.85688 | -7.90969 | 8.813 | 27.4 |
| 2026-06-24T14:00 | 45.87808 | -7.89384 | 8.609 | 27.6 |
| 2026-06-24T14:10 | 45.89930 | -7.87794 | 8.619 | 27.6 |
| 2026-06-24T14:20 | 45.92055 | -7.86218 | 8.612 | 27.4 |
| 2026-06-24T14:30 | 45.94192 | -7.84617 | 8.680 | 27.6 |
| 2026-06-24T14:40 | 45.96332 | -7.83017 | 8.683 | 27.5 |
| 2026-06-24T14:50 | 45.98455 | -7.81444 | 8.601 | 27.3 |
| 2026-06-24T15:00 | 46.00520 | -7.79892 | 8.391 | 27.6 |
| 2026-06-24T15:10 | 46.02626 | -7.78309 | 8.556 | 27.6 |
| 2026-06-24T15:20 | 46.04769 | -7.76701 | 8.703 | 27.6 |
| 2026-06-24T15:30 | 46.06918 | -7.75087 | 8.726 | 27.6 |
| 2026-06-24T15:40 | 46.09052 | -7.73483 | 8.667 | 27.6 |
| 2026-06-24T15:50 | 46.11132 | -7.71925 | 8.443 | 27.5 |
| 2026-06-24T16:00 | 46.13215 | -7.70356 | 8.463 | 27.6 |
| 2026-06-24T16:10 | 46.15265 | -7.68808 | 8.334 | 27.7 |
| 2026-06-24T16:20 | 46.17331 | -7.67258 | 8.385 | 27.5 |
| 2026-06-24T16:30 | 46.19329 | -7.65744 | 8.125 | 27.8 |
| 2026-06-24T16:40 | 46.21357 | -7.64215 | 8.239 | 27.6 |
| 2026-06-24T16:50 | 46.23468 | -7.62612 | 8.591 | 27.8 |
| 2026-06-24T17:00 | 46.25577 | -7.61017 | 8.572 | 27.7 |
| 2026-06-24T17:10 | 46.27684 | -7.59431 | 8.554 | 27.6 |
| 2026-06-24T17:20 | 46.29787 | -7.57833 | 8.556 | 27.8 |
| 2026-06-24T17:30 | 46.31935 | -7.56208 | 8.728 | 27.6 |
| 2026-06-24T17:40 | 46.34132 | -7.54533 | 8.943 | 27.8 |
| 2026-06-24T17:50 | 46.36367 | -7.52833 | 9.091 | 27.8 |
| 2026-06-24T18:00 | 46.38606 | -7.51133 | 9.105 | 27.7 |
| 2026-06-24T18:10 | 46.40830 | -7.49441 | 9.044 | 27.8 |
| 2026-06-24T18:20 | 46.43030 | -7.47763 | 8.954 | 27.8 |
| 2026-06-24T18:30 | 46.45235 | -7.46085 | 8.969 | 27.7 |
| 2026-06-24T18:40 | 46.47478 | -7.44375 | 9.123 | 27.8 |
| 2026-06-24T18:50 | 46.49680 | -7.42691 | 8.965 | 27.8 |
| 2026-06-24T19:00 | 46.51857 | -7.41026 | 8.861 | 27.8 |
| 2026-06-24T19:10 | 46.54023 | -7.39365 | 8.821 | 27.9 |
| 2026-06-24T19:20 | 46.56193 | -7.37702 | 8.835 | 27.9 |
| 2026-06-24T19:30 | 46.58360 | -7.36042 | 8.820 | 27.9 |
| 2026-06-24T19:40 | 46.60556 | -7.34358 | 8.942 | 27.9 |
| 2026-06-24T19:50 | 46.62804 | -7.32631 | 9.157 | 27.9 |
| 2026-06-24T20:00 | 46.65025 | -7.30923 | 9.045 | 27.9 |
| 2026-06-24T20:10 | 46.67172 | -7.29269 | 8.747 | 27.9 |
| 2026-06-24T20:20 | 46.69303 | -7.27632 | 8.679 | 27.9 |
| 2026-06-24T20:30 | 46.71378 | -7.26026 | 8.462 | 28.0 |
| 2026-06-24T20:40 | 46.73432 | -7.24438 | 8.372 | 28.0 |
| 2026-06-24T20:50 | 46.75475 | -7.22865 | 8.321 | 27.9 |
| 2026-06-24T21:00 | 46.77493 | -7.21305 | 8.224 | 28.0 |
| 2026-06-24T21:10 | 46.79471 | -7.19774 | 8.064 | 28.0 |
| 2026-06-24T21:20 | 46.81462 | -7.18230 | 8.120 | 28.0 |
| 2026-06-24T21:30 | 46.83451 | -7.16693 | 8.104 | 27.9 |
| 2026-06-24T21:40 | 46.85477 | -7.15121 | 8.264 | 28.0 |
| 2026-06-24T21:50 | 46.87496 | -7.13553 | 8.234 | 28.0 |
| 2026-06-24T22:00 | 46.89456 | -7.12029 | 7.994 | 28.1 |
| 2026-06-24T22:10 | 46.91387 | -7.10531 | 7.873 | 28.0 |
| 2026-06-24T22:20 | 46.93322 | -7.09021 | 7.896 | 28.1 |
| 2026-06-24T22:30 | 46.95255 | -7.07516 | 7.885 | 28.1 |
| 2026-06-24T22:40 | 46.97211 | -7.05989 | 7.984 | 28.1 |
| 2026-06-24T22:50 | 46.99157 | -7.04477 | 7.935 | 28.0 |
| 2026-06-24T23:00 | 47.01101 | -7.02952 | 7.943 | 28.2 |
| 2026-06-24T23:10 | 47.03053 | -7.01426 | 7.967 | 28.1 |
| 2026-06-24T23:20 | 47.05047 | -6.99868 | 8.137 | 28.1 |
| 2026-06-24T23:30 | 47.07033 | -6.98315 | 8.106 | 28.1 |
| 2026-06-24T23:40 | 47.09040 | -6.96746 | 8.191 | 28.1 |
| 2026-06-24T23:50 | 47.11021 | -6.95184 | 8.098 | 28.3 |
| 2026-06-25T00:00 | 47.13025 | -6.93614 | 8.183 | 28.1 |
| 2026-06-25T00:10 | 47.15053 | -6.92019 | 8.284 | 28.2 |
| 2026-06-25T00:20 | 47.17075 | -6.90431 | 8.257 | 28.2 |
| 2026-06-25T00:30 | 47.19089 | -6.88843 | 8.233 | 28.2 |
| 2026-06-25T00:40 | 47.21104 | -6.87257 | 8.232 | 28.2 |
| 2026-06-25T00:50 | 47.23133 | -6.85654 | 8.295 | 28.3 |
| 2026-06-25T01:00 | 47.25134 | -6.84084 | 8.165 | 28.1 |
| 2026-06-25T01:10 | 47.27127 | -6.82510 | 8.146 | 28.3 |
| 2026-06-25T01:20 | 47.29158 | -6.80904 | 8.302 | 28.3 |
| 2026-06-25T01:30 | 47.31228 | -6.79263 | 8.467 | 28.3 |
| 2026-06-25T01:40 | 47.33353 | -6.77580 | 8.691 | 28.3 |
| 2026-06-25T01:50 | 47.35495 | -6.75877 | 8.766 | 28.4 |
| 2026-06-25T02:00 | 47.37665 | -6.74157 | 8.872 | 28.3 |
| 2026-06-25T02:10 | 47.39758 | -6.72492 | 8.563 | 28.4 |
| 2026-06-25T02:20 | 47.41815 | -6.70861 | 8.407 | 28.3 |
| 2026-06-25T02:30 | 47.43860 | -6.69237 | 8.365 | 28.3 |
| 2026-06-25T02:40 | 47.45946 | -6.67576 | 8.534 | 28.4 |
| 2026-06-25T02:50 | 47.48015 | -6.65930 | 8.464 | 28.4 |
| 2026-06-25T03:00 | 47.49945 | -6.64382 | 7.909 | 28.5 |
| 2026-06-25T03:10 | 47.51855 | -6.62864 | 7.809 | 28.3 |
| 2026-06-25T03:20 | 47.53805 | -6.61306 | 7.981 | 28.4 |
| 2026-06-25T03:30 | 47.55730 | -6.59762 | 7.885 | 28.5 |
| 2026-06-25T03:40 | 47.57706 | -6.58186 | 8.083 | 28.4 |
| 2026-06-25T03:50 | 47.59675 | -6.56618 | 8.055 | 28.3 |
| 2026-06-25T04:00 | 47.61602 | -6.55068 | 7.897 | 28.5 |
| 2026-06-25T04:10 | 47.63434 | -6.53589 | 7.514 | 28.6 |
| 2026-06-25T04:20 | 47.65264 | -6.52123 | 7.491 | 28.4 |
| 2026-06-25T04:30 | 47.67109 | -6.50641 | 7.556 | 28.5 |
| 2026-06-25T04:40 | 47.68881 | -6.49213 | 7.265 | 28.5 |
| 2026-06-25T04:50 | 47.70641 | -6.47794 | 7.214 | 28.6 |
| 2026-06-25T05:00 | 47.72376 | -6.46395 | 7.111 | 28.6 |
| 2026-06-25T05:10 | 47.74209 | -6.44919 | 7.510 | 28.5 |
| 2026-06-25T05:20 | 47.76088 | -6.43403 | 7.699 | 28.6 |
| 2026-06-25T05:30 | 47.77974 | -6.41888 | 7.722 | 28.4 |
| 2026-06-25T05:40 | 47.79883 | -6.40357 | 7.813 | 28.4 |
| 2026-06-25T05:50 | 47.81778 | -6.38805 | 7.792 | 28.9 |
| 2026-06-25T06:00 | 47.83678 | -6.37267 | 7.791 | 28.6 |
| 2026-06-25T06:10 | 47.85574 | -6.35734 | 7.772 | 28.6 |
| 2026-06-25T06:20 | 47.87453 | -6.34213 | 7.702 | 28.6 |
| 2026-06-25T06:30 | 47.89365 | -6.32657 | 7.846 | 28.7 |
| 2026-06-25T06:40 | 47.91281 | -6.31103 | 7.858 | 28.6 |
| 2026-06-25T06:50 | 47.93214 | -6.29526 | 7.935 | 28.7 |
| 2026-06-25T07:00 | 47.95186 | -6.27925 | 8.089 | 28.6 |
| 2026-06-25T07:10 | 47.97199 | -6.26285 | 8.261 | 28.7 |
| 2026-06-25T07:20 | 47.99254 | -6.24609 | 8.436 | 28.7 |
| 2026-06-25T07:30 | 48.01324 | -6.22917 | 8.500 | 28.7 |
| 2026-06-25T07:40 | 48.03408 | -6.21222 | 8.549 | 28.6 |
| 2026-06-25T07:50 | 48.05570 | -6.19463 | 8.865 | 28.6 |
| 2026-06-25T08:00 | 48.07681 | -6.17727 | 8.679 | 28.9 |
| 2026-06-25T08:10 | 48.09706 | -6.16066 | 8.319 | 28.8 |
| 2026-06-25T08:20 | 48.11739 | -6.14402 | 8.347 | 28.7 |
| 2026-06-25T08:30 | 48.13779 | -6.12719 | 8.393 | 28.9 |
| 2026-06-25T08:40 | 48.15826 | -6.11044 | 8.402 | 28.7 |
| 2026-06-25T08:50 | 48.17898 | -6.09346 | 8.506 | 28.7 |
| 2026-06-25T09:00 | 48.19984 | -6.07628 | 8.576 | 28.8 |
| 2026-06-25T09:10 | 48.22058 | -6.05919 | 8.523 | 28.8 |
| 2026-06-25T09:20 | 48.24125 | -6.04214 | 8.498 | 28.9 |
| 2026-06-25T09:30 | 48.26179 | -6.02520 | 8.446 | 28.8 |
| 2026-06-25T09:40 | 48.28288 | -6.00833 | 8.606 | 28.1 |
| 2026-06-25T09:50 | 48.30445 | -5.99167 | 8.737 | 27.3 |
| 2026-06-25T10:00 | 48.32614 | -5.97489 | 8.787 | 27.3 |
| 2026-06-25T10:10 | 48.34813 | -5.95784 | 8.914 | 27.3 |
| 2026-06-25T10:20 | 48.37030 | -5.94065 | 8.987 | 27.3 |
| 2026-06-25T10:30 | 48.39270 | -5.92321 | 9.084 | 27.4 |
| 2026-06-25T10:40 | 48.41496 | -5.90593 | 9.023 | 27.3 |
| 2026-06-25T10:50 | 48.43710 | -5.88867 | 8.981 | 27.4 |
| 2026-06-25T11:00 | 48.45896 | -5.87166 | 8.862 | 27.4 |
| 2026-06-25T11:10 | 48.48044 | -5.85486 | 8.717 | 27.5 |
| 2026-06-25T11:20 | 48.50201 | -5.83807 | 8.745 | 27.4 |
| 2026-06-25T11:30 | 48.52317 | -5.81990 | 8.772 | 29.7 |
| 2026-06-25T11:40 | 48.54398 | -5.80106 | 8.741 | 31.0 |
| 2026-06-25T11:50 | 48.56442 | -5.78168 | 8.698 | 32.2 |
| 2026-06-25T12:00 | 48.58450 | -5.76280 | 8.521 | 31.9 |
| 2026-06-25T12:10 | 48.60421 | -5.74429 | 8.360 | 31.9 |
| 2026-06-25T12:20 | 48.62408 | -5.72703 | 8.258 | 29.9 |
| 2026-06-25T12:30 | 48.64393 | -5.70970 | 8.260 | 30.1 |
| 2026-06-25T12:40 | 48.66382 | -5.69235 | 8.271 | 30.0 |
| 2026-06-25T12:50 | 48.68393 | -5.67472 | 8.371 | 30.1 |
| 2026-06-25T13:00 | 48.70417 | -5.65707 | 8.415 | 30.0 |
| 2026-06-25T13:10 | 48.72396 | -5.63874 | 8.360 | 31.5 |
| 2026-06-25T13:20 | 48.74256 | -5.61550 | 8.689 | 39.6 |
| 2026-06-25T13:30 | 48.75981 | -5.59030 | 8.637 | 44.0 |
| 2026-06-25T13:40 | 48.77315 | -5.56218 | 8.238 | 54.3 |
| 2026-06-25T13:50 | 48.78786 | -5.53604 | 8.171 | 49.6 |
| 2026-06-25T14:00 | 48.80141 | -5.50746 | 8.370 | 54.3 |
| 2026-06-25T14:10 | 48.81454 | -5.47651 | 8.746 | 57.3 |
| 2026-06-25T14:20 | 48.82823 | -5.44502 | 8.967 | 56.6 |
| 2026-06-25T14:30 | 48.84186 | -5.41357 | 8.941 | 56.7 |
| 2026-06-25T14:40 | 48.85566 | -5.38148 | 9.103 | 56.9 |
| 2026-06-25T14:50 | 48.86904 | -5.35001 | 8.896 | 57.2 |
| 2026-06-25T15:00 | 48.88266 | -5.31833 | 8.981 | 56.9 |
| 2026-06-25T15:10 | 48.89631 | -5.28662 | 8.992 | 56.9 |
| 2026-06-25T15:20 | 48.90953 | -5.25555 | 8.778 | 57.1 |
| 2026-06-25T15:30 | 48.92277 | -5.22462 | 8.754 | 57.0 |
| 2026-06-25T15:40 | 48.93587 | -5.19397 | 8.668 | 57.0 |
| 2026-06-25T15:50 | 48.94875 | -5.16381 | 8.526 | 57.0 |
| 2026-06-25T16:00 | 48.96189 | -5.13333 | 8.639 | 56.8 |
| 2026-06-25T16:10 | 48.97479 | -5.10315 | 8.532 | 57.0 |
| 2026-06-25T16:20 | 48.98770 | -5.07284 | 8.555 | 57.1 |
| 2026-06-25T16:30 | 49.00009 | -5.04379 | 8.205 | 57.0 |
| 2026-06-25T16:40 | 49.01224 | -5.01533 | 8.037 | 57.0 |
| 2026-06-25T16:50 | 49.02427 | -4.98718 | 7.952 | 57.0 |
| 2026-06-25T17:00 | 49.03617 | -4.95819 | 8.093 | 58.0 |
| 2026-06-25T17:10 | 49.04730 | -4.92875 | 8.039 | 60.1 |
| 2026-06-25T17:20 | 49.05773 | -4.90104 | 7.557 | 60.2 |
| 2026-06-25T17:30 | 49.06808 | -4.87395 | 7.415 | 59.8 |
| 2026-06-25T17:40 | 49.07865 | -4.84616 | 7.597 | 59.9 |
| 2026-06-25T17:50 | 49.08907 | -4.81878 | 7.485 | 59.9 |
| 2026-06-25T18:00 | 49.09946 | -4.79148 | 7.461 | 59.9 |
| 2026-06-25T18:10 | 49.10974 | -4.76428 | 7.421 | 60.1 |
| 2026-06-25T18:20 | 49.11986 | -4.73767 | 7.271 | 59.9 |
| 2026-06-25T18:30 | 49.12977 | -4.71147 | 7.145 | 60.0 |
| 2026-06-25T18:40 | 49.13986 | -4.68494 | 7.247 | 59.9 |
| 2026-06-25T18:50 | 49.15030 | -4.65733 | 7.528 | 60.0 |
| 2026-06-25T19:00 | 49.16026 | -4.63102 | 7.175 | 60.0 |
| 2026-06-25T19:10 | 49.17024 | -4.60479 | 7.161 | 59.9 |
| 2026-06-25T19:20 | 49.18049 | -4.57762 | 7.402 | 60.1 |
| 2026-06-25T19:30 | 49.19070 | -4.55047 | 7.388 | 60.1 |
| 2026-06-25T19:40 | 49.20113 | -4.52302 | 7.490 | 59.9 |
| 2026-06-25T19:50 | 49.21173 | -4.49515 | 7.603 | 59.9 |
| 2026-06-25T20:00 | 49.22222 | -4.46717 | 7.604 | 60.2 |
| 2026-06-25T20:10 | 49.23305 | -4.43841 | 7.824 | 60.1 |
| 2026-06-25T20:20 | 49.24430 | -4.40867 | 8.099 | 60.0 |
| 2026-06-25T20:30 | 49.25559 | -4.37885 | 8.120 | 60.0 |
| 2026-06-25T20:40 | 49.26660 | -4.34964 | 7.944 | 60.0 |
| 2026-06-25T20:50 | 49.27749 | -4.32082 | 7.843 | 60.0 |
| 2026-06-25T21:00 | 49.28839 | -4.29198 | 7.847 | 60.0 |
| 2026-06-25T21:10 | 49.29937 | -4.26285 | 7.920 | 60.0 |
| 2026-06-25T21:20 | 49.31035 | -4.23398 | 7.864 | 59.8 |
| 2026-06-25T21:30 | 49.32171 | -4.20401 | 8.156 | 59.9 |
| 2026-06-25T21:40 | 49.33272 | -4.17464 | 7.969 | 60.2 |
| 2026-06-25T21:50 | 49.34381 | -4.14560 | 7.914 | 59.7 |
| 2026-06-25T22:00 | 49.35469 | -4.11605 | 7.982 | 60.6 |
| 2026-06-25T22:10 | 49.36540 | -4.08663 | 7.921 | 60.9 |
| 2026-06-25T22:20 | 49.37564 | -4.05835 | 7.605 | 61.0 |
| 2026-06-25T22:30 | 49.38602 | -4.02954 | 7.737 | 61.1 |
| 2026-06-25T22:40 | 49.39705 | -3.99860 | 8.286 | 61.3 |
| 2026-06-25T22:50 | 49.40831 | -3.96776 | 8.306 | 60.8 |
| 2026-06-25T23:00 | 49.41921 | -3.93746 | 8.128 | 61.1 |
| 2026-06-25T23:10 | 49.43041 | -3.90700 | 8.216 | 60.6 |
| 2026-06-25T23:20 | 49.44178 | -3.87678 | 8.193 | 60.0 |
| 2026-06-25T23:30 | 49.45316 | -3.84664 | 8.178 | 59.9 |
| 2026-06-25T23:40 | 49.46470 | -3.81586 | 8.335 | 60.1 |
| 2026-06-25T23:50 | 49.47655 | -3.78517 | 8.372 | 59.3 |
| 2026-06-26T00:00 | 49.48862 | -3.75443 | 8.420 | 58.9 |
| 2026-06-26T00:10 | 49.50080 | -3.72336 | 8.506 | 59.0 |
| 2026-06-26T00:20 | 49.51308 | -3.69216 | 8.551 | 58.8 |
| 2026-06-26T00:30 | 49.52544 | -3.66048 | 8.658 | 59.1 |
| 2026-06-26T00:40 | 49.53793 | -3.62844 | 8.756 | 59.1 |
| 2026-06-26T00:50 | 49.55033 | -3.59657 | 8.700 | 59.1 |
| 2026-06-26T01:00 | 49.56292 | -3.56436 | 8.803 | 59.0 |
| 2026-06-26T01:10 | 49.57565 | -3.53182 | 8.894 | 59.0 |
| 2026-06-26T01:20 | 49.58865 | -3.49875 | 9.049 | 58.8 |
| 2026-06-26T01:30 | 49.60148 | -3.46573 | 9.006 | 59.1 |
| 2026-06-26T01:40 | 49.61447 | -3.43232 | 9.112 | 59.1 |
| 2026-06-26T01:50 | 49.62756 | -3.39872 | 9.166 | 59.0 |
| 2026-06-26T02:00 | 49.64056 | -3.36482 | 9.208 | 59.4 |
| 2026-06-26T02:10 | 49.65293 | -3.33052 | 9.176 | 60.9 |
| 2026-06-26T02:20 | 49.66562 | -3.29567 | 9.341 | 60.7 |
| 2026-06-26T02:30 | 49.67823 | -3.26048 | 9.396 | 61.1 |
| 2026-06-26T02:40 | 49.69070 | -3.22579 | 9.267 | 61.0 |
| 2026-06-26T02:50 | 49.70339 | -3.19069 | 9.385 | 60.9 |
| 2026-06-26T03:00 | 49.71599 | -3.15542 | 9.407 | 61.1 |
| 2026-06-26T03:10 | 49.72911 | -3.12039 | 9.445 | 60.0 |
| 2026-06-26T03:20 | 49.74233 | -3.08504 | 9.527 | 60.0 |
| 2026-06-26T03:30 | 49.75553 | -3.04986 | 9.486 | 59.9 |
| 2026-06-26T03:40 | 49.76883 | -3.01433 | 9.572 | 60.0 |
| 2026-06-26T03:50 | 49.78258 | -2.97873 | 9.667 | 59.2 |
| 2026-06-26T04:00 | 49.79656 | -2.94269 | 9.796 | 59.1 |
| 2026-06-26T04:10 | 49.81076 | -2.90557 | 10.053 | 59.4 |
| 2026-06-26T04:20 | 49.82491 | -2.86789 | 10.152 | 59.9 |
| 2026-06-26T04:30 | 49.83396 | -2.82714 | 10.036 | 71.0 |
| 2026-06-26T04:40 | 49.84136 | -2.78439 | 10.308 | 75.0 |
| 2026-06-26T04:50 | 49.84882 | -2.74129 | 10.392 | 75.0 |
| 2026-06-26T05:00 | 49.85623 | -2.69846 | 10.324 | 75.0 |
| 2026-06-26T05:10 | 49.86368 | -2.65549 | 10.358 | 75.0 |
| 2026-06-26T05:20 | 49.87122 | -2.61194 | 10.494 | 75.0 |
| 2026-06-26T05:30 | 49.87882 | -2.56809 | 10.569 | 75.0 |
| 2026-06-26T05:40 | 49.88644 | -2.52404 | 10.612 | 75.0 |
| 2026-06-26T05:50 | 49.89406 | -2.48005 | 10.596 | 75.0 |
| 2026-06-26T06:00 | 49.90173 | -2.43566 | 10.690 | 75.0 |
| 2026-06-26T06:10 | 49.90940 | -2.39135 | 10.671 | 75.0 |
| 2026-06-26T06:20 | 49.91705 | -2.34714 | 10.645 | 75.0 |
| 2026-06-26T06:30 | 49.92396 | -2.30298 | 10.565 | 76.4 |
| 2026-06-26T06:40 | 49.92853 | -2.25820 | 10.542 | 81.0 |
| 2026-06-26T06:50 | 49.93307 | -2.21362 | 10.492 | 81.0 |
| 2026-06-26T07:00 | 49.93616 | -2.17021 | 10.151 | 83.7 |
| 2026-06-26T07:10 | 49.93628 | -2.12847 | 9.705 | 89.7 |
| 2026-06-26T07:20 | 49.93624 | -2.08657 | 9.739 | 90.1 |
| 2026-06-26T07:30 | 49.94052 | -2.04516 | 9.749 | 80.9 |
| 2026-06-26T07:40 | 49.94650 | -2.00490 | 9.601 | 77.0 |
| 2026-06-26T07:50 | 49.95243 | -1.96501 | 9.514 | 77.0 |
| 2026-06-26T08:00 | 49.95833 | -1.92547 | 9.429 | 77.0 |
| 2026-06-26T08:10 | 49.96418 | -1.88614 | 9.379 | 77.0 |
| 2026-06-26T08:20 | 49.96992 | -1.84776 | 9.153 | 76.9 |
| 2026-06-26T08:30 | 49.97639 | -1.81042 | 8.980 | 74.9 |
| 2026-06-26T08:40 | 49.98269 | -1.77386 | 8.789 | 75.0 |
| 2026-06-26T08:50 | 49.98893 | -1.73787 | 8.654 | 74.9 |
| 2026-06-26T09:00 | 49.99501 | -1.70277 | 8.440 | 75.0 |
| 2026-06-26T09:10 | 50.00095 | -1.66834 | 8.275 | 75.0 |
| 2026-06-26T09:20 | 50.00693 | -1.63445 | 8.155 | 74.7 |
| 2026-06-26T09:30 | 50.01302 | -1.60137 | 7.985 | 74.1 |
| 2026-06-26T09:40 | 50.01905 | -1.56889 | 7.844 | 73.9 |
| 2026-06-26T09:50 | 50.02498 | -1.53726 | 7.645 | 73.8 |
| 2026-06-26T10:00 | 50.03108 | -1.50644 | 7.480 | 72.9 |
| 2026-06-26T10:10 | 50.03702 | -1.47642 | 7.285 | 72.9 |
| 2026-06-26T10:20 | 50.04283 | -1.44655 | 7.239 | 73.2 |
| 2026-06-26T10:30 | 50.04881 | -1.41594 | 7.419 | 73.1 |
| 2026-06-26T10:40 | 50.05487 | -1.38599 | 7.279 | 72.5 |
| 2026-06-26T10:50 | 50.06047 | -1.35740 | 6.930 | 73.0 |
| 2026-06-26T11:00 | 50.06605 | -1.32897 | 6.889 | 73.0 |
| 2026-06-26T11:10 | 50.07174 | -1.29965 | 7.100 | 73.2 |
| 2026-06-26T11:20 | 50.07763 | -1.26975 | 7.249 | 73.0 |
| 2026-06-26T11:30 | 50.08359 | -1.23972 | 7.282 | 72.8 |
| 2026-06-26T11:40 | 50.08928 | -1.21090 | 6.986 | 72.9 |
| 2026-06-26T11:50 | 50.09489 | -1.18230 | 6.929 | 73.0 |
| 2026-06-26T12:00 | 50.10054 | -1.15357 | 6.960 | 73.0 |
| 2026-06-26T12:10 | 50.10621 | -1.12464 | 7.005 | 73.0 |
| 2026-06-26T12:20 | 50.11197 | -1.09542 | 7.079 | 73.0 |
| 2026-06-26T12:30 | 50.11779 | -1.06587 | 7.158 | 73.0 |
| 2026-06-26T12:40 | 50.12365 | -1.03605 | 7.220 | 73.0 |
| 2026-06-26T12:50 | 50.12954 | -1.00594 | 7.287 | 73.1 |
| 2026-06-26T13:00 | 50.13549 | -0.97562 | 7.339 | 73.0 |
| 2026-06-26T13:10 | 50.14156 | -0.94473 | 7.478 | 73.0 |
| 2026-06-26T13:20 | 50.14776 | -0.91312 | 7.649 | 73.0 |
| 2026-06-26T13:30 | 50.15404 | -0.88123 | 7.720 | 73.0 |
| 2026-06-26T13:40 | 50.16038 | -0.84895 | 7.810 | 73.0 |
| 2026-06-26T13:50 | 50.16683 | -0.81617 | 7.931 | 73.0 |
| 2026-06-26T14:00 | 50.17335 | -0.78282 | 8.064 | 73.1 |
| 2026-06-26T14:10 | 50.18001 | -0.74893 | 8.197 | 73.0 |
| 2026-06-26T14:20 | 50.18680 | -0.71433 | 8.368 | 73.0 |
| 2026-06-26T14:30 | 50.19371 | -0.67908 | 8.523 | 73.0 |
| 2026-06-26T14:40 | 50.20058 | -0.64324 | 8.647 | 73.3 |
| 2026-06-26T14:50 | 50.20648 | -0.60638 | 8.781 | 76.0 |
| 2026-06-26T15:00 | 50.21248 | -0.56873 | 8.968 | 76.0 |
| 2026-06-26T15:10 | 50.21862 | -0.53053 | 9.101 | 75.9 |
| 2026-06-26T15:20 | 50.22480 | -0.49183 | 9.216 | 76.0 |
| 2026-06-26T15:30 | 50.23104 | -0.45270 | 9.317 | 76.0 |
| 2026-06-26T15:40 | 50.23739 | -0.41314 | 9.421 | 76.0 |
| 2026-06-26T15:50 | 50.24376 | -0.37314 | 9.520 | 76.0 |
| 2026-06-26T16:00 | 50.25022 | -0.33276 | 9.611 | 76.0 |
| 2026-06-26T16:10 | 50.25606 | -0.29171 | 9.712 | 77.5 |
| 2026-06-26T16:20 | 50.26175 | -0.25024 | 9.792 | 77.9 |
| 2026-06-26T16:30 | 50.26737 | -0.20894 | 9.746 | 78.0 |
| 2026-06-26T16:40 | 50.27301 | -0.16769 | 9.738 | 78.0 |
| 2026-06-26T16:50 | 50.27868 | -0.12611 | 9.812 | 78.0 |
| 2026-06-26T17:00 | 50.28442 | -0.08410 | 9.913 | 78.0 |
| 2026-06-26T17:10 | 50.29013 | -0.04172 | 9.995 | 78.1 |
| 2026-06-26T17:20 | 50.29664 | 0.00055 | 10.030 | 76.5 |
| 2026-06-26T17:30 | 50.30351 | 0.04324 | 10.155 | 75.9 |
| 2026-06-26T17:40 | 50.31042 | 0.08650 | 10.284 | 76.0 |
| 2026-06-26T17:50 | 50.31740 | 0.13012 | 10.369 | 76.0 |
| 2026-06-26T18:00 | 50.32493 | 0.17427 | 10.536 | 75.1 |
| 2026-06-26T18:10 | 50.33257 | 0.21881 | 10.633 | 75.0 |
| 2026-06-26T18:20 | 50.34028 | 0.26351 | 10.672 | 74.9 |
| 2026-06-26T18:30 | 50.34794 | 0.30800 | 10.619 | 74.9 |
| 2026-06-26T18:40 | 50.35551 | 0.35218 | 10.541 | 75.0 |
| 2026-06-26T18:50 | 50.36307 | 0.39630 | 10.523 | 75.0 |
| 2026-06-26T19:00 | 50.37055 | 0.43968 | 10.352 | 74.9 |
| 2026-06-26T19:10 | 50.37787 | 0.48255 | 10.220 | 75.0 |
| 2026-06-26T19:20 | 50.38518 | 0.52493 | 10.110 | 74.9 |
| 2026-06-26T19:30 | 50.39239 | 0.56721 | 10.076 | 75.0 |
| 2026-06-26T19:40 | 50.39958 | 0.60921 | 10.010 | 75.0 |
| 2026-06-26T19:50 | 50.40667 | 0.65055 | 9.855 | 75.0 |
| 2026-06-26T20:00 | 50.41373 | 0.69163 | 9.792 | 74.9 |
| 2026-06-26T20:10 | 50.42068 | 0.73236 | 9.701 | 75.0 |
| 2026-06-26T20:20 | 50.42765 | 0.77290 | 9.660 | 74.9 |
| 2026-06-26T20:30 | 50.43456 | 0.81332 | 9.626 | 75.0 |
| 2026-06-26T20:40 | 50.44149 | 0.85362 | 9.601 | 74.9 |
| 2026-06-26T20:50 | 50.44836 | 0.89381 | 9.569 | 75.0 |
| 2026-06-26T21:00 | 50.45524 | 0.93396 | 9.561 | 75.0 |
| 2026-06-26T21:10 | 50.46209 | 0.97394 | 9.518 | 75.0 |
| 2026-06-26T21:20 | 50.47281 | 1.01108 | 9.371 | 65.7 |
| 2026-06-26T21:30 | 50.49073 | 1.04213 | 9.622 | 47.9 |
| 2026-06-26T21:40 | 50.50848 | 1.07301 | 9.549 | 48.0 |
| 2026-06-26T21:50 | 50.52621 | 1.10387 | 9.540 | 48.0 |
| 2026-06-26T22:00 | 50.54380 | 1.13464 | 9.490 | 48.1 |
| 2026-06-26T22:10 | 50.56181 | 1.16446 | 9.428 | 46.5 |
| 2026-06-26T22:20 | 50.57999 | 1.19411 | 9.443 | 46.1 |
| 2026-06-26T22:30 | 50.59814 | 1.22430 | 9.521 | 46.6 |
| 2026-06-26T22:40 | 50.61581 | 1.25513 | 9.509 | 48.0 |
| 2026-06-26T22:50 | 50.63375 | 1.28587 | 9.560 | 47.4 |
| 2026-06-26T23:00 | 50.65203 | 1.31567 | 9.483 | 46.0 |
| 2026-06-26T23:10 | 50.67023 | 1.34520 | 9.416 | 45.9 |
| 2026-06-26T23:20 | 50.68975 | 1.37301 | 9.485 | 42.1 |
| 2026-06-26T23:30 | 50.71306 | 1.39214 | 9.468 | 27.5 |
| 2026-06-26T23:40 | 50.73914 | 1.40547 | 9.879 | 18.0 |
| 2026-06-26T23:50 | 50.76574 | 1.41908 | 10.071 | 18.0 |
| 2026-06-27T00:00 | 50.79249 | 1.43281 | 10.135 | 18.0 |
| 2026-06-27T00:10 | 50.81940 | 1.44657 | 10.186 | 18.0 |
| 2026-06-27T00:20 | 50.84658 | 1.46058 | 10.299 | 18.1 |
| 2026-06-27T00:30 | 50.87411 | 1.47474 | 10.431 | 18.0 |
| 2026-06-27T00:40 | 50.90024 | 1.49225 | 10.222 | 23.0 |
| 2026-06-27T00:50 | 50.92240 | 1.52049 | 10.251 | 38.9 |
| 2026-06-27T01:00 | 50.94400 | 1.54821 | 10.016 | 39.0 |
| 2026-06-27T01:10 | 50.96397 | 1.57650 | 9.653 | 41.8 |
| 2026-06-27T01:20 | 50.98302 | 1.60375 | 9.248 | 42.1 |
| 2026-06-27T01:30 | 51.00202 | 1.63084 | 9.207 | 42.0 |
| 2026-06-27T01:40 | 51.02072 | 1.65747 | 9.056 | 41.9 |
| 2026-06-27T01:50 | 51.03911 | 1.68423 | 8.991 | 42.5 |
| 2026-06-27T02:00 | 51.05666 | 1.71113 | 8.789 | 44.0 |
| 2026-06-27T02:10 | 51.07401 | 1.73762 | 8.672 | 43.9 |
| 2026-06-27T02:20 | 51.09093 | 1.76357 | 8.475 | 44.0 |
| 2026-06-27T02:30 | 51.10747 | 1.78888 | 8.274 | 43.9 |
| 2026-06-27T02:40 | 51.12401 | 1.81426 | 8.284 | 44.0 |
| 2026-06-27T02:50 | 51.14063 | 1.83974 | 8.318 | 44.0 |
| 2026-06-27T03:00 | 51.15744 | 1.86536 | 8.390 | 43.8 |
| 2026-06-27T03:10 | 51.17329 | 1.89238 | 8.369 | 47.0 |
| 2026-06-27T03:20 | 51.18414 | 1.92462 | 8.281 | 61.8 |
| 2026-06-27T03:30 | 51.19466 | 1.95620 | 8.092 | 62.1 |
| 2026-06-27T03:40 | 51.20505 | 1.98747 | 8.006 | 62.1 |
| 2026-06-27T03:50 | 51.21544 | 2.01865 | 7.986 | 62.0 |
| 2026-06-27T04:00 | 51.22574 | 2.04954 | 7.910 | 62.0 |
| 2026-06-27T04:10 | 51.23959 | 2.07458 | 7.549 | 48.6 |
| 2026-06-27T04:20 | 51.25706 | 2.09480 | 7.777 | 36.0 |
| 2026-06-27T04:30 | 51.27561 | 2.11126 | 7.650 | 29.1 |
| 2026-06-27T04:40 | 51.29413 | 2.12761 | 7.626 | 29.0 |
| 2026-06-27T04:50 | 51.31156 | 2.14301 | 7.178 | 29.0 |
| 2026-06-27T05:00 | 51.32827 | 2.15786 | 6.889 | 29.1 |
| 2026-06-27T05:10 | 51.34668 | 2.17004 | 7.180 | 22.5 |
| 2026-06-27T05:20 | 51.36600 | 2.18254 | 7.509 | 22.1 |
| 2026-06-27T05:30 | 51.38438 | 2.19563 | 7.249 | 24.0 |
| 2026-06-27T05:40 | 51.40193 | 2.20992 | 7.094 | 27.0 |
| 2026-06-27T05:50 | 51.41915 | 2.22395 | 6.962 | 27.0 |
| 2026-06-27T06:00 | 51.43669 | 2.23821 | 7.090 | 26.9 |
| 2026-06-27T06:10 | 51.45491 | 2.25310 | 7.370 | 27.0 |
| 2026-06-27T06:20 | 51.47359 | 2.26847 | 7.566 | 27.2 |
| 2026-06-27T06:30 | 51.49159 | 2.28302 | 7.263 | 26.8 |
| 2026-06-27T06:40 | 51.50905 | 2.29718 | 7.049 | 26.8 |
| 2026-06-27T06:50 | 51.52588 | 2.31394 | 7.139 | 31.8 |
| 2026-06-27T07:00 | 51.54246 | 2.33395 | 7.476 | 37.0 |
| 2026-06-27T07:10 | 51.55918 | 2.35452 | 7.591 | 37.5 |
| 2026-06-27T07:20 | 51.57613 | 2.37579 | 7.751 | 38.0 |
| 2026-06-27T07:30 | 51.59320 | 2.39721 | 7.807 | 38.0 |
| 2026-06-27T07:40 | 51.61032 | 2.41876 | 7.835 | 38.1 |
| 2026-06-27T07:50 | 51.62741 | 2.44016 | 7.808 | 37.9 |
| 2026-06-27T08:00 | 51.64485 | 2.46213 | 7.982 | 38.1 |
| 2026-06-27T08:10 | 51.66189 | 2.48497 | 7.992 | 39.8 |
| 2026-06-27T08:20 | 51.67905 | 2.50813 | 8.070 | 40.0 |
| 2026-06-27T08:30 | 51.69657 | 2.53170 | 8.230 | 39.9 |
| 2026-06-27T08:40 | 51.71430 | 2.55565 | 8.338 | 40.0 |
| 2026-06-27T08:50 | 51.73216 | 2.57978 | 8.398 | 40.0 |
| 2026-06-27T09:00 | 51.74978 | 2.60364 | 8.294 | 40.0 |
| 2026-06-27T09:10 | 51.76754 | 2.62773 | 8.365 | 40.1 |
| 2026-06-27T09:20 | 51.78542 | 2.65199 | 8.420 | 40.1 |
| 2026-06-27T09:30 | 51.80374 | 2.67681 | 8.619 | 40.0 |
| 2026-06-27T09:40 | 51.82234 | 2.70200 | 8.749 | 40.0 |
| 2026-06-27T09:50 | 51.84128 | 2.72762 | 8.903 | 40.0 |
| 2026-06-27T10:00 | 51.86042 | 2.75360 | 9.008 | 40.1 |
| 2026-06-27T10:10 | 51.88007 | 2.78034 | 9.256 | 40.1 |
| 2026-06-27T10:20 | 51.90007 | 2.80728 | 9.380 | 39.8 |
| 2026-06-27T10:30 | 51.92008 | 2.83431 | 9.395 | 39.9 |
| 2026-06-27T10:40 | 51.94028 | 2.86166 | 9.492 | 39.9 |
| 2026-06-27T10:50 | 51.96078 | 2.88945 | 9.635 | 39.9 |
| 2026-06-27T11:00 | 51.98019 | 2.91575 | 9.117 | 39.9 |
| 2026-06-27T11:10 | 52.00059 | 2.94337 | 9.577 | 39.9 |
| 2026-06-27T11:20 | 52.02127 | 2.97151 | 9.732 | 40.0 |
| 2026-06-27T11:30 | 52.04210 | 2.99983 | 9.794 | 40.0 |
| 2026-06-27T11:40 | 52.06306 | 3.02833 | 9.853 | 40.0 |
| 2026-06-27T11:50 | 52.08418 | 3.05703 | 9.926 | 39.9 |
| 2026-06-27T12:00 | 52.10540 | 3.08594 | 9.979 | 40.0 |
| 2026-06-27T12:10 | 52.12677 | 3.11518 | 10.068 | 40.1 |
| 2026-06-27T12:20 | 52.14811 | 3.14426 | 10.033 | 40.0 |
| 2026-06-27T12:30 | 52.16940 | 3.17339 | 10.025 | 40.1 |
| 2026-06-27T12:40 | 52.19102 | 3.20285 | 10.160 | 40.0 |
| 2026-06-27T12:50 | 52.21070 | 3.23490 | 10.032 | 45.0 |
| 2026-06-27T13:00 | 52.23029 | 3.26677 | 9.978 | 45.0 |
| 2026-06-27T13:10 | 52.24977 | 3.29854 | 9.932 | 45.0 |
| 2026-06-27T13:20 | 52.26915 | 3.33007 | 9.867 | 44.9 |
| 2026-06-27T13:30 | 52.28849 | 3.36160 | 9.855 | 45.0 |
| 2026-06-27T13:40 | 52.30771 | 3.39293 | 9.789 | 45.0 |
| 2026-06-27T13:50 | 52.32685 | 3.42424 | 9.764 | 45.1 |
| 2026-06-27T14:00 | 52.34598 | 3.45539 | 9.736 | 44.9 |
| 2026-06-27T14:10 | 52.36496 | 3.48646 | 9.683 | 45.0 |
| 2026-06-27T14:20 | 52.38385 | 3.51728 | 9.617 | 44.9 |
| 2026-06-27T14:30 | 52.40259 | 3.54789 | 9.546 | 45.0 |
| 2026-06-27T14:40 | 52.42132 | 3.57854 | 9.550 | 45.0 |
| 2026-06-27T14:50 | 52.44000 | 3.60910 | 9.518 | 45.0 |
| 2026-06-27T15:00 | 52.45854 | 3.63951 | 9.456 | 45.1 |
| 2026-06-27T15:10 | 52.47696 | 3.66966 | 9.385 | 45.0 |
| 2026-06-27T15:20 | 52.49524 | 3.69954 | 9.303 | 44.9 |
| 2026-06-27T15:30 | 52.51336 | 3.72927 | 9.240 | 45.0 |
| 2026-06-27T15:40 | 52.53138 | 3.75886 | 9.189 | 45.0 |
| 2026-06-27T15:50 | 52.54931 | 3.78822 | 9.129 | 45.0 |
| 2026-06-27T16:00 | 52.56720 | 3.81754 | 9.111 | 45.0 |
| 2026-06-27T16:10 | 52.58492 | 3.84666 | 9.034 | 45.0 |
| 2026-06-27T16:20 | 52.60250 | 3.87557 | 8.965 | 45.0 |
| 2026-06-27T16:30 | 52.61981 | 3.90407 | 8.830 | 45.0 |
| 2026-06-27T16:40 | 52.63692 | 3.93229 | 8.733 | 45.1 |
| 2026-06-27T16:50 | 52.65406 | 3.96057 | 8.750 | 45.1 |
| 2026-06-27T17:00 | 52.67126 | 3.98887 | 8.768 | 45.0 |
| 2026-06-27T17:10 | 52.68737 | 4.01831 | 8.675 | 48.0 |
| 2026-06-27T17:20 | 52.70274 | 4.04843 | 8.611 | 50.0 |
| 2026-06-27T17:30 | 52.71773 | 4.07789 | 8.411 | 50.0 |
| 2026-06-27T17:40 | 52.73235 | 4.10669 | 8.214 | 50.1 |
| 2026-06-27T17:50 | 52.74714 | 4.13581 | 8.303 | 50.1 |
| 2026-06-27T18:00 | 52.76194 | 4.16492 | 8.302 | 50.0 |
| 2026-06-27T18:10 | 52.77934 | 4.18820 | 8.077 | 39.0 |
| 2026-06-27T18:20 | 52.79748 | 4.21075 | 8.184 | 37.0 |
| 2026-06-27T18:30 | 52.81511 | 4.23262 | 7.947 | 36.9 |
| 2026-06-27T18:40 | 52.83234 | 4.25411 | 7.780 | 37.1 |
| 2026-06-27T18:50 | 52.85113 | 4.27088 | 7.697 | 28.4 |
| 2026-06-27T19:00 | 52.87101 | 4.28478 | 7.777 | 22.9 |
| 2026-06-27T19:10 | 52.89119 | 4.29896 | 7.903 | 23.0 |
| 2026-06-27T19:20 | 52.91131 | 4.31314 | 7.881 | 23.1 |
| 2026-06-27T19:30 | 52.93135 | 4.32721 | 7.845 | 23.0 |
| 2026-06-27T19:40 | 52.95127 | 4.34118 | 7.795 | 22.9 |
| 2026-06-27T19:50 | 52.97126 | 4.35516 | 7.822 | 22.9 |
| 2026-06-27T20:00 | 52.99077 | 4.37219 | 7.945 | 27.8 |
| 2026-06-27T20:10 | 53.01021 | 4.39160 | 8.179 | 31.1 |
| 2026-06-27T20:20 | 53.02949 | 4.41085 | 8.110 | 31.1 |
| 2026-06-27T20:30 | 53.04868 | 4.43008 | 8.077 | 31.1 |
| 2026-06-27T20:40 | 53.06778 | 4.44906 | 8.021 | 30.9 |
| 2026-06-27T20:50 | 53.08666 | 4.46791 | 7.939 | 31.0 |
| 2026-06-27T21:00 | 53.10533 | 4.48642 | 7.835 | 30.8 |
| 2026-06-27T21:10 | 53.12390 | 4.50505 | 7.815 | 31.1 |
| 2026-06-27T21:20 | 53.14251 | 4.52368 | 7.829 | 31.0 |
| 2026-06-27T21:30 | 53.16095 | 4.54218 | 7.758 | 31.1 |
| 2026-06-27T21:40 | 53.17909 | 4.56019 | 7.612 | 30.8 |
| 2026-06-27T21:50 | 53.19758 | 4.57616 | 7.507 | 27.4 |
| 2026-06-27T22:00 | 53.21725 | 4.59077 | 7.762 | 24.0 |
| 2026-06-27T22:10 | 53.23699 | 4.60549 | 7.792 | 24.1 |
| 2026-06-27T22:20 | 53.25659 | 4.61985 | 7.717 | 23.7 |
| 2026-06-27T22:30 | 53.27611 | 4.63426 | 7.691 | 23.9 |
| 2026-06-27T22:40 | 53.29552 | 4.64866 | 7.653 | 24.0 |
| 2026-06-27T22:50 | 53.31490 | 4.66306 | 7.646 | 24.0 |
| 2026-06-27T23:00 | 53.33441 | 4.67757 | 7.696 | 24.0 |
| 2026-06-27T23:10 | 53.35418 | 4.69236 | 7.807 | 24.1 |
| 2026-06-27T23:20 | 53.37402 | 4.70717 | 7.829 | 24.1 |
| 2026-06-27T23:30 | 53.39047 | 4.72707 | 7.316 | 35.9 |
| 2026-06-27T23:40 | 53.40069 | 4.75717 | 7.456 | 60.4 |
| 2026-06-27T23:50 | 53.40985 | 4.78758 | 7.333 | 63.2 |
| 2026-06-28T00:00 | 53.41800 | 4.81825 | 7.229 | 66.0 |
| 2026-06-28T00:10 | 53.42607 | 4.84861 | 7.152 | 66.0 |
| 2026-06-28T00:20 | 53.43432 | 4.87956 | 7.294 | 65.9 |
| 2026-06-28T00:30 | 53.44284 | 4.91164 | 7.556 | 66.0 |
| 2026-06-28T00:40 | 53.45166 | 4.94473 | 7.795 | 65.9 |
| 2026-06-28T00:50 | 53.45974 | 4.97937 | 8.000 | 68.6 |
| 2026-06-28T01:00 | 53.46708 | 5.01490 | 8.087 | 70.9 |
| 2026-06-28T01:10 | 53.47448 | 5.05094 | 8.196 | 71.0 |
| 2026-06-28T01:20 | 53.48198 | 5.08757 | 8.326 | 71.0 |
| 2026-06-28T01:30 | 53.48966 | 5.12472 | 8.451 | 70.9 |
| 2026-06-28T01:40 | 53.49719 | 5.16163 | 8.383 | 71.1 |
| 2026-06-28T01:50 | 53.50484 | 5.19869 | 8.427 | 70.9 |
| 2026-06-28T02:00 | 53.51252 | 5.23651 | 8.583 | 71.2 |
| 2026-06-28T02:10 | 53.52059 | 5.27552 | 8.868 | 70.9 |
| 2026-06-28T02:20 | 53.52867 | 5.31506 | 8.978 | 71.0 |
| 2026-06-28T02:30 | 53.53702 | 5.35555 | 9.199 | 70.9 |
| 2026-06-28T02:40 | 53.54561 | 5.39724 | 9.470 | 70.9 |
| 2026-06-28T02:50 | 53.55409 | 5.43998 | 9.667 | 71.6 |
| 2026-06-28T03:00 | 53.56283 | 5.48255 | 9.662 | 71.0 |
| 2026-06-28T03:10 | 53.57171 | 5.52548 | 9.751 | 70.8 |
| 2026-06-28T03:20 | 53.58072 | 5.56890 | 9.863 | 70.8 |
| 2026-06-28T03:30 | 53.58968 | 5.61253 | 9.897 | 71.0 |
| 2026-06-28T03:40 | 53.59853 | 5.65600 | 9.852 | 71.1 |
| 2026-06-28T03:50 | 53.60733 | 5.69937 | 9.822 | 71.2 |
| 2026-06-28T04:00 | 53.61579 | 5.74215 | 9.661 | 71.6 |
| 2026-06-28T04:10 | 53.62373 | 5.78445 | 9.504 | 72.5 |
| 2026-06-28T04:20 | 53.62930 | 5.81633 | 7.120 | 73.6 |
| 2026-06-28T04:30 | 53.63239 | 5.83507 | 4.166 | 74.5 |
| 2026-06-28T04:40 | 53.64068 | 5.87718 | 9.501 | 71.7 |
| 2026-06-28T04:50 | 53.64949 | 5.92280 | 10.271 | 72.0 |
| 2026-06-28T05:00 | 53.65851 | 5.96932 | 10.476 | 71.9 |
| 2026-06-28T05:10 | 53.66729 | 6.01515 | 10.308 | 72.1 |
| 2026-06-28T05:20 | 53.67590 | 6.05966 | 10.017 | 71.9 |
| 2026-06-28T05:30 | 53.67728 | 6.10140 | 8.946 | 86.8 |
| 2026-06-28T05:40 | 53.67193 | 6.14226 | 8.952 | 102.4 |
| 2026-06-28T05:50 | 53.66661 | 6.18321 | 8.972 | 102.3 |
| 2026-06-28T06:00 | 53.66119 | 6.22459 | 9.070 | 102.4 |
| 2026-06-28T06:10 | 53.65346 | 6.26492 | 9.071 | 107.9 |
| 2026-06-28T06:20 | 53.64428 | 6.30443 | 9.084 | 111.4 |
| 2026-06-28T06:30 | 53.63294 | 6.35799 | 12.178 | 109.6 |
| 2026-06-28T06:40 | 53.62311 | 6.41236 | 12.173 | 106.9 |
| 2026-06-28T06:50 | 53.61488 | 6.46824 | 12.336 | 103.9 |
| 2026-06-28T07:00 | 53.61296 | 6.52681 | 12.570 | 93.1 |
| 2026-06-28T07:10 | 53.59947 | 6.58058 | 12.508 | 112.8 |
| 2026-06-28T07:20 | 53.57752 | 6.62911 | 13.071 | 127.2 |
| 2026-06-28T07:30 | 53.55560 | 6.67898 | 13.298 | 126.4 |
| 2026-06-28T07:40 | 53.53412 | 6.72881 | 13.205 | 125.9 |
| 2026-06-28T07:50 | 53.51273 | 6.77811 | 13.095 | 126.0 |
| 2026-06-28T07:59 | 53.48913 | 6.82171 | 12.934 | 132.2 |
